<?xml version="1.0" encoding="utf-8"?>
<gpx xmlns:xsi="http://www.w3.org/2001/XMLSchema-instance" xmlns:xsd="http://www.w3.org/2001/XMLSchema" version="1.1" creator="Shapelink.com" xmlns="http://www.topografix.com/GPX/1/1" xmlns:gpxtpx="http://www.garmin.com/xmlschemas/TrackPointExtension/v1">
  <metadata>
    <name>Löpning 7.46 km, 2017-11-20</name>
    <desc></desc>
    <author><name>Bengt-Åke Forslund</name></author> 
    <time>2017-11-20T18:01:20Z</time>
  </metadata>
  <trk>
    <name>Löpning 7.46 km, 2017-11-20</name>
    <trkseg>
      <trkpt lat="62.637296395003" lon="17.966280952678">
        <ele>59.4</ele>
        <time>2017-11-20T18:01:20Z</time>
      </trkpt>
      <trkpt lat="62.637295975908" lon="17.966248598544">
        <ele>59.4</ele>
        <time>2017-11-20T18:01:21Z</time>
      </trkpt>
      <trkpt lat="62.637298406659" lon="17.966228733441">
        <ele>59.4</ele>
        <time>2017-11-20T18:01:22Z</time>
      </trkpt>
      <trkpt lat="62.637300418315" lon="17.966209371252">
        <ele>59.4</ele>
        <time>2017-11-20T18:01:23Z</time>
      </trkpt>
      <trkpt lat="62.637307626749" lon="17.966192439814">
        <ele>59.4</ele>
        <time>2017-11-20T18:01:24Z</time>
      </trkpt>
      <trkpt lat="62.637314667545" lon="17.966180621335">
        <ele>59.4</ele>
        <time>2017-11-20T18:01:25Z</time>
      </trkpt>
      <trkpt lat="62.637324809644" lon="17.966166623562">
        <ele>59.4</ele>
        <time>2017-11-20T18:01:26Z</time>
      </trkpt>
      <trkpt lat="62.637330676974" lon="17.966145082079">
        <ele>59.4</ele>
        <time>2017-11-20T18:01:27Z</time>
      </trkpt>
      <trkpt lat="62.637322295074" lon="17.966157487291">
        <ele>59.4</ele>
        <time>2017-11-20T18:01:28Z</time>
      </trkpt>
      <trkpt lat="62.637322043617" lon="17.966147931925">
        <ele>59.4</ele>
        <time>2017-11-20T18:01:29Z</time>
      </trkpt>
      <trkpt lat="62.637401168753" lon="17.96629838703">
        <ele>58.6</ele>
        <time>2017-11-20T18:02:29Z</time>
      </trkpt>
      <trkpt lat="62.637410975576" lon="17.966312552441">
        <ele>58.6</ele>
        <time>2017-11-20T18:02:30Z</time>
      </trkpt>
      <trkpt lat="62.637400330563" lon="17.966299057582">
        <ele>58.6</ele>
        <time>2017-11-20T18:02:31Z</time>
      </trkpt>
      <trkpt lat="62.6372262385" lon="17.966177855308">
        <ele>58.6</ele>
        <time>2017-11-20T18:03:24Z</time>
      </trkpt>
      <trkpt lat="62.637221628455" lon="17.966153547798">
        <ele>58.4</ele>
        <time>2017-11-20T18:03:25Z</time>
      </trkpt>
      <trkpt lat="62.637224143025" lon="17.966137370731">
        <ele>58.4</ele>
        <time>2017-11-20T18:03:26Z</time>
      </trkpt>
      <trkpt lat="62.63721701841" lon="17.966124630243">
        <ele>58.2</ele>
        <time>2017-11-20T18:03:27Z</time>
      </trkpt>
      <trkpt lat="62.637225065034" lon="17.966115242515">
        <ele>58.4</ele>
        <time>2017-11-20T18:03:28Z</time>
      </trkpt>
      <trkpt lat="62.637224813577" lon="17.966116164524">
        <ele>58.4</ele>
        <time>2017-11-20T18:03:29Z</time>
      </trkpt>
      <trkpt lat="62.637230932364" lon="17.966105435692">
        <ele>58.6</ele>
        <time>2017-11-20T18:03:30Z</time>
      </trkpt>
      <trkpt lat="62.637233949848" lon="17.966103256398">
        <ele>58.8</ele>
        <time>2017-11-20T18:03:31Z</time>
      </trkpt>
      <trkpt lat="62.637238140798" lon="17.966103759312">
        <ele>59</ele>
        <time>2017-11-20T18:03:32Z</time>
      </trkpt>
      <trkpt lat="62.637228250156" lon="17.966108369357">
        <ele>59</ele>
        <time>2017-11-20T18:03:33Z</time>
      </trkpt>
      <trkpt lat="62.637131774487" lon="17.965559019631">
        <ele>58.6</ele>
        <time>2017-11-20T18:04:35Z</time>
      </trkpt>
      <trkpt lat="62.637115010687" lon="17.965521468719">
        <ele>58.4</ele>
        <time>2017-11-20T18:04:36Z</time>
      </trkpt>
      <trkpt lat="62.637098582163" lon="17.965487689662">
        <ele>58.4</ele>
        <time>2017-11-20T18:04:37Z</time>
      </trkpt>
      <trkpt lat="62.637085087304" lon="17.965459275021">
        <ele>58.4</ele>
        <time>2017-11-20T18:04:38Z</time>
      </trkpt>
      <trkpt lat="62.63707368792" lon="17.965432452941">
        <ele>58.4</ele>
        <time>2017-11-20T18:04:39Z</time>
      </trkpt>
      <trkpt lat="62.637063378183" lon="17.965400350264">
        <ele>58.4</ele>
        <time>2017-11-20T18:04:40Z</time>
      </trkpt>
      <trkpt lat="62.637050386238" lon="17.965359195135">
        <ele>58.4</ele>
        <time>2017-11-20T18:04:41Z</time>
      </trkpt>
      <trkpt lat="62.637035717913" lon="17.96530680826">
        <ele>58.2</ele>
        <time>2017-11-20T18:04:42Z</time>
      </trkpt>
      <trkpt lat="62.637022893606" lon="17.965261210724">
        <ele>58.2</ele>
        <time>2017-11-20T18:04:43Z</time>
      </trkpt>
      <trkpt lat="62.637010404575" lon="17.965221145242">
        <ele>58.2</ele>
        <time>2017-11-20T18:04:44Z</time>
      </trkpt>
      <trkpt lat="62.6369999272" lon="17.965191389497">
        <ele>58.2</ele>
        <time>2017-11-20T18:04:45Z</time>
      </trkpt>
      <trkpt lat="62.636985091237" lon="17.965142606839">
        <ele>58.2</ele>
        <time>2017-11-20T18:04:46Z</time>
      </trkpt>
      <trkpt lat="62.636978553355" lon="17.965118634605">
        <ele>58.4</ele>
        <time>2017-11-20T18:04:47Z</time>
      </trkpt>
      <trkpt lat="62.636965142315" lon="17.965065074264">
        <ele>58.4</ele>
        <time>2017-11-20T18:04:48Z</time>
      </trkpt>
      <trkpt lat="62.636950390171" lon="17.965022410393">
        <ele>58.4</ele>
        <time>2017-11-20T18:04:49Z</time>
      </trkpt>
      <trkpt lat="62.636938320235" lon="17.964981841997">
        <ele>58.4</ele>
        <time>2017-11-20T18:04:50Z</time>
      </trkpt>
      <trkpt lat="62.636923484272" lon="17.964930796226">
        <ele>58.6</ele>
        <time>2017-11-20T18:04:51Z</time>
      </trkpt>
      <trkpt lat="62.636908396852" lon="17.964879498998">
        <ele>58.6</ele>
        <time>2017-11-20T18:04:52Z</time>
      </trkpt>
      <trkpt lat="62.63689347707" lon="17.964840271706">
        <ele>58.6</ele>
        <time>2017-11-20T18:04:53Z</time>
      </trkpt>
      <trkpt lat="62.63687168413" lon="17.964792327238">
        <ele>58.6</ele>
        <time>2017-11-20T18:04:54Z</time>
      </trkpt>
      <trkpt lat="62.63685240576" lon="17.964761398027">
        <ele>58.6</ele>
        <time>2017-11-20T18:04:55Z</time>
      </trkpt>
      <trkpt lat="62.6368322892" lon="17.964712699188">
        <ele>58.8</ele>
        <time>2017-11-20T18:04:56Z</time>
      </trkpt>
      <trkpt lat="62.636814100477" lon="17.964664670901">
        <ele>58.8</ele>
        <time>2017-11-20T18:04:57Z</time>
      </trkpt>
      <trkpt lat="62.636800102704" lon="17.964625443609">
        <ele>58.8</ele>
        <time>2017-11-20T18:04:58Z</time>
      </trkpt>
      <trkpt lat="62.636784093275" lon="17.964583617928">
        <ele>58.8</ele>
        <time>2017-11-20T18:04:59Z</time>
      </trkpt>
      <trkpt lat="62.636771268968" lon="17.964546653749">
        <ele>58.8</ele>
        <time>2017-11-20T18:05:00Z</time>
      </trkpt>
      <trkpt lat="62.636755846272" lon="17.964494099236">
        <ele>58.6</ele>
        <time>2017-11-20T18:05:01Z</time>
      </trkpt>
      <trkpt lat="62.636741513223" lon="17.964448753157">
        <ele>58.6</ele>
        <time>2017-11-20T18:05:02Z</time>
      </trkpt>
      <trkpt lat="62.636724917061" lon="17.964404496725">
        <ele>58.6</ele>
        <time>2017-11-20T18:05:03Z</time>
      </trkpt>
      <trkpt lat="62.636708153261" lon="17.964354372963">
        <ele>58.6</ele>
        <time>2017-11-20T18:05:04Z</time>
      </trkpt>
      <trkpt lat="62.636692730565" lon="17.964311122359">
        <ele>58.6</ele>
        <time>2017-11-20T18:05:05Z</time>
      </trkpt>
      <trkpt lat="62.636675463851" lon="17.964259573674">
        <ele>58.6</ele>
        <time>2017-11-20T18:05:06Z</time>
      </trkpt>
      <trkpt lat="62.63666046025" lon="17.964204085496">
        <ele>58.4</ele>
        <time>2017-11-20T18:05:07Z</time>
      </trkpt>
      <trkpt lat="62.63664537283" lon="17.964167205136">
        <ele>58.4</ele>
        <time>2017-11-20T18:05:08Z</time>
      </trkpt>
      <trkpt lat="62.636628357573" lon="17.964117249012">
        <ele>58.4</ele>
        <time>2017-11-20T18:05:09Z</time>
      </trkpt>
      <trkpt lat="62.636614695076" lon="17.964073495494">
        <ele>58.4</ele>
        <time>2017-11-20T18:05:10Z</time>
      </trkpt>
      <trkpt lat="62.63659927238" lon="17.964029155243">
        <ele>58.4</ele>
        <time>2017-11-20T18:05:11Z</time>
      </trkpt>
      <trkpt lat="62.636579910191" lon="17.963970984857">
        <ele>58.4</ele>
        <time>2017-11-20T18:05:12Z</time>
      </trkpt>
      <trkpt lat="62.636568343169" lon="17.963928991538">
        <ele>58.4</ele>
        <time>2017-11-20T18:05:13Z</time>
      </trkpt>
      <trkpt lat="62.63655484831" lon="17.963888171685">
        <ele>58.4</ele>
        <time>2017-11-20T18:05:14Z</time>
      </trkpt>
      <trkpt lat="62.63654311365" lon="17.963848525298">
        <ele>58.4</ele>
        <time>2017-11-20T18:05:15Z</time>
      </trkpt>
      <trkpt lat="62.636529786429" lon="17.963803346857">
        <ele>58.2</ele>
        <time>2017-11-20T18:05:16Z</time>
      </trkpt>
      <trkpt lat="62.636516626846" lon="17.963770070714">
        <ele>58.2</ele>
        <time>2017-11-20T18:05:17Z</time>
      </trkpt>
      <trkpt lat="62.636494750087" lon="17.963753474552">
        <ele>58.2</ele>
        <time>2017-11-20T18:05:18Z</time>
      </trkpt>
      <trkpt lat="62.636472789509" lon="17.963765712126">
        <ele>58.2</ele>
        <time>2017-11-20T18:05:19Z</time>
      </trkpt>
      <trkpt lat="62.636453259682" lon="17.963786666876">
        <ele>58</ele>
        <time>2017-11-20T18:05:20Z</time>
      </trkpt>
      <trkpt lat="62.63643498714" lon="17.963813572775">
        <ele>58</ele>
        <time>2017-11-20T18:05:21Z</time>
      </trkpt>
      <trkpt lat="62.636417804245" lon="17.96383829938">
        <ele>58</ele>
        <time>2017-11-20T18:05:22Z</time>
      </trkpt>
      <trkpt lat="62.636398525875" lon="17.963863780356">
        <ele>58</ele>
        <time>2017-11-20T18:05:23Z</time>
      </trkpt>
      <trkpt lat="62.636381175342" lon="17.963890770074">
        <ele>58</ele>
        <time>2017-11-20T18:05:24Z</time>
      </trkpt>
      <trkpt lat="62.636362651343" lon="17.963916670145">
        <ele>58</ele>
        <time>2017-11-20T18:05:25Z</time>
      </trkpt>
      <trkpt lat="62.636341277498" lon="17.963945420062">
        <ele>58</ele>
        <time>2017-11-20T18:05:26Z</time>
      </trkpt>
      <trkpt lat="62.636323172594" lon="17.963973834703">
        <ele>58</ele>
        <time>2017-11-20T18:05:27Z</time>
      </trkpt>
      <trkpt lat="62.636301966387" lon="17.964000656783">
        <ele>58</ele>
        <time>2017-11-20T18:05:28Z</time>
      </trkpt>
      <trkpt lat="62.636282520379" lon="17.964027478863">
        <ele>58.2</ele>
        <time>2017-11-20T18:05:29Z</time>
      </trkpt>
      <trkpt lat="62.636265253665" lon="17.964043739749">
        <ele>58.2</ele>
        <time>2017-11-20T18:05:30Z</time>
      </trkpt>
      <trkpt lat="62.636239018318" lon="17.964068717811">
        <ele>58.2</ele>
        <time>2017-11-20T18:05:31Z</time>
      </trkpt>
      <trkpt lat="62.636219488491" lon="17.964091516579">
        <ele>58.2</ele>
        <time>2017-11-20T18:05:32Z</time>
      </trkpt>
      <trkpt lat="62.636199120474" lon="17.964120517953">
        <ele>58.4</ele>
        <time>2017-11-20T18:05:33Z</time>
      </trkpt>
      <trkpt lat="62.636177076077" lon="17.964150357517">
        <ele>58.4</ele>
        <time>2017-11-20T18:05:34Z</time>
      </trkpt>
      <trkpt lat="62.636159054992" lon="17.964170976991">
        <ele>58.4</ele>
        <time>2017-11-20T18:05:35Z</time>
      </trkpt>
      <trkpt lat="62.636132987283" lon="17.964191512646">
        <ele>58.4</ele>
        <time>2017-11-20T18:05:36Z</time>
      </trkpt>
      <trkpt lat="62.636107841583" lon="17.964210539559">
        <ele>58.6</ele>
        <time>2017-11-20T18:05:37Z</time>
      </trkpt>
      <trkpt lat="62.636084791358" lon="17.964229147377">
        <ele>58.6</ele>
        <time>2017-11-20T18:05:38Z</time>
      </trkpt>
      <trkpt lat="62.63605863983" lon="17.964252449059">
        <ele>58.6</ele>
        <time>2017-11-20T18:05:39Z</time>
      </trkpt>
      <trkpt lat="62.636038942365" lon="17.964272314162">
        <ele>58.6</ele>
        <time>2017-11-20T18:05:40Z</time>
      </trkpt>
      <trkpt lat="62.636016311235" lon="17.964294107102">
        <ele>58.6</ele>
        <time>2017-11-20T18:05:41Z</time>
      </trkpt>
      <trkpt lat="62.635991836087" lon="17.964315648585">
        <ele>58.6</ele>
        <time>2017-11-20T18:05:42Z</time>
      </trkpt>
      <trkpt lat="62.635973395907" lon="17.964330149272">
        <ele>58.8</ele>
        <time>2017-11-20T18:05:43Z</time>
      </trkpt>
      <trkpt lat="62.635952105881" lon="17.964351523117">
        <ele>59</ele>
        <time>2017-11-20T18:05:44Z</time>
      </trkpt>
      <trkpt lat="62.635934252434" lon="17.964368370736">
        <ele>59</ele>
        <time>2017-11-20T18:05:45Z</time>
      </trkpt>
      <trkpt lat="62.635914303512" lon="17.964390834228">
        <ele>59</ele>
        <time>2017-11-20T18:05:46Z</time>
      </trkpt>
      <trkpt lat="62.635900473377" lon="17.964406508381">
        <ele>59</ele>
        <time>2017-11-20T18:05:47Z</time>
      </trkpt>
      <trkpt lat="62.635873735116" lon="17.964429307149">
        <ele>59.2</ele>
        <time>2017-11-20T18:05:48Z</time>
      </trkpt>
      <trkpt lat="62.635856384583" lon="17.964447998786">
        <ele>59.2</ele>
        <time>2017-11-20T18:05:49Z</time>
      </trkpt>
      <trkpt lat="62.635832160892" lon="17.964474988504">
        <ele>59.2</ele>
        <time>2017-11-20T18:05:50Z</time>
      </trkpt>
      <trkpt lat="62.635809865038" lon="17.96448957301">
        <ele>59.4</ele>
        <time>2017-11-20T18:05:51Z</time>
      </trkpt>
      <trkpt lat="62.635789077926" lon="17.964508180828">
        <ele>59.4</ele>
        <time>2017-11-20T18:05:52Z</time>
      </trkpt>
      <trkpt lat="62.635767871719" lon="17.964530476682">
        <ele>59.4</ele>
        <time>2017-11-20T18:05:53Z</time>
      </trkpt>
      <trkpt lat="62.635747587521" lon="17.964551515251">
        <ele>59.6</ele>
        <time>2017-11-20T18:05:54Z</time>
      </trkpt>
      <trkpt lat="62.63572336383" lon="17.964568111413">
        <ele>59.6</ele>
        <time>2017-11-20T18:05:55Z</time>
      </trkpt>
      <trkpt lat="62.635699810691" lon="17.964592838018">
        <ele>59.6</ele>
        <time>2017-11-20T18:05:56Z</time>
      </trkpt>
      <trkpt lat="62.635677682475" lon="17.964615050053">
        <ele>59.8</ele>
        <time>2017-11-20T18:05:57Z</time>
      </trkpt>
      <trkpt lat="62.635654464612" lon="17.964619911555">
        <ele>59.8</ele>
        <time>2017-11-20T18:05:58Z</time>
      </trkpt>
      <trkpt lat="62.635634599509" lon="17.96463877083">
        <ele>59.8</ele>
        <time>2017-11-20T18:05:59Z</time>
      </trkpt>
      <trkpt lat="62.635613058026" lon="17.964654025888">
        <ele>60</ele>
        <time>2017-11-20T18:06:00Z</time>
      </trkpt>
      <trkpt lat="62.635586152127" lon="17.964672046973">
        <ele>60</ele>
        <time>2017-11-20T18:06:01Z</time>
      </trkpt>
      <trkpt lat="62.635565448834" lon="17.964689732782">
        <ele>59.8</ele>
        <time>2017-11-20T18:06:02Z</time>
      </trkpt>
      <trkpt lat="62.635543488256" lon="17.964706999496">
        <ele>60</ele>
        <time>2017-11-20T18:06:03Z</time>
      </trkpt>
      <trkpt lat="62.635517672004" lon="17.964719656165">
        <ele>60</ele>
        <time>2017-11-20T18:06:04Z</time>
      </trkpt>
      <trkpt lat="62.635497555444" lon="17.964729462988">
        <ele>60</ele>
        <time>2017-11-20T18:06:05Z</time>
      </trkpt>
      <trkpt lat="62.635469643717" lon="17.964748908996">
        <ele>60</ele>
        <time>2017-11-20T18:06:06Z</time>
      </trkpt>
      <trkpt lat="62.635446258216" lon="17.964763828778">
        <ele>60.2</ele>
        <time>2017-11-20T18:06:07Z</time>
      </trkpt>
      <trkpt lat="62.635422202163" lon="17.964781179311">
        <ele>60.2</ele>
        <time>2017-11-20T18:06:08Z</time>
      </trkpt>
      <trkpt lat="62.635397224101" lon="17.964791824324">
        <ele>60.2</ele>
        <time>2017-11-20T18:06:09Z</time>
      </trkpt>
      <trkpt lat="62.635374760609" lon="17.964799954767">
        <ele>60.2</ele>
        <time>2017-11-20T18:06:10Z</time>
      </trkpt>
      <trkpt lat="62.635350620737" lon="17.964808755762">
        <ele>60.2</ele>
        <time>2017-11-20T18:06:11Z</time>
      </trkpt>
      <trkpt lat="62.6353235472" lon="17.96481646711">
        <ele>60.4</ele>
        <time>2017-11-20T18:06:12Z</time>
      </trkpt>
      <trkpt lat="62.635300580794" lon="17.9648256872">
        <ele>60.4</ele>
        <time>2017-11-20T18:06:13Z</time>
      </trkpt>
      <trkpt lat="62.635275854189" lon="17.964833063272">
        <ele>60.4</ele>
        <time>2017-11-20T18:06:14Z</time>
      </trkpt>
      <trkpt lat="62.635252552507" lon="17.964839349697">
        <ele>60.4</ele>
        <time>2017-11-20T18:06:15Z</time>
      </trkpt>
      <trkpt lat="62.635226149522" lon="17.964846055217">
        <ele>60.6</ele>
        <time>2017-11-20T18:06:16Z</time>
      </trkpt>
      <trkpt lat="62.635200249451" lon="17.964851754909">
        <ele>60.6</ele>
        <time>2017-11-20T18:06:17Z</time>
      </trkpt>
      <trkpt lat="62.635178288873" lon="17.964861477913">
        <ele>60.6</ele>
        <time>2017-11-20T18:06:18Z</time>
      </trkpt>
      <trkpt lat="62.63515507101" lon="17.964870195089">
        <ele>60.6</ele>
        <time>2017-11-20T18:06:19Z</time>
      </trkpt>
      <trkpt lat="62.635130595862" lon="17.964872542021">
        <ele>60.6</ele>
        <time>2017-11-20T18:06:20Z</time>
      </trkpt>
      <trkpt lat="62.635109222017" lon="17.964871452374">
        <ele>60.6</ele>
        <time>2017-11-20T18:06:21Z</time>
      </trkpt>
      <trkpt lat="62.635089021638" lon="17.964875894781">
        <ele>60.8</ele>
        <time>2017-11-20T18:06:22Z</time>
      </trkpt>
      <trkpt lat="62.635064630309" lon="17.964879834274">
        <ele>60.8</ele>
        <time>2017-11-20T18:06:23Z</time>
      </trkpt>
      <trkpt lat="62.635040909532" lon="17.964891149839">
        <ele>60.8</ele>
        <time>2017-11-20T18:06:24Z</time>
      </trkpt>
      <trkpt lat="62.635018194583" lon="17.964894921694">
        <ele>60.8</ele>
        <time>2017-11-20T18:06:25Z</time>
      </trkpt>
      <trkpt lat="62.634990618132" lon="17.964896849531">
        <ele>61</ele>
        <time>2017-11-20T18:06:26Z</time>
      </trkpt>
      <trkpt lat="62.634967819364" lon="17.96490196249">
        <ele>61</ele>
        <time>2017-11-20T18:06:27Z</time>
      </trkpt>
      <trkpt lat="62.634941164922" lon="17.964903135956">
        <ele>61</ele>
        <time>2017-11-20T18:06:28Z</time>
      </trkpt>
      <trkpt lat="62.634918869068" lon="17.964907410725">
        <ele>61.2</ele>
        <time>2017-11-20T18:06:29Z</time>
      </trkpt>
      <trkpt lat="62.634894729196" lon="17.964920905584">
        <ele>61.2</ele>
        <time>2017-11-20T18:06:30Z</time>
      </trkpt>
      <trkpt lat="62.634866901288" lon="17.964919732118">
        <ele>61.2</ele>
        <time>2017-11-20T18:06:31Z</time>
      </trkpt>
      <trkpt lat="62.634842258502" lon="17.964921659955">
        <ele>61.2</ele>
        <time>2017-11-20T18:06:32Z</time>
      </trkpt>
      <trkpt lat="62.634816609888" lon="17.96492124086">
        <ele>61.2</ele>
        <time>2017-11-20T18:06:33Z</time>
      </trkpt>
      <trkpt lat="62.634789787808" lon="17.964923587792">
        <ele>61.4</ele>
        <time>2017-11-20T18:06:34Z</time>
      </trkpt>
      <trkpt lat="62.634768833058" lon="17.964930293312">
        <ele>61.4</ele>
        <time>2017-11-20T18:06:35Z</time>
      </trkpt>
      <trkpt lat="62.634740334598" lon="17.964926856733">
        <ele>61.4</ele>
        <time>2017-11-20T18:06:36Z</time>
      </trkpt>
      <trkpt lat="62.634715188898" lon="17.964924425982">
        <ele>61.6</ele>
        <time>2017-11-20T18:06:37Z</time>
      </trkpt>
      <trkpt lat="62.634687444809" lon="17.964926856733">
        <ele>61.6</ele>
        <time>2017-11-20T18:06:38Z</time>
      </trkpt>
      <trkpt lat="62.634661544738" lon="17.964927778742">
        <ele>61.6</ele>
        <time>2017-11-20T18:06:39Z</time>
      </trkpt>
      <trkpt lat="62.634636901952" lon="17.964932891701">
        <ele>61.6</ele>
        <time>2017-11-20T18:06:40Z</time>
      </trkpt>
      <trkpt lat="62.6346110857" lon="17.964934484262">
        <ele>61.6</ele>
        <time>2017-11-20T18:06:41Z</time>
      </trkpt>
      <trkpt lat="62.634582922516" lon="17.964934316624">
        <ele>61.6</ele>
        <time>2017-11-20T18:06:42Z</time>
      </trkpt>
      <trkpt lat="62.634558531187" lon="17.964937501746">
        <ele>61.6</ele>
        <time>2017-11-20T18:06:43Z</time>
      </trkpt>
      <trkpt lat="62.634532044383" lon="17.96493381371">
        <ele>61.8</ele>
        <time>2017-11-20T18:06:44Z</time>
      </trkpt>
      <trkpt lat="62.634506814864" lon="17.964930796226">
        <ele>61.8</ele>
        <time>2017-11-20T18:06:45Z</time>
      </trkpt>
      <trkpt lat="62.634479992784" lon="17.964932472606">
        <ele>61.8</ele>
        <time>2017-11-20T18:06:46Z</time>
      </trkpt>
      <trkpt lat="62.634455852912" lon="17.964932724063">
        <ele>61.8</ele>
        <time>2017-11-20T18:06:47Z</time>
      </trkpt>
      <trkpt lat="62.634426767719" lon="17.964930041855">
        <ele>61.8</ele>
        <time>2017-11-20T18:06:48Z</time>
      </trkpt>
      <trkpt lat="62.63440405277" lon="17.964928449294">
        <ele>62</ele>
        <time>2017-11-20T18:06:49Z</time>
      </trkpt>
      <trkpt lat="62.63437806888" lon="17.964929203665">
        <ele>62</ele>
        <time>2017-11-20T18:06:50Z</time>
      </trkpt>
      <trkpt lat="62.63435040861" lon="17.96492627">
        <ele>62</ele>
        <time>2017-11-20T18:06:51Z</time>
      </trkpt>
      <trkpt lat="62.634325765824" lon="17.964928030199">
        <ele>62.2</ele>
        <time>2017-11-20T18:06:52Z</time>
      </trkpt>
      <trkpt lat="62.634299027563" lon="17.964929371303">
        <ele>62.4</ele>
        <time>2017-11-20T18:06:53Z</time>
      </trkpt>
      <trkpt lat="62.634272289302" lon="17.964931047683">
        <ele>62.4</ele>
        <time>2017-11-20T18:06:54Z</time>
      </trkpt>
      <trkpt lat="62.634248568525" lon="17.964934735719">
        <ele>62.6</ele>
        <time>2017-11-20T18:06:55Z</time>
      </trkpt>
      <trkpt lat="62.634219483332" lon="17.96493632828">
        <ele>62.6</ele>
        <time>2017-11-20T18:06:56Z</time>
      </trkpt>
      <trkpt lat="62.634195092003" lon="17.964941608877">
        <ele>62.6</ele>
        <time>2017-11-20T18:06:57Z</time>
      </trkpt>
      <trkpt lat="62.634170533036" lon="17.964943704352">
        <ele>62.8</ele>
        <time>2017-11-20T18:06:58Z</time>
      </trkpt>
      <trkpt lat="62.634147482811" lon="17.964944458723">
        <ele>62.8</ele>
        <time>2017-11-20T18:06:59Z</time>
      </trkpt>
      <trkpt lat="62.634125857509" lon="17.964944374904">
        <ele>62.8</ele>
        <time>2017-11-20T18:07:00Z</time>
      </trkpt>
      <trkpt lat="62.634098029601" lon="17.964939848678">
        <ele>62.8</ele>
        <time>2017-11-20T18:07:01Z</time>
      </trkpt>
      <trkpt lat="62.634074392643" lon="17.964931215321">
        <ele>62.8</ele>
        <time>2017-11-20T18:07:02Z</time>
      </trkpt>
      <trkpt lat="62.63405117478" lon="17.964930963864">
        <ele>62.8</ele>
        <time>2017-11-20T18:07:03Z</time>
      </trkpt>
      <trkpt lat="62.634024520338" lon="17.964926772914">
        <ele>62.8</ele>
        <time>2017-11-20T18:07:04Z</time>
      </trkpt>
      <trkpt lat="62.634003314131" lon="17.964926186181">
        <ele>62.8</ele>
        <time>2017-11-20T18:07:05Z</time>
      </trkpt>
      <trkpt lat="62.633978084612" lon="17.964926018543">
        <ele>62.8</ele>
        <time>2017-11-20T18:07:06Z</time>
      </trkpt>
      <trkpt lat="62.633953693283" lon="17.964923420154">
        <ele>63</ele>
        <time>2017-11-20T18:07:07Z</time>
      </trkpt>
      <trkpt lat="62.633930140144" lon="17.964925347991">
        <ele>63</ele>
        <time>2017-11-20T18:07:08Z</time>
      </trkpt>
      <trkpt lat="62.633905162082" lon="17.964929119846">
        <ele>63.2</ele>
        <time>2017-11-20T18:07:09Z</time>
      </trkpt>
      <trkpt lat="62.633884710246" lon="17.964938088479">
        <ele>63.2</ele>
        <time>2017-11-20T18:07:10Z</time>
      </trkpt>
      <trkpt lat="62.633868030265" lon="17.964959294686">
        <ele>63.2</ele>
        <time>2017-11-20T18:07:11Z</time>
      </trkpt>
      <trkpt lat="62.633849338628" lon="17.964987709327">
        <ele>63.4</ele>
        <time>2017-11-20T18:07:12Z</time>
      </trkpt>
      <trkpt lat="62.633837939244" lon="17.965030708474">
        <ele>63.4</ele>
        <time>2017-11-20T18:07:13Z</time>
      </trkpt>
      <trkpt lat="62.633833329199" lon="17.965078988218">
        <ele>63.4</ele>
        <time>2017-11-20T18:07:14Z</time>
      </trkpt>
      <trkpt lat="62.633836262864" lon="17.965128022333">
        <ele>63.6</ele>
        <time>2017-11-20T18:07:15Z</time>
      </trkpt>
      <trkpt lat="62.633843555117" lon="17.965177056448">
        <ele>63.6</ele>
        <time>2017-11-20T18:07:16Z</time>
      </trkpt>
      <trkpt lat="62.633849254809" lon="17.965221731975">
        <ele>63.8</ele>
        <time>2017-11-20T18:07:17Z</time>
      </trkpt>
      <trkpt lat="62.63385168556" lon="17.965273448298">
        <ele>63.8</ele>
        <time>2017-11-20T18:07:18Z</time>
      </trkpt>
      <trkpt lat="62.633856379424" lon="17.965318207644">
        <ele>64</ele>
        <time>2017-11-20T18:07:19Z</time>
      </trkpt>
      <trkpt lat="62.633860318917" lon="17.965357183479">
        <ele>64</ele>
        <time>2017-11-20T18:07:20Z</time>
      </trkpt>
      <trkpt lat="62.633865515695" lon="17.965417114064">
        <ele>64.2</ele>
        <time>2017-11-20T18:07:21Z</time>
      </trkpt>
      <trkpt lat="62.633869203731" lon="17.965461202858">
        <ele>64.4</ele>
        <time>2017-11-20T18:07:22Z</time>
      </trkpt>
      <trkpt lat="62.633874484328" lon="17.96550713567">
        <ele>64.4</ele>
        <time>2017-11-20T18:07:23Z</time>
      </trkpt>
      <trkpt lat="62.633879178192" lon="17.965560947468">
        <ele>64.6</ele>
        <time>2017-11-20T18:07:24Z</time>
      </trkpt>
      <trkpt lat="62.633883872056" lon="17.965602605511">
        <ele>64.8</ele>
        <time>2017-11-20T18:07:25Z</time>
      </trkpt>
      <trkpt lat="62.633886973359" lon="17.965657674594">
        <ele>65</ele>
        <time>2017-11-20T18:07:26Z</time>
      </trkpt>
      <trkpt lat="62.633891667223" lon="17.965710145288">
        <ele>65.2</ele>
        <time>2017-11-20T18:07:27Z</time>
      </trkpt>
      <trkpt lat="62.633898540381" lon="17.965755491367">
        <ele>65.4</ele>
        <time>2017-11-20T18:07:28Z</time>
      </trkpt>
      <trkpt lat="62.633899546209" lon="17.965802430007">
        <ele>65.8</ele>
        <time>2017-11-20T18:07:29Z</time>
      </trkpt>
      <trkpt lat="62.63390030058" lon="17.965846686439">
        <ele>66</ele>
        <time>2017-11-20T18:07:30Z</time>
      </trkpt>
      <trkpt lat="62.633899630028" lon="17.965894044174">
        <ele>66.4</ele>
        <time>2017-11-20T18:07:31Z</time>
      </trkpt>
      <trkpt lat="62.633898875657" lon="17.965941653366">
        <ele>66.6</ele>
        <time>2017-11-20T18:07:32Z</time>
      </trkpt>
      <trkpt lat="62.633899210933" lon="17.965980461563">
        <ele>66.8</ele>
        <time>2017-11-20T18:07:33Z</time>
      </trkpt>
      <trkpt lat="62.633899294752" lon="17.966018515389">
        <ele>66.8</ele>
        <time>2017-11-20T18:07:34Z</time>
      </trkpt>
      <trkpt lat="62.633898121286" lon="17.966062268907">
        <ele>67</ele>
        <time>2017-11-20T18:07:35Z</time>
      </trkpt>
      <trkpt lat="62.633896780182" lon="17.96610392695">
        <ele>67</ele>
        <time>2017-11-20T18:07:36Z</time>
      </trkpt>
      <trkpt lat="62.633894768526" lon="17.966134604704">
        <ele>67.2</ele>
        <time>2017-11-20T18:07:37Z</time>
      </trkpt>
      <trkpt lat="62.63389108049" lon="17.966170814512">
        <ele>67.4</ele>
        <time>2017-11-20T18:07:38Z</time>
      </trkpt>
      <trkpt lat="62.633885967531" lon="17.966205683216">
        <ele>67.4</ele>
        <time>2017-11-20T18:07:39Z</time>
      </trkpt>
      <trkpt lat="62.633883201504" lon="17.966226973242">
        <ele>67.4</ele>
        <time>2017-11-20T18:07:40Z</time>
      </trkpt>
      <trkpt lat="62.633881692762" lon="17.966258740643">
        <ele>67.6</ele>
        <time>2017-11-20T18:07:41Z</time>
      </trkpt>
      <trkpt lat="62.633878088545" lon="17.966292016786">
        <ele>67.8</ele>
        <time>2017-11-20T18:07:42Z</time>
      </trkpt>
      <trkpt lat="62.633874149052" lon="17.966320850522">
        <ele>67.8</ele>
        <time>2017-11-20T18:07:43Z</time>
      </trkpt>
      <trkpt lat="62.633867359713" lon="17.966343481652">
        <ele>68</ele>
        <time>2017-11-20T18:07:44Z</time>
      </trkpt>
      <trkpt lat="62.633853194302" lon="17.966354461941">
        <ele>68</ele>
        <time>2017-11-20T18:07:45Z</time>
      </trkpt>
      <trkpt lat="62.633833329199" lon="17.966346415317">
        <ele>68.2</ele>
        <time>2017-11-20T18:07:46Z</time>
      </trkpt>
      <trkpt lat="62.633813715553" lon="17.966352534104">
        <ele>68.4</ele>
        <time>2017-11-20T18:07:47Z</time>
      </trkpt>
      <trkpt lat="62.633793431355" lon="17.966353288475">
        <ele>68.4</ele>
        <time>2017-11-20T18:07:48Z</time>
      </trkpt>
      <trkpt lat="62.633770716406" lon="17.966354797217">
        <ele>68.6</ele>
        <time>2017-11-20T18:07:49Z</time>
      </trkpt>
      <trkpt lat="62.63375026457" lon="17.966354378122">
        <ele>68.8</ele>
        <time>2017-11-20T18:07:50Z</time>
      </trkpt>
      <trkpt lat="62.633727381983" lon="17.966353539932">
        <ele>68.8</ele>
        <time>2017-11-20T18:07:51Z</time>
      </trkpt>
      <trkpt lat="62.633703661206" lon="17.966352450285">
        <ele>68.8</ele>
        <time>2017-11-20T18:07:52Z</time>
      </trkpt>
      <trkpt lat="62.63367985661" lon="17.966347672602">
        <ele>68.8</ele>
        <time>2017-11-20T18:07:53Z</time>
      </trkpt>
      <trkpt lat="62.633655968195" lon="17.966345074213">
        <ele>68.8</ele>
        <time>2017-11-20T18:07:54Z</time>
      </trkpt>
      <trkpt lat="62.633633420884" lon="17.966343062557">
        <ele>68.6</ele>
        <time>2017-11-20T18:07:55Z</time>
      </trkpt>
      <trkpt lat="62.633610203021" lon="17.966341637634">
        <ele>68.8</ele>
        <time>2017-11-20T18:07:56Z</time>
      </trkpt>
      <trkpt lat="62.633588996814" lon="17.966341050901">
        <ele>68.6</ele>
        <time>2017-11-20T18:07:57Z</time>
      </trkpt>
      <trkpt lat="62.63356418639" lon="17.966337027589">
        <ele>68.6</ele>
        <time>2017-11-20T18:07:58Z</time>
      </trkpt>
      <trkpt lat="62.633542141993" lon="17.966339123064">
        <ele>68.6</ele>
        <time>2017-11-20T18:07:59Z</time>
      </trkpt>
      <trkpt lat="62.633520097596" lon="17.966340045073">
        <ele>68.6</ele>
        <time>2017-11-20T18:08:00Z</time>
      </trkpt>
      <trkpt lat="62.633492772602" lon="17.966337949598">
        <ele>68.6</ele>
        <time>2017-11-20T18:08:01Z</time>
      </trkpt>
      <trkpt lat="62.633469638558" lon="17.96633107644">
        <ele>68.6</ele>
        <time>2017-11-20T18:08:02Z</time>
      </trkpt>
      <trkpt lat="62.633447342704" lon="17.966331830811">
        <ele>68.4</ele>
        <time>2017-11-20T18:08:03Z</time>
      </trkpt>
      <trkpt lat="62.633422113185" lon="17.966330908802">
        <ele>68.4</ele>
        <time>2017-11-20T18:08:04Z</time>
      </trkpt>
      <trkpt lat="62.633401158435" lon="17.966335183571">
        <ele>68.4</ele>
        <time>2017-11-20T18:08:05Z</time>
      </trkpt>
      <trkpt lat="62.633376096554" lon="17.96633862015">
        <ele>68.4</ele>
        <time>2017-11-20T18:08:06Z</time>
      </trkpt>
      <trkpt lat="62.633351202311" lon="17.966339039245">
        <ele>68.4</ele>
        <time>2017-11-20T18:08:07Z</time>
      </trkpt>
      <trkpt lat="62.633325721335" lon="17.966342978738">
        <ele>68.4</ele>
        <time>2017-11-20T18:08:08Z</time>
      </trkpt>
      <trkpt lat="62.633303090205" lon="17.966340128892">
        <ele>68.2</ele>
        <time>2017-11-20T18:08:09Z</time>
      </trkpt>
      <trkpt lat="62.633278279781" lon="17.966343314014">
        <ele>68.2</ele>
        <time>2017-11-20T18:08:10Z</time>
      </trkpt>
      <trkpt lat="62.633254475185" lon="17.966341805272">
        <ele>68.2</ele>
        <time>2017-11-20T18:08:11Z</time>
      </trkpt>
      <trkpt lat="62.633231508779" lon="17.966343230195">
        <ele>68.2</ele>
        <time>2017-11-20T18:08:12Z</time>
      </trkpt>
      <trkpt lat="62.633205776346" lon="17.966345744765">
        <ele>68</ele>
        <time>2017-11-20T18:08:13Z</time>
      </trkpt>
      <trkpt lat="62.633182474664" lon="17.966350103353">
        <ele>68</ele>
        <time>2017-11-20T18:08:14Z</time>
      </trkpt>
      <trkpt lat="62.633163112475" lon="17.966348510792">
        <ele>68</ele>
        <time>2017-11-20T18:08:15Z</time>
      </trkpt>
      <trkpt lat="62.633134614015" lon="17.966350187172">
        <ele>68</ele>
        <time>2017-11-20T18:08:16Z</time>
      </trkpt>
      <trkpt lat="62.633110390324" lon="17.966349935715">
        <ele>67.8</ele>
        <time>2017-11-20T18:08:17Z</time>
      </trkpt>
      <trkpt lat="62.633085496081" lon="17.966347253507">
        <ele>67.8</ele>
        <time>2017-11-20T18:08:18Z</time>
      </trkpt>
      <trkpt lat="62.633058422544" lon="17.966345493308">
        <ele>67.8</ele>
        <time>2017-11-20T18:08:19Z</time>
      </trkpt>
      <trkpt lat="62.633038305984" lon="17.966343816928">
        <ele>67.6</ele>
        <time>2017-11-20T18:08:20Z</time>
      </trkpt>
      <trkpt lat="62.633009891343" lon="17.966344655118">
        <ele>67.6</ele>
        <time>2017-11-20T18:08:21Z</time>
      </trkpt>
      <trkpt lat="62.632984410367" lon="17.966340715625">
        <ele>67.6</ele>
        <time>2017-11-20T18:08:22Z</time>
      </trkpt>
      <trkpt lat="62.632959767581" lon="17.966340967082">
        <ele>67.6</ele>
        <time>2017-11-20T18:08:23Z</time>
      </trkpt>
      <trkpt lat="62.632931269121" lon="17.966337530503">
        <ele>67.6</ele>
        <time>2017-11-20T18:08:24Z</time>
      </trkpt>
      <trkpt lat="62.632906542516" lon="17.966338368693">
        <ele>67.4</ele>
        <time>2017-11-20T18:08:25Z</time>
      </trkpt>
      <trkpt lat="62.632880558626" lon="17.966343062557">
        <ele>67.4</ele>
        <time>2017-11-20T18:08:26Z</time>
      </trkpt>
      <trkpt lat="62.63285256308" lon="17.966340631806">
        <ele>67.4</ele>
        <time>2017-11-20T18:08:27Z</time>
      </trkpt>
      <trkpt lat="62.632828339389" lon="17.966338787788">
        <ele>67.2</ele>
        <time>2017-11-20T18:08:28Z</time>
      </trkpt>
      <trkpt lat="62.632805372983" lon="17.966338201055">
        <ele>67.2</ele>
        <time>2017-11-20T18:08:29Z</time>
      </trkpt>
      <trkpt lat="62.632782574215" lon="17.966334596838">
        <ele>67</ele>
        <time>2017-11-20T18:08:30Z</time>
      </trkpt>
      <trkpt lat="62.632756338868" lon="17.966332836639">
        <ele>66.8</ele>
        <time>2017-11-20T18:08:31Z</time>
      </trkpt>
      <trkpt lat="62.632730857892" lon="17.966330322069">
        <ele>67</ele>
        <time>2017-11-20T18:08:32Z</time>
      </trkpt>
      <trkpt lat="62.632704119631" lon="17.966330657345">
        <ele>66.8</ele>
        <time>2017-11-20T18:08:33Z</time>
      </trkpt>
      <trkpt lat="62.632675788809" lon="17.966332333725">
        <ele>66.8</ele>
        <time>2017-11-20T18:08:34Z</time>
      </trkpt>
      <trkpt lat="62.632652738584" lon="17.966332249906">
        <ele>66.6</ele>
        <time>2017-11-20T18:08:35Z</time>
      </trkpt>
      <trkpt lat="62.632626000323" lon="17.966324035644">
        <ele>66.8</ele>
        <time>2017-11-20T18:08:36Z</time>
      </trkpt>
      <trkpt lat="62.632606302858" lon="17.966319677056">
        <ele>66.6</ele>
        <time>2017-11-20T18:08:37Z</time>
      </trkpt>
      <trkpt lat="62.632580654244" lon="17.966312720079">
        <ele>66.6</ele>
        <time>2017-11-20T18:08:38Z</time>
      </trkpt>
      <trkpt lat="62.632554335078" lon="17.96631012169">
        <ele>66.6</ele>
        <time>2017-11-20T18:08:39Z</time>
      </trkpt>
      <trkpt lat="62.632533547966" lon="17.966309954052">
        <ele>66.4</ele>
        <time>2017-11-20T18:08:40Z</time>
      </trkpt>
      <trkpt lat="62.632508402266" lon="17.966298806125">
        <ele>66.4</ele>
        <time>2017-11-20T18:08:41Z</time>
      </trkpt>
      <trkpt lat="62.632480658177" lon="17.966297297383">
        <ele>66.2</ele>
        <time>2017-11-20T18:08:42Z</time>
      </trkpt>
      <trkpt lat="62.632456769762" lon="17.966294782813">
        <ele>66.2</ele>
        <time>2017-11-20T18:08:43Z</time>
      </trkpt>
      <trkpt lat="62.632430031501" lon="17.966286317094">
        <ele>66.2</ele>
        <time>2017-11-20T18:08:44Z</time>
      </trkpt>
      <trkpt lat="62.632407568009" lon="17.966284221619">
        <ele>66.2</ele>
        <time>2017-11-20T18:08:45Z</time>
      </trkpt>
      <trkpt lat="62.632378063721" lon="17.966279360117">
        <ele>66</ele>
        <time>2017-11-20T18:08:46Z</time>
      </trkpt>
      <trkpt lat="62.632357947161" lon="17.966278438108">
        <ele>66</ele>
        <time>2017-11-20T18:08:47Z</time>
      </trkpt>
      <trkpt lat="62.632324838656" lon="17.966280449764">
        <ele>66</ele>
        <time>2017-11-20T18:08:48Z</time>
      </trkpt>
      <trkpt lat="62.632301201698" lon="17.966291178596">
        <ele>65.8</ele>
        <time>2017-11-20T18:08:49Z</time>
      </trkpt>
      <trkpt lat="62.632277648559" lon="17.966312971536">
        <ele>65.6</ele>
        <time>2017-11-20T18:08:50Z</time>
      </trkpt>
      <trkpt lat="62.63225660999" lon="17.966344068385">
        <ele>65.4</ele>
        <time>2017-11-20T18:08:51Z</time>
      </trkpt>
      <trkpt lat="62.632240935837" lon="17.966388492455">
        <ele>65.2</ele>
        <time>2017-11-20T18:08:52Z</time>
      </trkpt>
      <trkpt lat="62.632231212833" lon="17.966434928181">
        <ele>65.2</ele>
        <time>2017-11-20T18:08:53Z</time>
      </trkpt>
      <trkpt lat="62.632223752942" lon="17.966481028631">
        <ele>65</ele>
        <time>2017-11-20T18:08:54Z</time>
      </trkpt>
      <trkpt lat="62.632219645811" lon="17.966531487669">
        <ele>65</ele>
        <time>2017-11-20T18:08:55Z</time>
      </trkpt>
      <trkpt lat="62.632220064906" lon="17.966580940879">
        <ele>65</ele>
        <time>2017-11-20T18:08:56Z</time>
      </trkpt>
      <trkpt lat="62.632215287223" lon="17.966618659429">
        <ele>65</ele>
        <time>2017-11-20T18:08:57Z</time>
      </trkpt>
      <trkpt lat="62.632212437377" lon="17.966669034648">
        <ele>65</ele>
        <time>2017-11-20T18:08:58Z</time>
      </trkpt>
      <trkpt lat="62.632207324418" lon="17.966708178121">
        <ele>65.2</ele>
        <time>2017-11-20T18:08:59Z</time>
      </trkpt>
      <trkpt lat="62.632205815676" lon="17.966748997974">
        <ele>65.2</ele>
        <time>2017-11-20T18:09:00Z</time>
      </trkpt>
      <trkpt lat="62.632201205631" lon="17.966804989066">
        <ele>65.4</ele>
        <time>2017-11-20T18:09:01Z</time>
      </trkpt>
      <trkpt lat="62.632195757396" lon="17.966853101172">
        <ele>65.6</ele>
        <time>2017-11-20T18:09:02Z</time>
      </trkpt>
      <trkpt lat="62.632191650265" lon="17.966897860518">
        <ele>65.6</ele>
        <time>2017-11-20T18:09:03Z</time>
      </trkpt>
      <trkpt lat="62.632184022736" lon="17.966945385891">
        <ele>65.8</ele>
        <time>2017-11-20T18:09:04Z</time>
      </trkpt>
      <trkpt lat="62.6321803347" lon="17.966981930975">
        <ele>66.2</ele>
        <time>2017-11-20T18:09:05Z</time>
      </trkpt>
      <trkpt lat="62.632174886465" lon="17.967033982574">
        <ele>66.4</ele>
        <time>2017-11-20T18:09:06Z</time>
      </trkpt>
      <trkpt lat="62.63216692366" lon="17.967081005033">
        <ele>66.6</ele>
        <time>2017-11-20T18:09:07Z</time>
      </trkpt>
      <trkpt lat="62.632160553416" lon="17.967120483782">
        <ele>66.8</ele>
        <time>2017-11-20T18:09:08Z</time>
      </trkpt>
      <trkpt lat="62.632152171516" lon="17.967164824033">
        <ele>67</ele>
        <time>2017-11-20T18:09:09Z</time>
      </trkpt>
      <trkpt lat="62.632142699969" lon="17.96720363223">
        <ele>67.4</ele>
        <time>2017-11-20T18:09:10Z</time>
      </trkpt>
      <trkpt lat="62.632132976965" lon="17.967240261133">
        <ele>67.6</ele>
        <time>2017-11-20T18:09:11Z</time>
      </trkpt>
      <trkpt lat="62.632120404115" lon="17.967285523393">
        <ele>67.8</ele>
        <time>2017-11-20T18:09:12Z</time>
      </trkpt>
      <trkpt lat="62.632107663627" lon="17.967329025454">
        <ele>68</ele>
        <time>2017-11-20T18:09:13Z</time>
      </trkpt>
      <trkpt lat="62.632097437709" lon="17.967369090936">
        <ele>68</ele>
        <time>2017-11-20T18:09:14Z</time>
      </trkpt>
      <trkpt lat="62.632085703049" lon="17.967402115622">
        <ele>68.2</ele>
        <time>2017-11-20T18:09:15Z</time>
      </trkpt>
      <trkpt lat="62.632069945077" lon="17.967450395366">
        <ele>68.4</ele>
        <time>2017-11-20T18:09:16Z</time>
      </trkpt>
      <trkpt lat="62.632059719159" lon="17.967491299038">
        <ele>68.4</ele>
        <time>2017-11-20T18:09:17Z</time>
      </trkpt>
      <trkpt lat="62.632044464101" lon="17.967539494963">
        <ele>68.6</ele>
        <time>2017-11-20T18:09:18Z</time>
      </trkpt>
      <trkpt lat="62.632031388337" lon="17.96757578859">
        <ele>68.8</ele>
        <time>2017-11-20T18:09:19Z</time>
      </trkpt>
      <trkpt lat="62.632020156591" lon="17.967617111357">
        <ele>69</ele>
        <time>2017-11-20T18:09:20Z</time>
      </trkpt>
      <trkpt lat="62.632004985352" lon="17.967655835735">
        <ele>69.2</ele>
        <time>2017-11-20T18:09:21Z</time>
      </trkpt>
      <trkpt lat="62.631992999235" lon="17.967691877905">
        <ele>69.2</ele>
        <time>2017-11-20T18:09:22Z</time>
      </trkpt>
      <trkpt lat="62.631980342566" lon="17.967735463785">
        <ele>69.4</ele>
        <time>2017-11-20T18:09:23Z</time>
      </trkpt>
      <trkpt lat="62.631965255146" lon="17.967774691077">
        <ele>69.6</ele>
        <time>2017-11-20T18:09:24Z</time>
      </trkpt>
      <trkpt lat="62.631954191038" lon="17.967809811238">
        <ele>70</ele>
        <time>2017-11-20T18:09:25Z</time>
      </trkpt>
      <trkpt lat="62.631940025627" lon="17.96785490586">
        <ele>70</ele>
        <time>2017-11-20T18:09:26Z</time>
      </trkpt>
      <trkpt lat="62.631925022026" lon="17.967898324102">
        <ele>70.4</ele>
        <time>2017-11-20T18:09:27Z</time>
      </trkpt>
      <trkpt lat="62.63191295209" lon="17.96793621029">
        <ele>70.4</ele>
        <time>2017-11-20T18:09:28Z</time>
      </trkpt>
      <trkpt lat="62.631900295421" lon="17.967972336279">
        <ele>70.8</ele>
        <time>2017-11-20T18:09:29Z</time>
      </trkpt>
      <trkpt lat="62.631888728399" lon="17.968009468096">
        <ele>70.8</ele>
        <time>2017-11-20T18:09:30Z</time>
      </trkpt>
      <trkpt lat="62.631875652635" lon="17.968054730356">
        <ele>71.2</ele>
        <time>2017-11-20T18:09:31Z</time>
      </trkpt>
      <trkpt lat="62.631860816672" lon="17.968094879657">
        <ele>71.2</ele>
        <time>2017-11-20T18:09:32Z</time>
      </trkpt>
      <trkpt lat="62.631849501107" lon="17.968132262931">
        <ele>71.6</ele>
        <time>2017-11-20T18:09:33Z</time>
      </trkpt>
      <trkpt lat="62.631837766447" lon="17.968168221282">
        <ele>71.8</ele>
        <time>2017-11-20T18:09:34Z</time>
      </trkpt>
      <trkpt lat="62.631825696511" lon="17.968204011995">
        <ele>71.8</ele>
        <time>2017-11-20T18:09:35Z</time>
      </trkpt>
      <trkpt lat="62.631814632403" lon="17.968247011142">
        <ele>72</ele>
        <time>2017-11-20T18:09:36Z</time>
      </trkpt>
      <trkpt lat="62.631803568295" lon="17.968285316425">
        <ele>72.2</ele>
        <time>2017-11-20T18:09:37Z</time>
      </trkpt>
      <trkpt lat="62.631788480875" lon="17.968326890649">
        <ele>72.4</ele>
        <time>2017-11-20T18:09:38Z</time>
      </trkpt>
      <trkpt lat="62.631777500586" lon="17.968364944475">
        <ele>72.6</ele>
        <time>2017-11-20T18:09:39Z</time>
      </trkpt>
      <trkpt lat="62.631765682107" lon="17.968403333577">
        <ele>72.6</ele>
        <time>2017-11-20T18:09:40Z</time>
      </trkpt>
      <trkpt lat="62.63175034323" lon="17.968445997448">
        <ele>72.8</ele>
        <time>2017-11-20T18:09:41Z</time>
      </trkpt>
      <trkpt lat="62.631737938018" lon="17.968484721826">
        <ele>73</ele>
        <time>2017-11-20T18:09:42Z</time>
      </trkpt>
      <trkpt lat="62.631722850598" lon="17.968525876955">
        <ele>73.2</ele>
        <time>2017-11-20T18:09:43Z</time>
      </trkpt>
      <trkpt lat="62.631710780662" lon="17.968565439523">
        <ele>73.4</ele>
        <time>2017-11-20T18:09:44Z</time>
      </trkpt>
      <trkpt lat="62.631703236952" lon="17.968601314055">
        <ele>73.6</ele>
        <time>2017-11-20T18:09:45Z</time>
      </trkpt>
      <trkpt lat="62.631694100681" lon="17.968653952387">
        <ele>74</ele>
        <time>2017-11-20T18:09:46Z</time>
      </trkpt>
      <trkpt lat="62.631687981894" lon="17.968691335661">
        <ele>74.2</ele>
        <time>2017-11-20T18:09:47Z</time>
      </trkpt>
      <trkpt lat="62.631681192555" lon="17.968737855206">
        <ele>74.4</ele>
        <time>2017-11-20T18:09:48Z</time>
      </trkpt>
      <trkpt lat="62.631678342709" lon="17.968781357267">
        <ele>74.8</ele>
        <time>2017-11-20T18:09:49Z</time>
      </trkpt>
      <trkpt lat="62.631677672157" lon="17.968819997826">
        <ele>74.8</ele>
        <time>2017-11-20T18:09:50Z</time>
      </trkpt>
      <trkpt lat="62.631676833967" lon="17.968872049425">
        <ele>75</ele>
        <time>2017-11-20T18:09:51Z</time>
      </trkpt>
      <trkpt lat="62.631679516175" lon="17.968914294201">
        <ele>75.2</ele>
        <time>2017-11-20T18:09:52Z</time>
      </trkpt>
      <trkpt lat="62.63168244984" lon="17.968954862597">
        <ele>75.2</ele>
        <time>2017-11-20T18:09:53Z</time>
      </trkpt>
      <trkpt lat="62.6316858026" lon="17.969002471789">
        <ele>75.4</ele>
        <time>2017-11-20T18:09:54Z</time>
      </trkpt>
      <trkpt lat="62.631690664102" lon="17.969042537271">
        <ele>75.6</ele>
        <time>2017-11-20T18:09:55Z</time>
      </trkpt>
      <trkpt lat="62.631694938871" lon="17.969080674916">
        <ele>75.8</ele>
        <time>2017-11-20T18:09:56Z</time>
      </trkpt>
      <trkpt lat="62.631698291631" lon="17.969131301592">
        <ele>75.8</ele>
        <time>2017-11-20T18:09:57Z</time>
      </trkpt>
      <trkpt lat="62.631704326599" lon="17.969171618531">
        <ele>76</ele>
        <time>2017-11-20T18:09:58Z</time>
      </trkpt>
      <trkpt lat="62.631710529205" lon="17.969213863307">
        <ele>76.2</ele>
        <time>2017-11-20T18:09:59Z</time>
      </trkpt>
      <trkpt lat="62.631716564173" lon="17.969256443359">
        <ele>76.4</ele>
        <time>2017-11-20T18:10:00Z</time>
      </trkpt>
      <trkpt lat="62.631723269693" lon="17.969298855773">
        <ele>76.6</ele>
        <time>2017-11-20T18:10:01Z</time>
      </trkpt>
      <trkpt lat="62.631731735412" lon="17.969342274015">
        <ele>76.8</ele>
        <time>2017-11-20T18:10:02Z</time>
      </trkpt>
      <trkpt lat="62.631743134796" lon="17.969382507135">
        <ele>77</ele>
        <time>2017-11-20T18:10:03Z</time>
      </trkpt>
      <trkpt lat="62.631752773981" lon="17.969416286192">
        <ele>77.2</ele>
        <time>2017-11-20T18:10:04Z</time>
      </trkpt>
      <trkpt lat="62.631767442306" lon="17.969450232887">
        <ele>77.6</ele>
        <time>2017-11-20T18:10:05Z</time>
      </trkpt>
      <trkpt lat="62.631783200278" lon="17.969483844306">
        <ele>77.8</ele>
        <time>2017-11-20T18:10:06Z</time>
      </trkpt>
      <trkpt lat="62.631800047897" lon="17.969507062169">
        <ele>78</ele>
        <time>2017-11-20T18:10:07Z</time>
      </trkpt>
      <trkpt lat="62.631819158629" lon="17.969535644448">
        <ele>78.2</ele>
        <time>2017-11-20T18:10:08Z</time>
      </trkpt>
      <trkpt lat="62.631837431171" lon="17.969551905334">
        <ele>78.4</ele>
        <time>2017-11-20T18:10:09Z</time>
      </trkpt>
      <trkpt lat="62.63185511698" lon="17.969566573659">
        <ele>78.6</ele>
        <time>2017-11-20T18:10:10Z</time>
      </trkpt>
      <trkpt lat="62.631877580472" lon="17.969582247812">
        <ele>78.6</ele>
        <time>2017-11-20T18:10:11Z</time>
      </trkpt>
      <trkpt lat="62.631900714516" lon="17.9695866064">
        <ele>78.6</ele>
        <time>2017-11-20T18:10:12Z</time>
      </trkpt>
      <trkpt lat="62.631921669266" lon="17.96958409183">
        <ele>78.8</ele>
        <time>2017-11-20T18:10:13Z</time>
      </trkpt>
      <trkpt lat="62.631941534369" lon="17.96958493002">
        <ele>78.8</ele>
        <time>2017-11-20T18:10:14Z</time>
      </trkpt>
      <trkpt lat="62.63196072892" lon="17.969582834545">
        <ele>79</ele>
        <time>2017-11-20T18:10:15Z</time>
      </trkpt>
      <trkpt lat="62.631986545172" lon="17.969578978871">
        <ele>79.2</ele>
        <time>2017-11-20T18:10:16Z</time>
      </trkpt>
      <trkpt lat="62.632008924845" lon="17.969576212844">
        <ele>79.2</ele>
        <time>2017-11-20T18:10:17Z</time>
      </trkpt>
      <trkpt lat="62.632030047233" lon="17.969573698274">
        <ele>79.4</ele>
        <time>2017-11-20T18:10:18Z</time>
      </trkpt>
      <trkpt lat="62.632053600372" lon="17.969568669134">
        <ele>79.4</ele>
        <time>2017-11-20T18:10:19Z</time>
      </trkpt>
      <trkpt lat="62.632073214018" lon="17.96956481346">
        <ele>79.4</ele>
        <time>2017-11-20T18:10:20Z</time>
      </trkpt>
      <trkpt lat="62.632099365546" lon="17.969557688845">
        <ele>79.6</ele>
        <time>2017-11-20T18:10:21Z</time>
      </trkpt>
      <trkpt lat="62.632124511246" lon="17.969551234782">
        <ele>79.6</ele>
        <time>2017-11-20T18:10:22Z</time>
      </trkpt>
      <trkpt lat="62.632145465996" lon="17.969548720212">
        <ele>79.6</ele>
        <time>2017-11-20T18:10:23Z</time>
      </trkpt>
      <trkpt lat="62.632169941144" lon="17.969545786547">
        <ele>79.6</ele>
        <time>2017-11-20T18:10:24Z</time>
      </trkpt>
      <trkpt lat="62.632193997197" lon="17.969541427959">
        <ele>79.6</ele>
        <time>2017-11-20T18:10:25Z</time>
      </trkpt>
      <trkpt lat="62.632220316363" lon="17.969537823742">
        <ele>79.6</ele>
        <time>2017-11-20T18:10:26Z</time>
      </trkpt>
      <trkpt lat="62.632247222262" lon="17.969533213697">
        <ele>79.6</ele>
        <time>2017-11-20T18:10:27Z</time>
      </trkpt>
      <trkpt lat="62.632273457609" lon="17.96953296224">
        <ele>79.6</ele>
        <time>2017-11-20T18:10:28Z</time>
      </trkpt>
      <trkpt lat="62.632297932757" lon="17.969529358023">
        <ele>79.6</ele>
        <time>2017-11-20T18:10:29Z</time>
      </trkpt>
      <trkpt lat="62.632321485896" lon="17.969526005263">
        <ele>79.6</ele>
        <time>2017-11-20T18:10:30Z</time>
      </trkpt>
      <trkpt lat="62.632350068175" lon="17.969525167073">
        <ele>79.6</ele>
        <time>2017-11-20T18:10:31Z</time>
      </trkpt>
      <trkpt lat="62.632371358201" lon="17.969522401046">
        <ele>79.6</ele>
        <time>2017-11-20T18:10:32Z</time>
      </trkpt>
      <trkpt lat="62.632395498073" lon="17.969520137933">
        <ele>79.6</ele>
        <time>2017-11-20T18:10:33Z</time>
      </trkpt>
      <trkpt lat="62.632421481963" lon="17.969518629191">
        <ele>79.6</ele>
        <time>2017-11-20T18:10:34Z</time>
      </trkpt>
      <trkpt lat="62.632442436713" lon="17.969519886476">
        <ele>79.6</ele>
        <time>2017-11-20T18:10:35Z</time>
      </trkpt>
      <trkpt lat="62.632470013164" lon="17.969523993607">
        <ele>79.6</ele>
        <time>2017-11-20T18:10:36Z</time>
      </trkpt>
      <trkpt lat="62.632493482484" lon="17.969530363851">
        <ele>79.8</ele>
        <time>2017-11-20T18:10:37Z</time>
      </trkpt>
      <trkpt lat="62.632518209089" lon="17.969531621136">
        <ele>79.8</ele>
        <time>2017-11-20T18:10:38Z</time>
      </trkpt>
      <trkpt lat="62.632542935694" lon="17.969534219525">
        <ele>79.8</ele>
        <time>2017-11-20T18:10:39Z</time>
      </trkpt>
      <trkpt lat="62.632567829937" lon="17.969541427959">
        <ele>79.8</ele>
        <time>2017-11-20T18:10:40Z</time>
      </trkpt>
      <trkpt lat="62.632588114135" lon="17.969544864538">
        <ele>80</ele>
        <time>2017-11-20T18:10:41Z</time>
      </trkpt>
      <trkpt lat="62.632615858224" lon="17.969550815687">
        <ele>80</ele>
        <time>2017-11-20T18:10:42Z</time>
      </trkpt>
      <trkpt lat="62.632640668648" lon="17.969555761008">
        <ele>79.8</ele>
        <time>2017-11-20T18:10:43Z</time>
      </trkpt>
      <trkpt lat="62.632663718873" lon="17.969559951958">
        <ele>79.8</ele>
        <time>2017-11-20T18:10:44Z</time>
      </trkpt>
      <trkpt lat="62.63268576327" lon="17.969564310546">
        <ele>79.8</ele>
        <time>2017-11-20T18:10:45Z</time>
      </trkpt>
      <trkpt lat="62.63271258535" lon="17.969568920591">
        <ele>79.8</ele>
        <time>2017-11-20T18:10:46Z</time>
      </trkpt>
      <trkpt lat="62.632735132661" lon="17.969570177876">
        <ele>79.8</ele>
        <time>2017-11-20T18:10:47Z</time>
      </trkpt>
      <trkpt lat="62.632760865094" lon="17.969577302491">
        <ele>79.8</ele>
        <time>2017-11-20T18:10:48Z</time>
      </trkpt>
      <trkpt lat="62.632785088785" lon="17.969584678563">
        <ele>80</ele>
        <time>2017-11-20T18:10:49Z</time>
      </trkpt>
      <trkpt lat="62.632805875897" lon="17.969587025495">
        <ele>80</ele>
        <time>2017-11-20T18:10:50Z</time>
      </trkpt>
      <trkpt lat="62.632832781796" lon="17.969594401567">
        <ele>80</ele>
        <time>2017-11-20T18:10:51Z</time>
      </trkpt>
      <trkpt lat="62.632853317451" lon="17.969603286381">
        <ele>80</ele>
        <time>2017-11-20T18:10:52Z</time>
      </trkpt>
      <trkpt lat="62.632875026572" lon="17.969604795123">
        <ele>80</ele>
        <time>2017-11-20T18:10:53Z</time>
      </trkpt>
      <trkpt lat="62.632900759005" lon="17.969613260842">
        <ele>80</ele>
        <time>2017-11-20T18:10:54Z</time>
      </trkpt>
      <trkpt lat="62.63292129466" lon="17.969612757928">
        <ele>80</ele>
        <time>2017-11-20T18:10:55Z</time>
      </trkpt>
      <trkpt lat="62.632946607998" lon="17.969613763756">
        <ele>80.2</ele>
        <time>2017-11-20T18:10:56Z</time>
      </trkpt>
      <trkpt lat="62.632971502241" lon="17.969621894199">
        <ele>80.2</ele>
        <time>2017-11-20T18:10:57Z</time>
      </trkpt>
      <trkpt lat="62.632993798095" lon="17.969625498416">
        <ele>80.4</ele>
        <time>2017-11-20T18:10:58Z</time>
      </trkpt>
      <trkpt lat="62.633018776157" lon="17.969633628859">
        <ele>80.6</ele>
        <time>2017-11-20T18:10:59Z</time>
      </trkpt>
      <trkpt lat="62.633042916029" lon="17.969639915284">
        <ele>80.6</ele>
        <time>2017-11-20T18:11:00Z</time>
      </trkpt>
      <trkpt lat="62.633073593783" lon="17.96964695608">
        <ele>80.8</ele>
        <time>2017-11-20T18:11:01Z</time>
      </trkpt>
      <trkpt lat="62.633099745311" lon="17.969655254161">
        <ele>80.8</ele>
        <time>2017-11-20T18:11:02Z</time>
      </trkpt>
      <trkpt lat="62.633123717545" lon="17.969661792043">
        <ele>81</ele>
        <time>2017-11-20T18:11:03Z</time>
      </trkpt>
      <trkpt lat="62.633148276512" lon="17.969667240278">
        <ele>81</ele>
        <time>2017-11-20T18:11:04Z</time>
      </trkpt>
      <trkpt lat="62.633172332565" lon="17.969674197255">
        <ele>81</ele>
        <time>2017-11-20T18:11:05Z</time>
      </trkpt>
      <trkpt lat="62.633200579568" lon="17.969675705997">
        <ele>81</ele>
        <time>2017-11-20T18:11:06Z</time>
      </trkpt>
      <trkpt lat="62.633225809087" lon="17.969684590811">
        <ele>81</ele>
        <time>2017-11-20T18:11:07Z</time>
      </trkpt>
      <trkpt lat="62.63325154152" lon="17.969692637435">
        <ele>81</ele>
        <time>2017-11-20T18:11:08Z</time>
      </trkpt>
      <trkpt lat="62.633272747727" lon="17.969696325471">
        <ele>81</ele>
        <time>2017-11-20T18:11:09Z</time>
      </trkpt>
      <trkpt lat="62.633294624486" lon="17.969712837814">
        <ele>81</ele>
        <time>2017-11-20T18:11:10Z</time>
      </trkpt>
      <trkpt lat="62.633317423254" lon="17.969733541107">
        <ele>81</ele>
        <time>2017-11-20T18:11:11Z</time>
      </trkpt>
      <trkpt lat="62.633338294185" lon="17.96976597906">
        <ele>81</ele>
        <time>2017-11-20T18:11:12Z</time>
      </trkpt>
      <trkpt lat="62.633357740193" lon="17.969807804741">
        <ele>81</ele>
        <time>2017-11-20T18:11:13Z</time>
      </trkpt>
      <trkpt lat="62.633369558672" lon="17.969847534947">
        <ele>81.2</ele>
        <time>2017-11-20T18:11:14Z</time>
      </trkpt>
      <trkpt lat="62.633376934744" lon="17.969894725044">
        <ele>81.4</ele>
        <time>2017-11-20T18:11:15Z</time>
      </trkpt>
      <trkpt lat="62.633380371323" lon="17.969955829095">
        <ele>81.4</ele>
        <time>2017-11-20T18:11:16Z</time>
      </trkpt>
      <trkpt lat="62.633381293332" lon="17.970003019192">
        <ele>81.6</ele>
        <time>2017-11-20T18:11:17Z</time>
      </trkpt>
      <trkpt lat="62.633384729911" lon="17.970059680836">
        <ele>81.6</ele>
        <time>2017-11-20T18:11:18Z</time>
      </trkpt>
      <trkpt lat="62.6333873283" lon="17.970111480978">
        <ele>81.8</ele>
        <time>2017-11-20T18:11:19Z</time>
      </trkpt>
      <trkpt lat="62.633390764879" lon="17.9701565756">
        <ele>81.8</ele>
        <time>2017-11-20T18:11:20Z</time>
      </trkpt>
      <trkpt lat="62.633395961657" lon="17.970221283868">
        <ele>82</ele>
        <time>2017-11-20T18:11:21Z</time>
      </trkpt>
      <trkpt lat="62.633401074616" lon="17.970272078182">
        <ele>82.2</ele>
        <time>2017-11-20T18:11:22Z</time>
      </trkpt>
      <trkpt lat="62.633404762652" lon="17.970326644351">
        <ele>82.2</ele>
        <time>2017-11-20T18:11:23Z</time>
      </trkpt>
      <trkpt lat="62.633407528679" lon="17.970383473633">
        <ele>82.4</ele>
        <time>2017-11-20T18:11:24Z</time>
      </trkpt>
      <trkpt lat="62.633411468172" lon="17.970432423929">
        <ele>82.6</ele>
        <time>2017-11-20T18:11:25Z</time>
      </trkpt>
      <trkpt lat="62.633417335502" lon="17.970494449989">
        <ele>82.6</ele>
        <time>2017-11-20T18:11:26Z</time>
      </trkpt>
      <trkpt lat="62.633418928063" lon="17.970548345606">
        <ele>82.8</ele>
        <time>2017-11-20T18:11:27Z</time>
      </trkpt>
      <trkpt lat="62.633420352986" lon="17.970598469368">
        <ele>82.8</ele>
        <time>2017-11-20T18:11:28Z</time>
      </trkpt>
      <trkpt lat="62.633421945547" lon="17.970649682777">
        <ele>82.8</ele>
        <time>2017-11-20T18:11:29Z</time>
      </trkpt>
      <trkpt lat="62.633424376298" lon="17.970693771571">
        <ele>83</ele>
        <time>2017-11-20T18:11:30Z</time>
      </trkpt>
      <trkpt lat="62.633427896696" lon="17.970751858138">
        <ele>83</ele>
        <time>2017-11-20T18:11:31Z</time>
      </trkpt>
      <trkpt lat="62.633433344931" lon="17.970806508126">
        <ele>83.2</ele>
        <time>2017-11-20T18:11:32Z</time>
      </trkpt>
      <trkpt lat="62.633435356587" lon="17.970854704051">
        <ele>83.2</ele>
        <time>2017-11-20T18:11:33Z</time>
      </trkpt>
      <trkpt lat="62.633439212261" lon="17.970908012935">
        <ele>83.4</ele>
        <time>2017-11-20T18:11:34Z</time>
      </trkpt>
      <trkpt lat="62.633437787338" lon="17.970954616299">
        <ele>83.6</ele>
        <time>2017-11-20T18:11:35Z</time>
      </trkpt>
      <trkpt lat="62.633440804822" lon="17.971005913527">
        <ele>83.6</ele>
        <time>2017-11-20T18:11:36Z</time>
      </trkpt>
      <trkpt lat="62.633444911953" lon="17.971058970954">
        <ele>83.8</ele>
        <time>2017-11-20T18:11:37Z</time>
      </trkpt>
      <trkpt lat="62.633442062107" lon="17.971111860743">
        <ele>83.8</ele>
        <time>2017-11-20T18:11:38Z</time>
      </trkpt>
      <trkpt lat="62.633443151754" lon="17.971160224306">
        <ele>84</ele>
        <time>2017-11-20T18:11:39Z</time>
      </trkpt>
      <trkpt lat="62.633444157582" lon="17.971213030276">
        <ele>84</ele>
        <time>2017-11-20T18:11:40Z</time>
      </trkpt>
      <trkpt lat="62.633443906125" lon="17.971267428807">
        <ele>84.2</ele>
        <time>2017-11-20T18:11:41Z</time>
      </trkpt>
      <trkpt lat="62.63344348703" lon="17.971322078795">
        <ele>84.4</ele>
        <time>2017-11-20T18:11:42Z</time>
      </trkpt>
      <trkpt lat="62.633441056279" lon="17.97137698024">
        <ele>84.4</ele>
        <time>2017-11-20T18:11:43Z</time>
      </trkpt>
      <trkpt lat="62.633438960804" lon="17.971427187821">
        <ele>84.6</ele>
        <time>2017-11-20T18:11:44Z</time>
      </trkpt>
      <trkpt lat="62.633437116786" lon="17.971475216108">
        <ele>84.6</ele>
        <time>2017-11-20T18:11:45Z</time>
      </trkpt>
      <trkpt lat="62.633433344931" lon="17.971538918548">
        <ele>84.8</ele>
        <time>2017-11-20T18:11:46Z</time>
      </trkpt>
      <trkpt lat="62.633432674379" lon="17.97158401317">
        <ele>84.8</ele>
        <time>2017-11-20T18:11:47Z</time>
      </trkpt>
      <trkpt lat="62.633429070162" lon="17.97163011362">
        <ele>84.8</ele>
        <time>2017-11-20T18:11:48Z</time>
      </trkpt>
      <trkpt lat="62.633424292479" lon="17.971696833544">
        <ele>85</ele>
        <time>2017-11-20T18:11:49Z</time>
      </trkpt>
      <trkpt lat="62.633419430977" lon="17.971746454392">
        <ele>85</ele>
        <time>2017-11-20T18:11:50Z</time>
      </trkpt>
      <trkpt lat="62.633415575303" lon="17.9718078099">
        <ele>85</ele>
        <time>2017-11-20T18:11:51Z</time>
      </trkpt>
      <trkpt lat="62.633414234199" lon="17.97185474854">
        <ele>85.2</ele>
        <time>2017-11-20T18:11:52Z</time>
      </trkpt>
      <trkpt lat="62.633412222543" lon="17.971904369388">
        <ele>85.4</ele>
        <time>2017-11-20T18:11:53Z</time>
      </trkpt>
      <trkpt lat="62.6334040921" lon="17.971965138163">
        <ele>85.4</ele>
        <time>2017-11-20T18:11:54Z</time>
      </trkpt>
      <trkpt lat="62.633398392408" lon="17.972007885853">
        <ele>85.4</ele>
        <time>2017-11-20T18:11:55Z</time>
      </trkpt>
      <trkpt lat="62.633392692716" lon="17.972063709307">
        <ele>85.6</ele>
        <time>2017-11-20T18:11:56Z</time>
      </trkpt>
      <trkpt lat="62.633385735739" lon="17.972119532761">
        <ele>85.6</ele>
        <time>2017-11-20T18:11:57Z</time>
      </trkpt>
      <trkpt lat="62.63338062278" lon="17.972168985971">
        <ele>85.6</ele>
        <time>2017-11-20T18:11:58Z</time>
      </trkpt>
      <trkpt lat="62.633371821785" lon="17.972220869932">
        <ele>85.6</ele>
        <time>2017-11-20T18:11:59Z</time>
      </trkpt>
      <trkpt lat="62.633363272247" lon="17.972269736409">
        <ele>85.8</ele>
        <time>2017-11-20T18:12:00Z</time>
      </trkpt>
      <trkpt lat="62.633355141804" lon="17.97232581132">
        <ele>86</ele>
        <time>2017-11-20T18:12:01Z</time>
      </trkpt>
      <trkpt lat="62.633345754076" lon="17.972376186539">
        <ele>86</ele>
        <time>2017-11-20T18:12:02Z</time>
      </trkpt>
      <trkpt lat="62.633337455995" lon="17.972425053016">
        <ele>86.2</ele>
        <time>2017-11-20T18:12:03Z</time>
      </trkpt>
      <trkpt lat="62.633329828466" lon="17.972474506226">
        <ele>86.4</ele>
        <time>2017-11-20T18:12:04Z</time>
      </trkpt>
      <trkpt lat="62.633321027471" lon="17.972520606676">
        <ele>86.4</ele>
        <time>2017-11-20T18:12:05Z</time>
      </trkpt>
      <trkpt lat="62.633311472105" lon="17.972572490637">
        <ele>86.4</ele>
        <time>2017-11-20T18:12:06Z</time>
      </trkpt>
      <trkpt lat="62.633302000558" lon="17.972619345458">
        <ele>86.6</ele>
        <time>2017-11-20T18:12:07Z</time>
      </trkpt>
      <trkpt lat="62.633291355545" lon="17.972669050125">
        <ele>86.6</ele>
        <time>2017-11-20T18:12:08Z</time>
      </trkpt>
      <trkpt lat="62.633279872342" lon="17.972724538303">
        <ele>86.6</ele>
        <time>2017-11-20T18:12:09Z</time>
      </trkpt>
      <trkpt lat="62.633269394967" lon="17.972771644581">
        <ele>86.6</ele>
        <time>2017-11-20T18:12:10Z</time>
      </trkpt>
      <trkpt lat="62.633259001411" lon="17.97281866704">
        <ele>86.8</ele>
        <time>2017-11-20T18:12:11Z</time>
      </trkpt>
      <trkpt lat="62.633248691674" lon="17.972866024775">
        <ele>87</ele>
        <time>2017-11-20T18:12:12Z</time>
      </trkpt>
      <trkpt lat="62.633238214299" lon="17.972916567632">
        <ele>87</ele>
        <time>2017-11-20T18:12:13Z</time>
      </trkpt>
      <trkpt lat="62.633231341141" lon="17.972965601747">
        <ele>87</ele>
        <time>2017-11-20T18:12:14Z</time>
      </trkpt>
      <trkpt lat="62.63322220487" lon="17.973012121292">
        <ele>87</ele>
        <time>2017-11-20T18:12:15Z</time>
      </trkpt>
      <trkpt lat="62.633207620364" lon="17.973067860927">
        <ele>87.2</ele>
        <time>2017-11-20T18:12:16Z</time>
      </trkpt>
      <trkpt lat="62.633198232636" lon="17.973109435151">
        <ele>87.2</ele>
        <time>2017-11-20T18:12:17Z</time>
      </trkpt>
      <trkpt lat="62.633187587623" lon="17.973164252777">
        <ele>87.2</ele>
        <time>2017-11-20T18:12:18Z</time>
      </trkpt>
      <trkpt lat="62.633176858791" lon="17.973214125082">
        <ele>87.2</ele>
        <time>2017-11-20T18:12:19Z</time>
      </trkpt>
      <trkpt lat="62.633167387244" lon="17.973260812265">
        <ele>87.4</ele>
        <time>2017-11-20T18:12:20Z</time>
      </trkpt>
      <trkpt lat="62.633152467462" lon="17.973315965167">
        <ele>87.6</ele>
        <time>2017-11-20T18:12:21Z</time>
      </trkpt>
      <trkpt lat="62.633142325363" lon="17.973360221599">
        <ele>87.6</ele>
        <time>2017-11-20T18:12:22Z</time>
      </trkpt>
      <trkpt lat="62.633131093617" lon="17.973412440836">
        <ele>87.8</ele>
        <time>2017-11-20T18:12:23Z</time>
      </trkpt>
      <trkpt lat="62.633117179663" lon="17.973472706697">
        <ele>87.8</ele>
        <time>2017-11-20T18:12:24Z</time>
      </trkpt>
      <trkpt lat="62.633108546306" lon="17.973516963129">
        <ele>88</ele>
        <time>2017-11-20T18:12:25Z</time>
      </trkpt>
      <trkpt lat="62.633098404207" lon="17.973563147398">
        <ele>88</ele>
        <time>2017-11-20T18:12:26Z</time>
      </trkpt>
      <trkpt lat="62.633086837185" lon="17.973616456282">
        <ele>88</ele>
        <time>2017-11-20T18:12:27Z</time>
      </trkpt>
      <trkpt lat="62.633077030362" lon="17.973658449601">
        <ele>88.2</ele>
        <time>2017-11-20T18:12:28Z</time>
      </trkpt>
      <trkpt lat="62.633066972082" lon="17.973706813164">
        <ele>88.2</ele>
        <time>2017-11-20T18:12:29Z</time>
      </trkpt>
      <trkpt lat="62.633054483051" lon="17.973756182555">
        <ele>88.4</ele>
        <time>2017-11-20T18:12:30Z</time>
      </trkpt>
      <trkpt lat="62.633043418943" lon="17.973807647421">
        <ele>88.4</ele>
        <time>2017-11-20T18:12:31Z</time>
      </trkpt>
      <trkpt lat="62.633031516645" lon="17.973860369572">
        <ele>88.4</ele>
        <time>2017-11-20T18:12:32Z</time>
      </trkpt>
      <trkpt lat="62.633020117261" lon="17.973911331524">
        <ele>88.6</ele>
        <time>2017-11-20T18:12:33Z</time>
      </trkpt>
      <trkpt lat="62.633009891343" lon="17.9739619582">
        <ele>88.6</ele>
        <time>2017-11-20T18:12:34Z</time>
      </trkpt>
      <trkpt lat="62.632998156683" lon="17.974010740858">
        <ele>88.8</ele>
        <time>2017-11-20T18:12:35Z</time>
      </trkpt>
      <trkpt lat="62.632988182222" lon="17.974065474665">
        <ele>88.8</ele>
        <time>2017-11-20T18:12:36Z</time>
      </trkpt>
      <trkpt lat="62.632978123942" lon="17.974113754409">
        <ele>88.8</ele>
        <time>2017-11-20T18:12:37Z</time>
      </trkpt>
      <trkpt lat="62.632962114513" lon="17.974163375257">
        <ele>88.8</ele>
        <time>2017-11-20T18:12:38Z</time>
      </trkpt>
      <trkpt lat="62.632951385681" lon="17.974208972793">
        <ele>89</ele>
        <time>2017-11-20T18:12:39Z</time>
      </trkpt>
      <trkpt lat="62.632939651021" lon="17.974257671632">
        <ele>89</ele>
        <time>2017-11-20T18:12:40Z</time>
      </trkpt>
      <trkpt lat="62.632929089827" lon="17.974311315792">
        <ele>89.2</ele>
        <time>2017-11-20T18:12:41Z</time>
      </trkpt>
      <trkpt lat="62.632916600796" lon="17.974362445382">
        <ele>89.2</ele>
        <time>2017-11-20T18:12:42Z</time>
      </trkpt>
      <trkpt lat="62.632901764833" lon="17.974419274664">
        <ele>89.4</ele>
        <time>2017-11-20T18:12:43Z</time>
      </trkpt>
      <trkpt lat="62.632884079024" lon="17.97446403401">
        <ele>89.4</ele>
        <time>2017-11-20T18:12:44Z</time>
      </trkpt>
      <trkpt lat="62.63286178317" lon="17.974499824723">
        <ele>89.4</ele>
        <time>2017-11-20T18:12:45Z</time>
      </trkpt>
      <trkpt lat="62.632832027425" lon="17.974530502477">
        <ele>89.4</ele>
        <time>2017-11-20T18:12:46Z</time>
      </trkpt>
      <trkpt lat="62.632806378811" lon="17.974541901861">
        <ele>89.6</ele>
        <time>2017-11-20T18:12:47Z</time>
      </trkpt>
      <trkpt lat="62.632777628894" lon="17.974532933228">
        <ele>89.6</ele>
        <time>2017-11-20T18:12:48Z</time>
      </trkpt>
      <trkpt lat="62.632749130434" lon="17.974521533844">
        <ele>89.6</ele>
        <time>2017-11-20T18:12:49Z</time>
      </trkpt>
      <trkpt lat="62.632727002218" lon="17.974507452252">
        <ele>89.6</ele>
        <time>2017-11-20T18:12:50Z</time>
      </trkpt>
      <trkpt lat="62.632700347776" lon="17.974477780326">
        <ele>89.8</ele>
        <time>2017-11-20T18:12:51Z</time>
      </trkpt>
      <trkpt lat="62.632678554836" lon="17.974455987386">
        <ele>89.8</ele>
        <time>2017-11-20T18:12:52Z</time>
      </trkpt>
      <trkpt lat="62.632656761896" lon="17.97443637374">
        <ele>89.8</ele>
        <time>2017-11-20T18:12:53Z</time>
      </trkpt>
      <trkpt lat="62.632630778006" lon="17.974406869452">
        <ele>89.8</ele>
        <time>2017-11-20T18:12:54Z</time>
      </trkpt>
      <trkpt lat="62.63261200255" lon="17.974385914702">
        <ele>89.8</ele>
        <time>2017-11-20T18:12:55Z</time>
      </trkpt>
      <trkpt lat="62.632588365592" lon="17.974362277744">
        <ele>89.8</ele>
        <time>2017-11-20T18:12:56Z</time>
      </trkpt>
      <trkpt lat="62.632564560996" lon="17.974330594162">
        <ele>89.8</ele>
        <time>2017-11-20T18:12:57Z</time>
      </trkpt>
      <trkpt lat="62.632541846047" lon="17.974304023539">
        <ele>89.8</ele>
        <time>2017-11-20T18:12:58Z</time>
      </trkpt>
      <trkpt lat="62.63252231622" lon="17.974280135124">
        <ele>89.8</ele>
        <time>2017-11-20T18:12:59Z</time>
      </trkpt>
      <trkpt lat="62.632496919063" lon="17.974255492338">
        <ele>89.6</ele>
        <time>2017-11-20T18:13:00Z</time>
      </trkpt>
      <trkpt lat="62.632473030648" lon="17.974229592267">
        <ele>89.6</ele>
        <time>2017-11-20T18:13:01Z</time>
      </trkpt>
      <trkpt lat="62.632452075898" lon="17.974209727164">
        <ele>89.6</ele>
        <time>2017-11-20T18:13:02Z</time>
      </trkpt>
      <trkpt lat="62.632429360949" lon="17.974188772414">
        <ele>89.6</ele>
        <time>2017-11-20T18:13:03Z</time>
      </trkpt>
      <trkpt lat="62.632408825294" lon="17.974165135456">
        <ele>89.6</ele>
        <time>2017-11-20T18:13:04Z</time>
      </trkpt>
      <trkpt lat="62.632386948535" lon="17.974145940905">
        <ele>89.6</ele>
        <time>2017-11-20T18:13:05Z</time>
      </trkpt>
      <trkpt lat="62.632364485043" lon="17.97411953792">
        <ele>89.6</ele>
        <time>2017-11-20T18:13:06Z</time>
      </trkpt>
      <trkpt lat="62.63234629632" lon="17.974097158247">
        <ele>89.4</ele>
        <time>2017-11-20T18:13:07Z</time>
      </trkpt>
      <trkpt lat="62.632325006294" lon="17.97406924652">
        <ele>89.4</ele>
        <time>2017-11-20T18:13:08Z</time>
      </trkpt>
      <trkpt lat="62.632300866422" lon="17.974041334793">
        <ele>89.4</ele>
        <time>2017-11-20T18:13:09Z</time>
      </trkpt>
      <trkpt lat="62.632281588052" lon="17.974024654812">
        <ele>89.4</ele>
        <time>2017-11-20T18:13:10Z</time>
      </trkpt>
      <trkpt lat="62.632257867275" lon="17.973998670922">
        <ele>89.4</ele>
        <time>2017-11-20T18:13:11Z</time>
      </trkpt>
      <trkpt lat="62.632233643584" lon="17.973969250453">
        <ele>89.4</ele>
        <time>2017-11-20T18:13:12Z</time>
      </trkpt>
      <trkpt lat="62.632210258083" lon="17.973943853296">
        <ele>89.4</ele>
        <time>2017-11-20T18:13:13Z</time>
      </trkpt>
      <trkpt lat="62.632185782935" lon="17.973919881062">
        <ele>89.4</ele>
        <time>2017-11-20T18:13:14Z</time>
      </trkpt>
      <trkpt lat="62.632162397434" lon="17.973888616575">
        <ele>89.4</ele>
        <time>2017-11-20T18:13:15Z</time>
      </trkpt>
      <trkpt lat="62.632140017761" lon="17.973865482531">
        <ele>89.4</ele>
        <time>2017-11-20T18:13:16Z</time>
      </trkpt>
      <trkpt lat="62.632116883717" lon="17.973840336831">
        <ele>89.4</ele>
        <time>2017-11-20T18:13:17Z</time>
      </trkpt>
      <trkpt lat="62.632090732189" lon="17.973809826715">
        <ele>89.4</ele>
        <time>2017-11-20T18:13:18Z</time>
      </trkpt>
      <trkpt lat="62.632070196534" lon="17.973786022119">
        <ele>89.4</ele>
        <time>2017-11-20T18:13:19Z</time>
      </trkpt>
      <trkpt lat="62.632046559576" lon="17.973759032401">
        <ele>89.2</ele>
        <time>2017-11-20T18:13:20Z</time>
      </trkpt>
      <trkpt lat="62.632019905134" lon="17.973731791226">
        <ele>89.2</ele>
        <time>2017-11-20T18:13:21Z</time>
      </trkpt>
      <trkpt lat="62.631996519633" lon="17.973709914467">
        <ele>89.2</ele>
        <time>2017-11-20T18:13:22Z</time>
      </trkpt>
      <trkpt lat="62.631971960666" lon="17.973679404351">
        <ele>89.2</ele>
        <time>2017-11-20T18:13:23Z</time>
      </trkpt>
      <trkpt lat="62.631947234061" lon="17.973648894235">
        <ele>89.2</ele>
        <time>2017-11-20T18:13:24Z</time>
      </trkpt>
      <trkpt lat="62.631925441121" lon="17.973622323612">
        <ele>89.2</ele>
        <time>2017-11-20T18:13:25Z</time>
      </trkpt>
      <trkpt lat="62.631898870498" lon="17.973589550383">
        <ele>89.2</ele>
        <time>2017-11-20T18:13:26Z</time>
      </trkpt>
      <trkpt lat="62.631874479169" lon="17.973564237045">
        <ele>89.2</ele>
        <time>2017-11-20T18:13:27Z</time>
      </trkpt>
      <trkpt lat="62.631850255478" lon="17.973541522096">
        <ele>89</ele>
        <time>2017-11-20T18:13:28Z</time>
      </trkpt>
      <trkpt lat="62.63182578033" lon="17.973510592885">
        <ele>89</ele>
        <time>2017-11-20T18:13:29Z</time>
      </trkpt>
      <trkpt lat="62.631802730105" lon="17.973477652018">
        <ele>89</ele>
        <time>2017-11-20T18:13:30Z</time>
      </trkpt>
      <trkpt lat="62.631780434251" lon="17.973433814681">
        <ele>89.2</ele>
        <time>2017-11-20T18:13:31Z</time>
      </trkpt>
      <trkpt lat="62.631754869456" lon="17.97339701814">
        <ele>89</ele>
        <time>2017-11-20T18:13:32Z</time>
      </trkpt>
      <trkpt lat="62.631736680733" lon="17.97337103425">
        <ele>89</ele>
        <time>2017-11-20T18:13:33Z</time>
      </trkpt>
      <trkpt lat="62.631712708499" lon="17.973332728967">
        <ele>89</ele>
        <time>2017-11-20T18:13:34Z</time>
      </trkpt>
      <trkpt lat="62.631691753749" lon="17.973301380661">
        <ele>89</ele>
        <time>2017-11-20T18:13:35Z</time>
      </trkpt>
      <trkpt lat="62.631667949153" lon="17.973266009043">
        <ele>89</ele>
        <time>2017-11-20T18:13:36Z</time>
      </trkpt>
      <trkpt lat="62.631648503145" lon="17.973225943561">
        <ele>88.8</ele>
        <time>2017-11-20T18:13:37Z</time>
      </trkpt>
      <trkpt lat="62.631624698549" lon="17.973181687129">
        <ele>88.8</ele>
        <time>2017-11-20T18:13:38Z</time>
      </trkpt>
      <trkpt lat="62.631603743799" lon="17.97314556114">
        <ele>88.8</ele>
        <time>2017-11-20T18:13:39Z</time>
      </trkpt>
      <trkpt lat="62.631586477085" lon="17.973096359387">
        <ele>88.8</ele>
        <time>2017-11-20T18:13:40Z</time>
      </trkpt>
      <trkpt lat="62.631569042733" lon="17.973059143751">
        <ele>88.8</ele>
        <time>2017-11-20T18:13:41Z</time>
      </trkpt>
      <trkpt lat="62.631546746879" lon="17.9730148035">
        <ele>88.6</ele>
        <time>2017-11-20T18:13:42Z</time>
      </trkpt>
      <trkpt lat="62.631528139061" lon="17.972970044154">
        <ele>88.6</ele>
        <time>2017-11-20T18:13:43Z</time>
      </trkpt>
      <trkpt lat="62.631507938682" lon="17.972929643396">
        <ele>88.6</ele>
        <time>2017-11-20T18:13:44Z</time>
      </trkpt>
      <trkpt lat="62.631492013072" lon="17.972892511579">
        <ele>88.4</ele>
        <time>2017-11-20T18:13:45Z</time>
      </trkpt>
      <trkpt lat="62.631467957019" lon="17.972841381989">
        <ele>88.2</ele>
        <time>2017-11-20T18:13:46Z</time>
      </trkpt>
      <trkpt lat="62.631452701961" lon="17.972799640127">
        <ele>88.2</ele>
        <time>2017-11-20T18:13:47Z</time>
      </trkpt>
      <trkpt lat="62.631435016152" lon="17.972756473342">
        <ele>87.8</ele>
        <time>2017-11-20T18:13:48Z</time>
      </trkpt>
      <trkpt lat="62.631416073058" lon="17.972708277417">
        <ele>87.6</ele>
        <time>2017-11-20T18:13:49Z</time>
      </trkpt>
      <trkpt lat="62.631400734181" lon="17.972667038469">
        <ele>87.4</ele>
        <time>2017-11-20T18:13:50Z</time>
      </trkpt>
      <trkpt lat="62.631382629277" lon="17.97262001601">
        <ele>87.2</ele>
        <time>2017-11-20T18:13:51Z</time>
      </trkpt>
      <trkpt lat="62.631365111106" lon="17.972572406818">
        <ele>87</ele>
        <time>2017-11-20T18:13:52Z</time>
      </trkpt>
      <trkpt lat="62.631349269315" lon="17.972528066567">
        <ele>87</ele>
        <time>2017-11-20T18:13:53Z</time>
      </trkpt>
      <trkpt lat="62.631330745316" lon="17.972480960289">
        <ele>87</ele>
        <time>2017-11-20T18:13:54Z</time>
      </trkpt>
      <trkpt lat="62.631315741715" lon="17.972435698029">
        <ele>86.8</ele>
        <time>2017-11-20T18:13:55Z</time>
      </trkpt>
      <trkpt lat="62.631300067562" lon="17.972389597579">
        <ele>86.8</ele>
        <time>2017-11-20T18:13:56Z</time>
      </trkpt>
      <trkpt lat="62.63128263321" lon="17.972350454106">
        <ele>86.6</ele>
        <time>2017-11-20T18:13:57Z</time>
      </trkpt>
      <trkpt lat="62.631268048704" lon="17.972298402507">
        <ele>86.4</ele>
        <time>2017-11-20T18:13:58Z</time>
      </trkpt>
      <trkpt lat="62.631254470026" lon="17.972257163559">
        <ele>86.2</ele>
        <time>2017-11-20T18:13:59Z</time>
      </trkpt>
      <trkpt lat="62.631240136977" lon="17.97221265567">
        <ele>86</ele>
        <time>2017-11-20T18:14:00Z</time>
      </trkpt>
      <trkpt lat="62.631224546643" lon="17.972158257139">
        <ele>86</ele>
        <time>2017-11-20T18:14:01Z</time>
      </trkpt>
      <trkpt lat="62.631212644345" lon="17.972114755078">
        <ele>85.8</ele>
        <time>2017-11-20T18:14:02Z</time>
      </trkpt>
      <trkpt lat="62.631197892201" lon="17.972069828094">
        <ele>85.8</ele>
        <time>2017-11-20T18:14:03Z</time>
      </trkpt>
      <trkpt lat="62.631183559152" lon="17.972017273581">
        <ele>85.6</ele>
        <time>2017-11-20T18:14:04Z</time>
      </trkpt>
      <trkpt lat="62.631174590519" lon="17.971976034633">
        <ele>85.6</ele>
        <time>2017-11-20T18:14:05Z</time>
      </trkpt>
      <trkpt lat="62.631159503099" lon="17.971917026057">
        <ele>85.4</ele>
        <time>2017-11-20T18:14:06Z</time>
      </trkpt>
      <trkpt lat="62.63114684643" lon="17.971863046621">
        <ele>85.4</ele>
        <time>2017-11-20T18:14:07Z</time>
      </trkpt>
      <trkpt lat="62.631129663535" lon="17.971808061357">
        <ele>85.4</ele>
        <time>2017-11-20T18:14:08Z</time>
      </trkpt>
      <trkpt lat="62.631114743753" lon="17.971748382229">
        <ele>85.2</ele>
        <time>2017-11-20T18:14:09Z</time>
      </trkpt>
      <trkpt lat="62.631104853111" lon="17.971698593743">
        <ele>85</ele>
        <time>2017-11-20T18:14:10Z</time>
      </trkpt>
      <trkpt lat="62.631090100967" lon="17.971645620135">
        <ele>84.8</ele>
        <time>2017-11-20T18:14:11Z</time>
      </trkpt>
      <trkpt lat="62.631075013547" lon="17.971581666238">
        <ele>84.6</ele>
        <time>2017-11-20T18:14:12Z</time>
      </trkpt>
      <trkpt lat="62.631064117077" lon="17.97152869263">
        <ele>84.4</ele>
        <time>2017-11-20T18:14:13Z</time>
      </trkpt>
      <trkpt lat="62.631051460408" lon="17.971473036814">
        <ele>84.2</ele>
        <time>2017-11-20T18:14:14Z</time>
      </trkpt>
      <trkpt lat="62.631041653585" lon="17.971416794265">
        <ele>84.2</ele>
        <time>2017-11-20T18:14:15Z</time>
      </trkpt>
      <trkpt lat="62.631029332192" lon="17.971361809001">
        <ele>84</ele>
        <time>2017-11-20T18:14:16Z</time>
      </trkpt>
      <trkpt lat="62.631017932808" lon="17.971310260316">
        <ele>84</ele>
        <time>2017-11-20T18:14:17Z</time>
      </trkpt>
      <trkpt lat="62.631006114329" lon="17.971246306419">
        <ele>84</ele>
        <time>2017-11-20T18:14:18Z</time>
      </trkpt>
      <trkpt lat="62.630997145696" lon="17.971193919544">
        <ele>83.8</ele>
        <time>2017-11-20T18:14:19Z</time>
      </trkpt>
      <trkpt lat="62.630989434348" lon="17.971137006443">
        <ele>83.8</ele>
        <time>2017-11-20T18:14:20Z</time>
      </trkpt>
      <trkpt lat="62.63098088481" lon="17.971075315659">
        <ele>83.8</ele>
        <time>2017-11-20T18:14:21Z</time>
      </trkpt>
      <trkpt lat="62.630976442403" lon="17.971026533001">
        <ele>83.6</ele>
        <time>2017-11-20T18:14:22Z</time>
      </trkpt>
      <trkpt lat="62.630967892865" lon="17.970969200805">
        <ele>83.6</ele>
        <time>2017-11-20T18:14:23Z</time>
      </trkpt>
      <trkpt lat="62.630963534277" lon="17.970902145605">
        <ele>83.4</ele>
        <time>2017-11-20T18:14:24Z</time>
      </trkpt>
      <trkpt lat="62.630957918404" lon="17.970853530585">
        <ele>83.2</ele>
        <time>2017-11-20T18:14:25Z</time>
      </trkpt>
      <trkpt lat="62.630952805445" lon="17.970790079602">
        <ele>83.2</ele>
        <time>2017-11-20T18:14:26Z</time>
      </trkpt>
      <trkpt lat="62.630948111581" lon="17.970731154845">
        <ele>83.2</ele>
        <time>2017-11-20T18:14:27Z</time>
      </trkpt>
      <trkpt lat="62.630939478224" lon="17.970681785454">
        <ele>83</ele>
        <time>2017-11-20T18:14:28Z</time>
      </trkpt>
      <trkpt lat="62.630932521247" lon="17.970626297276">
        <ele>83</ele>
        <time>2017-11-20T18:14:29Z</time>
      </trkpt>
      <trkpt lat="62.63092556427" lon="17.970578101351">
        <ele>82.8</ele>
        <time>2017-11-20T18:14:30Z</time>
      </trkpt>
      <trkpt lat="62.63091802056" lon="17.970523199906">
        <ele>82.8</ele>
        <time>2017-11-20T18:14:31Z</time>
      </trkpt>
      <trkpt lat="62.630912572325" lon="17.970471232126">
        <ele>82.6</ele>
        <time>2017-11-20T18:14:32Z</time>
      </trkpt>
      <trkpt lat="62.630905699167" lon="17.97041976726">
        <ele>82.4</ele>
        <time>2017-11-20T18:14:33Z</time>
      </trkpt>
      <trkpt lat="62.630896981991" lon="17.970374421181">
        <ele>82.2</ele>
        <time>2017-11-20T18:14:34Z</time>
      </trkpt>
      <trkpt lat="62.630890695566" lon="17.970327231084">
        <ele>82</ele>
        <time>2017-11-20T18:14:35Z</time>
      </trkpt>
      <trkpt lat="62.630885498788" lon="17.970273754562">
        <ele>82</ele>
        <time>2017-11-20T18:14:36Z</time>
      </trkpt>
      <trkpt lat="62.630878793268" lon="17.970239053496">
        <ele>81.8</ele>
        <time>2017-11-20T18:14:37Z</time>
      </trkpt>
      <trkpt lat="62.63087024373" lon="17.970210303579">
        <ele>81.6</ele>
        <time>2017-11-20T18:14:38Z</time>
      </trkpt>
      <trkpt lat="62.630862364744" lon="17.9701901032">
        <ele>81.6</ele>
        <time>2017-11-20T18:14:39Z</time>
      </trkpt>
      <trkpt lat="62.630856329776" lon="17.970172752667">
        <ele>81.6</ele>
        <time>2017-11-20T18:14:40Z</time>
      </trkpt>
      <trkpt lat="62.63085347993" lon="17.970156994695">
        <ele>81.6</ele>
        <time>2017-11-20T18:14:41Z</time>
      </trkpt>
      <trkpt lat="62.630851049179" lon="17.970150289175">
        <ele>81.6</ele>
        <time>2017-11-20T18:14:42Z</time>
      </trkpt>
      <trkpt lat="62.630855240129" lon="17.970159509265">
        <ele>81.6</ele>
        <time>2017-11-20T18:14:43Z</time>
      </trkpt>
      <trkpt lat="62.630880972562" lon="17.969598424879">
        <ele>81</ele>
        <time>2017-11-20T18:17:03Z</time>
      </trkpt>
      <trkpt lat="62.630877619802" lon="17.969545870366">
        <ele>81</ele>
        <time>2017-11-20T18:17:04Z</time>
      </trkpt>
      <trkpt lat="62.630877200707" lon="17.969496249518">
        <ele>80.6</ele>
        <time>2017-11-20T18:17:05Z</time>
      </trkpt>
      <trkpt lat="62.63087443468" lon="17.969442772996">
        <ele>80.4</ele>
        <time>2017-11-20T18:17:06Z</time>
      </trkpt>
      <trkpt lat="62.630871584834" lon="17.969389715569">
        <ele>80.2</ele>
        <time>2017-11-20T18:17:07Z</time>
      </trkpt>
      <trkpt lat="62.630866388056" lon="17.969338921255">
        <ele>79.8</ele>
        <time>2017-11-20T18:17:08Z</time>
      </trkpt>
      <trkpt lat="62.630863035296" lon="17.969288629855">
        <ele>79.8</ele>
        <time>2017-11-20T18:17:09Z</time>
      </trkpt>
      <trkpt lat="62.630860269269" lon="17.969228280175">
        <ele>79.4</ele>
        <time>2017-11-20T18:17:10Z</time>
      </trkpt>
      <trkpt lat="62.630854485758" lon="17.96917505511">
        <ele>79</ele>
        <time>2017-11-20T18:17:11Z</time>
      </trkpt>
      <trkpt lat="62.630849959532" lon="17.969118393466">
        <ele>78.8</ele>
        <time>2017-11-20T18:17:12Z</time>
      </trkpt>
      <trkpt lat="62.630846522953" lon="17.969063827297">
        <ele>78.6</ele>
        <time>2017-11-20T18:17:13Z</time>
      </trkpt>
      <trkpt lat="62.630844092202" lon="17.969012110974">
        <ele>78.4</ele>
        <time>2017-11-20T18:17:14Z</time>
      </trkpt>
      <trkpt lat="62.630835710302" lon="17.968960562289">
        <ele>78</ele>
        <time>2017-11-20T18:17:15Z</time>
      </trkpt>
      <trkpt lat="62.630831351714" lon="17.968908175414">
        <ele>77.8</ele>
        <time>2017-11-20T18:17:16Z</time>
      </trkpt>
      <trkpt lat="62.630826909307" lon="17.968863080792">
        <ele>77.4</ele>
        <time>2017-11-20T18:17:17Z</time>
      </trkpt>
      <trkpt lat="62.630821880167" lon="17.968817818532">
        <ele>77.2</ele>
        <time>2017-11-20T18:17:18Z</time>
      </trkpt>
      <trkpt lat="62.630817186303" lon="17.968770796073">
        <ele>77</ele>
        <time>2017-11-20T18:17:19Z</time>
      </trkpt>
      <trkpt lat="62.630808972041" lon="17.968728467478">
        <ele>76.6</ele>
        <time>2017-11-20T18:17:20Z</time>
      </trkpt>
      <trkpt lat="62.630798494666" lon="17.968685887426">
        <ele>76.4</ele>
        <time>2017-11-20T18:17:21Z</time>
      </trkpt>
      <trkpt lat="62.630787765834" lon="17.968643977926">
        <ele>76.2</ele>
        <time>2017-11-20T18:17:22Z</time>
      </trkpt>
      <trkpt lat="62.630770918215" lon="17.968612126706">
        <ele>76</ele>
        <time>2017-11-20T18:17:23Z</time>
      </trkpt>
      <trkpt lat="62.630756333709" lon="17.968579604934">
        <ele>76</ele>
        <time>2017-11-20T18:17:24Z</time>
      </trkpt>
      <trkpt lat="62.630742671212" lon="17.968536941063">
        <ele>75.6</ele>
        <time>2017-11-20T18:17:25Z</time>
      </trkpt>
      <trkpt lat="62.630729511629" lon="17.968499976884">
        <ele>75.6</ele>
        <time>2017-11-20T18:17:26Z</time>
      </trkpt>
      <trkpt lat="62.630714508028" lon="17.96846510818">
        <ele>75.2</ele>
        <time>2017-11-20T18:17:27Z</time>
      </trkpt>
      <trkpt lat="62.630698666237" lon="17.968430910028">
        <ele>75</ele>
        <time>2017-11-20T18:17:28Z</time>
      </trkpt>
      <trkpt lat="62.630681231885" lon="17.968394281125">
        <ele>74.6</ele>
        <time>2017-11-20T18:17:29Z</time>
      </trkpt>
      <trkpt lat="62.63066656356" lon="17.968365866484">
        <ele>74.2</ele>
        <time>2017-11-20T18:17:30Z</time>
      </trkpt>
      <trkpt lat="62.630652062873" lon="17.968333679988">
        <ele>73.8</ele>
        <time>2017-11-20T18:17:31Z</time>
      </trkpt>
      <trkpt lat="62.630639070928" lon="17.968302918415">
        <ele>73.4</ele>
        <time>2017-11-20T18:17:32Z</time>
      </trkpt>
      <trkpt lat="62.630625156974" lon="17.968270312824">
        <ele>73.2</ele>
        <time>2017-11-20T18:17:33Z</time>
      </trkpt>
      <trkpt lat="62.630611075382" lon="17.968236449948">
        <ele>73</ele>
        <time>2017-11-20T18:17:34Z</time>
      </trkpt>
      <trkpt lat="62.630597580523" lon="17.968198228484">
        <ele>72.6</ele>
        <time>2017-11-20T18:17:35Z</time>
      </trkpt>
      <trkpt lat="62.630584169483" lon="17.968161515762">
        <ele>72.4</ele>
        <time>2017-11-20T18:17:36Z</time>
      </trkpt>
      <trkpt lat="62.630571931909" lon="17.968126227963">
        <ele>72.2</ele>
        <time>2017-11-20T18:17:37Z</time>
      </trkpt>
      <trkpt lat="62.630559023783" lon="17.968079876056">
        <ele>71.8</ele>
        <time>2017-11-20T18:17:38Z</time>
      </trkpt>
      <trkpt lat="62.630548462589" lon="17.968035535805">
        <ele>71.6</ele>
        <time>2017-11-20T18:17:39Z</time>
      </trkpt>
      <trkpt lat="62.630537733757" lon="17.967991698468">
        <ele>71.4</ele>
        <time>2017-11-20T18:17:40Z</time>
      </trkpt>
      <trkpt lat="62.63053161497" lon="17.967932103159">
        <ele>71.2</ele>
        <time>2017-11-20T18:17:41Z</time>
      </trkpt>
      <trkpt lat="62.630524238898" lon="17.967881057388">
        <ele>70.6</ele>
        <time>2017-11-20T18:17:42Z</time>
      </trkpt>
      <trkpt lat="62.630516862826" lon="17.967830011617">
        <ele>70.4</ele>
        <time>2017-11-20T18:17:43Z</time>
      </trkpt>
      <trkpt lat="62.63050982203" lon="17.967775780724">
        <ele>70.2</ele>
        <time>2017-11-20T18:17:44Z</time>
      </trkpt>
      <trkpt lat="62.630506133994" lon="17.967722304202">
        <ele>70</ele>
        <time>2017-11-20T18:17:45Z</time>
      </trkpt>
      <trkpt lat="62.630503703243" lon="17.967672515716">
        <ele>69.8</ele>
        <time>2017-11-20T18:17:46Z</time>
      </trkpt>
      <trkpt lat="62.630502194501" lon="17.967615854072">
        <ele>69.4</ele>
        <time>2017-11-20T18:17:47Z</time>
      </trkpt>
      <trkpt lat="62.630502781234" lon="17.967562042274">
        <ele>69.2</ele>
        <time>2017-11-20T18:17:48Z</time>
      </trkpt>
      <trkpt lat="62.630502194501" lon="17.967526083923">
        <ele>69</ele>
        <time>2017-11-20T18:17:49Z</time>
      </trkpt>
      <trkpt lat="62.630503367967" lon="17.967462716759">
        <ele>68.6</ele>
        <time>2017-11-20T18:17:50Z</time>
      </trkpt>
      <trkpt lat="62.630504457614" lon="17.967413263549">
        <ele>68.2</ele>
        <time>2017-11-20T18:17:51Z</time>
      </trkpt>
      <trkpt lat="62.630505966356" lon="17.967364229434">
        <ele>68.2</ele>
        <time>2017-11-20T18:17:52Z</time>
      </trkpt>
      <trkpt lat="62.630508648564" lon="17.967315362957">
        <ele>67.8</ele>
        <time>2017-11-20T18:17:53Z</time>
      </trkpt>
      <trkpt lat="62.63051149841" lon="17.967268256679">
        <ele>67.6</ele>
        <time>2017-11-20T18:17:54Z</time>
      </trkpt>
      <trkpt lat="62.630514767351" lon="17.96721704327">
        <ele>67.2</ele>
        <time>2017-11-20T18:17:55Z</time>
      </trkpt>
      <trkpt lat="62.630518287749" lon="17.967171864829">
        <ele>67</ele>
        <time>2017-11-20T18:17:56Z</time>
      </trkpt>
      <trkpt lat="62.630521053776" lon="17.967121405791">
        <ele>66.6</ele>
        <time>2017-11-20T18:17:57Z</time>
      </trkpt>
      <trkpt lat="62.630523484527" lon="17.96706784545">
        <ele>66.6</ele>
        <time>2017-11-20T18:17:58Z</time>
      </trkpt>
      <trkpt lat="62.630527004925" lon="17.967023924294">
        <ele>66.4</ele>
        <time>2017-11-20T18:17:59Z</time>
      </trkpt>
      <trkpt lat="62.630528765124" lon="17.966963406976">
        <ele>65.8</ele>
        <time>2017-11-20T18:18:00Z</time>
      </trkpt>
      <trkpt lat="62.630531698789" lon="17.966910014273">
        <ele>65.6</ele>
        <time>2017-11-20T18:18:01Z</time>
      </trkpt>
      <trkpt lat="62.630534464816" lon="17.966859890511">
        <ele>65.2</ele>
        <time>2017-11-20T18:18:02Z</time>
      </trkpt>
      <trkpt lat="62.630536979386" lon="17.966810437301">
        <ele>65</ele>
        <time>2017-11-20T18:18:03Z</time>
      </trkpt>
      <trkpt lat="62.630539829232" lon="17.966762241376">
        <ele>64.8</ele>
        <time>2017-11-20T18:18:04Z</time>
      </trkpt>
      <trkpt lat="62.630542595259" lon="17.966703065162">
        <ele>64.4</ele>
        <time>2017-11-20T18:18:05Z</time>
      </trkpt>
      <trkpt lat="62.630544439277" lon="17.96665210321">
        <ele>64.4</ele>
        <time>2017-11-20T18:18:06Z</time>
      </trkpt>
      <trkpt lat="62.630546115657" lon="17.966604577837">
        <ele>64</ele>
        <time>2017-11-20T18:18:07Z</time>
      </trkpt>
      <trkpt lat="62.630548127313" lon="17.966546407451">
        <ele>63.6</ele>
        <time>2017-11-20T18:18:08Z</time>
      </trkpt>
      <trkpt lat="62.630548294951" lon="17.966497289517">
        <ele>63.4</ele>
        <time>2017-11-20T18:18:09Z</time>
      </trkpt>
      <trkpt lat="62.630549552236" lon="17.966447752488">
        <ele>63</ele>
        <time>2017-11-20T18:18:10Z</time>
      </trkpt>
      <trkpt lat="62.630553910824" lon="17.966390085016">
        <ele>62.6</ele>
        <time>2017-11-20T18:18:11Z</time>
      </trkpt>
      <trkpt lat="62.63055592248" lon="17.96633862015">
        <ele>62.4</ele>
        <time>2017-11-20T18:18:12Z</time>
      </trkpt>
      <trkpt lat="62.630556341575" lon="17.966288412569">
        <ele>62.2</ele>
        <time>2017-11-20T18:18:13Z</time>
      </trkpt>
      <trkpt lat="62.630557263584" lon="17.966239965187">
        <ele>62</ele>
        <time>2017-11-20T18:18:14Z</time>
      </trkpt>
      <trkpt lat="62.630556509213" lon="17.966185566656">
        <ele>61.8</ele>
        <time>2017-11-20T18:18:15Z</time>
      </trkpt>
      <trkpt lat="62.630556593032" lon="17.966132006315">
        <ele>61.6</ele>
        <time>2017-11-20T18:18:16Z</time>
      </trkpt>
      <trkpt lat="62.630558269412" lon="17.966092695204">
        <ele>61.2</ele>
        <time>2017-11-20T18:18:17Z</time>
      </trkpt>
      <trkpt lat="62.630560867801" lon="17.966044331641">
        <ele>61</ele>
        <time>2017-11-20T18:18:18Z</time>
      </trkpt>
      <trkpt lat="62.630564052923" lon="17.965997895915">
        <ele>61</ele>
        <time>2017-11-20T18:18:19Z</time>
      </trkpt>
      <trkpt lat="62.630564891113" lon="17.965952968931">
        <ele>60.6</ele>
        <time>2017-11-20T18:18:20Z</time>
      </trkpt>
      <trkpt lat="62.630567824778" lon="17.965905527377">
        <ele>60.6</ele>
        <time>2017-11-20T18:18:21Z</time>
      </trkpt>
      <trkpt lat="62.630571261357" lon="17.965861103307">
        <ele>60.4</ele>
        <time>2017-11-20T18:18:22Z</time>
      </trkpt>
      <trkpt lat="62.630571093719" lon="17.965811817735">
        <ele>60.2</ele>
        <time>2017-11-20T18:18:23Z</time>
      </trkpt>
      <trkpt lat="62.630571345176" lon="17.965763957086">
        <ele>60.2</ele>
        <time>2017-11-20T18:18:24Z</time>
      </trkpt>
      <trkpt lat="62.630575787583" lon="17.965717940455">
        <ele>60</ele>
        <time>2017-11-20T18:18:25Z</time>
      </trkpt>
      <trkpt lat="62.630577212506" lon="17.965675025127">
        <ele>60</ele>
        <time>2017-11-20T18:18:26Z</time>
      </trkpt>
      <trkpt lat="62.63057855361" lon="17.965636887482">
        <ele>59.6</ele>
        <time>2017-11-20T18:18:27Z</time>
      </trkpt>
      <trkpt lat="62.630579894714" lon="17.965602521692">
        <ele>59.6</ele>
        <time>2017-11-20T18:18:28Z</time>
      </trkpt>
      <trkpt lat="62.630574865574" lon="17.965585338797">
        <ele>59.4</ele>
        <time>2017-11-20T18:18:29Z</time>
      </trkpt>
      <trkpt lat="62.630578218334" lon="17.965559187269">
        <ele>59</ele>
        <time>2017-11-20T18:18:30Z</time>
      </trkpt>
      <trkpt lat="62.630577966877" lon="17.965540495632">
        <ele>58.8</ele>
        <time>2017-11-20T18:18:31Z</time>
      </trkpt>
      <trkpt lat="62.630576122859" lon="17.965517445407">
        <ele>58.6</ele>
        <time>2017-11-20T18:18:32Z</time>
      </trkpt>
      <trkpt lat="62.630574195022" lon="17.965496742114">
        <ele>58.4</ele>
        <time>2017-11-20T18:18:33Z</time>
      </trkpt>
      <trkpt lat="62.630573356832" lon="17.965481487056">
        <ele>58.2</ele>
        <time>2017-11-20T18:18:34Z</time>
      </trkpt>
      <trkpt lat="62.630573692108" lon="17.965468495111">
        <ele>58</ele>
        <time>2017-11-20T18:18:35Z</time>
      </trkpt>
      <trkpt lat="62.630573859746" lon="17.9654543297">
        <ele>58</ele>
        <time>2017-11-20T18:18:36Z</time>
      </trkpt>
      <trkpt lat="62.630575033212" lon="17.96544008047">
        <ele>57.8</ele>
        <time>2017-11-20T18:18:37Z</time>
      </trkpt>
      <trkpt lat="62.630568662968" lon="17.965451228397">
        <ele>57.8</ele>
        <time>2017-11-20T18:18:38Z</time>
      </trkpt>
      <trkpt lat="62.630560448706" lon="17.965444941972">
        <ele>57.8</ele>
        <time>2017-11-20T18:18:39Z</time>
      </trkpt>
      <trkpt lat="62.630567992416" lon="17.96542247848">
        <ele>57.8</ele>
        <time>2017-11-20T18:18:40Z</time>
      </trkpt>
      <trkpt lat="62.630567824778" lon="17.965425915059">
        <ele>58</ele>
        <time>2017-11-20T18:18:41Z</time>
      </trkpt>
      <trkpt lat="62.630568746787" lon="17.965425076869">
        <ele>57.8</ele>
        <time>2017-11-20T18:18:42Z</time>
      </trkpt>
      <trkpt lat="62.630567824778" lon="17.965426250335">
        <ele>57.8</ele>
        <time>2017-11-20T18:18:43Z</time>
      </trkpt>
      <trkpt lat="62.630578888886" lon="17.965859426927">
        <ele>58.2</ele>
        <time>2017-11-20T18:19:00Z</time>
      </trkpt>
      <trkpt lat="62.630576793411" lon="17.965921620625">
        <ele>58.4</ele>
        <time>2017-11-20T18:19:01Z</time>
      </trkpt>
      <trkpt lat="62.630575033212" lon="17.965984736332">
        <ele>58.6</ele>
        <time>2017-11-20T18:19:02Z</time>
      </trkpt>
      <trkpt lat="62.630571931909" lon="17.966046343297">
        <ele>59</ele>
        <time>2017-11-20T18:19:03Z</time>
      </trkpt>
      <trkpt lat="62.630568746787" lon="17.966103591674">
        <ele>59</ele>
        <time>2017-11-20T18:19:04Z</time>
      </trkpt>
      <trkpt lat="62.63056598076" lon="17.966164528087">
        <ele>59.4</ele>
        <time>2017-11-20T18:19:05Z</time>
      </trkpt>
      <trkpt lat="62.630563969104" lon="17.966224291034">
        <ele>59.8</ele>
        <time>2017-11-20T18:19:06Z</time>
      </trkpt>
      <trkpt lat="62.63056095162" lon="17.966280282126">
        <ele>59.8</ele>
        <time>2017-11-20T18:19:07Z</time>
      </trkpt>
      <trkpt lat="62.630559861973" lon="17.966345074213">
        <ele>60.2</ele>
        <time>2017-11-20T18:19:08Z</time>
      </trkpt>
      <trkpt lat="62.630558269412" lon="17.966400730029">
        <ele>60.2</ele>
        <time>2017-11-20T18:19:09Z</time>
      </trkpt>
      <trkpt lat="62.630556257756" lon="17.966461331166">
        <ele>60.4</ele>
        <time>2017-11-20T18:19:10Z</time>
      </trkpt>
      <trkpt lat="62.630553659367" lon="17.966518076629">
        <ele>60.6</ele>
        <time>2017-11-20T18:19:11Z</time>
      </trkpt>
      <trkpt lat="62.630550306607" lon="17.966575492644">
        <ele>60.8</ele>
        <time>2017-11-20T18:19:12Z</time>
      </trkpt>
      <trkpt lat="62.630547037666" lon="17.966629639718">
        <ele>61</ele>
        <time>2017-11-20T18:19:13Z</time>
      </trkpt>
      <trkpt lat="62.630544523096" lon="17.966681020765">
        <ele>61.2</ele>
        <time>2017-11-20T18:19:14Z</time>
      </trkpt>
      <trkpt lat="62.630543265811" lon="17.966736089848">
        <ele>61.4</ele>
        <time>2017-11-20T18:19:15Z</time>
      </trkpt>
      <trkpt lat="62.630540332146" lon="17.966776742063">
        <ele>61.8</ele>
        <time>2017-11-20T18:19:16Z</time>
      </trkpt>
      <trkpt lat="62.630536979386" lon="17.96684069596">
        <ele>62.2</ele>
        <time>2017-11-20T18:19:17Z</time>
      </trkpt>
      <trkpt lat="62.63053496773" lon="17.966889478618">
        <ele>62.6</ele>
        <time>2017-11-20T18:19:18Z</time>
      </trkpt>
      <trkpt lat="62.630533458988" lon="17.966933399774">
        <ele>62.8</ele>
        <time>2017-11-20T18:19:19Z</time>
      </trkpt>
      <trkpt lat="62.630533123712" lon="17.966987882124">
        <ele>63.2</ele>
        <time>2017-11-20T18:19:20Z</time>
      </trkpt>
      <trkpt lat="62.630530944418" lon="17.967035910411">
        <ele>63.4</ele>
        <time>2017-11-20T18:19:21Z</time>
      </trkpt>
      <trkpt lat="62.63052993859" lon="17.967081424128">
        <ele>63.6</ele>
        <time>2017-11-20T18:19:22Z</time>
      </trkpt>
      <trkpt lat="62.630528429848" lon="17.967133559546">
        <ele>64.2</ele>
        <time>2017-11-20T18:19:23Z</time>
      </trkpt>
      <trkpt lat="62.630527675477" lon="17.967176474874">
        <ele>64.4</ele>
        <time>2017-11-20T18:19:24Z</time>
      </trkpt>
      <trkpt lat="62.630523568346" lon="17.967231879233">
        <ele>64.6</ele>
        <time>2017-11-20T18:19:25Z</time>
      </trkpt>
      <trkpt lat="62.630521472871" lon="17.967280410434">
        <ele>65</ele>
        <time>2017-11-20T18:19:26Z</time>
      </trkpt>
      <trkpt lat="62.630519628853" lon="17.967330618015">
        <ele>65.4</ele>
        <time>2017-11-20T18:19:27Z</time>
      </trkpt>
      <trkpt lat="62.630516695188" lon="17.967382501976">
        <ele>65.4</ele>
        <time>2017-11-20T18:19:28Z</time>
      </trkpt>
      <trkpt lat="62.630516192274" lon="17.967423908562">
        <ele>65.6</ele>
        <time>2017-11-20T18:19:29Z</time>
      </trkpt>
      <trkpt lat="62.63051317479" lon="17.967483420052">
        <ele>66</ele>
        <time>2017-11-20T18:19:30Z</time>
      </trkpt>
      <trkpt lat="62.630512671876" lon="17.967529185226">
        <ele>66.2</ele>
        <time>2017-11-20T18:19:31Z</time>
      </trkpt>
      <trkpt lat="62.630513677704" lon="17.967577213513">
        <ele>66.4</ele>
        <time>2017-11-20T18:19:32Z</time>
      </trkpt>
      <trkpt lat="62.630515773179" lon="17.967625660895">
        <ele>66.6</ele>
        <time>2017-11-20T18:19:33Z</time>
      </trkpt>
      <trkpt lat="62.630517449559" lon="17.967671509888">
        <ele>66.8</ele>
        <time>2017-11-20T18:19:34Z</time>
      </trkpt>
      <trkpt lat="62.6305207185" lon="17.967726327514">
        <ele>67.2</ele>
        <time>2017-11-20T18:19:35Z</time>
      </trkpt>
      <trkpt lat="62.630523819803" lon="17.967774691077">
        <ele>67.6</ele>
        <time>2017-11-20T18:19:36Z</time>
      </trkpt>
      <trkpt lat="62.630526418192" lon="17.96781970188">
        <ele>67.6</ele>
        <time>2017-11-20T18:19:37Z</time>
      </trkpt>
      <trkpt lat="62.630531112056" lon="17.967871166746">
        <ele>68</ele>
        <time>2017-11-20T18:19:38Z</time>
      </trkpt>
      <trkpt lat="62.630535554463" lon="17.967917099558">
        <ele>68.2</ele>
        <time>2017-11-20T18:19:39Z</time>
      </trkpt>
      <trkpt lat="62.63054251144" lon="17.967965798397">
        <ele>68.4</ele>
        <time>2017-11-20T18:19:40Z</time>
      </trkpt>
      <trkpt lat="62.630547875856" lon="17.968014748693">
        <ele>68.6</ele>
        <time>2017-11-20T18:19:41Z</time>
      </trkpt>
      <trkpt lat="62.630556090118" lon="17.968058418392">
        <ele>69</ele>
        <time>2017-11-20T18:19:42Z</time>
      </trkpt>
      <trkpt lat="62.630567740959" lon="17.968100327892">
        <ele>69.4</ele>
        <time>2017-11-20T18:19:43Z</time>
      </trkpt>
      <trkpt lat="62.630578805067" lon="17.968139974279">
        <ele>69.6</ele>
        <time>2017-11-20T18:19:44Z</time>
      </trkpt>
      <trkpt lat="62.630590791184" lon="17.968180794132">
        <ele>70</ele>
        <time>2017-11-20T18:19:45Z</time>
      </trkpt>
      <trkpt lat="62.63060118474" lon="17.968217255397">
        <ele>70.4</ele>
        <time>2017-11-20T18:19:46Z</time>
      </trkpt>
      <trkpt lat="62.630613925228" lon="17.968259583992">
        <ele>70.6</ele>
        <time>2017-11-20T18:19:47Z</time>
      </trkpt>
      <trkpt lat="62.630629515562" lon="17.968296129076">
        <ele>70.8</ele>
        <time>2017-11-20T18:19:48Z</time>
      </trkpt>
      <trkpt lat="62.630643513335" lon="17.968329405219">
        <ele>71</ele>
        <time>2017-11-20T18:19:49Z</time>
      </trkpt>
      <trkpt lat="62.630663797533" lon="17.968362346086">
        <ele>71.4</ele>
        <time>2017-11-20T18:19:50Z</time>
      </trkpt>
      <trkpt lat="62.630676705659" lon="17.968393945849">
        <ele>71.6</ele>
        <time>2017-11-20T18:19:51Z</time>
      </trkpt>
      <trkpt lat="62.630684500826" lon="17.968421689938">
        <ele>71.8</ele>
        <time>2017-11-20T18:19:52Z</time>
      </trkpt>
      <trkpt lat="62.630702270454" lon="17.968462509791">
        <ele>72.2</ele>
        <time>2017-11-20T18:19:53Z</time>
      </trkpt>
      <trkpt lat="62.630715597675" lon="17.968493355183">
        <ele>72.2</ele>
        <time>2017-11-20T18:19:54Z</time>
      </trkpt>
      <trkpt lat="62.630733534941" lon="17.968527050421">
        <ele>72.6</ele>
        <time>2017-11-20T18:19:55Z</time>
      </trkpt>
      <trkpt lat="62.630749376732" lon="17.968561164754">
        <ele>72.8</ele>
        <time>2017-11-20T18:19:56Z</time>
      </trkpt>
      <trkpt lat="62.630765972894" lon="17.968594273259">
        <ele>73.2</ele>
        <time>2017-11-20T18:19:57Z</time>
      </trkpt>
      <trkpt lat="62.630780976495" lon="17.968628387592">
        <ele>73.4</ele>
        <time>2017-11-20T18:19:58Z</time>
      </trkpt>
      <trkpt lat="62.630794471354" lon="17.96867046473">
        <ele>73.8</ele>
        <time>2017-11-20T18:19:59Z</time>
      </trkpt>
      <trkpt lat="62.630805870738" lon="17.968713044782">
        <ele>74</ele>
        <time>2017-11-20T18:20:00Z</time>
      </trkpt>
      <trkpt lat="62.630815677561" lon="17.968755038101">
        <ele>74.4</ele>
        <time>2017-11-20T18:20:01Z</time>
      </trkpt>
      <trkpt lat="62.630823556547" lon="17.968798121067">
        <ele>74.6</ele>
        <time>2017-11-20T18:20:02Z</time>
      </trkpt>
      <trkpt lat="62.630830429705" lon="17.968841874585">
        <ele>74.8</ele>
        <time>2017-11-20T18:20:03Z</time>
      </trkpt>
      <trkpt lat="62.63083587794" lon="17.968886214836">
        <ele>75</ele>
        <time>2017-11-20T18:20:04Z</time>
      </trkpt>
      <trkpt lat="62.630844092202" lon="17.968927286146">
        <ele>75.2</ele>
        <time>2017-11-20T18:20:05Z</time>
      </trkpt>
      <trkpt lat="62.630850043351" lon="17.968973218958">
        <ele>75.4</ele>
        <time>2017-11-20T18:20:06Z</time>
      </trkpt>
      <trkpt lat="62.630854150482" lon="17.969020576693">
        <ele>75.6</ele>
        <time>2017-11-20T18:20:07Z</time>
      </trkpt>
      <trkpt lat="62.630861778011" lon="17.969061312727">
        <ele>76</ele>
        <time>2017-11-20T18:20:08Z</time>
      </trkpt>
      <trkpt lat="62.630868064436" lon="17.969109424833">
        <ele>76.2</ele>
        <time>2017-11-20T18:20:09Z</time>
      </trkpt>
      <trkpt lat="62.630871668653" lon="17.969148065392">
        <ele>76.4</ele>
        <time>2017-11-20T18:20:10Z</time>
      </trkpt>
      <trkpt lat="62.63087443468" lon="17.969197099507">
        <ele>76.8</ele>
        <time>2017-11-20T18:20:11Z</time>
      </trkpt>
      <trkpt lat="62.630877871259" lon="17.96923959574">
        <ele>77</ele>
        <time>2017-11-20T18:20:12Z</time>
      </trkpt>
      <trkpt lat="62.630880134372" lon="17.969282427249">
        <ele>77.4</ele>
        <time>2017-11-20T18:20:13Z</time>
      </trkpt>
      <trkpt lat="62.630880972562" lon="17.969328946794">
        <ele>77.4</ele>
        <time>2017-11-20T18:20:14Z</time>
      </trkpt>
      <trkpt lat="62.630882313666" lon="17.969374879606">
        <ele>77.8</ele>
        <time>2017-11-20T18:20:15Z</time>
      </trkpt>
      <trkpt lat="62.630885247331" lon="17.969416872925">
        <ele>78</ele>
        <time>2017-11-20T18:20:16Z</time>
      </trkpt>
      <trkpt lat="62.630886420797" lon="17.96946590704">
        <ele>78.2</ele>
        <time>2017-11-20T18:20:17Z</time>
      </trkpt>
      <trkpt lat="62.63088784572" lon="17.969510079653">
        <ele>78.4</ele>
        <time>2017-11-20T18:20:18Z</time>
      </trkpt>
      <trkpt lat="62.630891030842" lon="17.969554000809">
        <ele>78.4</ele>
        <time>2017-11-20T18:20:19Z</time>
      </trkpt>
      <trkpt lat="62.630891030842" lon="17.969600268897">
        <ele>78.8</ele>
        <time>2017-11-20T18:20:20Z</time>
      </trkpt>
      <trkpt lat="62.63089203667" lon="17.9696452797">
        <ele>79</ele>
        <time>2017-11-20T18:20:21Z</time>
      </trkpt>
      <trkpt lat="62.630893880688" lon="17.969692134521">
        <ele>79.2</ele>
        <time>2017-11-20T18:20:22Z</time>
      </trkpt>
      <trkpt lat="62.630898574552" lon="17.969740078989">
        <ele>79.6</ele>
        <time>2017-11-20T18:20:23Z</time>
      </trkpt>
      <trkpt lat="62.63090125676" lon="17.969781234118">
        <ele>80</ele>
        <time>2017-11-20T18:20:24Z</time>
      </trkpt>
      <trkpt lat="62.630902514045" lon="17.969834040088">
        <ele>80.4</ele>
        <time>2017-11-20T18:20:25Z</time>
      </trkpt>
      <trkpt lat="62.630902849321" lon="17.969875027579">
        <ele>80.6</ele>
        <time>2017-11-20T18:20:26Z</time>
      </trkpt>
      <trkpt lat="62.630902681683" lon="17.969909980102">
        <ele>80.8</ele>
        <time>2017-11-20T18:20:27Z</time>
      </trkpt>
      <trkpt lat="62.630901675855" lon="17.969943591521">
        <ele>81</ele>
        <time>2017-11-20T18:20:28Z</time>
      </trkpt>
      <trkpt lat="62.630898071638" lon="17.969966222651">
        <ele>81.2</ele>
        <time>2017-11-20T18:20:29Z</time>
      </trkpt>
      <trkpt lat="62.630904944796" lon="17.969987680315">
        <ele>81.2</ele>
        <time>2017-11-20T18:20:30Z</time>
      </trkpt>
      <trkpt lat="62.630908213737" lon="17.970005785219">
        <ele>81.4</ele>
        <time>2017-11-20T18:20:31Z</time>
      </trkpt>
      <trkpt lat="62.630910979764" lon="17.970020118268">
        <ele>81.6</ele>
        <time>2017-11-20T18:20:32Z</time>
      </trkpt>
      <trkpt lat="62.630913326696" lon="17.97001911244">
        <ele>81.6</ele>
        <time>2017-11-20T18:20:33Z</time>
      </trkpt>
      <trkpt lat="62.630909051927" lon="17.969986506849">
        <ele>81.8</ele>
        <time>2017-11-20T18:20:36Z</time>
      </trkpt>
      <trkpt lat="62.630906202081" lon="17.969963121348">
        <ele>82</ele>
        <time>2017-11-20T18:20:37Z</time>
      </trkpt>
      <trkpt lat="62.630903352235" lon="17.969954236534">
        <ele>82</ele>
        <time>2017-11-20T18:20:38Z</time>
      </trkpt>
      <trkpt lat="62.630901675855" lon="17.969938310924">
        <ele>82</ele>
        <time>2017-11-20T18:20:39Z</time>
      </trkpt>
      <trkpt lat="62.630900167113" lon="17.969908806636">
        <ele>82</ele>
        <time>2017-11-20T18:20:40Z</time>
      </trkpt>
      <trkpt lat="62.63089874219" lon="17.969886846058">
        <ele>82</ele>
        <time>2017-11-20T18:20:41Z</time>
      </trkpt>
      <trkpt lat="62.630899328923" lon="17.96986572367">
        <ele>82</ele>
        <time>2017-11-20T18:20:42Z</time>
      </trkpt>
      <trkpt lat="62.63090125676" lon="17.96984141616">
        <ele>81.8</ele>
        <time>2017-11-20T18:20:43Z</time>
      </trkpt>
      <trkpt lat="62.630903100778" lon="17.969816773374">
        <ele>81.8</ele>
        <time>2017-11-20T18:20:44Z</time>
      </trkpt>
      <trkpt lat="62.630896981991" lon="17.969790705665">
        <ele>81.8</ele>
        <time>2017-11-20T18:20:45Z</time>
      </trkpt>
      <trkpt lat="62.630892539584" lon="17.96976681725">
        <ele>81.8</ele>
        <time>2017-11-20T18:20:46Z</time>
      </trkpt>
      <trkpt lat="62.6308895221" lon="17.969741587731">
        <ele>81.8</ele>
        <time>2017-11-20T18:20:47Z</time>
      </trkpt>
      <trkpt lat="62.630888348634" lon="17.969715855298">
        <ele>81.6</ele>
        <time>2017-11-20T18:20:48Z</time>
      </trkpt>
      <trkpt lat="62.630886420797" lon="17.969696325471">
        <ele>81.6</ele>
        <time>2017-11-20T18:20:49Z</time>
      </trkpt>
      <trkpt lat="62.630882732761" lon="17.969660618577">
        <ele>81.4</ele>
        <time>2017-11-20T18:20:50Z</time>
      </trkpt>
      <trkpt lat="62.630879296182" lon="17.96963103047">
        <ele>81.4</ele>
        <time>2017-11-20T18:20:51Z</time>
      </trkpt>
      <trkpt lat="62.630875859603" lon="17.969601945277">
        <ele>81.2</ele>
        <time>2017-11-20T18:20:52Z</time>
      </trkpt>
      <trkpt lat="62.630874183223" lon="17.969570513152">
        <ele>81</ele>
        <time>2017-11-20T18:20:53Z</time>
      </trkpt>
      <trkpt lat="62.630872674481" lon="17.969541427959">
        <ele>81</ele>
        <time>2017-11-20T18:20:54Z</time>
      </trkpt>
      <trkpt lat="62.630872423024" lon="17.969504547599">
        <ele>80.8</ele>
        <time>2017-11-20T18:20:55Z</time>
      </trkpt>
      <trkpt lat="62.630868902626" lon="17.969477474062">
        <ele>80.8</ele>
        <time>2017-11-20T18:20:56Z</time>
      </trkpt>
      <trkpt lat="62.630864544038" lon="17.969446880127">
        <ele>80.6</ele>
        <time>2017-11-20T18:20:57Z</time>
      </trkpt>
      <trkpt lat="62.630860856002" lon="17.969414190717">
        <ele>80.6</ele>
        <time>2017-11-20T18:20:58Z</time>
      </trkpt>
      <trkpt lat="62.630861191278" lon="17.969379657289">
        <ele>80.4</ele>
        <time>2017-11-20T18:20:59Z</time>
      </trkpt>
      <trkpt lat="62.630858760527" lon="17.969345542956">
        <ele>80.4</ele>
        <time>2017-11-20T18:21:00Z</time>
      </trkpt>
      <trkpt lat="62.630854737215" lon="17.969311847718">
        <ele>80.2</ele>
        <time>2017-11-20T18:21:01Z</time>
      </trkpt>
      <trkpt lat="62.630851300636" lon="17.9692764761">
        <ele>80.2</ele>
        <time>2017-11-20T18:21:02Z</time>
      </trkpt>
      <trkpt lat="62.630848618428" lon="17.969239511921">
        <ele>80</ele>
        <time>2017-11-20T18:21:03Z</time>
      </trkpt>
      <trkpt lat="62.630846103858" lon="17.969202883018">
        <ele>80</ele>
        <time>2017-11-20T18:21:04Z</time>
      </trkpt>
      <trkpt lat="62.630845433306" lon="17.969168265771">
        <ele>79.6</ele>
        <time>2017-11-20T18:21:05Z</time>
      </trkpt>
      <trkpt lat="62.630842918736" lon="17.969131636868">
        <ele>79.6</ele>
        <time>2017-11-20T18:21:06Z</time>
      </trkpt>
      <trkpt lat="62.630840404166" lon="17.96909458887">
        <ele>79.4</ele>
        <time>2017-11-20T18:21:07Z</time>
      </trkpt>
      <trkpt lat="62.630837219044" lon="17.969051422085">
        <ele>79</ele>
        <time>2017-11-20T18:21:08Z</time>
      </trkpt>
      <trkpt lat="62.630833447189" lon="17.969011775698">
        <ele>79</ele>
        <time>2017-11-20T18:21:09Z</time>
      </trkpt>
      <trkpt lat="62.630828166592" lon="17.968977493727">
        <ele>78.8</ele>
        <time>2017-11-20T18:21:10Z</time>
      </trkpt>
      <trkpt lat="62.630824730013" lon="17.968934913675">
        <ele>78.4</ele>
        <time>2017-11-20T18:21:11Z</time>
      </trkpt>
      <trkpt lat="62.630820958158" lon="17.968895854021">
        <ele>78.2</ele>
        <time>2017-11-20T18:21:12Z</time>
      </trkpt>
      <trkpt lat="62.630816348113" lon="17.968859225118">
        <ele>78</ele>
        <time>2017-11-20T18:21:13Z</time>
      </trkpt>
      <trkpt lat="62.630811905706" lon="17.968824104957">
        <ele>77.8</ele>
        <time>2017-11-20T18:21:14Z</time>
      </trkpt>
      <trkpt lat="62.630806122195" lon="17.968776663403">
        <ele>77.6</ele>
        <time>2017-11-20T18:21:15Z</time>
      </trkpt>
      <trkpt lat="62.630799500494" lon="17.968736262645">
        <ele>77.6</ele>
        <time>2017-11-20T18:21:16Z</time>
      </trkpt>
      <trkpt lat="62.63078977749" lon="17.968706842176">
        <ele>77.4</ele>
        <time>2017-11-20T18:21:17Z</time>
      </trkpt>
      <trkpt lat="62.630778713382" lon="17.968670800006">
        <ele>77.2</ele>
        <time>2017-11-20T18:21:18Z</time>
      </trkpt>
      <trkpt lat="62.63076714636" lon="17.968634087284">
        <ele>77</ele>
        <time>2017-11-20T18:21:19Z</time>
      </trkpt>
      <trkpt lat="62.630755327881" lon="17.968604750634">
        <ele>76.8</ele>
        <time>2017-11-20T18:21:20Z</time>
      </trkpt>
      <trkpt lat="62.630742335936" lon="17.96857072012">
        <ele>76.4</ele>
        <time>2017-11-20T18:21:21Z</time>
      </trkpt>
      <trkpt lat="62.63072858962" lon="17.968533420665">
        <ele>76.2</ele>
        <time>2017-11-20T18:21:22Z</time>
      </trkpt>
      <trkpt lat="62.630711909639" lon="17.968502407635">
        <ele>76</ele>
        <time>2017-11-20T18:21:23Z</time>
      </trkpt>
      <trkpt lat="62.630696989857" lon="17.968472987166">
        <ele>75.8</ele>
        <time>2017-11-20T18:21:24Z</time>
      </trkpt>
      <trkpt lat="62.630675196917" lon="17.96844331524">
        <ele>75.4</ele>
        <time>2017-11-20T18:21:25Z</time>
      </trkpt>
      <trkpt lat="62.630656086185" lon="17.968414649142">
        <ele>75.2</ele>
        <time>2017-11-20T18:21:26Z</time>
      </trkpt>
      <trkpt lat="62.630639573842" lon="17.968385731587">
        <ele>74.8</ele>
        <time>2017-11-20T18:21:27Z</time>
      </trkpt>
      <trkpt lat="62.630625073155" lon="17.968355640566">
        <ele>74.6</ele>
        <time>2017-11-20T18:21:28Z</time>
      </trkpt>
      <trkpt lat="62.630610237192" lon="17.968329991952">
        <ele>74.4</ele>
        <time>2017-11-20T18:21:29Z</time>
      </trkpt>
      <trkpt lat="62.630593724849" lon="17.968293614506">
        <ele>74</ele>
        <time>2017-11-20T18:21:30Z</time>
      </trkpt>
      <trkpt lat="62.630578972705" lon="17.968258661983">
        <ele>73.6</ele>
        <time>2017-11-20T18:21:31Z</time>
      </trkpt>
      <trkpt lat="62.630563214733" lon="17.968220859614">
        <ele>73.4</ele>
        <time>2017-11-20T18:21:32Z</time>
      </trkpt>
      <trkpt lat="62.630549049322" lon="17.968182051417">
        <ele>73.2</ele>
        <time>2017-11-20T18:21:33Z</time>
      </trkpt>
      <trkpt lat="62.630537147024" lon="17.968143494677">
        <ele>73</ele>
        <time>2017-11-20T18:21:34Z</time>
      </trkpt>
      <trkpt lat="62.630525915278" lon="17.968097478046">
        <ele>72.6</ele>
        <time>2017-11-20T18:21:35Z</time>
      </trkpt>
      <trkpt lat="62.63051401298" lon="17.968062525523">
        <ele>72.6</ele>
        <time>2017-11-20T18:21:36Z</time>
      </trkpt>
      <trkpt lat="62.630502110682" lon="17.968031344855">
        <ele>72.6</ele>
        <time>2017-11-20T18:21:37Z</time>
      </trkpt>
      <trkpt lat="62.630482329398" lon="17.968037044547">
        <ele>72.4</ele>
        <time>2017-11-20T18:21:38Z</time>
      </trkpt>
      <trkpt lat="62.630458189526" lon="17.968033021235">
        <ele>72.2</ele>
        <time>2017-11-20T18:21:39Z</time>
      </trkpt>
      <trkpt lat="62.630445365219" lon="17.968034194701">
        <ele>72</ele>
        <time>2017-11-20T18:21:40Z</time>
      </trkpt>
      <trkpt lat="62.630439916984" lon="17.968053724528">
        <ele>71.6</ele>
        <time>2017-11-20T18:21:41Z</time>
      </trkpt>
      <trkpt lat="62.630436396586" lon="17.968072332346">
        <ele>71.2</ele>
        <time>2017-11-20T18:21:42Z</time>
      </trkpt>
      <trkpt lat="62.630433295283" lon="17.968087000671">
        <ele>70.8</ele>
        <time>2017-11-20T18:21:43Z</time>
      </trkpt>
      <trkpt lat="62.630429774885" lon="17.968097897141">
        <ele>70.6</ele>
        <time>2017-11-20T18:21:44Z</time>
      </trkpt>
      <trkpt lat="62.630430780713" lon="17.968092197449">
        <ele>70.4</ele>
        <time>2017-11-20T18:21:45Z</time>
      </trkpt>
      <trkpt lat="62.630494902248" lon="17.967900754853">
        <ele>70.4</ele>
        <time>2017-11-20T18:22:32Z</time>
      </trkpt>
      <trkpt lat="62.630493393506" lon="17.967870412375">
        <ele>70.2</ele>
        <time>2017-11-20T18:22:33Z</time>
      </trkpt>
      <trkpt lat="62.630491800945" lon="17.96784233301">
        <ele>70.2</ele>
        <time>2017-11-20T18:22:34Z</time>
      </trkpt>
      <trkpt lat="62.630490124565" lon="17.96780880541">
        <ele>69.8</ele>
        <time>2017-11-20T18:22:35Z</time>
      </trkpt>
      <trkpt lat="62.630488364366" lon="17.967779804036">
        <ele>69.8</ele>
        <time>2017-11-20T18:22:36Z</time>
      </trkpt>
      <trkpt lat="62.630487023262" lon="17.967752395223">
        <ele>69.6</ele>
        <time>2017-11-20T18:22:37Z</time>
      </trkpt>
      <trkpt lat="62.630485682158" lon="17.967718867623">
        <ele>69.6</ele>
        <time>2017-11-20T18:22:38Z</time>
      </trkpt>
      <trkpt lat="62.630485011606" lon="17.967689363335">
        <ele>69.4</ele>
        <time>2017-11-20T18:22:39Z</time>
      </trkpt>
      <trkpt lat="62.630484257235" lon="17.967657847391">
        <ele>69.4</ele>
        <time>2017-11-20T18:22:40Z</time>
      </trkpt>
      <trkpt lat="62.630483083769" lon="17.967597497711">
        <ele>69.2</ele>
        <time>2017-11-20T18:22:41Z</time>
      </trkpt>
      <trkpt lat="62.630483251407" lon="17.967545949026">
        <ele>68.8</ele>
        <time>2017-11-20T18:22:42Z</time>
      </trkpt>
      <trkpt lat="62.630481826484" lon="17.967488952106">
        <ele>68.8</ele>
        <time>2017-11-20T18:22:43Z</time>
      </trkpt>
      <trkpt lat="62.630479982466" lon="17.967433715385">
        <ele>68.6</ele>
        <time>2017-11-20T18:22:44Z</time>
      </trkpt>
      <trkpt lat="62.630486520348" lon="17.967369929126">
        <ele>68.2</ele>
        <time>2017-11-20T18:22:45Z</time>
      </trkpt>
      <trkpt lat="62.630489118737" lon="17.967313938034">
        <ele>68.2</ele>
        <time>2017-11-20T18:22:46Z</time>
      </trkpt>
      <trkpt lat="62.630491465669" lon="17.967254426544">
        <ele>68.2</ele>
        <time>2017-11-20T18:22:47Z</time>
      </trkpt>
      <trkpt lat="62.63049389642" lon="17.967198351633">
        <ele>68</ele>
        <time>2017-11-20T18:22:48Z</time>
      </trkpt>
      <trkpt lat="62.630496159533" lon="17.967144623654">
        <ele>67.8</ele>
        <time>2017-11-20T18:22:49Z</time>
      </trkpt>
      <trkpt lat="62.630501356311" lon="17.967086872363">
        <ele>67.4</ele>
        <time>2017-11-20T18:22:50Z</time>
      </trkpt>
      <trkpt lat="62.630504709071" lon="17.967034150212">
        <ele>67.2</ele>
        <time>2017-11-20T18:22:51Z</time>
      </trkpt>
      <trkpt lat="62.630507223641" lon="17.966985199916">
        <ele>67</ele>
        <time>2017-11-20T18:22:52Z</time>
      </trkpt>
      <trkpt lat="62.63051066022" lon="17.966928873548">
        <ele>66.2</ele>
        <time>2017-11-20T18:22:53Z</time>
      </trkpt>
      <trkpt lat="62.630512671876" lon="17.966881683451">
        <ele>66</ele>
        <time>2017-11-20T18:22:54Z</time>
      </trkpt>
      <trkpt lat="62.630516108455" lon="17.966824602712">
        <ele>65.2</ele>
        <time>2017-11-20T18:22:55Z</time>
      </trkpt>
      <trkpt lat="62.630520131767" lon="17.966774059855">
        <ele>65</ele>
        <time>2017-11-20T18:22:56Z</time>
      </trkpt>
      <trkpt lat="62.630523400708" lon="17.966723097903">
        <ele>64.6</ele>
        <time>2017-11-20T18:22:57Z</time>
      </trkpt>
      <trkpt lat="62.630526166735" lon="17.966674147607">
        <ele>64.6</ele>
        <time>2017-11-20T18:22:58Z</time>
      </trkpt>
      <trkpt lat="62.630530441504" lon="17.966628047157">
        <ele>64.4</ele>
        <time>2017-11-20T18:22:59Z</time>
      </trkpt>
      <trkpt lat="62.630532034065" lon="17.966570044409">
        <ele>64.4</ele>
        <time>2017-11-20T18:23:00Z</time>
      </trkpt>
      <trkpt lat="62.630534464816" lon="17.966510281462">
        <ele>64</ele>
        <time>2017-11-20T18:23:01Z</time>
      </trkpt>
      <trkpt lat="62.630536979386" lon="17.966451021429">
        <ele>63.8</ele>
        <time>2017-11-20T18:23:02Z</time>
      </trkpt>
      <trkpt lat="62.630537566119" lon="17.966397377269">
        <ele>63.2</ele>
        <time>2017-11-20T18:23:03Z</time>
      </trkpt>
      <trkpt lat="62.630537230843" lon="17.966347672602">
        <ele>62.8</ele>
        <time>2017-11-20T18:23:04Z</time>
      </trkpt>
      <trkpt lat="62.630542092345" lon="17.966289334578">
        <ele>62.4</ele>
        <time>2017-11-20T18:23:05Z</time>
      </trkpt>
      <trkpt lat="62.630541589431" lon="17.966230577459">
        <ele>62.2</ele>
        <time>2017-11-20T18:23:06Z</time>
      </trkpt>
      <trkpt lat="62.630539242499" lon="17.966166288286">
        <ele>62</ele>
        <time>2017-11-20T18:23:07Z</time>
      </trkpt>
      <trkpt lat="62.630543265811" lon="17.966117673266">
        <ele>62</ele>
        <time>2017-11-20T18:23:08Z</time>
      </trkpt>
      <trkpt lat="62.630545361286" lon="17.966070147893">
        <ele>62</ele>
        <time>2017-11-20T18:23:09Z</time>
      </trkpt>
      <trkpt lat="62.630542762897" lon="17.966029914773">
        <ele>61.8</ele>
        <time>2017-11-20T18:23:10Z</time>
      </trkpt>
      <trkpt lat="62.630548546408" lon="17.965961602288">
        <ele>61.6</ele>
        <time>2017-11-20T18:23:11Z</time>
      </trkpt>
      <trkpt lat="62.630552150625" lon="17.965907706671">
        <ele>61.4</ele>
        <time>2017-11-20T18:23:12Z</time>
      </trkpt>
      <trkpt lat="62.630555503385" lon="17.965850039199">
        <ele>61</ele>
        <time>2017-11-20T18:23:13Z</time>
      </trkpt>
      <trkpt lat="62.630557095946" lon="17.96579463484">
        <ele>60.8</ele>
        <time>2017-11-20T18:23:14Z</time>
      </trkpt>
      <trkpt lat="62.630562963276" lon="17.965733027875">
        <ele>60.4</ele>
        <time>2017-11-20T18:23:15Z</time>
      </trkpt>
      <trkpt lat="62.630568076235" lon="17.965666894684">
        <ele>60.4</ele>
        <time>2017-11-20T18:23:16Z</time>
      </trkpt>
      <trkpt lat="62.630573775927" lon="17.965608305203">
        <ele>60.2</ele>
        <time>2017-11-20T18:23:17Z</time>
      </trkpt>
      <trkpt lat="62.630580816723" lon="17.965547620247">
        <ele>60</ele>
        <time>2017-11-20T18:23:18Z</time>
      </trkpt>
      <trkpt lat="62.630610740106" lon="17.965454748795">
        <ele>59.6</ele>
        <time>2017-11-20T18:23:20Z</time>
      </trkpt>
      <trkpt lat="62.63063471234" lon="17.965435386606">
        <ele>59.4</ele>
        <time>2017-11-20T18:23:21Z</time>
      </trkpt>
      <trkpt lat="62.630658768393" lon="17.965422981394">
        <ele>59.2</ele>
        <time>2017-11-20T18:23:22Z</time>
      </trkpt>
      <trkpt lat="62.630696151667" lon="17.965436224796">
        <ele>59.2</ele>
        <time>2017-11-20T18:23:23Z</time>
      </trkpt>
      <trkpt lat="62.63072942781" lon="17.965446283076">
        <ele>59.4</ele>
        <time>2017-11-20T18:23:24Z</time>
      </trkpt>
      <trkpt lat="62.630758513003" lon="17.96545852065">
        <ele>59.2</ele>
        <time>2017-11-20T18:23:25Z</time>
      </trkpt>
      <trkpt lat="62.630787346739" lon="17.965475619726">
        <ele>59.2</ele>
        <time>2017-11-20T18:23:26Z</time>
      </trkpt>
      <trkpt lat="62.630815509923" lon="17.965491712974">
        <ele>59.4</ele>
        <time>2017-11-20T18:23:27Z</time>
      </trkpt>
      <trkpt lat="62.63084258346" lon="17.965506632756">
        <ele>59.4</ele>
        <time>2017-11-20T18:23:28Z</time>
      </trkpt>
      <trkpt lat="62.630873680309" lon="17.965527671325">
        <ele>59.4</ele>
        <time>2017-11-20T18:23:29Z</time>
      </trkpt>
      <trkpt lat="62.630903687511" lon="17.965524402384">
        <ele>59.4</ele>
        <time>2017-11-20T18:23:30Z</time>
      </trkpt>
      <trkpt lat="62.630932102152" lon="17.965520965805">
        <ele>59.8</ele>
        <time>2017-11-20T18:23:31Z</time>
      </trkpt>
      <trkpt lat="62.63095993006" lon="17.965507806222">
        <ele>60.2</ele>
        <time>2017-11-20T18:23:32Z</time>
      </trkpt>
      <trkpt lat="62.630988512339" lon="17.965487773481">
        <ele>60.2</ele>
        <time>2017-11-20T18:23:33Z</time>
      </trkpt>
      <trkpt lat="62.63101692698" lon="17.965467992197">
        <ele>60.4</ele>
        <time>2017-11-20T18:23:34Z</time>
      </trkpt>
      <trkpt lat="62.631040312481" lon="17.965437733538">
        <ele>60.8</ele>
        <time>2017-11-20T18:23:35Z</time>
      </trkpt>
      <trkpt lat="62.631064955267" lon="17.965407810155">
        <ele>60.8</ele>
        <time>2017-11-20T18:23:36Z</time>
      </trkpt>
      <trkpt lat="62.631090436243" lon="17.965377635315">
        <ele>60.8</ele>
        <time>2017-11-20T18:23:37Z</time>
      </trkpt>
      <trkpt lat="62.631113989382" lon="17.96535039414">
        <ele>61</ele>
        <time>2017-11-20T18:23:38Z</time>
      </trkpt>
      <trkpt lat="62.631137374883" lon="17.965320554576">
        <ele>61</ele>
        <time>2017-11-20T18:23:39Z</time>
      </trkpt>
      <trkpt lat="62.631164699877" lon="17.965298761636">
        <ele>61</ele>
        <time>2017-11-20T18:23:40Z</time>
      </trkpt>
      <trkpt lat="62.631188420654" lon="17.965318375282">
        <ele>61.2</ele>
        <time>2017-11-20T18:23:41Z</time>
      </trkpt>
      <trkpt lat="62.631212979621" lon="17.965346789923">
        <ele>61.2</ele>
        <time>2017-11-20T18:23:42Z</time>
      </trkpt>
      <trkpt lat="62.631235778389" lon="17.965376629487">
        <ele>61.2</ele>
        <time>2017-11-20T18:23:43Z</time>
      </trkpt>
      <trkpt lat="62.631257655148" lon="17.96540571468">
        <ele>61.4</ele>
        <time>2017-11-20T18:23:44Z</time>
      </trkpt>
      <trkpt lat="62.631282130296" lon="17.965437817357">
        <ele>61.4</ele>
        <time>2017-11-20T18:23:45Z</time>
      </trkpt>
      <trkpt lat="62.631305012883" lon="17.965465477627">
        <ele>61.4</ele>
        <time>2017-11-20T18:23:46Z</time>
      </trkpt>
      <trkpt lat="62.631329488031" lon="17.965497664123">
        <ele>61.4</ele>
        <time>2017-11-20T18:23:47Z</time>
      </trkpt>
      <trkpt lat="62.631351532428" lon="17.965525072936">
        <ele>61.6</ele>
        <time>2017-11-20T18:23:48Z</time>
      </trkpt>
      <trkpt lat="62.631372487178" lon="17.965550889188">
        <ele>61.6</ele>
        <time>2017-11-20T18:23:49Z</time>
      </trkpt>
      <trkpt lat="62.631394280118" lon="17.965567317712">
        <ele>61.6</ele>
        <time>2017-11-20T18:23:50Z</time>
      </trkpt>
      <trkpt lat="62.631416827429" lon="17.965587015177">
        <ele>61.8</ele>
        <time>2017-11-20T18:23:51Z</time>
      </trkpt>
      <trkpt lat="62.631437865998" lon="17.965607467013">
        <ele>61.8</ele>
        <time>2017-11-20T18:23:52Z</time>
      </trkpt>
      <trkpt lat="62.631462341146" lon="17.96563537874">
        <ele>62.2</ele>
        <time>2017-11-20T18:23:53Z</time>
      </trkpt>
      <trkpt lat="62.631483966448" lon="17.965661949363">
        <ele>62.2</ele>
        <time>2017-11-20T18:23:54Z</time>
      </trkpt>
      <trkpt lat="62.631509195967" lon="17.965677623516">
        <ele>62.6</ele>
        <time>2017-11-20T18:23:55Z</time>
      </trkpt>
      <trkpt lat="62.631534257848" lon="17.965698159171">
        <ele>62.6</ele>
        <time>2017-11-20T18:23:56Z</time>
      </trkpt>
      <trkpt lat="62.631558062444" lon="17.96571668317">
        <ele>63</ele>
        <time>2017-11-20T18:23:57Z</time>
      </trkpt>
      <trkpt lat="62.631581699402" lon="17.965736548273">
        <ele>63</ele>
        <time>2017-11-20T18:23:58Z</time>
      </trkpt>
      <trkpt lat="62.631606928921" lon="17.965762951258">
        <ele>63.2</ele>
        <time>2017-11-20T18:23:59Z</time>
      </trkpt>
      <trkpt lat="62.63163132025" lon="17.965780050334">
        <ele>63.4</ele>
        <time>2017-11-20T18:24:00Z</time>
      </trkpt>
      <trkpt lat="62.631655711579" lon="17.965800753627">
        <ele>63.4</ele>
        <time>2017-11-20T18:24:01Z</time>
      </trkpt>
      <trkpt lat="62.631679599994" lon="17.965819361445">
        <ele>63.6</ele>
        <time>2017-11-20T18:24:02Z</time>
      </trkpt>
      <trkpt lat="62.631705583884" lon="17.965836209064">
        <ele>63.8</ele>
        <time>2017-11-20T18:24:03Z</time>
      </trkpt>
      <trkpt lat="62.631733244154" lon="17.965854062511">
        <ele>64</ele>
        <time>2017-11-20T18:24:04Z</time>
      </trkpt>
      <trkpt lat="62.631758222216" lon="17.965866048628">
        <ele>64</ele>
        <time>2017-11-20T18:24:05Z</time>
      </trkpt>
      <trkpt lat="62.631783200278" lon="17.965883566799">
        <ele>64.2</ele>
        <time>2017-11-20T18:24:06Z</time>
      </trkpt>
      <trkpt lat="62.631807591607" lon="17.965904270092">
        <ele>64.2</ele>
        <time>2017-11-20T18:24:07Z</time>
      </trkpt>
      <trkpt lat="62.631827791986" lon="17.965920447159">
        <ele>64.4</ele>
        <time>2017-11-20T18:24:08Z</time>
      </trkpt>
      <trkpt lat="62.631849752564" lon="17.965938300606">
        <ele>64.4</ele>
        <time>2017-11-20T18:24:09Z</time>
      </trkpt>
      <trkpt lat="62.631872802789" lon="17.965959339175">
        <ele>64.4</ele>
        <time>2017-11-20T18:24:10Z</time>
      </trkpt>
      <trkpt lat="62.631898367584" lon="17.96597484569">
        <ele>64.6</ele>
        <time>2017-11-20T18:24:11Z</time>
      </trkpt>
      <trkpt lat="62.631922926551" lon="17.965991693309">
        <ele>64.8</ele>
        <time>2017-11-20T18:24:12Z</time>
      </trkpt>
      <trkpt lat="62.63194647969" lon="17.966005355806">
        <ele>65</ele>
        <time>2017-11-20T18:24:13Z</time>
      </trkpt>
      <trkpt lat="62.631968607906" lon="17.966021700511">
        <ele>65.2</ele>
        <time>2017-11-20T18:24:14Z</time>
      </trkpt>
      <trkpt lat="62.631992831597" lon="17.966038883406">
        <ele>65.4</ele>
        <time>2017-11-20T18:24:15Z</time>
      </trkpt>
      <trkpt lat="62.632016384736" lon="17.966052713541">
        <ele>65.4</ele>
        <time>2017-11-20T18:24:16Z</time>
      </trkpt>
      <trkpt lat="62.632040943703" lon="17.966074087386">
        <ele>65.6</ele>
        <time>2017-11-20T18:24:17Z</time>
      </trkpt>
      <trkpt lat="62.632063491014" lon="17.966092695204">
        <ele>65.8</ele>
        <time>2017-11-20T18:24:18Z</time>
      </trkpt>
      <trkpt lat="62.632085786868" lon="17.96610895609">
        <ele>65.8</ele>
        <time>2017-11-20T18:24:19Z</time>
      </trkpt>
      <trkpt lat="62.632111100206" lon="17.966138795654">
        <ele>66</ele>
        <time>2017-11-20T18:24:20Z</time>
      </trkpt>
      <trkpt lat="62.632132222594" lon="17.966166539743">
        <ele>66</ele>
        <time>2017-11-20T18:24:21Z</time>
      </trkpt>
      <trkpt lat="62.632151584783" lon="17.966194116194">
        <ele>66</ele>
        <time>2017-11-20T18:24:22Z</time>
      </trkpt>
      <trkpt lat="62.632164241452" lon="17.966253040951">
        <ele>66.2</ele>
        <time>2017-11-20T18:24:23Z</time>
      </trkpt>
      <trkpt lat="62.632172623352" lon="17.966302913256">
        <ele>66</ele>
        <time>2017-11-20T18:24:24Z</time>
      </trkpt>
      <trkpt lat="62.632177987768" lon="17.966358988167">
        <ele>66.2</ele>
        <time>2017-11-20T18:24:25Z</time>
      </trkpt>
      <trkpt lat="62.63217698194" lon="17.966411794137">
        <ele>66.2</ele>
        <time>2017-11-20T18:24:26Z</time>
      </trkpt>
      <trkpt lat="62.632177484854" lon="17.966461750261">
        <ele>66.2</ele>
        <time>2017-11-20T18:24:27Z</time>
      </trkpt>
      <trkpt lat="62.632178239225" lon="17.9665104491">
        <ele>66.4</ele>
        <time>2017-11-20T18:24:28Z</time>
      </trkpt>
      <trkpt lat="62.63217362918" lon="17.966560824319">
        <ele>66.4</ele>
        <time>2017-11-20T18:24:29Z</time>
      </trkpt>
      <trkpt lat="62.632166672203" lon="17.966607846778">
        <ele>66.6</ele>
        <time>2017-11-20T18:24:30Z</time>
      </trkpt>
      <trkpt lat="62.632161223968" lon="17.966661407119">
        <ele>66.8</ele>
        <time>2017-11-20T18:24:31Z</time>
      </trkpt>
      <trkpt lat="62.632157033018" lon="17.966711698519">
        <ele>67</ele>
        <time>2017-11-20T18:24:32Z</time>
      </trkpt>
      <trkpt lat="62.632153931715" lon="17.966759810625">
        <ele>67.2</ele>
        <time>2017-11-20T18:24:33Z</time>
      </trkpt>
      <trkpt lat="62.632148986394" lon="17.966808593283">
        <ele>67.4</ele>
        <time>2017-11-20T18:24:34Z</time>
      </trkpt>
      <trkpt lat="62.632145549815" lon="17.966852933534">
        <ele>67.6</ele>
        <time>2017-11-20T18:24:35Z</time>
      </trkpt>
      <trkpt lat="62.632142364693" lon="17.966913283214">
        <ele>68</ele>
        <time>2017-11-20T18:24:36Z</time>
      </trkpt>
      <trkpt lat="62.632135826811" lon="17.966966173003">
        <ele>68.2</ele>
        <time>2017-11-20T18:24:37Z</time>
      </trkpt>
      <trkpt lat="62.632132474051" lon="17.967013027824">
        <ele>68.6</ele>
        <time>2017-11-20T18:24:38Z</time>
      </trkpt>
      <trkpt lat="62.632125684712" lon="17.967060888473">
        <ele>68.8</ele>
        <time>2017-11-20T18:24:39Z</time>
      </trkpt>
      <trkpt lat="62.632119649744" lon="17.967111682787">
        <ele>69.2</ele>
        <time>2017-11-20T18:24:40Z</time>
      </trkpt>
      <trkpt lat="62.632111854577" lon="17.967162225644">
        <ele>69.4</ele>
        <time>2017-11-20T18:24:41Z</time>
      </trkpt>
      <trkpt lat="62.63210405941" lon="17.967211343578">
        <ele>69.6</ele>
        <time>2017-11-20T18:24:42Z</time>
      </trkpt>
      <trkpt lat="62.632096096605" lon="17.967253253078">
        <ele>69.6</ele>
        <time>2017-11-20T18:24:43Z</time>
      </trkpt>
      <trkpt lat="62.632087463248" lon="17.967290971628">
        <ele>69.6</ele>
        <time>2017-11-20T18:24:44Z</time>
      </trkpt>
      <trkpt lat="62.632075393312" lon="17.967343861417">
        <ele>70</ele>
        <time>2017-11-20T18:24:45Z</time>
      </trkpt>
      <trkpt lat="62.63206466448" lon="17.967384345994">
        <ele>70</ele>
        <time>2017-11-20T18:24:46Z</time>
      </trkpt>
      <trkpt lat="62.632054019467" lon="17.967428770064">
        <ele>70.4</ele>
        <time>2017-11-20T18:24:47Z</time>
      </trkpt>
      <trkpt lat="62.632042620083" lon="17.967468919365">
        <ele>70.6</ele>
        <time>2017-11-20T18:24:48Z</time>
      </trkpt>
      <trkpt lat="62.632030801604" lon="17.967506889372">
        <ele>70.6</ele>
        <time>2017-11-20T18:24:49Z</time>
      </trkpt>
      <trkpt lat="62.632017642021" lon="17.967556426401">
        <ele>70.8</ele>
        <time>2017-11-20T18:24:50Z</time>
      </trkpt>
      <trkpt lat="62.632006410275" lon="17.967599090272">
        <ele>71.2</ele>
        <time>2017-11-20T18:24:51Z</time>
      </trkpt>
      <trkpt lat="62.631995597624" lon="17.967638233745">
        <ele>71.2</ele>
        <time>2017-11-20T18:24:52Z</time>
      </trkpt>
      <trkpt lat="62.631983862964" lon="17.967686597308">
        <ele>71.4</ele>
        <time>2017-11-20T18:24:53Z</time>
      </trkpt>
      <trkpt lat="62.631970871019" lon="17.967731440473">
        <ele>71.6</ele>
        <time>2017-11-20T18:24:54Z</time>
      </trkpt>
      <trkpt lat="62.631961483291" lon="17.967769997213">
        <ele>71.8</ele>
        <time>2017-11-20T18:24:55Z</time>
      </trkpt>
      <trkpt lat="62.631948491346" lon="17.96781215817">
        <ele>72</ele>
        <time>2017-11-20T18:24:56Z</time>
      </trkpt>
      <trkpt lat="62.631936086134" lon="17.967854989679">
        <ele>72.2</ele>
        <time>2017-11-20T18:24:57Z</time>
      </trkpt>
      <trkpt lat="62.631924183836" lon="17.967896060989">
        <ele>72.4</ele>
        <time>2017-11-20T18:24:58Z</time>
      </trkpt>
      <trkpt lat="62.631908509683" lon="17.967939898326">
        <ele>72.6</ele>
        <time>2017-11-20T18:24:59Z</time>
      </trkpt>
      <trkpt lat="62.631899121955" lon="17.967982143102">
        <ele>73</ele>
        <time>2017-11-20T18:25:00Z</time>
      </trkpt>
      <trkpt lat="62.631884956544" lon="17.968022879136">
        <ele>73.2</ele>
        <time>2017-11-20T18:25:01Z</time>
      </trkpt>
      <trkpt lat="62.631872467513" lon="17.968064369541">
        <ele>73.4</ele>
        <time>2017-11-20T18:25:02Z</time>
      </trkpt>
      <trkpt lat="62.631860649034" lon="17.968107620145">
        <ele>73.6</ele>
        <time>2017-11-20T18:25:03Z</time>
      </trkpt>
      <trkpt lat="62.631849501107" lon="17.968152295672">
        <ele>73.8</ele>
        <time>2017-11-20T18:25:04Z</time>
      </trkpt>
      <trkpt lat="62.631836257705" lon="17.96819772557">
        <ele>73.8</ele>
        <time>2017-11-20T18:25:05Z</time>
      </trkpt>
      <trkpt lat="62.631822930484" lon="17.968242401097">
        <ele>74</ele>
        <time>2017-11-20T18:25:06Z</time>
      </trkpt>
      <trkpt lat="62.631809687082" lon="17.968287328081">
        <ele>74.2</ele>
        <time>2017-11-20T18:25:07Z</time>
      </trkpt>
      <trkpt lat="62.63179979644" lon="17.968323705527">
        <ele>74.6</ele>
        <time>2017-11-20T18:25:08Z</time>
      </trkpt>
      <trkpt lat="62.631787475047" lon="17.968364190104">
        <ele>74.6</ele>
        <time>2017-11-20T18:25:09Z</time>
      </trkpt>
      <trkpt lat="62.631774566921" lon="17.968409033269">
        <ele>74.8</ele>
        <time>2017-11-20T18:25:10Z</time>
      </trkpt>
      <trkpt lat="62.631761491157" lon="17.968452786787">
        <ele>75.2</ele>
        <time>2017-11-20T18:25:11Z</time>
      </trkpt>
      <trkpt lat="62.631749085945" lon="17.968494361011">
        <ele>75.4</ele>
        <time>2017-11-20T18:25:12Z</time>
      </trkpt>
      <trkpt lat="62.631738357113" lon="17.968535851416">
        <ele>75.6</ele>
        <time>2017-11-20T18:25:13Z</time>
      </trkpt>
      <trkpt lat="62.631727879738" lon="17.968576503631">
        <ele>75.8</ele>
        <time>2017-11-20T18:25:14Z</time>
      </trkpt>
      <trkpt lat="62.63172016839" lon="17.968625370108">
        <ele>75.8</ele>
        <time>2017-11-20T18:25:15Z</time>
      </trkpt>
      <trkpt lat="62.631712708499" lon="17.968669877997">
        <ele>76</ele>
        <time>2017-11-20T18:25:16Z</time>
      </trkpt>
      <trkpt lat="62.631703236952" lon="17.968720672311">
        <ele>76.4</ele>
        <time>2017-11-20T18:25:17Z</time>
      </trkpt>
      <trkpt lat="62.631700387106" lon="17.96876769477">
        <ele>76.6</ele>
        <time>2017-11-20T18:25:18Z</time>
      </trkpt>
      <trkpt lat="62.631700135649" lon="17.968811113012">
        <ele>76.8</ele>
        <time>2017-11-20T18:25:19Z</time>
      </trkpt>
      <trkpt lat="62.63170089002" lon="17.968859728032">
        <ele>77.2</ele>
        <time>2017-11-20T18:25:20Z</time>
      </trkpt>
      <trkpt lat="62.631702147305" lon="17.968905241749">
        <ele>77.4</ele>
        <time>2017-11-20T18:25:21Z</time>
      </trkpt>
      <trkpt lat="62.631703823685" lon="17.968949917276">
        <ele>77.4</ele>
        <time>2017-11-20T18:25:22Z</time>
      </trkpt>
      <trkpt lat="62.631707092626" lon="17.968997275011">
        <ele>77.8</ele>
        <time>2017-11-20T18:25:23Z</time>
      </trkpt>
      <trkpt lat="62.631709858653" lon="17.969037927226">
        <ele>77.8</ele>
        <time>2017-11-20T18:25:24Z</time>
      </trkpt>
      <trkpt lat="62.631718575829" lon="17.969079082355">
        <ele>78.2</ele>
        <time>2017-11-20T18:25:25Z</time>
      </trkpt>
      <trkpt lat="62.631723102055" lon="17.969121494769">
        <ele>78.2</ele>
        <time>2017-11-20T18:25:26Z</time>
      </trkpt>
      <trkpt lat="62.631729472299" lon="17.969163152812">
        <ele>78.6</ele>
        <time>2017-11-20T18:25:27Z</time>
      </trkpt>
      <trkpt lat="62.631736596914" lon="17.969204224122">
        <ele>78.6</ele>
        <time>2017-11-20T18:25:28Z</time>
      </trkpt>
      <trkpt lat="62.631744140624" lon="17.969250156934">
        <ele>78.8</ele>
        <time>2017-11-20T18:25:29Z</time>
      </trkpt>
      <trkpt lat="62.631755288551" lon="17.969285444733">
        <ele>79</ele>
        <time>2017-11-20T18:25:30Z</time>
      </trkpt>
      <trkpt lat="62.631763921908" lon="17.969327354233">
        <ele>79.2</ele>
        <time>2017-11-20T18:25:31Z</time>
      </trkpt>
      <trkpt lat="62.63177045979" lon="17.969367754991">
        <ele>79.4</ele>
        <time>2017-11-20T18:25:32Z</time>
      </trkpt>
      <trkpt lat="62.631777081491" lon="17.969412849613">
        <ele>79.8</ele>
        <time>2017-11-20T18:25:33Z</time>
      </trkpt>
      <trkpt lat="62.631784122287" lon="17.969462638099">
        <ele>79.8</ele>
        <time>2017-11-20T18:25:34Z</time>
      </trkpt>
      <trkpt lat="62.631783535554" lon="17.969500105192">
        <ele>80</ele>
        <time>2017-11-20T18:25:35Z</time>
      </trkpt>
      <trkpt lat="62.631780685708" lon="17.969548468755">
        <ele>80</ele>
        <time>2017-11-20T18:25:36Z</time>
      </trkpt>
      <trkpt lat="62.631774399283" lon="17.969598173422">
        <ele>80.2</ele>
        <time>2017-11-20T18:25:37Z</time>
      </trkpt>
      <trkpt lat="62.631761574976" lon="17.969638071266">
        <ele>80.4</ele>
        <time>2017-11-20T18:25:38Z</time>
      </trkpt>
      <trkpt lat="62.631746906651" lon="17.969677466196">
        <ele>80.4</ele>
        <time>2017-11-20T18:25:39Z</time>
      </trkpt>
      <trkpt lat="62.6317277121" lon="17.969703450086">
        <ele>80.6</ele>
        <time>2017-11-20T18:25:40Z</time>
      </trkpt>
      <trkpt lat="62.6317025664" lon="17.969733876383">
        <ele>80.8</ele>
        <time>2017-11-20T18:25:41Z</time>
      </trkpt>
      <trkpt lat="62.631681108736" lon="17.969752400382">
        <ele>81</ele>
        <time>2017-11-20T18:25:42Z</time>
      </trkpt>
      <trkpt lat="62.63166149509" lon="17.969768661268">
        <ele>81.4</ele>
        <time>2017-11-20T18:25:43Z</time>
      </trkpt>
      <trkpt lat="62.631641965263" lon="17.969783832507">
        <ele>81.4</ele>
        <time>2017-11-20T18:25:44Z</time>
      </trkpt>
      <trkpt lat="62.631616651925" lon="17.969798836108">
        <ele>81.6</ele>
        <time>2017-11-20T18:25:45Z</time>
      </trkpt>
      <trkpt lat="62.631593769338" lon="17.969812582424">
        <ele>81.8</ele>
        <time>2017-11-20T18:25:46Z</time>
      </trkpt>
      <trkpt lat="62.631568120724" lon="17.969829597681">
        <ele>82</ele>
        <time>2017-11-20T18:25:47Z</time>
      </trkpt>
      <trkpt lat="62.631542053015" lon="17.969848373137">
        <ele>82</ele>
        <time>2017-11-20T18:25:48Z</time>
      </trkpt>
      <trkpt lat="62.631515482392" lon="17.969870333715">
        <ele>82</ele>
        <time>2017-11-20T18:25:49Z</time>
      </trkpt>
      <trkpt lat="62.631490588149" lon="17.969885672592">
        <ele>82.2</ele>
        <time>2017-11-20T18:25:50Z</time>
      </trkpt>
      <trkpt lat="62.631464185164" lon="17.969902855487">
        <ele>82.2</ele>
        <time>2017-11-20T18:25:51Z</time>
      </trkpt>
      <trkpt lat="62.631457898739" lon="17.969904783324">
        <ele>82.2</ele>
        <time>2017-11-20T18:25:52Z</time>
      </trkpt>
      <trkpt lat="62.631419677275" lon="17.969932443594">
        <ele>82.2</ele>
        <time>2017-11-20T18:25:53Z</time>
      </trkpt>
      <trkpt lat="62.63139578886" lon="17.969945770815">
        <ele>82.2</ele>
        <time>2017-11-20T18:25:54Z</time>
      </trkpt>
      <trkpt lat="62.631373828282" lon="17.969958511303">
        <ele>82.4</ele>
        <time>2017-11-20T18:25:55Z</time>
      </trkpt>
      <trkpt lat="62.631349185496" lon="17.969973347266">
        <ele>82.4</ele>
        <time>2017-11-20T18:25:56Z</time>
      </trkpt>
      <trkpt lat="62.631322698692" lon="17.969984495193">
        <ele>82.4</ele>
        <time>2017-11-20T18:25:57Z</time>
      </trkpt>
      <trkpt lat="62.631297636811" lon="17.969994721111">
        <ele>82.4</ele>
        <time>2017-11-20T18:25:58Z</time>
      </trkpt>
      <trkpt lat="62.631277520251" lon="17.970006120495">
        <ele>82.4</ele>
        <time>2017-11-20T18:25:59Z</time>
      </trkpt>
      <trkpt lat="62.631246926316" lon="17.970018358069">
        <ele>82.6</ele>
        <time>2017-11-20T18:26:00Z</time>
      </trkpt>
      <trkpt lat="62.631222451168" lon="17.970031350014">
        <ele>82.6</ele>
        <time>2017-11-20T18:26:01Z</time>
      </trkpt>
      <trkpt lat="62.631196970192" lon="17.970046185977">
        <ele>82.6</ele>
        <time>2017-11-20T18:26:02Z</time>
      </trkpt>
      <trkpt lat="62.631170986302" lon="17.970057585361">
        <ele>82.6</ele>
        <time>2017-11-20T18:26:03Z</time>
      </trkpt>
      <trkpt lat="62.631145924421" lon="17.970066470175">
        <ele>82.6</ele>
        <time>2017-11-20T18:26:04Z</time>
      </trkpt>
      <trkpt lat="62.631121113997" lon="17.970073343333">
        <ele>82.6</ele>
        <time>2017-11-20T18:26:05Z</time>
      </trkpt>
      <trkpt lat="62.631096052116" lon="17.970086000002">
        <ele>82.6</ele>
        <time>2017-11-20T18:26:06Z</time>
      </trkpt>
      <trkpt lat="62.631073253348" lon="17.970097650843">
        <ele>82.6</ele>
        <time>2017-11-20T18:26:07Z</time>
      </trkpt>
      <trkpt lat="62.631049700209" lon="17.970103182897">
        <ele>82.8</ele>
        <time>2017-11-20T18:26:08Z</time>
      </trkpt>
      <trkpt lat="62.631005527596" lon="17.970101087422">
        <ele>83</ele>
        <time>2017-11-20T18:26:10Z</time>
      </trkpt>
      <trkpt lat="62.630996475144" lon="17.970103518173">
        <ele>83.2</ele>
        <time>2017-11-20T18:26:11Z</time>
      </trkpt>
      <trkpt lat="62.630983231742" lon="17.970103182897">
        <ele>83.6</ele>
        <time>2017-11-20T18:26:12Z</time>
      </trkpt>
      <trkpt lat="62.630970072159" lon="17.970096561196">
        <ele>83.8</ele>
        <time>2017-11-20T18:26:13Z</time>
      </trkpt>
      <trkpt lat="62.630958421318" lon="17.970092956979">
        <ele>83.8</ele>
        <time>2017-11-20T18:26:14Z</time>
      </trkpt>
      <trkpt lat="62.630947105753" lon="17.970088095477">
        <ele>83.8</ele>
        <time>2017-11-20T18:26:15Z</time>
      </trkpt>
      <trkpt lat="62.630937466568" lon="17.970080970862">
        <ele>83.8</ele>
        <time>2017-11-20T18:26:16Z</time>
      </trkpt>
      <trkpt lat="62.630929671401" lon="17.970087173468">
        <ele>83.6</ele>
        <time>2017-11-20T18:26:17Z</time>
      </trkpt>
      <trkpt lat="62.630923301157" lon="17.970073427152">
        <ele>83.4</ele>
        <time>2017-11-20T18:26:18Z</time>
      </trkpt>
      <trkpt lat="62.630919780759" lon="17.970056328076">
        <ele>83.4</ele>
        <time>2017-11-20T18:26:19Z</time>
      </trkpt>
      <trkpt lat="62.630910812126" lon="17.970028667806">
        <ele>83.2</ele>
        <time>2017-11-20T18:26:20Z</time>
      </trkpt>
      <trkpt lat="62.630906034443" lon="17.970007545418">
        <ele>83.2</ele>
        <time>2017-11-20T18:26:21Z</time>
      </trkpt>
      <trkpt lat="62.630905280072" lon="17.969991284532">
        <ele>83.2</ele>
        <time>2017-11-20T18:26:22Z</time>
      </trkpt>
      <trkpt lat="62.630908297556" lon="17.96996295371">
        <ele>83.2</ele>
        <time>2017-11-20T18:26:23Z</time>
      </trkpt>
      <trkpt lat="62.630913913429" lon="17.969954236534">
        <ele>83.2</ele>
        <time>2017-11-20T18:26:24Z</time>
      </trkpt>
      <trkpt lat="62.630904693339" lon="17.969916769441">
        <ele>83.2</ele>
        <time>2017-11-20T18:26:25Z</time>
      </trkpt>
      <trkpt lat="62.630900753846" lon="17.969887768067">
        <ele>83</ele>
        <time>2017-11-20T18:26:26Z</time>
      </trkpt>
      <trkpt lat="62.630897317267" lon="17.969855749209">
        <ele>83</ele>
        <time>2017-11-20T18:26:27Z</time>
      </trkpt>
      <trkpt lat="62.63089538943" lon="17.969824317084">
        <ele>83</ele>
        <time>2017-11-20T18:26:28Z</time>
      </trkpt>
      <trkpt lat="62.630891366118" lon="17.969793890787">
        <ele>82.8</ele>
        <time>2017-11-20T18:26:29Z</time>
      </trkpt>
      <trkpt lat="62.630888767729" lon="17.969763129214">
        <ele>82.6</ele>
        <time>2017-11-20T18:26:30Z</time>
      </trkpt>
      <trkpt lat="62.630886001702" lon="17.969737145324">
        <ele>82.4</ele>
        <time>2017-11-20T18:26:31Z</time>
      </trkpt>
      <trkpt lat="62.630883570951" lon="17.969712251081">
        <ele>82.4</ele>
        <time>2017-11-20T18:26:32Z</time>
      </trkpt>
      <trkpt lat="62.630880888743" lon="17.969686937743">
        <ele>82.2</ele>
        <time>2017-11-20T18:26:33Z</time>
      </trkpt>
      <trkpt lat="62.630877535983" lon="17.9696620435">
        <ele>82.2</ele>
        <time>2017-11-20T18:26:34Z</time>
      </trkpt>
      <trkpt lat="62.63087694925" lon="17.96963354504">
        <ele>82</ele>
        <time>2017-11-20T18:26:35Z</time>
      </trkpt>
      <trkpt lat="62.630875021413" lon="17.969604795123">
        <ele>82</ele>
        <time>2017-11-20T18:26:36Z</time>
      </trkpt>
      <trkpt lat="62.630873428852" lon="17.969577134853">
        <ele>81.8</ele>
        <time>2017-11-20T18:26:37Z</time>
      </trkpt>
      <trkpt lat="62.630870327549" lon="17.969545451271">
        <ele>81.8</ele>
        <time>2017-11-20T18:26:38Z</time>
      </trkpt>
      <trkpt lat="62.630866807151" lon="17.96951703663">
        <ele>81.6</ele>
        <time>2017-11-20T18:26:39Z</time>
      </trkpt>
      <trkpt lat="62.6308643764" lon="17.969489795455">
        <ele>81.6</ele>
        <time>2017-11-20T18:26:40Z</time>
      </trkpt>
      <trkpt lat="62.630860688364" lon="17.969463057194">
        <ele>81.4</ele>
        <time>2017-11-20T18:26:41Z</time>
      </trkpt>
      <trkpt lat="62.630857922337" lon="17.969439001141">
        <ele>81.2</ele>
        <time>2017-11-20T18:26:42Z</time>
      </trkpt>
      <trkpt lat="62.6308559945" lon="17.969414693631">
        <ele>81</ele>
        <time>2017-11-20T18:26:43Z</time>
      </trkpt>
      <trkpt lat="62.630854821034" lon="17.969391056673">
        <ele>81</ele>
        <time>2017-11-20T18:26:44Z</time>
      </trkpt>
      <trkpt lat="62.630852390283" lon="17.969364318412">
        <ele>80.8</ele>
        <time>2017-11-20T18:26:45Z</time>
      </trkpt>
      <trkpt lat="62.630849624256" lon="17.969338669798">
        <ele>80.8</ele>
        <time>2017-11-20T18:26:46Z</time>
      </trkpt>
      <trkpt lat="62.630849372799" lon="17.969313859374">
        <ele>80.6</ele>
        <time>2017-11-20T18:26:47Z</time>
      </trkpt>
      <trkpt lat="62.630847780238" lon="17.969286450561">
        <ele>80.4</ele>
        <time>2017-11-20T18:26:48Z</time>
      </trkpt>
      <trkpt lat="62.630845433306" lon="17.969260634309">
        <ele>80.4</ele>
        <time>2017-11-20T18:26:49Z</time>
      </trkpt>
      <trkpt lat="62.630845684763" lon="17.96923959574">
        <ele>80.2</ele>
        <time>2017-11-20T18:26:50Z</time>
      </trkpt>
      <trkpt lat="62.630844762754" lon="17.969214533859">
        <ele>80</ele>
        <time>2017-11-20T18:26:51Z</time>
      </trkpt>
      <trkpt lat="62.630844678935" lon="17.969193076195">
        <ele>79.8</ele>
        <time>2017-11-20T18:26:52Z</time>
      </trkpt>
      <trkpt lat="62.630840990899" lon="17.969172791997">
        <ele>79.8</ele>
        <time>2017-11-20T18:26:53Z</time>
      </trkpt>
      <trkpt lat="62.630838141053" lon="17.969153513627">
        <ele>79.6</ele>
        <time>2017-11-20T18:26:54Z</time>
      </trkpt>
      <trkpt lat="62.630835458845" lon="17.969121913864">
        <ele>79.6</ele>
        <time>2017-11-20T18:26:55Z</time>
      </trkpt>
      <trkpt lat="62.630833447189" lon="17.969094169775">
        <ele>79.6</ele>
        <time>2017-11-20T18:26:56Z</time>
      </trkpt>
      <trkpt lat="62.630830764981" lon="17.969066677143">
        <ele>79.4</ele>
        <time>2017-11-20T18:26:57Z</time>
      </trkpt>
      <trkpt lat="62.630826238755" lon="17.969032395172">
        <ele>79.2</ele>
        <time>2017-11-20T18:26:58Z</time>
      </trkpt>
      <trkpt lat="62.630821544891" lon="17.969009596404">
        <ele>79</ele>
        <time>2017-11-20T18:26:59Z</time>
      </trkpt>
      <trkpt lat="62.630817186303" lon="17.968981181763">
        <ele>79</ele>
        <time>2017-11-20T18:27:00Z</time>
      </trkpt>
      <trkpt lat="62.630812743896" lon="17.968952683303">
        <ele>79</ele>
        <time>2017-11-20T18:27:01Z</time>
      </trkpt>
      <trkpt lat="62.630812157163" lon="17.968922257006">
        <ele>78.8</ele>
        <time>2017-11-20T18:27:02Z</time>
      </trkpt>
      <trkpt lat="62.630805954557" lon="17.968897949496">
        <ele>78.6</ele>
        <time>2017-11-20T18:27:03Z</time>
      </trkpt>
      <trkpt lat="62.63080318853" lon="17.968873474348">
        <ele>78.4</ele>
        <time>2017-11-20T18:27:04Z</time>
      </trkpt>
      <trkpt lat="62.630799500494" lon="17.968853776883">
        <ele>78.2</ele>
        <time>2017-11-20T18:27:05Z</time>
      </trkpt>
      <trkpt lat="62.630794890449" lon="17.968819243455">
        <ele>78</ele>
        <time>2017-11-20T18:27:06Z</time>
      </trkpt>
      <trkpt lat="62.630789442214" lon="17.968794433031">
        <ele>77.8</ele>
        <time>2017-11-20T18:27:07Z</time>
      </trkpt>
      <trkpt lat="62.630784999807" lon="17.968776663403">
        <ele>77.6</ele>
        <time>2017-11-20T18:27:08Z</time>
      </trkpt>
      <trkpt lat="62.630780138305" lon="17.968749673685">
        <ele>77.4</ele>
        <time>2017-11-20T18:27:09Z</time>
      </trkpt>
      <trkpt lat="62.63077301369" lon="17.968729389487">
        <ele>77.2</ele>
        <time>2017-11-20T18:27:10Z</time>
      </trkpt>
      <trkpt lat="62.630760105564" lon="17.968702483588">
        <ele>77</ele>
        <time>2017-11-20T18:27:11Z</time>
      </trkpt>
      <trkpt lat="62.630747448895" lon="17.968682031752">
        <ele>77</ele>
        <time>2017-11-20T18:27:12Z</time>
      </trkpt>
      <trkpt lat="62.6307386479" lon="17.968664262124">
        <ele>77</ele>
        <time>2017-11-20T18:27:13Z</time>
      </trkpt>
      <trkpt lat="62.630730266" lon="17.968638362053">
        <ele>76.8</ele>
        <time>2017-11-20T18:27:14Z</time>
      </trkpt>
      <trkpt lat="62.630724482489" lon="17.96862017333">
        <ele>76.6</ele>
        <time>2017-11-20T18:27:15Z</time>
      </trkpt>
      <trkpt lat="62.630717357874" lon="17.968599889132">
        <ele>76.4</ele>
        <time>2017-11-20T18:27:16Z</time>
      </trkpt>
      <trkpt lat="62.63070763487" lon="17.968573653785">
        <ele>76.2</ele>
        <time>2017-11-20T18:27:17Z</time>
      </trkpt>
      <trkpt lat="62.630700677893" lon="17.968556387071">
        <ele>76.2</ele>
        <time>2017-11-20T18:27:18Z</time>
      </trkpt>
      <trkpt lat="62.630694978201" lon="17.968544233316">
        <ele>76</ele>
        <time>2017-11-20T18:27:19Z</time>
      </trkpt>
      <trkpt lat="62.630682740627" lon="17.96852797243">
        <ele>76</ele>
        <time>2017-11-20T18:27:20Z</time>
      </trkpt>
      <trkpt lat="62.630671257424" lon="17.968506850042">
        <ele>75.8</ele>
        <time>2017-11-20T18:27:21Z</time>
      </trkpt>
      <trkpt lat="62.630658433117" lon="17.968492014079">
        <ele>75.6</ele>
        <time>2017-11-20T18:27:22Z</time>
      </trkpt>
      <trkpt lat="62.630650889407" lon="17.96846929913">
        <ele>75.6</ele>
        <time>2017-11-20T18:27:23Z</time>
      </trkpt>
      <trkpt lat="62.630640914946" lon="17.968451948597">
        <ele>75.2</ele>
        <time>2017-11-20T18:27:24Z</time>
      </trkpt>
      <trkpt lat="62.630625576069" lon="17.968422863404">
        <ele>75</ele>
        <time>2017-11-20T18:27:25Z</time>
      </trkpt>
      <trkpt lat="62.630615350151" lon="17.968400483731">
        <ele>74.8</ele>
        <time>2017-11-20T18:27:26Z</time>
      </trkpt>
      <trkpt lat="62.630605291871" lon="17.968379109886">
        <ele>74.6</ele>
        <time>2017-11-20T18:27:27Z</time>
      </trkpt>
      <trkpt lat="62.630597329066" lon="17.96836368719">
        <ele>74.4</ele>
        <time>2017-11-20T18:27:28Z</time>
      </trkpt>
      <trkpt lat="62.630584672397" lon="17.968339882594">
        <ele>74.4</ele>
        <time>2017-11-20T18:27:29Z</time>
      </trkpt>
      <trkpt lat="62.630574278841" lon="17.968310713582">
        <ele>74.2</ele>
        <time>2017-11-20T18:27:30Z</time>
      </trkpt>
      <trkpt lat="62.630564472018" lon="17.968285484063">
        <ele>74</ele>
        <time>2017-11-20T18:27:31Z</time>
      </trkpt>
      <trkpt lat="62.630553743186" lon="17.968255309223">
        <ele>74</ele>
        <time>2017-11-20T18:27:32Z</time>
      </trkpt>
      <trkpt lat="62.630542259983" lon="17.9682203567">
        <ele>74</ele>
        <time>2017-11-20T18:27:33Z</time>
      </trkpt>
      <trkpt lat="62.630531279694" lon="17.968186661462">
        <ele>73.8</ele>
        <time>2017-11-20T18:27:34Z</time>
      </trkpt>
      <trkpt lat="62.630521472871" lon="17.968144751962">
        <ele>73.6</ele>
        <time>2017-11-20T18:27:35Z</time>
      </trkpt>
      <trkpt lat="62.630510744039" lon="17.968103932109">
        <ele>73.4</ele>
        <time>2017-11-20T18:27:36Z</time>
      </trkpt>
      <trkpt lat="62.6305039547" lon="17.96807534983">
        <ele>73.4</ele>
        <time>2017-11-20T18:27:37Z</time>
      </trkpt>
      <trkpt lat="62.630494483153" lon="17.96803092576">
        <ele>73.2</ele>
        <time>2017-11-20T18:27:38Z</time>
      </trkpt>
      <trkpt lat="62.630487526176" lon="17.967975102306">
        <ele>73</ele>
        <time>2017-11-20T18:27:39Z</time>
      </trkpt>
      <trkpt lat="62.630479731009" lon="17.967929923865">
        <ele>72.8</ele>
        <time>2017-11-20T18:27:40Z</time>
      </trkpt>
      <trkpt lat="62.630472690213" lon="17.967880303017">
        <ele>72.8</ele>
        <time>2017-11-20T18:27:41Z</time>
      </trkpt>
      <trkpt lat="62.630468666901" lon="17.967821462079">
        <ele>72.6</ele>
        <time>2017-11-20T18:27:42Z</time>
      </trkpt>
      <trkpt lat="62.630464895046" lon="17.967772847059">
        <ele>72.4</ele>
        <time>2017-11-20T18:27:43Z</time>
      </trkpt>
      <trkpt lat="62.630463302485" lon="17.967731859568">
        <ele>72.2</ele>
        <time>2017-11-20T18:27:44Z</time>
      </trkpt>
      <trkpt lat="62.630462631933" lon="17.967686262032">
        <ele>71.8</ele>
        <time>2017-11-20T18:27:45Z</time>
      </trkpt>
      <trkpt lat="62.630463302485" lon="17.967631025311">
        <ele>71.4</ele>
        <time>2017-11-20T18:27:46Z</time>
      </trkpt>
      <trkpt lat="62.630464224494" lon="17.967586182146">
        <ele>70.8</ele>
        <time>2017-11-20T18:27:47Z</time>
      </trkpt>
      <trkpt lat="62.63046539796" lon="17.967546535759">
        <ele>70.6</ele>
        <time>2017-11-20T18:27:48Z</time>
      </trkpt>
      <trkpt lat="62.630470091824" lon="17.967498172196">
        <ele>70.2</ele>
        <time>2017-11-20T18:27:49Z</time>
      </trkpt>
      <trkpt lat="62.630469840367" lon="17.96744838371">
        <ele>69.8</ele>
        <time>2017-11-20T18:27:50Z</time>
      </trkpt>
      <trkpt lat="62.630469924186" lon="17.967404881649">
        <ele>69.8</ele>
        <time>2017-11-20T18:27:51Z</time>
      </trkpt>
      <trkpt lat="62.630474115136" lon="17.967357104819">
        <ele>69.4</ele>
        <time>2017-11-20T18:27:52Z</time>
      </trkpt>
      <trkpt lat="62.630476964982" lon="17.96730840598">
        <ele>69.2</ele>
        <time>2017-11-20T18:27:53Z</time>
      </trkpt>
      <trkpt lat="62.630478389905" lon="17.9672648201">
        <ele>69</ele>
        <time>2017-11-20T18:27:54Z</time>
      </trkpt>
      <trkpt lat="62.630481994122" lon="17.967219390202">
        <ele>68.8</ele>
        <time>2017-11-20T18:27:55Z</time>
      </trkpt>
      <trkpt lat="62.630487107081" lon="17.967165578404">
        <ele>68.4</ele>
        <time>2017-11-20T18:27:56Z</time>
      </trkpt>
      <trkpt lat="62.63048886728" lon="17.967118723583">
        <ele>68.2</ele>
        <time>2017-11-20T18:27:57Z</time>
      </trkpt>
      <trkpt lat="62.63048970547" lon="17.967073377504">
        <ele>67.8</ele>
        <time>2017-11-20T18:27:58Z</time>
      </trkpt>
      <trkpt lat="62.630492387678" lon="17.967023505199">
        <ele>67.6</ele>
        <time>2017-11-20T18:27:59Z</time>
      </trkpt>
      <trkpt lat="62.630493812601" lon="17.966973632894">
        <ele>67.6</ele>
        <time>2017-11-20T18:28:00Z</time>
      </trkpt>
      <trkpt lat="62.630496578628" lon="17.966931639575">
        <ele>67.4</ele>
        <time>2017-11-20T18:28:01Z</time>
      </trkpt>
      <trkpt lat="62.630497835913" lon="17.966891490274">
        <ele>67.2</ele>
        <time>2017-11-20T18:28:02Z</time>
      </trkpt>
      <trkpt lat="62.630500350483" lon="17.966830134766">
        <ele>67</ele>
        <time>2017-11-20T18:28:03Z</time>
      </trkpt>
      <trkpt lat="62.630502529777" lon="17.966783447583">
        <ele>66.8</ele>
        <time>2017-11-20T18:28:04Z</time>
      </trkpt>
      <trkpt lat="62.63050311651" lon="17.966731144527">
        <ele>66.4</ele>
        <time>2017-11-20T18:28:05Z</time>
      </trkpt>
      <trkpt lat="62.630505547261" lon="17.966682026593">
        <ele>66</ele>
        <time>2017-11-20T18:28:06Z</time>
      </trkpt>
      <trkpt lat="62.630508564745" lon="17.966633243935">
        <ele>65.6</ele>
        <time>2017-11-20T18:28:07Z</time>
      </trkpt>
      <trkpt lat="62.630510324944" lon="17.96658840077">
        <ele>65.2</ele>
        <time>2017-11-20T18:28:08Z</time>
      </trkpt>
      <trkpt lat="62.630511079315" lon="17.966533247868">
        <ele>65</ele>
        <time>2017-11-20T18:28:09Z</time>
      </trkpt>
      <trkpt lat="62.630515605541" lon="17.96648865616">
        <ele>64.8</ele>
        <time>2017-11-20T18:28:10Z</time>
      </trkpt>
      <trkpt lat="62.630518874482" lon="17.966444148271">
        <ele>64.4</ele>
        <time>2017-11-20T18:28:11Z</time>
      </trkpt>
      <trkpt lat="62.630520969957" lon="17.966393521595">
        <ele>64.2</ele>
        <time>2017-11-20T18:28:12Z</time>
      </trkpt>
      <trkpt lat="62.630523819803" lon="17.966348259335">
        <ele>64</ele>
        <time>2017-11-20T18:28:13Z</time>
      </trkpt>
      <trkpt lat="62.630525831459" lon="17.966309534957">
        <ele>63.8</ele>
        <time>2017-11-20T18:28:14Z</time>
      </trkpt>
      <trkpt lat="62.630528513667" lon="17.966266116715">
        <ele>63.4</ele>
        <time>2017-11-20T18:28:15Z</time>
      </trkpt>
      <trkpt lat="62.63053161497" lon="17.966230158364">
        <ele>63.4</ele>
        <time>2017-11-20T18:28:16Z</time>
      </trkpt>
      <trkpt lat="62.630533961902" lon="17.966180705154">
        <ele>63.2</ele>
        <time>2017-11-20T18:28:17Z</time>
      </trkpt>
      <trkpt lat="62.630535303006" lon="17.96613577817">
        <ele>63</ele>
        <time>2017-11-20T18:28:18Z</time>
      </trkpt>
      <trkpt lat="62.63053664411" lon="17.966091940833">
        <ele>62.8</ele>
        <time>2017-11-20T18:28:19Z</time>
      </trkpt>
      <trkpt lat="62.630538152852" lon="17.966043493451">
        <ele>62.6</ele>
        <time>2017-11-20T18:28:20Z</time>
      </trkpt>
      <trkpt lat="62.630539661594" lon="17.965993788784">
        <ele>62.6</ele>
        <time>2017-11-20T18:28:21Z</time>
      </trkpt>
      <trkpt lat="62.630539661594" lon="17.965952382198">
        <ele>62.4</ele>
        <time>2017-11-20T18:28:22Z</time>
      </trkpt>
      <trkpt lat="62.630541757069" lon="17.965894966183">
        <ele>62.2</ele>
        <time>2017-11-20T18:28:23Z</time>
      </trkpt>
      <trkpt lat="62.630542595259" lon="17.965846351163">
        <ele>62.2</ele>
        <time>2017-11-20T18:28:24Z</time>
      </trkpt>
      <trkpt lat="62.630544942191" lon="17.965801172722">
        <ele>62</ele>
        <time>2017-11-20T18:28:25Z</time>
      </trkpt>
      <trkpt lat="62.630545277467" lon="17.965759095584">
        <ele>61.8</ele>
        <time>2017-11-20T18:28:26Z</time>
      </trkpt>
      <trkpt lat="62.630548043494" lon="17.965714922971">
        <ele>61.6</ele>
        <time>2017-11-20T18:28:27Z</time>
      </trkpt>
      <trkpt lat="62.63054670239" lon="17.965675779498">
        <ele>61.4</ele>
        <time>2017-11-20T18:28:28Z</time>
      </trkpt>
      <trkpt lat="62.630544858372" lon="17.965636719844">
        <ele>61.2</ele>
        <time>2017-11-20T18:28:29Z</time>
      </trkpt>
      <trkpt lat="62.630545277467" lon="17.965580728752">
        <ele>60.8</ele>
        <time>2017-11-20T18:28:30Z</time>
      </trkpt>
      <trkpt lat="62.630548043494" lon="17.965537561967">
        <ele>60.6</ele>
        <time>2017-11-20T18:28:31Z</time>
      </trkpt>
      <trkpt lat="62.630552485901" lon="17.965504788738">
        <ele>60.4</ele>
        <time>2017-11-20T18:28:32Z</time>
      </trkpt>
      <trkpt lat="62.63055508429" lon="17.965481738513">
        <ele>60.2</ele>
        <time>2017-11-20T18:28:33Z</time>
      </trkpt>
      <trkpt lat="62.630556257756" lon="17.965462208686">
        <ele>60</ele>
        <time>2017-11-20T18:28:34Z</time>
      </trkpt>
      <trkpt lat="62.630564052923" lon="17.965443181773">
        <ele>60</ele>
        <time>2017-11-20T18:28:36Z</time>
      </trkpt>
      <trkpt lat="62.630568243873" lon="17.965438739366">
        <ele>60</ele>
        <time>2017-11-20T18:28:37Z</time>
      </trkpt>
      <trkpt lat="62.63056346619" lon="17.965429100181">
        <ele>60</ele>
        <time>2017-11-20T18:28:38Z</time>
      </trkpt>
      <trkpt lat="62.630776617907" lon="17.965455419347">
        <ele>59.6</ele>
        <time>2017-11-20T18:28:59Z</time>
      </trkpt>
      <trkpt lat="62.630808972041" lon="17.965473105156">
        <ele>60</ele>
        <time>2017-11-20T18:29:00Z</time>
      </trkpt>
      <trkpt lat="62.630837470501" lon="17.965490204232">
        <ele>60</ele>
        <time>2017-11-20T18:29:01Z</time>
      </trkpt>
      <trkpt lat="62.630862616201" lon="17.965506968032">
        <ele>60.2</ele>
        <time>2017-11-20T18:29:02Z</time>
      </trkpt>
      <trkpt lat="62.630885834064" lon="17.965522558366">
        <ele>60.2</ele>
        <time>2017-11-20T18:29:03Z</time>
      </trkpt>
      <trkpt lat="62.630912907601" lon="17.965526497859">
        <ele>60.2</ele>
        <time>2017-11-20T18:29:04Z</time>
      </trkpt>
      <trkpt lat="62.630938723853" lon="17.965514427923">
        <ele>60.6</ele>
        <time>2017-11-20T18:29:05Z</time>
      </trkpt>
      <trkpt lat="62.630968228141" lon="17.965496155381">
        <ele>60.8</ele>
        <time>2017-11-20T18:29:06Z</time>
      </trkpt>
      <trkpt lat="62.630996726601" lon="17.965475032993">
        <ele>61</ele>
        <time>2017-11-20T18:29:07Z</time>
      </trkpt>
      <trkpt lat="62.631015669695" lon="17.96544678599">
        <ele>61.2</ele>
        <time>2017-11-20T18:29:08Z</time>
      </trkpt>
      <trkpt lat="62.631041737404" lon="17.965410240906">
        <ele>61.4</ele>
        <time>2017-11-20T18:29:09Z</time>
      </trkpt>
      <trkpt lat="62.631065290543" lon="17.96537218708">
        <ele>61.8</ele>
        <time>2017-11-20T18:29:10Z</time>
      </trkpt>
      <trkpt lat="62.631087251121" lon="17.965342598973">
        <ele>61.8</ele>
        <time>2017-11-20T18:29:11Z</time>
      </trkpt>
      <trkpt lat="62.631117845056" lon="17.965309741925">
        <ele>61.8</ele>
        <time>2017-11-20T18:29:12Z</time>
      </trkpt>
      <trkpt lat="62.631137374883" lon="17.965278980352">
        <ele>61.6</ele>
        <time>2017-11-20T18:29:13Z</time>
      </trkpt>
      <trkpt lat="62.631165621886" lon="17.965265485493">
        <ele>61.6</ele>
        <time>2017-11-20T18:29:14Z</time>
      </trkpt>
      <trkpt lat="62.631191521957" lon="17.965290547374">
        <ele>61.8</ele>
        <time>2017-11-20T18:29:15Z</time>
      </trkpt>
      <trkpt lat="62.631212392888" lon="17.96531099921">
        <ele>61.8</ele>
        <time>2017-11-20T18:29:16Z</time>
      </trkpt>
      <trkpt lat="62.631234437285" lon="17.965351148511">
        <ele>62</ele>
        <time>2017-11-20T18:29:17Z</time>
      </trkpt>
      <trkpt lat="62.631254470026" lon="17.965384676111">
        <ele>62.2</ele>
        <time>2017-11-20T18:29:18Z</time>
      </trkpt>
      <trkpt lat="62.631274586586" lon="17.965414180399">
        <ele>62.2</ele>
        <time>2017-11-20T18:29:19Z</time>
      </trkpt>
      <trkpt lat="62.631300905752" lon="17.965443097954">
        <ele>62.4</ele>
        <time>2017-11-20T18:29:20Z</time>
      </trkpt>
      <trkpt lat="62.631324039796" lon="17.965470422948">
        <ele>62.6</ele>
        <time>2017-11-20T18:29:21Z</time>
      </trkpt>
      <trkpt lat="62.631344575451" lon="17.965498669951">
        <ele>62.6</ele>
        <time>2017-11-20T18:29:22Z</time>
      </trkpt>
      <trkpt lat="62.63136645221" lon="17.965526581678">
        <ele>62.6</ele>
        <time>2017-11-20T18:29:23Z</time>
      </trkpt>
      <trkpt lat="62.631386149675" lon="17.96555239793">
        <ele>62.8</ele>
        <time>2017-11-20T18:29:24Z</time>
      </trkpt>
      <trkpt lat="62.631408445529" lon="17.965575615793">
        <ele>62.8</ele>
        <time>2017-11-20T18:29:25Z</time>
      </trkpt>
      <trkpt lat="62.631430406107" lon="17.965599085113">
        <ele>63</ele>
        <time>2017-11-20T18:29:26Z</time>
      </trkpt>
      <trkpt lat="62.63145194759" lon="17.965620123682">
        <ele>63</ele>
        <time>2017-11-20T18:29:27Z</time>
      </trkpt>
      <trkpt lat="62.631477512385" lon="17.965647281038">
        <ele>63</ele>
        <time>2017-11-20T18:29:28Z</time>
      </trkpt>
      <trkpt lat="62.631499221506" lon="17.965671672367">
        <ele>63.2</ele>
        <time>2017-11-20T18:29:29Z</time>
      </trkpt>
      <trkpt lat="62.631523780473" lon="17.965692124203">
        <ele>63.4</ele>
        <time>2017-11-20T18:29:30Z</time>
      </trkpt>
      <trkpt lat="62.631546076327" lon="17.965716012618">
        <ele>63.6</ele>
        <time>2017-11-20T18:29:31Z</time>
      </trkpt>
      <trkpt lat="62.631568958914" lon="17.965736212997">
        <ele>63.8</ele>
        <time>2017-11-20T18:29:32Z</time>
      </trkpt>
      <trkpt lat="62.631591673863" lon="17.965754820815">
        <ele>63.8</ele>
        <time>2017-11-20T18:29:33Z</time>
      </trkpt>
      <trkpt lat="62.63161623283" lon="17.965777451945">
        <ele>64</ele>
        <time>2017-11-20T18:29:34Z</time>
      </trkpt>
      <trkpt lat="62.631639618331" lon="17.965793545193">
        <ele>64.2</ele>
        <time>2017-11-20T18:29:35Z</time>
      </trkpt>
      <trkpt lat="62.631663003832" lon="17.965812404468">
        <ele>64.4</ele>
        <time>2017-11-20T18:29:36Z</time>
      </trkpt>
      <trkpt lat="62.631685467324" lon="17.965832688666">
        <ele>64.4</ele>
        <time>2017-11-20T18:29:37Z</time>
      </trkpt>
      <trkpt lat="62.631704158961" lon="17.965851128846">
        <ele>64.6</ele>
        <time>2017-11-20T18:29:38Z</time>
      </trkpt>
      <trkpt lat="62.63172687391" lon="17.965870323397">
        <ele>64.6</ele>
        <time>2017-11-20T18:29:39Z</time>
      </trkpt>
      <trkpt lat="62.631746571375" lon="17.965883818256">
        <ele>64.8</ele>
        <time>2017-11-20T18:29:40Z</time>
      </trkpt>
      <trkpt lat="62.631775572749" lon="17.965895972011">
        <ele>65</ele>
        <time>2017-11-20T18:29:41Z</time>
      </trkpt>
      <trkpt lat="62.631798287698" lon="17.965912568173">
        <ele>65.2</ele>
        <time>2017-11-20T18:29:42Z</time>
      </trkpt>
      <trkpt lat="62.631820667371" lon="17.965928409964">
        <ele>65.2</ele>
        <time>2017-11-20T18:29:43Z</time>
      </trkpt>
      <trkpt lat="62.631844807243" lon="17.965945006126">
        <ele>65.4</ele>
        <time>2017-11-20T18:29:44Z</time>
      </trkpt>
      <trkpt lat="62.631867354554" lon="17.965959339175">
        <ele>65.4</ele>
        <time>2017-11-20T18:29:45Z</time>
      </trkpt>
      <trkpt lat="62.631889985684" lon="17.965968894541">
        <ele>65.6</ele>
        <time>2017-11-20T18:29:46Z</time>
      </trkpt>
      <trkpt lat="62.631914041737" lon="17.965987167083">
        <ele>65.8</ele>
        <time>2017-11-20T18:29:47Z</time>
      </trkpt>
      <trkpt lat="62.631935164125" lon="17.966004098521">
        <ele>65.8</ele>
        <time>2017-11-20T18:29:48Z</time>
      </trkpt>
      <trkpt lat="62.631959639273" lon="17.966020694683">
        <ele>65.8</ele>
        <time>2017-11-20T18:29:49Z</time>
      </trkpt>
      <trkpt lat="62.631985371706" lon="17.966036704112">
        <ele>65.8</ele>
        <time>2017-11-20T18:29:50Z</time>
      </trkpt>
      <trkpt lat="62.63201018213" lon="17.966047600582">
        <ele>66</ele>
        <time>2017-11-20T18:29:51Z</time>
      </trkpt>
      <trkpt lat="62.63203616602" lon="17.966056485396">
        <ele>66</ele>
        <time>2017-11-20T18:29:52Z</time>
      </trkpt>
      <trkpt lat="62.632058713331" lon="17.966076015223">
        <ele>66.2</ele>
        <time>2017-11-20T18:29:53Z</time>
      </trkpt>
      <trkpt lat="62.632082098832" lon="17.966085822046">
        <ele>66.2</ele>
        <time>2017-11-20T18:29:54Z</time>
      </trkpt>
      <trkpt lat="62.632108753274" lon="17.966113063221">
        <ele>66.6</ele>
        <time>2017-11-20T18:29:55Z</time>
      </trkpt>
      <trkpt lat="62.632129456567" lon="17.966138376559">
        <ele>66.8</ele>
        <time>2017-11-20T18:29:56Z</time>
      </trkpt>
      <trkpt lat="62.632148399661" lon="17.966172993806">
        <ele>66.8</ele>
        <time>2017-11-20T18:29:57Z</time>
      </trkpt>
      <trkpt lat="62.632165582556" lon="17.966214400392">
        <ele>66.8</ele>
        <time>2017-11-20T18:29:58Z</time>
      </trkpt>
      <trkpt lat="62.632171282248" lon="17.966257399539">
        <ele>67</ele>
        <time>2017-11-20T18:29:59Z</time>
      </trkpt>
      <trkpt lat="62.632172874809" lon="17.966325292929">
        <ele>67</ele>
        <time>2017-11-20T18:30:00Z</time>
      </trkpt>
      <trkpt lat="62.632173461542" lon="17.966383714772">
        <ele>67.2</ele>
        <time>2017-11-20T18:30:01Z</time>
      </trkpt>
      <trkpt lat="62.632174383551" lon="17.966424283168">
        <ele>67.2</ele>
        <time>2017-11-20T18:30:02Z</time>
      </trkpt>
      <trkpt lat="62.632171198429" lon="17.966469629247">
        <ele>67.4</ele>
        <time>2017-11-20T18:30:03Z</time>
      </trkpt>
      <trkpt lat="62.632166588384" lon="17.966523608683">
        <ele>67.6</ele>
        <time>2017-11-20T18:30:04Z</time>
      </trkpt>
      <trkpt lat="62.632158793217" lon="17.966566272554">
        <ele>67.6</ele>
        <time>2017-11-20T18:30:05Z</time>
      </trkpt>
      <trkpt lat="62.632155105181" lon="17.966631567555">
        <ele>67.8</ele>
        <time>2017-11-20T18:30:06Z</time>
      </trkpt>
      <trkpt lat="62.632156194828" lon="17.966680853127">
        <ele>68</ele>
        <time>2017-11-20T18:30:07Z</time>
      </trkpt>
      <trkpt lat="62.632154266991" lon="17.96672251117">
        <ele>68</ele>
        <time>2017-11-20T18:30:08Z</time>
      </trkpt>
      <trkpt lat="62.632145885091" lon="17.966775987692">
        <ele>68.2</ele>
        <time>2017-11-20T18:30:09Z</time>
      </trkpt>
      <trkpt lat="62.632143621978" lon="17.966820830857">
        <ele>68.4</ele>
        <time>2017-11-20T18:30:10Z</time>
      </trkpt>
      <trkpt lat="62.632142699969" lon="17.966867434221">
        <ele>68.6</ele>
        <time>2017-11-20T18:30:11Z</time>
      </trkpt>
      <trkpt lat="62.632133731336" lon="17.966916552155">
        <ele>68.8</ele>
        <time>2017-11-20T18:30:12Z</time>
      </trkpt>
      <trkpt lat="62.632129037472" lon="17.966962484967">
        <ele>69</ele>
        <time>2017-11-20T18:30:13Z</time>
      </trkpt>
      <trkpt lat="62.632126103807" lon="17.967010932349">
        <ele>69.2</ele>
        <time>2017-11-20T18:30:14Z</time>
      </trkpt>
      <trkpt lat="62.632118476278" lon="17.967061810482">
        <ele>69.4</ele>
        <time>2017-11-20T18:30:15Z</time>
      </trkpt>
      <trkpt lat="62.63211411769" lon="17.967101875964">
        <ele>69.8</ele>
        <time>2017-11-20T18:30:16Z</time>
      </trkpt>
      <trkpt lat="62.632104729962" lon="17.967148898423">
        <ele>70</ele>
        <time>2017-11-20T18:30:17Z</time>
      </trkpt>
      <trkpt lat="62.632093749673" lon="17.967196339977">
        <ele>70.4</ele>
        <time>2017-11-20T18:30:18Z</time>
      </trkpt>
      <trkpt lat="62.632090061637" lon="17.967231124862">
        <ele>70.6</ele>
        <time>2017-11-20T18:30:19Z</time>
      </trkpt>
      <trkpt lat="62.632075141855" lon="17.967275548932">
        <ele>70.8</ele>
        <time>2017-11-20T18:30:20Z</time>
      </trkpt>
      <trkpt lat="62.632065335032" lon="17.967321397925">
        <ele>71</ele>
        <time>2017-11-20T18:30:21Z</time>
      </trkpt>
      <trkpt lat="62.632056114942" lon="17.967364313253">
        <ele>71.2</ele>
        <time>2017-11-20T18:30:22Z</time>
      </trkpt>
      <trkpt lat="62.632043961187" lon="17.967402786174">
        <ele>71.2</ele>
        <time>2017-11-20T18:30:23Z</time>
      </trkpt>
      <trkpt lat="62.632032729441" lon="17.967438660706">
        <ele>71.4</ele>
        <time>2017-11-20T18:30:24Z</time>
      </trkpt>
      <trkpt lat="62.6320210786" lon="17.967478390912">
        <ele>71.4</ele>
        <time>2017-11-20T18:30:25Z</time>
      </trkpt>
      <trkpt lat="62.632006661732" lon="17.967527508846">
        <ele>71.6</ele>
        <time>2017-11-20T18:30:26Z</time>
      </trkpt>
      <trkpt lat="62.631998866565" lon="17.967564640663">
        <ele>71.8</ele>
        <time>2017-11-20T18:30:27Z</time>
      </trkpt>
      <trkpt lat="62.631988137733" lon="17.967602107756">
        <ele>71.8</ele>
        <time>2017-11-20T18:30:28Z</time>
      </trkpt>
      <trkpt lat="62.631976067797" lon="17.967640832134">
        <ele>72</ele>
        <time>2017-11-20T18:30:29Z</time>
      </trkpt>
      <trkpt lat="62.631970032829" lon="17.967672431897">
        <ele>72.2</ele>
        <time>2017-11-20T18:30:30Z</time>
      </trkpt>
      <trkpt lat="62.631959471635" lon="17.967715682501">
        <ele>72.4</ele>
        <time>2017-11-20T18:30:31Z</time>
      </trkpt>
      <trkpt lat="62.631946647328" lon="17.967758346372">
        <ele>72.6</ele>
        <time>2017-11-20T18:30:32Z</time>
      </trkpt>
      <trkpt lat="62.631938852161" lon="17.967802686623">
        <ele>72.8</ele>
        <time>2017-11-20T18:30:33Z</time>
      </trkpt>
      <trkpt lat="62.631925944035" lon="17.967852642747">
        <ele>73</ele>
        <time>2017-11-20T18:30:34Z</time>
      </trkpt>
      <trkpt lat="62.631915801936" lon="17.96789010984">
        <ele>73.2</ele>
        <time>2017-11-20T18:30:35Z</time>
      </trkpt>
      <trkpt lat="62.631901301249" lon="17.967941742344">
        <ele>73.6</ele>
        <time>2017-11-20T18:30:36Z</time>
      </trkpt>
      <trkpt lat="62.631885459458" lon="17.967985579681">
        <ele>73.8</ele>
        <time>2017-11-20T18:30:37Z</time>
      </trkpt>
      <trkpt lat="62.631877161377" lon="17.968019945471">
        <ele>74.2</ele>
        <time>2017-11-20T18:30:38Z</time>
      </trkpt>
      <trkpt lat="62.631866097269" lon="17.968062106428">
        <ele>74.4</ele>
        <time>2017-11-20T18:30:39Z</time>
      </trkpt>
      <trkpt lat="62.631851261306" lon="17.968099573521">
        <ele>74.6</ele>
        <time>2017-11-20T18:30:40Z</time>
      </trkpt>
      <trkpt lat="62.631839359008" lon="17.968137292071">
        <ele>74.8</ele>
        <time>2017-11-20T18:30:41Z</time>
      </trkpt>
      <trkpt lat="62.631829887461" lon="17.968179536847">
        <ele>75</ele>
        <time>2017-11-20T18:30:42Z</time>
      </trkpt>
      <trkpt lat="62.631814800041" lon="17.968225721116">
        <ele>75.2</ele>
        <time>2017-11-20T18:30:43Z</time>
      </trkpt>
      <trkpt lat="62.631805160856" lon="17.968262852933">
        <ele>75.2</ele>
        <time>2017-11-20T18:30:44Z</time>
      </trkpt>
      <trkpt lat="62.631792588006" lon="17.968304846252">
        <ele>75.4</ele>
        <time>2017-11-20T18:30:45Z</time>
      </trkpt>
      <trkpt lat="62.631777752043" lon="17.968349773236">
        <ele>75.6</ele>
        <time>2017-11-20T18:30:46Z</time>
      </trkpt>
      <trkpt lat="62.631770040695" lon="17.968390341632">
        <ele>75.6</ele>
        <time>2017-11-20T18:30:47Z</time>
      </trkpt>
      <trkpt lat="62.631754869456" lon="17.968428060182">
        <ele>75.8</ele>
        <time>2017-11-20T18:30:48Z</time>
      </trkpt>
      <trkpt lat="62.631742045149" lon="17.968470891691">
        <ele>76</ele>
        <time>2017-11-20T18:30:49Z</time>
      </trkpt>
      <trkpt lat="62.631734752896" lon="17.968507520594">
        <ele>76</ele>
        <time>2017-11-20T18:30:50Z</time>
      </trkpt>
      <trkpt lat="62.631723437331" lon="17.968556051795">
        <ele>76.2</ele>
        <time>2017-11-20T18:30:51Z</time>
      </trkpt>
      <trkpt lat="62.631715306888" lon="17.968599553856">
        <ele>76.4</ele>
        <time>2017-11-20T18:30:52Z</time>
      </trkpt>
      <trkpt lat="62.631711870309" lon="17.968642888279">
        <ele>76.6</ele>
        <time>2017-11-20T18:30:53Z</time>
      </trkpt>
      <trkpt lat="62.631704158961" lon="17.968692090032">
        <ele>76.8</ele>
        <time>2017-11-20T18:30:54Z</time>
      </trkpt>
      <trkpt lat="62.631694268319" lon="17.968736430283">
        <ele>77</ele>
        <time>2017-11-20T18:30:55Z</time>
      </trkpt>
      <trkpt lat="62.631692843396" lon="17.968779680887">
        <ele>77.2</ele>
        <time>2017-11-20T18:30:56Z</time>
      </trkpt>
      <trkpt lat="62.631691334654" lon="17.968831983943">
        <ele>77.4</ele>
        <time>2017-11-20T18:30:57Z</time>
      </trkpt>
      <trkpt lat="62.631691837568" lon="17.968868193751">
        <ele>77.6</ele>
        <time>2017-11-20T18:30:58Z</time>
      </trkpt>
      <trkpt lat="62.631698207812" lon="17.968917563142">
        <ele>77.8</ele>
        <time>2017-11-20T18:30:59Z</time>
      </trkpt>
      <trkpt lat="62.63170005183" lon="17.968968776551">
        <ele>78.2</ele>
        <time>2017-11-20T18:31:00Z</time>
      </trkpt>
      <trkpt lat="62.631701644391" lon="17.969007668567">
        <ele>78.4</ele>
        <time>2017-11-20T18:31:01Z</time>
      </trkpt>
      <trkpt lat="62.631710361567" lon="17.969056702682">
        <ele>78.6</ele>
        <time>2017-11-20T18:31:02Z</time>
      </trkpt>
      <trkpt lat="62.631715893621" lon="17.969100120924">
        <ele>79</ele>
        <time>2017-11-20T18:31:03Z</time>
      </trkpt>
      <trkpt lat="62.631723772607" lon="17.96913649837">
        <ele>79</ele>
        <time>2017-11-20T18:31:04Z</time>
      </trkpt>
      <trkpt lat="62.631730981041" lon="17.969176899128">
        <ele>79</ele>
        <time>2017-11-20T18:31:05Z</time>
      </trkpt>
      <trkpt lat="62.631737602742" lon="17.969224340682">
        <ele>79.2</ele>
        <time>2017-11-20T18:31:06Z</time>
      </trkpt>
      <trkpt lat="62.631744308262" lon="17.969266166363">
        <ele>79.4</ele>
        <time>2017-11-20T18:31:07Z</time>
      </trkpt>
      <trkpt lat="62.631749756497" lon="17.969309081691">
        <ele>79.6</ele>
        <time>2017-11-20T18:31:08Z</time>
      </trkpt>
      <trkpt lat="62.631758222216" lon="17.969347135517">
        <ele>79.8</ele>
        <time>2017-11-20T18:31:09Z</time>
      </trkpt>
      <trkpt lat="62.631768364315" lon="17.969387787732">
        <ele>79.8</ele>
        <time>2017-11-20T18:31:10Z</time>
      </trkpt>
      <trkpt lat="62.631770543609" lon="17.969438498227">
        <ele>80</ele>
        <time>2017-11-20T18:31:11Z</time>
      </trkpt>
      <trkpt lat="62.631771130342" lon="17.969489208722">
        <ele>80.2</ele>
        <time>2017-11-20T18:31:12Z</time>
      </trkpt>
      <trkpt lat="62.63177297436" lon="17.969537320828">
        <ele>80.4</ele>
        <time>2017-11-20T18:31:13Z</time>
      </trkpt>
      <trkpt lat="62.631766017383" lon="17.969588701875">
        <ele>80.6</ele>
        <time>2017-11-20T18:31:14Z</time>
      </trkpt>
      <trkpt lat="62.631755204732" lon="17.96962767771">
        <ele>80.6</ele>
        <time>2017-11-20T18:31:15Z</time>
      </trkpt>
      <trkpt lat="62.631735674905" lon="17.969662714052">
        <ele>81</ele>
        <time>2017-11-20T18:31:16Z</time>
      </trkpt>
      <trkpt lat="62.631713630508" lon="17.969687608295">
        <ele>81.2</ele>
        <time>2017-11-20T18:31:17Z</time>
      </trkpt>
      <trkpt lat="62.63169669907" lon="17.969707473398">
        <ele>81.4</ele>
        <time>2017-11-20T18:31:18Z</time>
      </trkpt>
      <trkpt lat="62.631672810655" lon="17.969719627153">
        <ele>81.6</ele>
        <time>2017-11-20T18:31:19Z</time>
      </trkpt>
      <trkpt lat="62.631650514801" lon="17.969744521396">
        <ele>81.8</ele>
        <time>2017-11-20T18:31:20Z</time>
      </trkpt>
      <trkpt lat="62.631630901155" lon="17.969756507513">
        <ele>82</ele>
        <time>2017-11-20T18:31:21Z</time>
      </trkpt>
      <trkpt lat="62.631608437663" lon="17.969777210806">
        <ele>82.2</ele>
        <time>2017-11-20T18:31:22Z</time>
      </trkpt>
      <trkpt lat="62.631587650551" lon="17.969782323765">
        <ele>82.2</ele>
        <time>2017-11-20T18:31:23Z</time>
      </trkpt>
      <trkpt lat="62.631565689973" lon="17.969794645158">
        <ele>82.4</ele>
        <time>2017-11-20T18:31:24Z</time>
      </trkpt>
      <trkpt lat="62.631543897033" lon="17.969804787257">
        <ele>82.4</ele>
        <time>2017-11-20T18:31:25Z</time>
      </trkpt>
      <trkpt lat="62.631511291442" lon="17.969829849138">
        <ele>82.6</ele>
        <time>2017-11-20T18:31:26Z</time>
      </trkpt>
      <trkpt lat="62.631492935081" lon="17.969839404504">
        <ele>82.6</ele>
        <time>2017-11-20T18:31:27Z</time>
      </trkpt>
      <trkpt lat="62.631471980331" lon="17.9698548272">
        <ele>82.8</ele>
        <time>2017-11-20T18:31:28Z</time>
      </trkpt>
      <trkpt lat="62.631449181563" lon="17.969873602656">
        <ele>82.8</ele>
        <time>2017-11-20T18:31:29Z</time>
      </trkpt>
      <trkpt lat="62.631428981184" lon="17.969880894909">
        <ele>82.8</ele>
        <time>2017-11-20T18:31:30Z</time>
      </trkpt>
      <trkpt lat="62.631405595683" lon="17.969907214075">
        <ele>82.8</ele>
        <time>2017-11-20T18:31:31Z</time>
      </trkpt>
      <trkpt lat="62.63137818687" lon="17.969924145513">
        <ele>82.8</ele>
        <time>2017-11-20T18:31:32Z</time>
      </trkpt>
      <trkpt lat="62.631352119161" lon="17.969942418055">
        <ele>82.8</ele>
        <time>2017-11-20T18:31:33Z</time>
      </trkpt>
      <trkpt lat="62.631326722004" lon="17.969957505475">
        <ele>82.8</ele>
        <time>2017-11-20T18:31:34Z</time>
      </trkpt>
      <trkpt lat="62.631305934892" lon="17.969970832696">
        <ele>82.8</ele>
        <time>2017-11-20T18:31:35Z</time>
      </trkpt>
      <trkpt lat="62.631274083672" lon="17.969987093582">
        <ele>82.8</ele>
        <time>2017-11-20T18:31:36Z</time>
      </trkpt>
      <trkpt lat="62.631251284904" lon="17.96999983407">
        <ele>82.8</ele>
        <time>2017-11-20T18:31:37Z</time>
      </trkpt>
      <trkpt lat="62.631227647946" lon="17.970009305617">
        <ele>82.8</ele>
        <time>2017-11-20T18:31:38Z</time>
      </trkpt>
      <trkpt lat="62.631200071495" lon="17.970019196259">
        <ele>82.8</ele>
        <time>2017-11-20T18:31:39Z</time>
      </trkpt>
      <trkpt lat="62.63117785946" lon="17.970032774937">
        <ele>82.8</ele>
        <time>2017-11-20T18:31:40Z</time>
      </trkpt>
      <trkpt lat="62.631150366828" lon="17.970041492113">
        <ele>82.8</ele>
        <time>2017-11-20T18:31:41Z</time>
      </trkpt>
      <trkpt lat="62.631125472585" lon="17.97005264004">
        <ele>83</ele>
        <time>2017-11-20T18:31:42Z</time>
      </trkpt>
      <trkpt lat="62.631101835627" lon="17.970073259514">
        <ele>83</ele>
        <time>2017-11-20T18:31:43Z</time>
      </trkpt>
      <trkpt lat="62.631073672443" lon="17.970088011658">
        <ele>83</ele>
        <time>2017-11-20T18:31:44Z</time>
      </trkpt>
      <trkpt lat="62.631052298598" lon="17.970096142101">
        <ele>83</ele>
        <time>2017-11-20T18:31:45Z</time>
      </trkpt>
      <trkpt lat="62.631009467089" lon="17.970121790715">
        <ele>83.2</ele>
        <time>2017-11-20T18:31:47Z</time>
      </trkpt>
      <trkpt lat="62.63099597223" lon="17.970122880362">
        <ele>83.4</ele>
        <time>2017-11-20T18:31:48Z</time>
      </trkpt>
      <trkpt lat="62.630983315561" lon="17.970127071312">
        <ele>83.6</ele>
        <time>2017-11-20T18:31:49Z</time>
      </trkpt>
      <trkpt lat="62.630970994168" lon="17.970130424072">
        <ele>83.6</ele>
        <time>2017-11-20T18:31:50Z</time>
      </trkpt>
      <trkpt lat="62.630956744938" lon="17.970123383276">
        <ele>83.8</ele>
        <time>2017-11-20T18:31:51Z</time>
      </trkpt>
      <trkpt lat="62.630949201228" lon="17.970121790715">
        <ele>84</ele>
        <time>2017-11-20T18:31:52Z</time>
      </trkpt>
      <trkpt lat="62.630935538731" lon="17.970111397159">
        <ele>84</ele>
        <time>2017-11-20T18:31:53Z</time>
      </trkpt>
      <trkpt lat="62.630926067184" lon="17.970100835965">
        <ele>84</ele>
        <time>2017-11-20T18:31:54Z</time>
      </trkpt>
      <trkpt lat="62.63091718237" lon="17.970076528455">
        <ele>84</ele>
        <time>2017-11-20T18:31:55Z</time>
      </trkpt>
      <trkpt lat="62.63091550599" lon="17.970049119642">
        <ele>83.8</ele>
        <time>2017-11-20T18:31:56Z</time>
      </trkpt>
      <trkpt lat="62.630915589809" lon="17.970040737742">
        <ele>83.8</ele>
        <time>2017-11-20T18:31:57Z</time>
      </trkpt>
      <trkpt lat="62.63091718237" lon="17.970015675861">
        <ele>83.6</ele>
        <time>2017-11-20T18:31:58Z</time>
      </trkpt>
      <trkpt lat="62.630912572325" lon="17.969987680315">
        <ele>83.6</ele>
        <time>2017-11-20T18:31:59Z</time>
      </trkpt>
      <trkpt lat="62.630910057755" lon="17.969968401945">
        <ele>83.4</ele>
        <time>2017-11-20T18:32:00Z</time>
      </trkpt>
      <trkpt lat="62.630911901773" lon="17.969953314525">
        <ele>83.4</ele>
        <time>2017-11-20T18:32:01Z</time>
      </trkpt>
      <trkpt lat="62.630913159058" lon="17.969933868517">
        <ele>83.4</ele>
        <time>2017-11-20T18:32:02Z</time>
      </trkpt>
      <trkpt lat="62.630910393031" lon="17.969893886854">
        <ele>83.4</ele>
        <time>2017-11-20T18:32:03Z</time>
      </trkpt>
      <trkpt lat="62.630906788814" lon="17.969865136937">
        <ele>83.4</ele>
        <time>2017-11-20T18:32:04Z</time>
      </trkpt>
      <trkpt lat="62.630902262588" lon="17.969837560486">
        <ele>83.4</ele>
        <time>2017-11-20T18:32:05Z</time>
      </trkpt>
      <trkpt lat="62.630895640887" lon="17.969814426442">
        <ele>83.2</ele>
        <time>2017-11-20T18:32:06Z</time>
      </trkpt>
      <trkpt lat="62.630891617575" lon="17.969793890787">
        <ele>83.2</ele>
        <time>2017-11-20T18:32:07Z</time>
      </trkpt>
      <trkpt lat="62.63088616934" lon="17.96977017001">
        <ele>83</ele>
        <time>2017-11-20T18:32:08Z</time>
      </trkpt>
      <trkpt lat="62.630882481304" lon="17.969741168636">
        <ele>83</ele>
        <time>2017-11-20T18:32:09Z</time>
      </trkpt>
      <trkpt lat="62.630877452164" lon="17.96970982033">
        <ele>82.8</ele>
        <time>2017-11-20T18:32:10Z</time>
      </trkpt>
      <trkpt lat="62.630874602318" lon="17.96967964549">
        <ele>82.8</ele>
        <time>2017-11-20T18:32:11Z</time>
      </trkpt>
      <trkpt lat="62.630870327549" lon="17.969647123718">
        <ele>82.6</ele>
        <time>2017-11-20T18:32:12Z</time>
      </trkpt>
      <trkpt lat="62.630866639513" lon="17.969616278326">
        <ele>82.6</ele>
        <time>2017-11-20T18:32:13Z</time>
      </trkpt>
      <trkpt lat="62.630861945649" lon="17.969591886997">
        <ele>82.4</ele>
        <time>2017-11-20T18:32:14Z</time>
      </trkpt>
      <trkpt lat="62.630860101631" lon="17.969561712157">
        <ele>82.4</ele>
        <time>2017-11-20T18:32:15Z</time>
      </trkpt>
      <trkpt lat="62.630858089975" lon="17.969527597824">
        <ele>82.2</ele>
        <time>2017-11-20T18:32:16Z</time>
      </trkpt>
      <trkpt lat="62.63085180355" lon="17.969501027201">
        <ele>82.2</ele>
        <time>2017-11-20T18:32:17Z</time>
      </trkpt>
      <trkpt lat="62.630847947876" lon="17.969478228433">
        <ele>82</ele>
        <time>2017-11-20T18:32:18Z</time>
      </trkpt>
      <trkpt lat="62.630845600944" lon="17.96945836333">
        <ele>82</ele>
        <time>2017-11-20T18:32:19Z</time>
      </trkpt>
      <trkpt lat="62.630842834917" lon="17.969431960345">
        <ele>81.8</ele>
        <time>2017-11-20T18:32:20Z</time>
      </trkpt>
      <trkpt lat="62.630840823261" lon="17.969407736654">
        <ele>81.8</ele>
        <time>2017-11-20T18:32:21Z</time>
      </trkpt>
      <trkpt lat="62.630837805777" lon="17.969379657289">
        <ele>81.6</ele>
        <time>2017-11-20T18:32:22Z</time>
      </trkpt>
      <trkpt lat="62.630835291207" lon="17.969352080838">
        <ele>81.4</ele>
        <time>2017-11-20T18:32:23Z</time>
      </trkpt>
      <trkpt lat="62.630829004782" lon="17.969320145799">
        <ele>81.2</ele>
        <time>2017-11-20T18:32:24Z</time>
      </trkpt>
      <trkpt lat="62.630823975642" lon="17.969285360914">
        <ele>81</ele>
        <time>2017-11-20T18:32:25Z</time>
      </trkpt>
      <trkpt lat="62.630819030321" lon="17.969249067287">
        <ele>80.8</ele>
        <time>2017-11-20T18:32:26Z</time>
      </trkpt>
      <trkpt lat="62.630818862683" lon="17.969229286003">
        <ele>80.8</ele>
        <time>2017-11-20T18:32:27Z</time>
      </trkpt>
      <trkpt lat="62.630812660077" lon="17.969195087851">
        <ele>80.4</ele>
        <time>2017-11-20T18:32:28Z</time>
      </trkpt>
      <trkpt lat="62.630812660077" lon="17.969163655726">
        <ele>80.2</ele>
        <time>2017-11-20T18:32:29Z</time>
      </trkpt>
      <trkpt lat="62.630809558774" lon="17.969135743999">
        <ele>80.2</ele>
        <time>2017-11-20T18:32:30Z</time>
      </trkpt>
      <trkpt lat="62.630806206014" lon="17.969101378209">
        <ele>80</ele>
        <time>2017-11-20T18:32:31Z</time>
      </trkpt>
      <trkpt lat="62.630802853254" lon="17.969073717939">
        <ele>79.8</ele>
        <time>2017-11-20T18:32:32Z</time>
      </trkpt>
      <trkpt lat="62.630801847426" lon="17.969044968022">
        <ele>79.8</ele>
        <time>2017-11-20T18:32:33Z</time>
      </trkpt>
      <trkpt lat="62.630796315372" lon="17.96901579901">
        <ele>79.6</ele>
        <time>2017-11-20T18:32:34Z</time>
      </trkpt>
      <trkpt lat="62.630793884621" lon="17.968995347174">
        <ele>79.4</ele>
        <time>2017-11-20T18:32:35Z</time>
      </trkpt>
      <trkpt lat="62.630792627336" lon="17.968969028008">
        <ele>79.4</ele>
        <time>2017-11-20T18:32:36Z</time>
      </trkpt>
      <trkpt lat="62.630788352567" lon="17.968937260607">
        <ele>79.2</ele>
        <time>2017-11-20T18:32:37Z</time>
      </trkpt>
      <trkpt lat="62.63078726292" lon="17.968915551486">
        <ele>79.2</ele>
        <time>2017-11-20T18:32:38Z</time>
      </trkpt>
      <trkpt lat="62.630784077798" lon="17.968887136845">
        <ele>79</ele>
        <time>2017-11-20T18:32:39Z</time>
      </trkpt>
      <trkpt lat="62.630780808857" lon="17.968861152955">
        <ele>79</ele>
        <time>2017-11-20T18:32:40Z</time>
      </trkpt>
      <trkpt lat="62.630781311771" lon="17.968836174893">
        <ele>78.6</ele>
        <time>2017-11-20T18:32:41Z</time>
      </trkpt>
      <trkpt lat="62.630777623735" lon="17.968810191003">
        <ele>78.4</ele>
        <time>2017-11-20T18:32:42Z</time>
      </trkpt>
      <trkpt lat="62.630771169672" lon="17.96878026762">
        <ele>78.2</ele>
        <time>2017-11-20T18:32:43Z</time>
      </trkpt>
      <trkpt lat="62.630768068369" lon="17.968756965938">
        <ele>78</ele>
        <time>2017-11-20T18:32:44Z</time>
      </trkpt>
      <trkpt lat="62.63075960265" lon="17.968731149686">
        <ele>77.8</ele>
        <time>2017-11-20T18:32:45Z</time>
      </trkpt>
      <trkpt lat="62.630749628189" lon="17.968703321778">
        <ele>77.6</ele>
        <time>2017-11-20T18:32:46Z</time>
      </trkpt>
      <trkpt lat="62.630743928497" lon="17.968679098087">
        <ele>77.4</ele>
        <time>2017-11-20T18:32:47Z</time>
      </trkpt>
      <trkpt lat="62.630736049511" lon="17.968654622939">
        <ele>77.2</ele>
        <time>2017-11-20T18:32:48Z</time>
      </trkpt>
      <trkpt lat="62.630721632643" lon="17.968630399248">
        <ele>77</ele>
        <time>2017-11-20T18:32:49Z</time>
      </trkpt>
      <trkpt lat="62.630715346218" lon="17.968614473638">
        <ele>76.8</ele>
        <time>2017-11-20T18:32:50Z</time>
      </trkpt>
      <trkpt lat="62.630704365929" lon="17.968602906616">
        <ele>76.6</ele>
        <time>2017-11-20T18:32:51Z</time>
      </trkpt>
      <trkpt lat="62.630695564934" lon="17.968580862219">
        <ele>76.4</ele>
        <time>2017-11-20T18:32:52Z</time>
      </trkpt>
      <trkpt lat="62.630686344844" lon="17.968558650184">
        <ele>76.4</ele>
        <time>2017-11-20T18:32:53Z</time>
      </trkpt>
      <trkpt lat="62.630675196917" lon="17.968542389298">
        <ele>76.2</ele>
        <time>2017-11-20T18:32:54Z</time>
      </trkpt>
      <trkpt lat="62.630665893008" lon="17.968512633553">
        <ele>76</ele>
        <time>2017-11-20T18:32:55Z</time>
      </trkpt>
      <trkpt lat="62.630653320158" lon="17.968493774278">
        <ele>76</ele>
        <time>2017-11-20T18:32:56Z</time>
      </trkpt>
      <trkpt lat="62.630649045389" lon="17.968484554188">
        <ele>75.8</ele>
        <time>2017-11-20T18:32:57Z</time>
      </trkpt>
      <trkpt lat="62.630638735652" lon="17.968461084868">
        <ele>75.8</ele>
        <time>2017-11-20T18:32:58Z</time>
      </trkpt>
      <trkpt lat="62.630624989336" lon="17.968442812326">
        <ele>75.6</ele>
        <time>2017-11-20T18:32:59Z</time>
      </trkpt>
      <trkpt lat="62.630614847237" lon="17.968420432653">
        <ele>75.6</ele>
        <time>2017-11-20T18:33:00Z</time>
      </trkpt>
      <trkpt lat="62.630602525844" lon="17.96840140574">
        <ele>75.4</ele>
        <time>2017-11-20T18:33:01Z</time>
      </trkpt>
      <trkpt lat="62.630590623546" lon="17.968378690791">
        <ele>75.2</ele>
        <time>2017-11-20T18:33:02Z</time>
      </trkpt>
      <trkpt lat="62.630577296325" lon="17.968354215643">
        <ele>75</ele>
        <time>2017-11-20T18:33:03Z</time>
      </trkpt>
      <trkpt lat="62.630569165882" lon="17.968327561201">
        <ele>74.6</ele>
        <time>2017-11-20T18:33:04Z</time>
      </trkpt>
      <trkpt lat="62.630560448706" lon="17.968303421329">
        <ele>74.4</ele>
        <time>2017-11-20T18:33:05Z</time>
      </trkpt>
      <trkpt lat="62.630551396254" lon="17.968277437439">
        <ele>74.2</ele>
        <time>2017-11-20T18:33:06Z</time>
      </trkpt>
      <trkpt lat="62.630542846716" lon="17.968255728318">
        <ele>73.8</ele>
        <time>2017-11-20T18:33:07Z</time>
      </trkpt>
      <trkpt lat="62.630533542807" lon="17.968222703632">
        <ele>73.6</ele>
        <time>2017-11-20T18:33:08Z</time>
      </trkpt>
      <trkpt lat="62.630527088744" lon="17.968191774421">
        <ele>73.4</ele>
        <time>2017-11-20T18:33:09Z</time>
      </trkpt>
      <trkpt lat="62.630519209758" lon="17.968167466911">
        <ele>73.2</ele>
        <time>2017-11-20T18:33:10Z</time>
      </trkpt>
      <trkpt lat="62.630509319116" lon="17.96813989046">
        <ele>73</ele>
        <time>2017-11-20T18:33:11Z</time>
      </trkpt>
      <trkpt lat="62.630502948872" lon="17.968104518842">
        <ele>73</ele>
        <time>2017-11-20T18:33:12Z</time>
      </trkpt>
      <trkpt lat="62.630495237524" lon="17.968076020382">
        <ele>72.8</ele>
        <time>2017-11-20T18:33:13Z</time>
      </trkpt>
      <trkpt lat="62.630490208384" lon="17.968043582429">
        <ele>72.6</ele>
        <time>2017-11-20T18:33:14Z</time>
      </trkpt>
      <trkpt lat="62.630484927787" lon="17.968014413417">
        <ele>72.4</ele>
        <time>2017-11-20T18:33:15Z</time>
      </trkpt>
      <trkpt lat="62.630478809" lon="17.967982981292">
        <ele>72.4</ele>
        <time>2017-11-20T18:33:16Z</time>
      </trkpt>
      <trkpt lat="62.630474282774" lon="17.967953309366">
        <ele>72.2</ele>
        <time>2017-11-20T18:33:17Z</time>
      </trkpt>
      <trkpt lat="62.630472187299" lon="17.967917853929">
        <ele>72</ele>
        <time>2017-11-20T18:33:18Z</time>
      </trkpt>
      <trkpt lat="62.630469672729" lon="17.967887092356">
        <ele>71.8</ele>
        <time>2017-11-20T18:33:19Z</time>
      </trkpt>
      <trkpt lat="62.630467409616" lon="17.967856163145">
        <ele>71.8</ele>
        <time>2017-11-20T18:33:20Z</time>
      </trkpt>
      <trkpt lat="62.630464224494" lon="17.967819785699">
        <ele>71.6</ele>
        <time>2017-11-20T18:33:21Z</time>
      </trkpt>
      <trkpt lat="62.630465062684" lon="17.967783994986">
        <ele>71.4</ele>
        <time>2017-11-20T18:33:22Z</time>
      </trkpt>
      <trkpt lat="62.630464392132" lon="17.96775264668">
        <ele>71.4</ele>
        <time>2017-11-20T18:33:23Z</time>
      </trkpt>
      <trkpt lat="62.630460955553" lon="17.967718197071">
        <ele>71.2</ele>
        <time>2017-11-20T18:33:24Z</time>
      </trkpt>
      <trkpt lat="62.630463218666" lon="17.96768894424">
        <ele>71</ele>
        <time>2017-11-20T18:33:25Z</time>
      </trkpt>
      <trkpt lat="62.630462296657" lon="17.967651560966">
        <ele>70.8</ele>
        <time>2017-11-20T18:33:26Z</time>
      </trkpt>
      <trkpt lat="62.63046455977" lon="17.967614177692">
        <ele>70.4</ele>
        <time>2017-11-20T18:33:27Z</time>
      </trkpt>
      <trkpt lat="62.630466068512" lon="17.967575620952">
        <ele>70.2</ele>
        <time>2017-11-20T18:33:28Z</time>
      </trkpt>
      <trkpt lat="62.630467661073" lon="17.967539830239">
        <ele>70</ele>
        <time>2017-11-20T18:33:29Z</time>
      </trkpt>
      <trkpt lat="62.630469840367" lon="17.967497417825">
        <ele>69.8</ele>
        <time>2017-11-20T18:33:30Z</time>
      </trkpt>
      <trkpt lat="62.630472187299" lon="17.967449976271">
        <ele>69.8</ele>
        <time>2017-11-20T18:33:31Z</time>
      </trkpt>
      <trkpt lat="62.630473528403" lon="17.967418041232">
        <ele>69.6</ele>
        <time>2017-11-20T18:33:32Z</time>
      </trkpt>
      <trkpt lat="62.630475959154" lon="17.967378143388">
        <ele>69.6</ele>
        <time>2017-11-20T18:33:33Z</time>
      </trkpt>
      <trkpt lat="62.630478473724" lon="17.967330450377">
        <ele>69.4</ele>
        <time>2017-11-20T18:33:34Z</time>
      </trkpt>
      <trkpt lat="62.63048048538" lon="17.967297258053">
        <ele>69.4</ele>
        <time>2017-11-20T18:33:35Z</time>
      </trkpt>
      <trkpt lat="62.630484927787" lon="17.967256941114">
        <ele>69</ele>
        <time>2017-11-20T18:33:36Z</time>
      </trkpt>
      <trkpt lat="62.630486101253" lon="17.967210924483">
        <ele>68.8</ele>
        <time>2017-11-20T18:33:37Z</time>
      </trkpt>
      <trkpt lat="62.630490627479" lon="17.967169769354">
        <ele>68.6</ele>
        <time>2017-11-20T18:33:38Z</time>
      </trkpt>
      <trkpt lat="62.630492387678" lon="17.967127692216">
        <ele>68.4</ele>
        <time>2017-11-20T18:33:39Z</time>
      </trkpt>
      <trkpt lat="62.630493728782" lon="17.967089554571">
        <ele>68.4</ele>
        <time>2017-11-20T18:33:40Z</time>
      </trkpt>
      <trkpt lat="62.630496075714" lon="17.967042364474">
        <ele>68.2</ele>
        <time>2017-11-20T18:33:41Z</time>
      </trkpt>
      <trkpt lat="62.630498506465" lon="17.966996766938">
        <ele>68</ele>
        <time>2017-11-20T18:33:42Z</time>
      </trkpt>
      <trkpt lat="62.630500015207" lon="17.966952678144">
        <ele>67.8</ele>
        <time>2017-11-20T18:33:43Z</time>
      </trkpt>
      <trkpt lat="62.630500853397" lon="17.966907080608">
        <ele>67.6</ele>
        <time>2017-11-20T18:33:44Z</time>
      </trkpt>
      <trkpt lat="62.630502865053" lon="17.966859052321">
        <ele>67.4</ele>
        <time>2017-11-20T18:33:45Z</time>
      </trkpt>
      <trkpt lat="62.630506385451" lon="17.966807252179">
        <ele>67</ele>
        <time>2017-11-20T18:33:46Z</time>
      </trkpt>
      <trkpt lat="62.630507726555" lon="17.96676777343">
        <ele>66.6</ele>
        <time>2017-11-20T18:33:47Z</time>
      </trkpt>
      <trkpt lat="62.630509905849" lon="17.966721840618">
        <ele>66.2</ele>
        <time>2017-11-20T18:33:48Z</time>
      </trkpt>
      <trkpt lat="62.630511833686" lon="17.966675237254">
        <ele>66</ele>
        <time>2017-11-20T18:33:49Z</time>
      </trkpt>
      <trkpt lat="62.630515186446" lon="17.966631399917">
        <ele>65.6</ele>
        <time>2017-11-20T18:33:50Z</time>
      </trkpt>
      <trkpt lat="62.63052574764" lon="17.96659762086">
        <ele>65.2</ele>
        <time>2017-11-20T18:33:51Z</time>
      </trkpt>
      <trkpt lat="62.63053832049" lon="17.966575408825">
        <ele>65</ele>
        <time>2017-11-20T18:33:52Z</time>
      </trkpt>
      <trkpt lat="62.630532369341" lon="17.966551939505">
        <ele>64.8</ele>
        <time>2017-11-20T18:33:53Z</time>
      </trkpt>
      <trkpt lat="62.630533961902" lon="17.966508856539">
        <ele>64.8</ele>
        <time>2017-11-20T18:33:54Z</time>
      </trkpt>
      <trkpt lat="62.630528094572" lon="17.966462253175">
        <ele>64.4</ele>
        <time>2017-11-20T18:33:55Z</time>
      </trkpt>
      <trkpt lat="62.630534883911" lon="17.966408106101">
        <ele>64.2</ele>
        <time>2017-11-20T18:33:56Z</time>
      </trkpt>
      <trkpt lat="62.6305374823" lon="17.966367202429">
        <ele>64</ele>
        <time>2017-11-20T18:33:57Z</time>
      </trkpt>
      <trkpt lat="62.630537817576" lon="17.966324873834">
        <ele>63.8</ele>
        <time>2017-11-20T18:33:58Z</time>
      </trkpt>
      <trkpt lat="62.630542008526" lon="17.966293693166">
        <ele>63.8</ele>
        <time>2017-11-20T18:33:59Z</time>
      </trkpt>
      <trkpt lat="62.630546534752" lon="17.966240468101">
        <ele>63.6</ele>
        <time>2017-11-20T18:34:00Z</time>
      </trkpt>
      <trkpt lat="62.63054754058" lon="17.966188919416">
        <ele>63.4</ele>
        <time>2017-11-20T18:34:01Z</time>
      </trkpt>
      <trkpt lat="62.630548546408" lon="17.966139466206">
        <ele>63.4</ele>
        <time>2017-11-20T18:34:02Z</time>
      </trkpt>
      <trkpt lat="62.630549887512" lon="17.96610057419">
        <ele>63.2</ele>
        <time>2017-11-20T18:34:03Z</time>
      </trkpt>
      <trkpt lat="62.630549887512" lon="17.966060592527">
        <ele>63</ele>
        <time>2017-11-20T18:34:04Z</time>
      </trkpt>
      <trkpt lat="62.630551647711" lon="17.966012731878">
        <ele>62.8</ele>
        <time>2017-11-20T18:34:05Z</time>
      </trkpt>
      <trkpt lat="62.63055173153" lon="17.965966296152">
        <ele>62.6</ele>
        <time>2017-11-20T18:34:06Z</time>
      </trkpt>
      <trkpt lat="62.630553827005" lon="17.965921452987">
        <ele>62.4</ele>
        <time>2017-11-20T18:34:07Z</time>
      </trkpt>
      <trkpt lat="62.63055676067" lon="17.965881890419">
        <ele>62</ele>
        <time>2017-11-20T18:34:08Z</time>
      </trkpt>
      <trkpt lat="62.630559191421" lon="17.965835454693">
        <ele>61.8</ele>
        <time>2017-11-20T18:34:09Z</time>
      </trkpt>
      <trkpt lat="62.630561873629" lon="17.965797484686">
        <ele>61.4</ele>
        <time>2017-11-20T18:34:10Z</time>
      </trkpt>
      <trkpt lat="62.630561622172" lon="17.965752557702">
        <ele>61.2</ele>
        <time>2017-11-20T18:34:11Z</time>
      </trkpt>
      <trkpt lat="62.630563633828" lon="17.965698494447">
        <ele>61.2</ele>
        <time>2017-11-20T18:34:12Z</time>
      </trkpt>
      <trkpt lat="62.630563298552" lon="17.965653148368">
        <ele>60.8</ele>
        <time>2017-11-20T18:34:13Z</time>
      </trkpt>
      <trkpt lat="62.630565729303" lon="17.965614088714">
        <ele>60.8</ele>
        <time>2017-11-20T18:34:14Z</time>
      </trkpt>
      <trkpt lat="62.630566567493" lon="17.96559430743">
        <ele>60.6</ele>
        <time>2017-11-20T18:34:15Z</time>
      </trkpt>
      <trkpt lat="62.630566567493" lon="17.965554828681">
        <ele>60.2</ele>
        <time>2017-11-20T18:34:16Z</time>
      </trkpt>
      <trkpt lat="62.630571931909" lon="17.965531526999">
        <ele>60.2</ele>
        <time>2017-11-20T18:34:17Z</time>
      </trkpt>
      <trkpt lat="62.630576206678" lon="17.96550210653">
        <ele>60</ele>
        <time>2017-11-20T18:34:18Z</time>
      </trkpt>
      <trkpt lat="62.630583079836" lon="17.965477547563">
        <ele>59.6</ele>
        <time>2017-11-20T18:34:19Z</time>
      </trkpt>
      <trkpt lat="62.630589533899" lon="17.965455838442">
        <ele>59.6</ele>
        <time>2017-11-20T18:34:21Z</time>
      </trkpt>
      <trkpt lat="62.630586767872" lon="17.965457263365">
        <ele>59.4</ele>
        <time>2017-11-20T18:34:22Z</time>
      </trkpt>
      <trkpt lat="62.630824310918" lon="17.965472266966">
        <ele>60</ele>
        <time>2017-11-20T18:35:03Z</time>
      </trkpt>
      <trkpt lat="62.630848031695" lon="17.965489449861">
        <ele>60</ele>
        <time>2017-11-20T18:35:04Z</time>
      </trkpt>
      <trkpt lat="62.630874602318" lon="17.965503699091">
        <ele>60.4</ele>
        <time>2017-11-20T18:35:05Z</time>
      </trkpt>
      <trkpt lat="62.630898239276" lon="17.965515601389">
        <ele>60.6</ele>
        <time>2017-11-20T18:35:06Z</time>
      </trkpt>
      <trkpt lat="62.630919613121" lon="17.965524905298">
        <ele>60.8</ele>
        <time>2017-11-20T18:35:07Z</time>
      </trkpt>
      <trkpt lat="62.630949787961" lon="17.965525827307">
        <ele>60.8</ele>
        <time>2017-11-20T18:35:08Z</time>
      </trkpt>
      <trkpt lat="62.63097417929" lon="17.965528174239">
        <ele>61</ele>
        <time>2017-11-20T18:35:09Z</time>
      </trkpt>
      <trkpt lat="62.630994631126" lon="17.96550797386">
        <ele>61.2</ele>
        <time>2017-11-20T18:35:10Z</time>
      </trkpt>
      <trkpt lat="62.631022961948" lon="17.965482492884">
        <ele>61.4</ele>
        <time>2017-11-20T18:35:11Z</time>
      </trkpt>
      <trkpt lat="62.631044754888" lon="17.965454078243">
        <ele>61.4</ele>
        <time>2017-11-20T18:35:12Z</time>
      </trkpt>
      <trkpt lat="62.631066464009" lon="17.965425412145">
        <ele>61.4</ele>
        <time>2017-11-20T18:35:13Z</time>
      </trkpt>
      <trkpt lat="62.631088592225" lon="17.965399763531">
        <ele>61.6</ele>
        <time>2017-11-20T18:35:14Z</time>
      </trkpt>
      <trkpt lat="62.631107954414" lon="17.965374114917">
        <ele>61.6</ele>
        <time>2017-11-20T18:35:15Z</time>
      </trkpt>
      <trkpt lat="62.63112924444" lon="17.965349388312">
        <ele>61.6</ele>
        <time>2017-11-20T18:35:16Z</time>
      </trkpt>
      <trkpt lat="62.63114852281" lon="17.965317285635">
        <ele>61.8</ele>
        <time>2017-11-20T18:35:17Z</time>
      </trkpt>
      <trkpt lat="62.631169309922" lon="17.965293816315">
        <ele>61.8</ele>
        <time>2017-11-20T18:35:18Z</time>
      </trkpt>
      <trkpt lat="62.631192360147" lon="17.96527495704">
        <ele>61.8</ele>
        <time>2017-11-20T18:35:19Z</time>
      </trkpt>
      <trkpt lat="62.631215158915" lon="17.965290715012">
        <ele>62</ele>
        <time>2017-11-20T18:35:20Z</time>
      </trkpt>
      <trkpt lat="62.631238963511" lon="17.96531016102">
        <ele>61.8</ele>
        <time>2017-11-20T18:35:21Z</time>
      </trkpt>
      <trkpt lat="62.631263857754" lon="17.965335222901">
        <ele>61.8</ele>
        <time>2017-11-20T18:35:22Z</time>
      </trkpt>
      <trkpt lat="62.6312834714" lon="17.96536045242">
        <ele>62</ele>
        <time>2017-11-20T18:35:23Z</time>
      </trkpt>
      <trkpt lat="62.631307443634" lon="17.965387861233">
        <ele>62</ele>
        <time>2017-11-20T18:35:24Z</time>
      </trkpt>
      <trkpt lat="62.63132705728" lon="17.965416359693">
        <ele>62</ele>
        <time>2017-11-20T18:35:25Z</time>
      </trkpt>
      <trkpt lat="62.631349856048" lon="17.965441589212">
        <ele>62</ele>
        <time>2017-11-20T18:35:26Z</time>
      </trkpt>
      <trkpt lat="62.631369721151" lon="17.965466567274">
        <ele>62.2</ele>
        <time>2017-11-20T18:35:27Z</time>
      </trkpt>
      <trkpt lat="62.631388748064" lon="17.965490790965">
        <ele>62.4</ele>
        <time>2017-11-20T18:35:28Z</time>
      </trkpt>
      <trkpt lat="62.631407188244" lon="17.965514092647">
        <ele>62.4</ele>
        <time>2017-11-20T18:35:29Z</time>
      </trkpt>
      <trkpt lat="62.631433423591" lon="17.96554317784">
        <ele>62.4</ele>
        <time>2017-11-20T18:35:30Z</time>
      </trkpt>
      <trkpt lat="62.631455467988" lon="17.965565976608">
        <ele>62.8</ele>
        <time>2017-11-20T18:35:31Z</time>
      </trkpt>
      <trkpt lat="62.631478350575" lon="17.965587266634">
        <ele>62.8</ele>
        <time>2017-11-20T18:35:32Z</time>
      </trkpt>
      <trkpt lat="62.631500394972" lon="17.965606964099">
        <ele>63</ele>
        <time>2017-11-20T18:35:33Z</time>
      </trkpt>
      <trkpt lat="62.631521852636" lon="17.965625991012">
        <ele>63</ele>
        <time>2017-11-20T18:35:34Z</time>
      </trkpt>
      <trkpt lat="62.631545657232" lon="17.965650130884">
        <ele>63.2</ele>
        <time>2017-11-20T18:35:35Z</time>
      </trkpt>
      <trkpt lat="62.631568204543" lon="17.965669325435">
        <ele>63.4</ele>
        <time>2017-11-20T18:35:36Z</time>
      </trkpt>
      <trkpt lat="62.631591170949" lon="17.965686424511">
        <ele>63.4</ele>
        <time>2017-11-20T18:35:37Z</time>
      </trkpt>
      <trkpt lat="62.631615143183" lon="17.965708720365">
        <ele>63.6</ele>
        <time>2017-11-20T18:35:38Z</time>
      </trkpt>
      <trkpt lat="62.631638277227" lon="17.965726992907">
        <ele>63.6</ele>
        <time>2017-11-20T18:35:39Z</time>
      </trkpt>
      <trkpt lat="62.631656633588" lon="17.965746522734">
        <ele>63.8</ele>
        <time>2017-11-20T18:35:40Z</time>
      </trkpt>
      <trkpt lat="62.631683539487" lon="17.965766723113">
        <ele>64</ele>
        <time>2017-11-20T18:35:41Z</time>
      </trkpt>
      <trkpt lat="62.631705835341" lon="17.965787342587">
        <ele>64</ele>
        <time>2017-11-20T18:35:42Z</time>
      </trkpt>
      <trkpt lat="62.631727041548" lon="17.965807878242">
        <ele>64.2</ele>
        <time>2017-11-20T18:35:43Z</time>
      </trkpt>
      <trkpt lat="62.631747074289" lon="17.965826988974">
        <ele>64.4</ele>
        <time>2017-11-20T18:35:44Z</time>
      </trkpt>
      <trkpt lat="62.631774064007" lon="17.965851045027">
        <ele>64.4</ele>
        <time>2017-11-20T18:35:45Z</time>
      </trkpt>
      <trkpt lat="62.631796611318" lon="17.965878202383">
        <ele>64.4</ele>
        <time>2017-11-20T18:35:46Z</time>
      </trkpt>
      <trkpt lat="62.63182158938" lon="17.965889434129">
        <ele>64.6</ele>
        <time>2017-11-20T18:35:47Z</time>
      </trkpt>
      <trkpt lat="62.63184589689" lon="17.965906030291">
        <ele>65</ele>
        <time>2017-11-20T18:35:48Z</time>
      </trkpt>
      <trkpt lat="62.631869030934" lon="17.965922123539">
        <ele>65</ele>
        <time>2017-11-20T18:35:49Z</time>
      </trkpt>
      <trkpt lat="62.631892081159" lon="17.96593880352">
        <ele>65.2</ele>
        <time>2017-11-20T18:35:50Z</time>
      </trkpt>
      <trkpt lat="62.631914544651" lon="17.965955986415">
        <ele>65.4</ele>
        <time>2017-11-20T18:35:51Z</time>
      </trkpt>
      <trkpt lat="62.631935918496" lon="17.965971073835">
        <ele>65.4</ele>
        <time>2017-11-20T18:35:52Z</time>
      </trkpt>
      <trkpt lat="62.631962656757" lon="17.965986664169">
        <ele>65.6</ele>
        <time>2017-11-20T18:35:53Z</time>
      </trkpt>
      <trkpt lat="62.631986042258" lon="17.966002254503">
        <ele>65.6</ele>
        <time>2017-11-20T18:35:54Z</time>
      </trkpt>
      <trkpt lat="62.632007583741" lon="17.96601256424">
        <ele>65.6</ele>
        <time>2017-11-20T18:35:55Z</time>
      </trkpt>
      <trkpt lat="62.632031472156" lon="17.966026226737">
        <ele>65.8</ele>
        <time>2017-11-20T18:35:56Z</time>
      </trkpt>
      <trkpt lat="62.632054690019" lon="17.966037626121">
        <ele>66</ele>
        <time>2017-11-20T18:35:57Z</time>
      </trkpt>
      <trkpt lat="62.632077656425" lon="17.9660494446">
        <ele>66</ele>
        <time>2017-11-20T18:35:58Z</time>
      </trkpt>
      <trkpt lat="62.632099114089" lon="17.966065118753">
        <ele>66</ele>
        <time>2017-11-20T18:35:59Z</time>
      </trkpt>
      <trkpt lat="62.632123505418" lon="17.966075260852">
        <ele>66.2</ele>
        <time>2017-11-20T18:36:00Z</time>
      </trkpt>
      <trkpt lat="62.63214764529" lon="17.966089845358">
        <ele>66.2</ele>
        <time>2017-11-20T18:36:01Z</time>
      </trkpt>
      <trkpt lat="62.632169605868" lon="17.966102585846">
        <ele>66.4</ele>
        <time>2017-11-20T18:36:02Z</time>
      </trkpt>
      <trkpt lat="62.632192404636" lon="17.966113817592">
        <ele>66.4</ele>
        <time>2017-11-20T18:36:03Z</time>
      </trkpt>
      <trkpt lat="62.632216712146" lon="17.966124714062">
        <ele>66.4</ele>
        <time>2017-11-20T18:36:04Z</time>
      </trkpt>
      <trkpt lat="62.632239930009" lon="17.966128653555">
        <ele>66.6</ele>
        <time>2017-11-20T18:36:05Z</time>
      </trkpt>
      <trkpt lat="62.632262644958" lon="17.966137706007">
        <ele>66.8</ele>
        <time>2017-11-20T18:36:06Z</time>
      </trkpt>
      <trkpt lat="62.632285276088" lon="17.966146758459">
        <ele>66.8</ele>
        <time>2017-11-20T18:36:07Z</time>
      </trkpt>
      <trkpt lat="62.632308745408" lon="17.96615254197">
        <ele>66.8</ele>
        <time>2017-11-20T18:36:08Z</time>
      </trkpt>
      <trkpt lat="62.632333136737" lon="17.966161929698">
        <ele>67</ele>
        <time>2017-11-20T18:36:09Z</time>
      </trkpt>
      <trkpt lat="62.632353923849" lon="17.96616762939">
        <ele>67</ele>
        <time>2017-11-20T18:36:10Z</time>
      </trkpt>
      <trkpt lat="62.632381416481" lon="17.966174921643">
        <ele>67</ele>
        <time>2017-11-20T18:36:11Z</time>
      </trkpt>
      <trkpt lat="62.632406143086" lon="17.966182549172">
        <ele>67</ele>
        <time>2017-11-20T18:36:12Z</time>
      </trkpt>
      <trkpt lat="62.632431204967" lon="17.966190931072">
        <ele>67.2</ele>
        <time>2017-11-20T18:36:13Z</time>
      </trkpt>
      <trkpt lat="62.632458446142" lon="17.96619948061">
        <ele>67.2</ele>
        <time>2017-11-20T18:36:14Z</time>
      </trkpt>
      <trkpt lat="62.632478897978" lon="17.966206940501">
        <ele>67.4</ele>
        <time>2017-11-20T18:36:15Z</time>
      </trkpt>
      <trkpt lat="62.632501948203" lon="17.966215322401">
        <ele>67.4</ele>
        <time>2017-11-20T18:36:16Z</time>
      </trkpt>
      <trkpt lat="62.632525752799" lon="17.966222530835">
        <ele>67.8</ele>
        <time>2017-11-20T18:36:17Z</time>
      </trkpt>
      <trkpt lat="62.632550227947" lon="17.966226218871">
        <ele>67.8</ele>
        <time>2017-11-20T18:36:18Z</time>
      </trkpt>
      <trkpt lat="62.632576295656" lon="17.966232337658">
        <ele>67.8</ele>
        <time>2017-11-20T18:36:19Z</time>
      </trkpt>
      <trkpt lat="62.63260026789" lon="17.9662338464">
        <ele>67.8</ele>
        <time>2017-11-20T18:36:20Z</time>
      </trkpt>
      <trkpt lat="62.632625078314" lon="17.966235606599">
        <ele>67.6</ele>
        <time>2017-11-20T18:36:21Z</time>
      </trkpt>
      <trkpt lat="62.632650643109" lon="17.966239546092">
        <ele>67.6</ele>
        <time>2017-11-20T18:36:22Z</time>
      </trkpt>
      <trkpt lat="62.632672016954" lon="17.96624055192">
        <ele>67.8</ele>
        <time>2017-11-20T18:36:23Z</time>
      </trkpt>
      <trkpt lat="62.632697246473" lon="17.966243820861">
        <ele>67.8</ele>
        <time>2017-11-20T18:36:24Z</time>
      </trkpt>
      <trkpt lat="62.632718955594" lon="17.966244575232">
        <ele>68</ele>
        <time>2017-11-20T18:36:25Z</time>
      </trkpt>
      <trkpt lat="62.632742676371" lon="17.966246838345">
        <ele>68.4</ele>
        <time>2017-11-20T18:36:26Z</time>
      </trkpt>
      <trkpt lat="62.632765558958" lon="17.966246838345">
        <ele>68.4</ele>
        <time>2017-11-20T18:36:27Z</time>
      </trkpt>
      <trkpt lat="62.632787603355" lon="17.966246167793">
        <ele>68.6</ele>
        <time>2017-11-20T18:36:28Z</time>
      </trkpt>
      <trkpt lat="62.632809228657" lon="17.96625228658">
        <ele>68.6</ele>
        <time>2017-11-20T18:36:29Z</time>
      </trkpt>
      <trkpt lat="62.632836469832" lon="17.966251783666">
        <ele>68.4</ele>
        <time>2017-11-20T18:36:30Z</time>
      </trkpt>
      <trkpt lat="62.632861866989" lon="17.966252035123">
        <ele>68.4</ele>
        <time>2017-11-20T18:36:31Z</time>
      </trkpt>
      <trkpt lat="62.632887599422" lon="17.966252789494">
        <ele>68.4</ele>
        <time>2017-11-20T18:36:32Z</time>
      </trkpt>
      <trkpt lat="62.632912996579" lon="17.966250861657">
        <ele>68.4</ele>
        <time>2017-11-20T18:36:33Z</time>
      </trkpt>
      <trkpt lat="62.632938729012" lon="17.966248850001">
        <ele>68.6</ele>
        <time>2017-11-20T18:36:34Z</time>
      </trkpt>
      <trkpt lat="62.632961024866" lon="17.9662506102">
        <ele>69</ele>
        <time>2017-11-20T18:36:35Z</time>
      </trkpt>
      <trkpt lat="62.632983907453" lon="17.966250274924">
        <ele>69.2</ele>
        <time>2017-11-20T18:36:36Z</time>
      </trkpt>
      <trkpt lat="62.633008801696" lon="17.966248598544">
        <ele>69.2</ele>
        <time>2017-11-20T18:36:37Z</time>
      </trkpt>
      <trkpt lat="62.633031181369" lon="17.966247089802">
        <ele>69.4</ele>
        <time>2017-11-20T18:36:38Z</time>
      </trkpt>
      <trkpt lat="62.633053644861" lon="17.966243737042">
        <ele>69.4</ele>
        <time>2017-11-20T18:36:39Z</time>
      </trkpt>
      <trkpt lat="62.63307887438" lon="17.966244575232">
        <ele>69.4</ele>
        <time>2017-11-20T18:36:40Z</time>
      </trkpt>
      <trkpt lat="62.633104271537" lon="17.966247425078">
        <ele>69.4</ele>
        <time>2017-11-20T18:36:41Z</time>
      </trkpt>
      <trkpt lat="62.633127908495" lon="17.966245078146">
        <ele>69.6</ele>
        <time>2017-11-20T18:36:42Z</time>
      </trkpt>
      <trkpt lat="62.633152048367" lon="17.966240719558">
        <ele>69.6</ele>
        <time>2017-11-20T18:36:43Z</time>
      </trkpt>
      <trkpt lat="62.633176272058" lon="17.966235271323">
        <ele>69.8</ele>
        <time>2017-11-20T18:36:44Z</time>
      </trkpt>
      <trkpt lat="62.633198484093" lon="17.966232337658">
        <ele>69.8</ele>
        <time>2017-11-20T18:36:45Z</time>
      </trkpt>
      <trkpt lat="62.633223965069" lon="17.966229320174">
        <ele>70</ele>
        <time>2017-11-20T18:36:46Z</time>
      </trkpt>
      <trkpt lat="62.633245422733" lon="17.966223369025">
        <ele>70</ele>
        <time>2017-11-20T18:36:47Z</time>
      </trkpt>
      <trkpt lat="62.633269311148" lon="17.966220686817">
        <ele>70</ele>
        <time>2017-11-20T18:36:48Z</time>
      </trkpt>
      <trkpt lat="62.633294875943" lon="17.966223871939">
        <ele>70</ele>
        <time>2017-11-20T18:36:49Z</time>
      </trkpt>
      <trkpt lat="62.633315914512" lon="17.966221022093">
        <ele>70.2</ele>
        <time>2017-11-20T18:36:50Z</time>
      </trkpt>
      <trkpt lat="62.633340305841" lon="17.96622043536">
        <ele>70</ele>
        <time>2017-11-20T18:36:51Z</time>
      </trkpt>
      <trkpt lat="62.633367044102" lon="17.966220854455">
        <ele>70.2</ele>
        <time>2017-11-20T18:36:52Z</time>
      </trkpt>
      <trkpt lat="62.633386406291" lon="17.966218256066">
        <ele>70.2</ele>
        <time>2017-11-20T18:36:53Z</time>
      </trkpt>
      <trkpt lat="62.633408785964" lon="17.966217669333">
        <ele>70.4</ele>
        <time>2017-11-20T18:36:54Z</time>
      </trkpt>
      <trkpt lat="62.633433931664" lon="17.966218507523">
        <ele>70.4</ele>
        <time>2017-11-20T18:36:55Z</time>
      </trkpt>
      <trkpt lat="62.633456814251" lon="17.966222027921">
        <ele>70.4</ele>
        <time>2017-11-20T18:36:56Z</time>
      </trkpt>
      <trkpt lat="62.633480870304" lon="17.966227224699">
        <ele>70.4</ele>
        <time>2017-11-20T18:36:57Z</time>
      </trkpt>
      <trkpt lat="62.633504926357" lon="17.966233678762">
        <ele>70.4</ele>
        <time>2017-11-20T18:36:58Z</time>
      </trkpt>
      <trkpt lat="62.633524204727" lon="17.96623133183">
        <ele>70.4</ele>
        <time>2017-11-20T18:36:59Z</time>
      </trkpt>
      <trkpt lat="62.633551864997" lon="17.966231583287">
        <ele>70.6</ele>
        <time>2017-11-20T18:37:00Z</time>
      </trkpt>
      <trkpt lat="62.633576423964" lon="17.966232924391">
        <ele>70.6</ele>
        <time>2017-11-20T18:37:01Z</time>
      </trkpt>
      <trkpt lat="62.63360190494" lon="17.96623552278">
        <ele>70.6</ele>
        <time>2017-11-20T18:37:02Z</time>
      </trkpt>
      <trkpt lat="62.633626715364" lon="17.966237450617">
        <ele>70.8</ele>
        <time>2017-11-20T18:37:03Z</time>
      </trkpt>
      <trkpt lat="62.633650603779" lon="17.966239126997">
        <ele>70.8</ele>
        <time>2017-11-20T18:37:04Z</time>
      </trkpt>
      <trkpt lat="62.633675246565" lon="17.966247173621">
        <ele>71</ele>
        <time>2017-11-20T18:37:05Z</time>
      </trkpt>
      <trkpt lat="62.633698967342" lon="17.966254717331">
        <ele>71</ele>
        <time>2017-11-20T18:37:06Z</time>
      </trkpt>
      <trkpt lat="62.633723107214" lon="17.966262512498">
        <ele>71</ele>
        <time>2017-11-20T18:37:07Z</time>
      </trkpt>
      <trkpt lat="62.633746157439" lon="17.966282880515">
        <ele>71</ele>
        <time>2017-11-20T18:37:08Z</time>
      </trkpt>
      <trkpt lat="62.633768788569" lon="17.966306685111">
        <ele>70.8</ele>
        <time>2017-11-20T18:37:09Z</time>
      </trkpt>
      <trkpt lat="62.633782618704" lon="17.966340715625">
        <ele>70.8</ele>
        <time>2017-11-20T18:37:10Z</time>
      </trkpt>
      <trkpt lat="62.633785887645" lon="17.966398466916">
        <ele>70.8</ele>
        <time>2017-11-20T18:37:11Z</time>
      </trkpt>
      <trkpt lat="62.633785217093" lon="17.96644590847">
        <ele>70.8</ele>
        <time>2017-11-20T18:37:12Z</time>
      </trkpt>
      <trkpt lat="62.633779433582" lon="17.966495864594">
        <ele>70.8</ele>
        <time>2017-11-20T18:37:13Z</time>
      </trkpt>
      <trkpt lat="62.633772308967" lon="17.966545317804">
        <ele>71</ele>
        <time>2017-11-20T18:37:14Z</time>
      </trkpt>
      <trkpt lat="62.63376786656" lon="17.966589574236">
        <ele>71.4</ele>
        <time>2017-11-20T18:37:15Z</time>
      </trkpt>
      <trkpt lat="62.633761412497" lon="17.966636429057">
        <ele>71.6</ele>
        <time>2017-11-20T18:37:16Z</time>
      </trkpt>
      <trkpt lat="62.633756467176" lon="17.966678841471">
        <ele>72</ele>
        <time>2017-11-20T18:37:17Z</time>
      </trkpt>
      <trkpt lat="62.633750348389" lon="17.966721924437">
        <ele>72.2</ele>
        <time>2017-11-20T18:37:18Z</time>
      </trkpt>
      <trkpt lat="62.633744564878" lon="17.966765175041">
        <ele>72.4</ele>
        <time>2017-11-20T18:37:19Z</time>
      </trkpt>
      <trkpt lat="62.633738613729" lon="17.966809431473">
        <ele>72.6</ele>
        <time>2017-11-20T18:37:20Z</time>
      </trkpt>
      <trkpt lat="62.633732243485" lon="17.966857292122">
        <ele>72.8</ele>
        <time>2017-11-20T18:37:21Z</time>
      </trkpt>
      <trkpt lat="62.633725621784" lon="17.966905907142">
        <ele>73</ele>
        <time>2017-11-20T18:37:22Z</time>
      </trkpt>
      <trkpt lat="62.633722017567" lon="17.966950079755">
        <ele>73.4</ele>
        <time>2017-11-20T18:37:23Z</time>
      </trkpt>
      <trkpt lat="62.63371589878" lon="17.96699743749">
        <ele>73.4</ele>
        <time>2017-11-20T18:37:24Z</time>
      </trkpt>
      <trkpt lat="62.633712378382" lon="17.967041945379">
        <ele>73.6</ele>
        <time>2017-11-20T18:37:25Z</time>
      </trkpt>
      <trkpt lat="62.63370500231" lon="17.967086872363">
        <ele>73.8</ele>
        <time>2017-11-20T18:37:26Z</time>
      </trkpt>
      <trkpt lat="62.633699386437" lon="17.967131883166">
        <ele>74</ele>
        <time>2017-11-20T18:37:27Z</time>
      </trkpt>
      <trkpt lat="62.633694776392" lon="17.967174211761">
        <ele>74.2</ele>
        <time>2017-11-20T18:37:28Z</time>
      </trkpt>
      <trkpt lat="62.633690417804" lon="17.967212265587">
        <ele>74.2</ele>
        <time>2017-11-20T18:37:29Z</time>
      </trkpt>
      <trkpt lat="62.63368572394" lon="17.967264987738">
        <ele>74.4</ele>
        <time>2017-11-20T18:37:30Z</time>
      </trkpt>
      <trkpt lat="62.633680443343" lon="17.967309998541">
        <ele>74.6</ele>
        <time>2017-11-20T18:37:31Z</time>
      </trkpt>
      <trkpt lat="62.633673486366" lon="17.967355428439">
        <ele>74.6</ele>
        <time>2017-11-20T18:37:32Z</time>
      </trkpt>
      <trkpt lat="62.633669463054" lon="17.967399936328">
        <ele>74.8</ele>
        <time>2017-11-20T18:37:33Z</time>
      </trkpt>
      <trkpt lat="62.633666529389" lon="17.967444276579">
        <ele>75</ele>
        <time>2017-11-20T18:37:34Z</time>
      </trkpt>
      <trkpt lat="62.633658482765" lon="17.967495070893">
        <ele>75.2</ele>
        <time>2017-11-20T18:37:35Z</time>
      </trkpt>
      <trkpt lat="62.633652363978" lon="17.967538824411">
        <ele>75.4</ele>
        <time>2017-11-20T18:37:36Z</time>
      </trkpt>
      <trkpt lat="62.633647418657" lon="17.967580566273">
        <ele>75.4</ele>
        <time>2017-11-20T18:37:37Z</time>
      </trkpt>
      <trkpt lat="62.633638533843" lon="17.967627337275">
        <ele>75.8</ele>
        <time>2017-11-20T18:37:38Z</time>
      </trkpt>
      <trkpt lat="62.633633337065" lon="17.967667821852">
        <ele>76</ele>
        <time>2017-11-20T18:37:39Z</time>
      </trkpt>
      <trkpt lat="62.633627134459" lon="17.967712329741">
        <ele>76.2</ele>
        <time>2017-11-20T18:37:40Z</time>
      </trkpt>
      <trkpt lat="62.633617495274" lon="17.967763459331">
        <ele>76.4</ele>
        <time>2017-11-20T18:37:41Z</time>
      </trkpt>
      <trkpt lat="62.633611460306" lon="17.967808721591">
        <ele>76.6</ele>
        <time>2017-11-20T18:37:42Z</time>
      </trkpt>
      <trkpt lat="62.633604335691" lon="17.96785406767">
        <ele>76.8</ele>
        <time>2017-11-20T18:37:43Z</time>
      </trkpt>
      <trkpt lat="62.633596624343" lon="17.967898743197">
        <ele>77</ele>
        <time>2017-11-20T18:37:44Z</time>
      </trkpt>
      <trkpt lat="62.63359017028" lon="17.967945262742">
        <ele>77.2</ele>
        <time>2017-11-20T18:37:45Z</time>
      </trkpt>
      <trkpt lat="62.63358262657" lon="17.967990776459">
        <ele>77.4</ele>
        <time>2017-11-20T18:37:46Z</time>
      </trkpt>
      <trkpt lat="62.633577429792" lon="17.968034781434">
        <ele>77.6</ele>
        <time>2017-11-20T18:37:47Z</time>
      </trkpt>
      <trkpt lat="62.633569718444" lon="17.968080630427">
        <ele>77.8</ele>
        <time>2017-11-20T18:37:48Z</time>
      </trkpt>
      <trkpt lat="62.633561839458" lon="17.968126647058">
        <ele>77.8</ele>
        <time>2017-11-20T18:37:49Z</time>
      </trkpt>
      <trkpt lat="62.633555720671" lon="17.968170316757">
        <ele>78</ele>
        <time>2017-11-20T18:37:50Z</time>
      </trkpt>
      <trkpt lat="62.633549685703" lon="17.968216417207">
        <ele>78.2</ele>
        <time>2017-11-20T18:37:51Z</time>
      </trkpt>
      <trkpt lat="62.633544321287" lon="17.968259081078">
        <ele>78.4</ele>
        <time>2017-11-20T18:37:52Z</time>
      </trkpt>
      <trkpt lat="62.633537112853" lon="17.968309623935">
        <ele>78.4</ele>
        <time>2017-11-20T18:37:53Z</time>
      </trkpt>
      <trkpt lat="62.633528228039" lon="17.968359831516">
        <ele>78.6</ele>
        <time>2017-11-20T18:37:54Z</time>
      </trkpt>
      <trkpt lat="62.633524875279" lon="17.968403668853">
        <ele>78.8</ele>
        <time>2017-11-20T18:37:55Z</time>
      </trkpt>
      <trkpt lat="62.633518672673" lon="17.968453122063">
        <ele>78.8</ele>
        <time>2017-11-20T18:37:56Z</time>
      </trkpt>
      <trkpt lat="62.633512972981" lon="17.968499390151">
        <ele>79</ele>
        <time>2017-11-20T18:37:57Z</time>
      </trkpt>
      <trkpt lat="62.633507943841" lon="17.96854389804">
        <ele>79.2</ele>
        <time>2017-11-20T18:37:58Z</time>
      </trkpt>
      <trkpt lat="62.633500567769" lon="17.968592261603">
        <ele>79.2</ele>
        <time>2017-11-20T18:37:59Z</time>
      </trkpt>
      <trkpt lat="62.63349545481" lon="17.968641463356">
        <ele>79.4</ele>
        <time>2017-11-20T18:38:00Z</time>
      </trkpt>
      <trkpt lat="62.63349042567" lon="17.968689407824">
        <ele>79.4</ele>
        <time>2017-11-20T18:38:01Z</time>
      </trkpt>
      <trkpt lat="62.633486150901" lon="17.968735927369">
        <ele>79.6</ele>
        <time>2017-11-20T18:38:02Z</time>
      </trkpt>
      <trkpt lat="62.633481959951" lon="17.968783536561">
        <ele>79.8</ele>
        <time>2017-11-20T18:38:03Z</time>
      </trkpt>
      <trkpt lat="62.633476846992" lon="17.968833995599">
        <ele>80</ele>
        <time>2017-11-20T18:38:04Z</time>
      </trkpt>
      <trkpt lat="62.63347198549" lon="17.968880179868">
        <ele>80.4</ele>
        <time>2017-11-20T18:38:05Z</time>
      </trkpt>
      <trkpt lat="62.633467040169" lon="17.968927956698">
        <ele>80.6</ele>
        <time>2017-11-20T18:38:06Z</time>
      </trkpt>
      <trkpt lat="62.633461843391" lon="17.968976571718">
        <ele>80.8</ele>
        <time>2017-11-20T18:38:07Z</time>
      </trkpt>
      <trkpt lat="62.633456646613" lon="17.969023091263">
        <ele>81</ele>
        <time>2017-11-20T18:38:08Z</time>
      </trkpt>
      <trkpt lat="62.633451282197" lon="17.969072209197">
        <ele>81</ele>
        <time>2017-11-20T18:38:09Z</time>
      </trkpt>
      <trkpt lat="62.633448013256" lon="17.969115375982">
        <ele>81.2</ele>
        <time>2017-11-20T18:38:10Z</time>
      </trkpt>
      <trkpt lat="62.63344264884" lon="17.969168601047">
        <ele>81.4</ele>
        <time>2017-11-20T18:38:11Z</time>
      </trkpt>
      <trkpt lat="62.633437535881" lon="17.969218892447">
        <ele>81.6</ele>
        <time>2017-11-20T18:38:12Z</time>
      </trkpt>
      <trkpt lat="62.633433847845" lon="17.969271027865">
        <ele>81.8</ele>
        <time>2017-11-20T18:38:13Z</time>
      </trkpt>
      <trkpt lat="62.633430159809" lon="17.969324839663">
        <ele>81.8</ele>
        <time>2017-11-20T18:38:14Z</time>
      </trkpt>
      <trkpt lat="62.633427980515" lon="17.969376639805">
        <ele>82</ele>
        <time>2017-11-20T18:38:15Z</time>
      </trkpt>
      <trkpt lat="62.633425465945" lon="17.969425841558">
        <ele>82.2</ele>
        <time>2017-11-20T18:38:16Z</time>
      </trkpt>
      <trkpt lat="62.633417167864" lon="17.96948099446">
        <ele>82.4</ele>
        <time>2017-11-20T18:38:17Z</time>
      </trkpt>
      <trkpt lat="62.633408618326" lon="17.969531788774">
        <ele>82.4</ele>
        <time>2017-11-20T18:38:18Z</time>
      </trkpt>
      <trkpt lat="62.633398643865" lon="17.969580319975">
        <ele>82.6</ele>
        <time>2017-11-20T18:38:19Z</time>
      </trkpt>
      <trkpt lat="62.633375761278" lon="17.969619044353">
        <ele>82.8</ele>
        <time>2017-11-20T18:38:20Z</time>
      </trkpt>
      <trkpt lat="62.633352040501" lon="17.96964611789">
        <ele>82.8</ele>
        <time>2017-11-20T18:38:21Z</time>
      </trkpt>
      <trkpt lat="62.633326727163" lon="17.96966958721">
        <ele>83</ele>
        <time>2017-11-20T18:38:22Z</time>
      </trkpt>
      <trkpt lat="62.633301665282" lon="17.969671095952">
        <ele>83.2</ele>
        <time>2017-11-20T18:38:23Z</time>
      </trkpt>
      <trkpt lat="62.633278279781" lon="17.969676795644">
        <ele>83.2</ele>
        <time>2017-11-20T18:38:24Z</time>
      </trkpt>
      <trkpt lat="62.633250116597" lon="17.969679896947">
        <ele>83.4</ele>
        <time>2017-11-20T18:38:25Z</time>
      </trkpt>
      <trkpt lat="62.633223797431" lon="17.969681489508">
        <ele>83.6</ele>
        <time>2017-11-20T18:38:26Z</time>
      </trkpt>
      <trkpt lat="62.63319873555" lon="17.969678723481">
        <ele>83.6</ele>
        <time>2017-11-20T18:38:27Z</time>
      </trkpt>
      <trkpt lat="62.633174092764" lon="17.969673191427">
        <ele>83.6</ele>
        <time>2017-11-20T18:38:28Z</time>
      </trkpt>
      <trkpt lat="62.63314928234" lon="17.969669503391">
        <ele>83.6</ele>
        <time>2017-11-20T18:38:29Z</time>
      </trkpt>
      <trkpt lat="62.633121202975" lon="17.969664138975">
        <ele>83.4</ele>
        <time>2017-11-20T18:38:30Z</time>
      </trkpt>
      <trkpt lat="62.63309312361" lon="17.969658271645">
        <ele>83.4</ele>
        <time>2017-11-20T18:38:31Z</time>
      </trkpt>
      <trkpt lat="62.633064708969" lon="17.969655086523">
        <ele>83.4</ele>
        <time>2017-11-20T18:38:32Z</time>
      </trkpt>
      <trkpt lat="62.633036629604" lon="17.969650811754">
        <ele>83.4</ele>
        <time>2017-11-20T18:38:33Z</time>
      </trkpt>
      <trkpt lat="62.633009388429" lon="17.969644273872">
        <ele>83.4</ele>
        <time>2017-11-20T18:38:34Z</time>
      </trkpt>
      <trkpt lat="62.63298248253" lon="17.969641507845">
        <ele>83.4</ele>
        <time>2017-11-20T18:38:35Z</time>
      </trkpt>
      <trkpt lat="62.632956833916" lon="17.969637903628">
        <ele>83.4</ele>
        <time>2017-11-20T18:38:36Z</time>
      </trkpt>
      <trkpt lat="62.632932023492" lon="17.969631617203">
        <ele>83.4</ele>
        <time>2017-11-20T18:38:37Z</time>
      </trkpt>
      <trkpt lat="62.63290369267" lon="17.969621223647">
        <ele>83.4</ele>
        <time>2017-11-20T18:38:38Z</time>
      </trkpt>
      <trkpt lat="62.632878630789" lon="17.969612422652">
        <ele>83.2</ele>
        <time>2017-11-20T18:38:39Z</time>
      </trkpt>
      <trkpt lat="62.632853233632" lon="17.969603202562">
        <ele>83.2</ele>
        <time>2017-11-20T18:38:40Z</time>
      </trkpt>
      <trkpt lat="62.632819706032" lon="17.969595323576">
        <ele>83.2</ele>
        <time>2017-11-20T18:38:41Z</time>
      </trkpt>
      <trkpt lat="62.632792297219" lon="17.969588534237">
        <ele>83.2</ele>
        <time>2017-11-20T18:38:42Z</time>
      </trkpt>
      <trkpt lat="62.632762792931" lon="17.969582499269">
        <ele>83.2</ele>
        <time>2017-11-20T18:38:43Z</time>
      </trkpt>
      <trkpt lat="62.63273437829" lon="17.969573111541">
        <ele>83.2</ele>
        <time>2017-11-20T18:38:44Z</time>
      </trkpt>
      <trkpt lat="62.632707891486" lon="17.96957068079">
        <ele>83.2</ele>
        <time>2017-11-20T18:38:45Z</time>
      </trkpt>
      <trkpt lat="62.632682075234" lon="17.969563472356">
        <ele>83</ele>
        <time>2017-11-20T18:38:46Z</time>
      </trkpt>
      <trkpt lat="62.632652570946" lon="17.969554336085">
        <ele>82.8</ele>
        <time>2017-11-20T18:38:47Z</time>
      </trkpt>
      <trkpt lat="62.63262373721" lon="17.969551989153">
        <ele>82.6</ele>
        <time>2017-11-20T18:38:48Z</time>
      </trkpt>
      <trkpt lat="62.632596160759" lon="17.969549558402">
        <ele>82.6</ele>
        <time>2017-11-20T18:38:49Z</time>
      </trkpt>
      <trkpt lat="62.632563638987" lon="17.969546708556">
        <ele>82.4</ele>
        <time>2017-11-20T18:38:50Z</time>
      </trkpt>
      <trkpt lat="62.632533799423" lon="17.969547379108">
        <ele>82.4</ele>
        <time>2017-11-20T18:38:51Z</time>
      </trkpt>
      <trkpt lat="62.632505887696" lon="17.969547462927">
        <ele>82.4</ele>
        <time>2017-11-20T18:38:52Z</time>
      </trkpt>
      <trkpt lat="62.632475796675" lon="17.969552911162">
        <ele>82.4</ele>
        <time>2017-11-20T18:38:53Z</time>
      </trkpt>
      <trkpt lat="62.632449980423" lon="17.969552156791">
        <ele>82.2</ele>
        <time>2017-11-20T18:38:54Z</time>
      </trkpt>
      <trkpt lat="62.632420224678" lon="17.969555844827">
        <ele>82.2</ele>
        <time>2017-11-20T18:38:55Z</time>
      </trkpt>
      <trkpt lat="62.63239323496" lon="17.969556347741">
        <ele>82.2</ele>
        <time>2017-11-20T18:38:56Z</time>
      </trkpt>
      <trkpt lat="62.632366077604" lon="17.969556599198">
        <ele>82.2</ele>
        <time>2017-11-20T18:38:57Z</time>
      </trkpt>
      <trkpt lat="62.632339004067" lon="17.969553414076">
        <ele>82.2</ele>
        <time>2017-11-20T18:38:58Z</time>
      </trkpt>
      <trkpt lat="62.632312098168" lon="17.969560203415">
        <ele>82.4</ele>
        <time>2017-11-20T18:38:59Z</time>
      </trkpt>
      <trkpt lat="62.63227756474" lon="17.969578559776">
        <ele>82.4</ele>
        <time>2017-11-20T18:39:00Z</time>
      </trkpt>
      <trkpt lat="62.632248060452" lon="17.969589037151">
        <ele>82.4</ele>
        <time>2017-11-20T18:39:01Z</time>
      </trkpt>
      <trkpt lat="62.632221825105" lon="17.969595155938">
        <ele>82.4</ele>
        <time>2017-11-20T18:39:02Z</time>
      </trkpt>
      <trkpt lat="62.632198271966" lon="17.969598843974">
        <ele>82.2</ele>
        <time>2017-11-20T18:39:03Z</time>
      </trkpt>
      <trkpt lat="62.632175557017" lon="17.969599346888">
        <ele>82.2</ele>
        <time>2017-11-20T18:39:04Z</time>
      </trkpt>
      <trkpt lat="62.632143873435" lon="17.969603454019">
        <ele>82.2</ele>
        <time>2017-11-20T18:39:05Z</time>
      </trkpt>
      <trkpt lat="62.63211747045" lon="17.969607142055">
        <ele>82.2</ele>
        <time>2017-11-20T18:39:06Z</time>
      </trkpt>
      <trkpt lat="62.632091067465" lon="17.969605549494">
        <ele>82</ele>
        <time>2017-11-20T18:39:07Z</time>
      </trkpt>
      <trkpt lat="62.632062317548" lon="17.969610578634">
        <ele>82.2</ele>
        <time>2017-11-20T18:39:08Z</time>
      </trkpt>
      <trkpt lat="62.632038261495" lon="17.969610997729">
        <ele>82.2</ele>
        <time>2017-11-20T18:39:09Z</time>
      </trkpt>
      <trkpt lat="62.632010265949" lon="17.969612841747">
        <ele>82.2</ele>
        <time>2017-11-20T18:39:10Z</time>
      </trkpt>
      <trkpt lat="62.631979755833" lon="17.969619463448">
        <ele>82.2</ele>
        <time>2017-11-20T18:39:11Z</time>
      </trkpt>
      <trkpt lat="62.631952179382" lon="17.969624241131">
        <ele>82.2</ele>
        <time>2017-11-20T18:39:12Z</time>
      </trkpt>
      <trkpt lat="62.631924519112" lon="17.969629186452">
        <ele>82.2</ele>
        <time>2017-11-20T18:39:13Z</time>
      </trkpt>
      <trkpt lat="62.631898535222" lon="17.969634215592">
        <ele>82.2</ele>
        <time>2017-11-20T18:39:14Z</time>
      </trkpt>
      <trkpt lat="62.6318702044" lon="17.969641507845">
        <ele>82.2</ele>
        <time>2017-11-20T18:39:15Z</time>
      </trkpt>
      <trkpt lat="62.631840113379" lon="17.969649638288">
        <ele>82.2</ele>
        <time>2017-11-20T18:39:16Z</time>
      </trkpt>
      <trkpt lat="62.631809100349" lon="17.969669419572">
        <ele>82</ele>
        <time>2017-11-20T18:39:17Z</time>
      </trkpt>
      <trkpt lat="62.631778757871" lon="17.96969724748">
        <ele>82</ele>
        <time>2017-11-20T18:39:18Z</time>
      </trkpt>
      <trkpt lat="62.631749169764" lon="17.969728344329">
        <ele>81.8</ele>
        <time>2017-11-20T18:39:19Z</time>
      </trkpt>
      <trkpt lat="62.631723940245" lon="17.969757010427">
        <ele>81.8</ele>
        <time>2017-11-20T18:39:20Z</time>
      </trkpt>
      <trkpt lat="62.631696615251" lon="17.969782072308">
        <ele>81.6</ele>
        <time>2017-11-20T18:39:21Z</time>
      </trkpt>
      <trkpt lat="62.631671888646" lon="17.969803781429">
        <ele>81.6</ele>
        <time>2017-11-20T18:39:22Z</time>
      </trkpt>
      <trkpt lat="62.631644144557" lon="17.969814258804">
        <ele>81.6</ele>
        <time>2017-11-20T18:39:23Z</time>
      </trkpt>
      <trkpt lat="62.631617657753" lon="17.969824568541">
        <ele>81.6</ele>
        <time>2017-11-20T18:39:24Z</time>
      </trkpt>
      <trkpt lat="62.631584633067" lon="17.969851893535">
        <ele>81.8</ele>
        <time>2017-11-20T18:39:25Z</time>
      </trkpt>
      <trkpt lat="62.631553703856" lon="17.969867986783">
        <ele>82</ele>
        <time>2017-11-20T18:39:26Z</time>
      </trkpt>
      <trkpt lat="62.631522774645" lon="17.969881397823">
        <ele>82.2</ele>
        <time>2017-11-20T18:39:27Z</time>
      </trkpt>
      <trkpt lat="62.631494527642" lon="17.969892964845">
        <ele>82.2</ele>
        <time>2017-11-20T18:39:28Z</time>
      </trkpt>
      <trkpt lat="62.631467621743" lon="17.969905034781">
        <ele>82.4</ele>
        <time>2017-11-20T18:39:29Z</time>
      </trkpt>
      <trkpt lat="62.631435519066" lon="17.969923726418">
        <ele>82.6</ele>
        <time>2017-11-20T18:39:30Z</time>
      </trkpt>
      <trkpt lat="62.631405344226" lon="17.969943256245">
        <ele>82.6</ele>
        <time>2017-11-20T18:39:31Z</time>
      </trkpt>
      <trkpt lat="62.631374247377" lon="17.969965216823">
        <ele>82.6</ele>
        <time>2017-11-20T18:39:32Z</time>
      </trkpt>
      <trkpt lat="62.631343234347" lon="17.969986506849">
        <ele>82.6</ele>
        <time>2017-11-20T18:39:33Z</time>
      </trkpt>
      <trkpt lat="62.631314316792" lon="17.970000588441">
        <ele>82.6</ele>
        <time>2017-11-20T18:39:34Z</time>
      </trkpt>
      <trkpt lat="62.631284477228" lon="17.970014502395">
        <ele>82.8</ele>
        <time>2017-11-20T18:39:35Z</time>
      </trkpt>
      <trkpt lat="62.631254805302" lon="17.970030092729">
        <ele>82.8</ele>
        <time>2017-11-20T18:39:36Z</time>
      </trkpt>
      <trkpt lat="62.6312247981" lon="17.970041827389">
        <ele>82.8</ele>
        <time>2017-11-20T18:39:37Z</time>
      </trkpt>
      <trkpt lat="62.631190348491" lon="17.970064458519">
        <ele>82.8</ele>
        <time>2017-11-20T18:39:38Z</time>
      </trkpt>
      <trkpt lat="62.63116109566" lon="17.970078875387">
        <ele>82.8</ele>
        <time>2017-11-20T18:39:39Z</time>
      </trkpt>
      <trkpt lat="62.631135530865" lon="17.970086670554">
        <ele>82.8</ele>
        <time>2017-11-20T18:39:40Z</time>
      </trkpt>
      <trkpt lat="62.631103931102" lon="17.970106451838">
        <ele>82.8</ele>
        <time>2017-11-20T18:39:41Z</time>
      </trkpt>
      <trkpt lat="62.631074007719" lon="17.970117935041">
        <ele>82.8</ele>
        <time>2017-11-20T18:39:42Z</time>
      </trkpt>
      <trkpt lat="62.63102782345" lon="17.970136878135">
        <ele>82.8</ele>
        <time>2017-11-20T18:39:44Z</time>
      </trkpt>
      <trkpt lat="62.631009550908" lon="17.970141404361">
        <ele>83.2</ele>
        <time>2017-11-20T18:39:45Z</time>
      </trkpt>
      <trkpt lat="62.630994714945" lon="17.97014484094">
        <ele>83.2</ele>
        <time>2017-11-20T18:39:46Z</time>
      </trkpt>
      <trkpt lat="62.630982812647" lon="17.970150205356">
        <ele>83.6</ele>
        <time>2017-11-20T18:39:47Z</time>
      </trkpt>
      <trkpt lat="62.630968814874" lon="17.970143499836">
        <ele>83.8</ele>
        <time>2017-11-20T18:39:48Z</time>
      </trkpt>
      <trkpt lat="62.630955906748" lon="17.970134363565">
        <ele>83.8</ele>
        <time>2017-11-20T18:39:49Z</time>
      </trkpt>
      <trkpt lat="62.630945513192" lon="17.970110558969">
        <ele>83.8</ele>
        <time>2017-11-20T18:39:50Z</time>
      </trkpt>
      <trkpt lat="62.630937550387" lon="17.970097315567">
        <ele>83.6</ele>
        <time>2017-11-20T18:39:51Z</time>
      </trkpt>
      <trkpt lat="62.630931180143" lon="17.970087257287">
        <ele>83.4</ele>
        <time>2017-11-20T18:39:52Z</time>
      </trkpt>
      <trkpt lat="62.630925312813" lon="17.970069487659">
        <ele>83.4</ele>
        <time>2017-11-20T18:39:53Z</time>
      </trkpt>
      <trkpt lat="62.630921708596" lon="17.970049371099">
        <ele>83.4</ele>
        <time>2017-11-20T18:39:54Z</time>
      </trkpt>
      <trkpt lat="62.630920032216" lon="17.97005096366">
        <ele>83.2</ele>
        <time>2017-11-20T18:39:55Z</time>
      </trkpt>
      <trkpt lat="62.630920116035" lon="17.970042749398">
        <ele>83.2</ele>
        <time>2017-11-20T18:39:56Z</time>
      </trkpt>
      <trkpt lat="62.630879631458" lon="17.969582918364">
        <ele>81.8</ele>
        <time>2017-11-20T18:40:18Z</time>
      </trkpt>
      <trkpt lat="62.63087778744" lon="17.969553749352">
        <ele>81.8</ele>
        <time>2017-11-20T18:40:19Z</time>
      </trkpt>
      <trkpt lat="62.630875608146" lon="17.969522149589">
        <ele>81.6</ele>
        <time>2017-11-20T18:40:20Z</time>
      </trkpt>
      <trkpt lat="62.630872423024" lon="17.969496333337">
        <ele>81.6</ele>
        <time>2017-11-20T18:40:21Z</time>
      </trkpt>
      <trkpt lat="62.630869154083" lon="17.969476552053">
        <ele>81.4</ele>
        <time>2017-11-20T18:40:22Z</time>
      </trkpt>
      <trkpt lat="62.630865801323" lon="17.969445874299">
        <ele>81.2</ele>
        <time>2017-11-20T18:40:23Z</time>
      </trkpt>
      <trkpt lat="62.6308643764" lon="17.969424248997">
        <ele>81.2</ele>
        <time>2017-11-20T18:40:24Z</time>
      </trkpt>
      <trkpt lat="62.630861778011" lon="17.969397594555">
        <ele>81</ele>
        <time>2017-11-20T18:40:25Z</time>
      </trkpt>
      <trkpt lat="62.630858089975" lon="17.969369599009">
        <ele>81</ele>
        <time>2017-11-20T18:40:26Z</time>
      </trkpt>
      <trkpt lat="62.630853899025" lon="17.969338083065">
        <ele>81</ele>
        <time>2017-11-20T18:40:27Z</time>
      </trkpt>
      <trkpt lat="62.630849540437" lon="17.96930665094">
        <ele>80.8</ele>
        <time>2017-11-20T18:40:28Z</time>
      </trkpt>
      <trkpt lat="62.630846355315" lon="17.969274883539">
        <ele>80.6</ele>
        <time>2017-11-20T18:40:29Z</time>
      </trkpt>
      <trkpt lat="62.630843254012" lon="17.969239763378">
        <ele>80.6</ele>
        <time>2017-11-20T18:40:30Z</time>
      </trkpt>
      <trkpt lat="62.630839733614" lon="17.969208163615">
        <ele>80.4</ele>
        <time>2017-11-20T18:40:31Z</time>
      </trkpt>
      <trkpt lat="62.630836129397" lon="17.969182263544">
        <ele>80</ele>
        <time>2017-11-20T18:40:32Z</time>
      </trkpt>
      <trkpt lat="62.630833698646" lon="17.969157201663">
        <ele>79.8</ele>
        <time>2017-11-20T18:40:33Z</time>
      </trkpt>
      <trkpt lat="62.630831351714" lon="17.969136079275">
        <ele>79.6</ele>
        <time>2017-11-20T18:40:34Z</time>
      </trkpt>
      <trkpt lat="62.63082833423" lon="17.96910716172">
        <ele>79.4</ele>
        <time>2017-11-20T18:40:35Z</time>
      </trkpt>
      <trkpt lat="62.63082581966" lon="17.969074975224">
        <ele>79.4</ele>
        <time>2017-11-20T18:40:36Z</time>
      </trkpt>
      <trkpt lat="62.630823891823" lon="17.969041950538">
        <ele>79.2</ele>
        <time>2017-11-20T18:40:37Z</time>
      </trkpt>
      <trkpt lat="62.630820706701" lon="17.969006076006">
        <ele>79</ele>
        <time>2017-11-20T18:40:38Z</time>
      </trkpt>
      <trkpt lat="62.630816683389" lon="17.968976152623">
        <ele>79</ele>
        <time>2017-11-20T18:40:39Z</time>
      </trkpt>
      <trkpt lat="62.630812827715" lon="17.968942708842">
        <ele>79</ele>
        <time>2017-11-20T18:40:40Z</time>
      </trkpt>
      <trkpt lat="62.630809307317" lon="17.968906079939">
        <ele>78.8</ele>
        <time>2017-11-20T18:40:41Z</time>
      </trkpt>
      <trkpt lat="62.630805535462" lon="17.968872636158">
        <ele>78.8</ele>
        <time>2017-11-20T18:40:42Z</time>
      </trkpt>
      <trkpt lat="62.630801344512" lon="17.968840449662">
        <ele>78.6</ele>
        <time>2017-11-20T18:40:43Z</time>
      </trkpt>
      <trkpt lat="62.630798075571" lon="17.968811113012">
        <ele>78.6</ele>
        <time>2017-11-20T18:40:44Z</time>
      </trkpt>
      <trkpt lat="62.63079229206" lon="17.96877523848">
        <ele>78.4</ele>
        <time>2017-11-20T18:40:45Z</time>
      </trkpt>
      <trkpt lat="62.630786173273" lon="17.968743722536">
        <ele>78.2</ele>
        <time>2017-11-20T18:40:46Z</time>
      </trkpt>
      <trkpt lat="62.630776282631" lon="17.968709189108">
        <ele>78</ele>
        <time>2017-11-20T18:40:47Z</time>
      </trkpt>
      <trkpt lat="62.630766811084" lon="17.96867968482">
        <ele>78</ele>
        <time>2017-11-20T18:40:48Z</time>
      </trkpt>
      <trkpt lat="62.630756836623" lon="17.968650264351">
        <ele>77.8</ele>
        <time>2017-11-20T18:40:49Z</time>
      </trkpt>
      <trkpt lat="62.630745604877" lon="17.968619167502">
        <ele>77.6</ele>
        <time>2017-11-20T18:40:50Z</time>
      </trkpt>
      <trkpt lat="62.630735127502" lon="17.968593937983">
        <ele>77.4</ele>
        <time>2017-11-20T18:40:51Z</time>
      </trkpt>
      <trkpt lat="62.630726410326" lon="17.968569295197">
        <ele>77</ele>
        <time>2017-11-20T18:40:52Z</time>
      </trkpt>
      <trkpt lat="62.630714508028" lon="17.968540293823">
        <ele>76.8</ele>
        <time>2017-11-20T18:40:53Z</time>
      </trkpt>
      <trkpt lat="62.630702773368" lon="17.968516908322">
        <ele>76.4</ele>
        <time>2017-11-20T18:40:54Z</time>
      </trkpt>
      <trkpt lat="62.630689697604" lon="17.968490589156">
        <ele>76.2</ele>
        <time>2017-11-20T18:40:55Z</time>
      </trkpt>
      <trkpt lat="62.630677543849" lon="17.968467790388">
        <ele>76</ele>
        <time>2017-11-20T18:40:56Z</time>
      </trkpt>
      <trkpt lat="62.630665138637" lon="17.968441219765">
        <ele>75.8</ele>
        <time>2017-11-20T18:40:57Z</time>
      </trkpt>
      <trkpt lat="62.630653823072" lon="17.968423031042">
        <ele>75.6</ele>
        <time>2017-11-20T18:40:58Z</time>
      </trkpt>
      <trkpt lat="62.630641501679" lon="17.968403585034">
        <ele>75.4</ele>
        <time>2017-11-20T18:40:59Z</time>
      </trkpt>
      <trkpt lat="62.630630102295" lon="17.968377433506">
        <ele>75.2</ele>
        <time>2017-11-20T18:41:00Z</time>
      </trkpt>
      <trkpt lat="62.630620546929" lon="17.968351198159">
        <ele>75</ele>
        <time>2017-11-20T18:41:01Z</time>
      </trkpt>
      <trkpt lat="62.630608812269" lon="17.968323705527">
        <ele>74.8</ele>
        <time>2017-11-20T18:41:02Z</time>
      </trkpt>
      <trkpt lat="62.630597161428" lon="17.968294201239">
        <ele>74.6</ele>
        <time>2017-11-20T18:41:03Z</time>
      </trkpt>
      <trkpt lat="62.630586684053" lon="17.968265535141">
        <ele>74.4</ele>
        <time>2017-11-20T18:41:04Z</time>
      </trkpt>
      <trkpt lat="62.630575536126" lon="17.968233851559">
        <ele>74.2</ele>
        <time>2017-11-20T18:41:05Z</time>
      </trkpt>
      <trkpt lat="62.630566483674" lon="17.968204766366">
        <ele>74</ele>
        <time>2017-11-20T18:41:06Z</time>
      </trkpt>
      <trkpt lat="62.63055676067" lon="17.968176603182">
        <ele>73.8</ele>
        <time>2017-11-20T18:41:07Z</time>
      </trkpt>
      <trkpt lat="62.63054670239" lon="17.968142069754">
        <ele>73.6</ele>
        <time>2017-11-20T18:41:08Z</time>
      </trkpt>
      <trkpt lat="62.630539829232" lon="17.968112984561">
        <ele>73.4</ele>
        <time>2017-11-20T18:41:09Z</time>
      </trkpt>
      <trkpt lat="62.630531531151" lon="17.968080630427">
        <ele>73.2</ele>
        <time>2017-11-20T18:41:10Z</time>
      </trkpt>
      <trkpt lat="62.630524657993" lon="17.968047102827">
        <ele>73</ele>
        <time>2017-11-20T18:41:11Z</time>
      </trkpt>
      <trkpt lat="62.630518874482" lon="17.968015083969">
        <ele>72.8</ele>
        <time>2017-11-20T18:41:12Z</time>
      </trkpt>
      <trkpt lat="62.630514432075" lon="17.967975689039">
        <ele>72.6</ele>
        <time>2017-11-20T18:41:13Z</time>
      </trkpt>
      <trkpt lat="62.630510744039" lon="17.967942664353">
        <ele>72.4</ele>
        <time>2017-11-20T18:41:14Z</time>
      </trkpt>
      <trkpt lat="62.630507642736" lon="17.967904442889">
        <ele>72.2</ele>
        <time>2017-11-20T18:41:15Z</time>
      </trkpt>
      <trkpt lat="62.630504541433" lon="17.967869658004">
        <ele>72</ele>
        <time>2017-11-20T18:41:16Z</time>
      </trkpt>
      <trkpt lat="62.630501188673" lon="17.96783143654">
        <ele>71.8</ele>
        <time>2017-11-20T18:41:17Z</time>
      </trkpt>
      <trkpt lat="62.630497919732" lon="17.967795478189">
        <ele>71.6</ele>
        <time>2017-11-20T18:41:18Z</time>
      </trkpt>
      <trkpt lat="62.630494902248" lon="17.967759016924">
        <ele>71.4</ele>
        <time>2017-11-20T18:41:19Z</time>
      </trkpt>
      <trkpt lat="62.630492136221" lon="17.967712162103">
        <ele>71</ele>
        <time>2017-11-20T18:41:20Z</time>
      </trkpt>
      <trkpt lat="62.630489621651" lon="17.967668911499">
        <ele>70.8</ele>
        <time>2017-11-20T18:41:21Z</time>
      </trkpt>
      <trkpt lat="62.630488532004" lon="17.967634294252">
        <ele>70.6</ele>
        <time>2017-11-20T18:41:22Z</time>
      </trkpt>
      <trkpt lat="62.630488196728" lon="17.967588780535">
        <ele>70.4</ele>
        <time>2017-11-20T18:41:23Z</time>
      </trkpt>
      <trkpt lat="62.630488532004" lon="17.967548379777">
        <ele>70.4</ele>
        <time>2017-11-20T18:41:24Z</time>
      </trkpt>
      <trkpt lat="62.630490124565" lon="17.967503620431">
        <ele>70.2</ele>
        <time>2017-11-20T18:41:25Z</time>
      </trkpt>
      <trkpt lat="62.630490795117" lon="17.967465734243">
        <ele>70</ele>
        <time>2017-11-20T18:41:26Z</time>
      </trkpt>
      <trkpt lat="62.630492136221" lon="17.967425668761">
        <ele>69.8</ele>
        <time>2017-11-20T18:41:27Z</time>
      </trkpt>
      <trkpt lat="62.630493812601" lon="17.967386776745">
        <ele>69.6</ele>
        <time>2017-11-20T18:41:28Z</time>
      </trkpt>
      <trkpt lat="62.630495488981" lon="17.967347717091">
        <ele>69.4</ele>
        <time>2017-11-20T18:41:29Z</time>
      </trkpt>
      <trkpt lat="62.630496327171" lon="17.967305807591">
        <ele>69.2</ele>
        <time>2017-11-20T18:41:30Z</time>
      </trkpt>
      <trkpt lat="62.630497668275" lon="17.967267418489">
        <ele>69</ele>
        <time>2017-11-20T18:41:31Z</time>
      </trkpt>
      <trkpt lat="62.630500434302" lon="17.967226933912">
        <ele>68.8</ele>
        <time>2017-11-20T18:41:32Z</time>
      </trkpt>
      <trkpt lat="62.630502697415" lon="17.967184856774">
        <ele>68.6</ele>
        <time>2017-11-20T18:41:33Z</time>
      </trkpt>
      <trkpt lat="62.630504709071" lon="17.967152335002">
        <ele>68.4</ele>
        <time>2017-11-20T18:41:34Z</time>
      </trkpt>
      <trkpt lat="62.630506636908" lon="17.967109419674">
        <ele>68</ele>
        <time>2017-11-20T18:41:35Z</time>
      </trkpt>
      <trkpt lat="62.630509486754" lon="17.967069857106">
        <ele>67.8</ele>
        <time>2017-11-20T18:41:36Z</time>
      </trkpt>
      <trkpt lat="62.630511917505" lon="17.967031635642">
        <ele>67.6</ele>
        <time>2017-11-20T18:41:37Z</time>
      </trkpt>
      <trkpt lat="62.630514180618" lon="17.966992240712">
        <ele>67.4</ele>
        <time>2017-11-20T18:41:38Z</time>
      </trkpt>
      <trkpt lat="62.630515856998" lon="17.96695552799">
        <ele>67</ele>
        <time>2017-11-20T18:41:39Z</time>
      </trkpt>
      <trkpt lat="62.630517701016" lon="17.966913031757">
        <ele>66.8</ele>
        <time>2017-11-20T18:41:40Z</time>
      </trkpt>
      <trkpt lat="62.63051904212" lon="17.966866596031">
        <ele>66.6</ele>
        <time>2017-11-20T18:41:41Z</time>
      </trkpt>
      <trkpt lat="62.630519209758" lon="17.966825273264">
        <ele>66.4</ele>
        <time>2017-11-20T18:41:42Z</time>
      </trkpt>
      <trkpt lat="62.630520383224" lon="17.966785794515">
        <ele>66</ele>
        <time>2017-11-20T18:41:43Z</time>
      </trkpt>
      <trkpt lat="62.630522227242" lon="17.966746231947">
        <ele>65.8</ele>
        <time>2017-11-20T18:41:44Z</time>
      </trkpt>
      <trkpt lat="62.630524238898" lon="17.966701891696">
        <ele>65.6</ele>
        <time>2017-11-20T18:41:45Z</time>
      </trkpt>
      <trkpt lat="62.63052658583" lon="17.966665011336">
        <ele>65.6</ele>
        <time>2017-11-20T18:41:46Z</time>
      </trkpt>
      <trkpt lat="62.630529351857" lon="17.966622012189">
        <ele>65.4</ele>
        <time>2017-11-20T18:41:47Z</time>
      </trkpt>
      <trkpt lat="62.630531698789" lon="17.966582952535">
        <ele>65.2</ele>
        <time>2017-11-20T18:41:48Z</time>
      </trkpt>
      <trkpt lat="62.630534297178" lon="17.966544898709">
        <ele>65</ele>
        <time>2017-11-20T18:41:49Z</time>
      </trkpt>
      <trkpt lat="62.630536560291" lon="17.966504162675">
        <ele>65</ele>
        <time>2017-11-20T18:41:50Z</time>
      </trkpt>
      <trkpt lat="62.630539913051" lon="17.966465522116">
        <ele>64.8</ele>
        <time>2017-11-20T18:41:51Z</time>
      </trkpt>
      <trkpt lat="62.630541170336" lon="17.966428725575">
        <ele>64.6</ele>
        <time>2017-11-20T18:41:52Z</time>
      </trkpt>
      <trkpt lat="62.630542846716" lon="17.966384888238">
        <ele>64.4</ele>
        <time>2017-11-20T18:41:53Z</time>
      </trkpt>
      <trkpt lat="62.630543098173" lon="17.966348007878">
        <ele>64.2</ele>
        <time>2017-11-20T18:41:54Z</time>
      </trkpt>
      <trkpt lat="62.630544271639" lon="17.966308864405">
        <ele>63.8</ele>
        <time>2017-11-20T18:41:55Z</time>
      </trkpt>
      <trkpt lat="62.630545696562" lon="17.966272235502">
        <ele>63.4</ele>
        <time>2017-11-20T18:41:56Z</time>
      </trkpt>
      <trkpt lat="62.630547037666" lon="17.966240132825">
        <ele>63.2</ele>
        <time>2017-11-20T18:41:57Z</time>
      </trkpt>
      <trkpt lat="62.630548630227" lon="17.966210460899">
        <ele>63</ele>
        <time>2017-11-20T18:41:58Z</time>
      </trkpt>
      <trkpt lat="62.630549887512" lon="17.966174251091">
        <ele>62.8</ele>
        <time>2017-11-20T18:41:59Z</time>
      </trkpt>
      <trkpt lat="62.630552821177" lon="17.966135694351">
        <ele>62.6</ele>
        <time>2017-11-20T18:42:00Z</time>
      </trkpt>
      <trkpt lat="62.630553575548" lon="17.966101580018">
        <ele>62.4</ele>
        <time>2017-11-20T18:42:01Z</time>
      </trkpt>
      <trkpt lat="62.630552821177" lon="17.966066543676">
        <ele>62.2</ele>
        <time>2017-11-20T18:42:02Z</time>
      </trkpt>
      <trkpt lat="62.63055173153" lon="17.966033602809">
        <ele>62.2</ele>
        <time>2017-11-20T18:42:03Z</time>
      </trkpt>
      <trkpt lat="62.630551312435" lon="17.966007367462">
        <ele>62</ele>
        <time>2017-11-20T18:42:04Z</time>
      </trkpt>
      <trkpt lat="62.630550474245" lon="17.965974594233">
        <ele>61.8</ele>
        <time>2017-11-20T18:42:05Z</time>
      </trkpt>
      <trkpt lat="62.630550222788" lon="17.965947017782">
        <ele>61.6</ele>
        <time>2017-11-20T18:42:06Z</time>
      </trkpt>
      <trkpt lat="62.630551060978" lon="17.965918267865">
        <ele>61.6</ele>
        <time>2017-11-20T18:42:07Z</time>
      </trkpt>
      <trkpt lat="62.630552150625" lon="17.965885913731">
        <ele>61.4</ele>
        <time>2017-11-20T18:42:08Z</time>
      </trkpt>
      <trkpt lat="62.630553743186" lon="17.965856912357">
        <ele>61.2</ele>
        <time>2017-11-20T18:42:09Z</time>
      </trkpt>
      <trkpt lat="62.630553994643" lon="17.965824055309">
        <ele>61</ele>
        <time>2017-11-20T18:42:10Z</time>
      </trkpt>
      <trkpt lat="62.630553994643" lon="17.965789018967">
        <ele>61</ele>
        <time>2017-11-20T18:42:11Z</time>
      </trkpt>
      <trkpt lat="62.630554078462" lon="17.965757586842">
        <ele>60.8</ele>
        <time>2017-11-20T18:42:12Z</time>
      </trkpt>
      <trkpt lat="62.630554413738" lon="17.965724897432">
        <ele>60.8</ele>
        <time>2017-11-20T18:42:13Z</time>
      </trkpt>
      <trkpt lat="62.630554497557" lon="17.965694638773">
        <ele>60.6</ele>
        <time>2017-11-20T18:42:14Z</time>
      </trkpt>
      <trkpt lat="62.630555587204" lon="17.965657423137">
        <ele>60.6</ele>
        <time>2017-11-20T18:42:15Z</time>
      </trkpt>
      <trkpt lat="62.630554162281" lon="17.96562615865">
        <ele>60.4</ele>
        <time>2017-11-20T18:42:16Z</time>
      </trkpt>
      <trkpt lat="62.630553491729" lon="17.965588775376">
        <ele>60.2</ele>
        <time>2017-11-20T18:42:17Z</time>
      </trkpt>
      <trkpt lat="62.630554581376" lon="17.965556253604">
        <ele>60</ele>
        <time>2017-11-20T18:42:18Z</time>
      </trkpt>
      <trkpt lat="62.630557515041" lon="17.965525659669">
        <ele>60</ele>
        <time>2017-11-20T18:42:19Z</time>
      </trkpt>
      <trkpt lat="62.630561538353" lon="17.965494227544">
        <ele>60</ele>
        <time>2017-11-20T18:42:20Z</time>
      </trkpt>
      <trkpt lat="62.630566399855" lon="17.965470842043">
        <ele>59.8</ele>
        <time>2017-11-20T18:42:21Z</time>
      </trkpt>
      <trkpt lat="62.630568579149" lon="17.965452904777">
        <ele>59.8</ele>
        <time>2017-11-20T18:42:22Z</time>
      </trkpt>
      <trkpt lat="62.630570506986" lon="17.965435721882">
        <ele>59.8</ele>
        <time>2017-11-20T18:42:23Z</time>
      </trkpt>
      <trkpt lat="62.630576541954" lon="17.965445863981">
        <ele>59.8</ele>
        <time>2017-11-20T18:42:25Z</time>
      </trkpt>
      <trkpt lat="62.630578888886" lon="17.96543672771">
        <ele>59.8</ele>
        <time>2017-11-20T18:42:26Z</time>
      </trkpt>
      <trkpt lat="62.630765050885" lon="17.96543421314">
        <ele>59.6</ele>
        <time>2017-11-20T18:42:59Z</time>
      </trkpt>
      <trkpt lat="62.630797991752" lon="17.965452318044">
        <ele>60</ele>
        <time>2017-11-20T18:43:00Z</time>
      </trkpt>
      <trkpt lat="62.630823388909" lon="17.965467824559">
        <ele>60.2</ele>
        <time>2017-11-20T18:43:01Z</time>
      </trkpt>
      <trkpt lat="62.630852809378" lon="17.965483163436">
        <ele>60.4</ele>
        <time>2017-11-20T18:43:02Z</time>
      </trkpt>
      <trkpt lat="62.630877284526" lon="17.965496406838">
        <ele>60.4</ele>
        <time>2017-11-20T18:43:03Z</time>
      </trkpt>
      <trkpt lat="62.630900753846" lon="17.965507722403">
        <ele>60.6</ele>
        <time>2017-11-20T18:43:04Z</time>
      </trkpt>
      <trkpt lat="62.630930425772" lon="17.965516774855">
        <ele>60.8</ele>
        <time>2017-11-20T18:43:05Z</time>
      </trkpt>
      <trkpt lat="62.630957583128" lon="17.965510153154">
        <ele>61</ele>
        <time>2017-11-20T18:43:06Z</time>
      </trkpt>
      <trkpt lat="62.63098507576" lon="17.965495736286">
        <ele>61</ele>
        <time>2017-11-20T18:43:07Z</time>
      </trkpt>
      <trkpt lat="62.631008209804" lon="17.965475200631">
        <ele>61.2</ele>
        <time>2017-11-20T18:43:08Z</time>
      </trkpt>
      <trkpt lat="62.63103117621" lon="17.965450893121">
        <ele>61.4</ele>
        <time>2017-11-20T18:43:09Z</time>
      </trkpt>
      <trkpt lat="62.631055232263" lon="17.965423232851">
        <ele>61.6</ele>
        <time>2017-11-20T18:43:10Z</time>
      </trkpt>
      <trkpt lat="62.631077947212" lon="17.96538895088">
        <ele>61.6</ele>
        <time>2017-11-20T18:43:11Z</time>
      </trkpt>
      <trkpt lat="62.631099237238" lon="17.965360536239">
        <ele>61.6</ele>
        <time>2017-11-20T18:43:12Z</time>
      </trkpt>
      <trkpt lat="62.631121449273" lon="17.965326589544">
        <ele>61.8</ele>
        <time>2017-11-20T18:43:13Z</time>
      </trkpt>
      <trkpt lat="62.631143996584" lon="17.965301695301">
        <ele>61.8</ele>
        <time>2017-11-20T18:43:14Z</time>
      </trkpt>
      <trkpt lat="62.631172411225" lon="17.965286188786">
        <ele>61.8</ele>
        <time>2017-11-20T18:43:15Z</time>
      </trkpt>
      <trkpt lat="62.631195126174" lon="17.965293145763">
        <ele>61.8</ele>
        <time>2017-11-20T18:43:16Z</time>
      </trkpt>
      <trkpt lat="62.63121893077" lon="17.965316782721">
        <ele>61.8</ele>
        <time>2017-11-20T18:43:17Z</time>
      </trkpt>
      <trkpt lat="62.631240556072" lon="17.965344107715">
        <ele>62</ele>
        <time>2017-11-20T18:43:18Z</time>
      </trkpt>
      <trkpt lat="62.63126084027" lon="17.965369588691">
        <ele>62</ele>
        <time>2017-11-20T18:43:19Z</time>
      </trkpt>
      <trkpt lat="62.631282381753" lon="17.965399512074">
        <ele>62.2</ele>
        <time>2017-11-20T18:43:20Z</time>
      </trkpt>
      <trkpt lat="62.631303755598" lon="17.965423651946">
        <ele>62.2</ele>
        <time>2017-11-20T18:43:21Z</time>
      </trkpt>
      <trkpt lat="62.63132454271" lon="17.965446199257">
        <ele>62.2</ele>
        <time>2017-11-20T18:43:22Z</time>
      </trkpt>
      <trkpt lat="62.63134549746" lon="17.965465561446">
        <ele>62.2</ele>
        <time>2017-11-20T18:43:23Z</time>
      </trkpt>
      <trkpt lat="62.631368212409" lon="17.965491712974">
        <ele>62.4</ele>
        <time>2017-11-20T18:43:24Z</time>
      </trkpt>
      <trkpt lat="62.631392352281" lon="17.965518199778">
        <ele>62.4</ele>
        <time>2017-11-20T18:43:25Z</time>
      </trkpt>
      <trkpt lat="62.631411379194" lon="17.965541333822">
        <ele>62.4</ele>
        <time>2017-11-20T18:43:26Z</time>
      </trkpt>
      <trkpt lat="62.631433675048" lon="17.965565222237">
        <ele>62.6</ele>
        <time>2017-11-20T18:43:27Z</time>
      </trkpt>
      <trkpt lat="62.631454965074" lon="17.965582237494">
        <ele>62.6</ele>
        <time>2017-11-20T18:43:28Z</time>
      </trkpt>
      <trkpt lat="62.631476590376" lon="17.965602856968">
        <ele>62.8</ele>
        <time>2017-11-20T18:43:29Z</time>
      </trkpt>
      <trkpt lat="62.631499975877" lon="17.96562783503">
        <ele>62.8</ele>
        <time>2017-11-20T18:43:30Z</time>
      </trkpt>
      <trkpt lat="62.631520008618" lon="17.965648622142">
        <ele>62.8</ele>
        <time>2017-11-20T18:43:31Z</time>
      </trkpt>
      <trkpt lat="62.631541801558" lon="17.965671840005">
        <ele>63</ele>
        <time>2017-11-20T18:43:32Z</time>
      </trkpt>
      <trkpt lat="62.631562923946" lon="17.965691286013">
        <ele>63.2</ele>
        <time>2017-11-20T18:43:33Z</time>
      </trkpt>
      <trkpt lat="62.631581447945" lon="17.965709223279">
        <ele>63.2</ele>
        <time>2017-11-20T18:43:34Z</time>
      </trkpt>
      <trkpt lat="62.631607934749" lon="17.96573512335">
        <ele>63.2</ele>
        <time>2017-11-20T18:43:35Z</time>
      </trkpt>
      <trkpt lat="62.631629476232" lon="17.965752473883">
        <ele>63.6</ele>
        <time>2017-11-20T18:43:36Z</time>
      </trkpt>
      <trkpt lat="62.631652358819" lon="17.965774685918">
        <ele>63.8</ele>
        <time>2017-11-20T18:43:37Z</time>
      </trkpt>
      <trkpt lat="62.631673732664" lon="17.965795389211">
        <ele>64</ele>
        <time>2017-11-20T18:43:38Z</time>
      </trkpt>
      <trkpt lat="62.631694016862" lon="17.965810141355">
        <ele>64</ele>
        <time>2017-11-20T18:43:39Z</time>
      </trkpt>
      <trkpt lat="62.631717402363" lon="17.965826988974">
        <ele>64.2</ele>
        <time>2017-11-20T18:43:40Z</time>
      </trkpt>
      <trkpt lat="62.631738860027" lon="17.965845345335">
        <ele>64.2</ele>
        <time>2017-11-20T18:43:41Z</time>
      </trkpt>
      <trkpt lat="62.631761491157" lon="17.965864539886">
        <ele>64.2</ele>
        <time>2017-11-20T18:43:42Z</time>
      </trkpt>
      <trkpt lat="62.631783367916" lon="17.965877112736">
        <ele>64.4</ele>
        <time>2017-11-20T18:43:43Z</time>
      </trkpt>
      <trkpt lat="62.631805160856" lon="17.965890523776">
        <ele>64.4</ele>
        <time>2017-11-20T18:43:44Z</time>
      </trkpt>
      <trkpt lat="62.631829887461" lon="17.965909718327">
        <ele>64.6</ele>
        <time>2017-11-20T18:43:45Z</time>
      </trkpt>
      <trkpt lat="62.631850506935" lon="17.965925643937">
        <ele>64.8</ele>
        <time>2017-11-20T18:43:46Z</time>
      </trkpt>
      <trkpt lat="62.631873473341" lon="17.96594383266">
        <ele>65</ele>
        <time>2017-11-20T18:43:47Z</time>
      </trkpt>
      <trkpt lat="62.631895517738" lon="17.965960093546">
        <ele>65.2</ele>
        <time>2017-11-20T18:43:48Z</time>
      </trkpt>
      <trkpt lat="62.631914712289" lon="17.965971325292">
        <ele>65.2</ele>
        <time>2017-11-20T18:43:49Z</time>
      </trkpt>
      <trkpt lat="62.631940947636" lon="17.965986328893">
        <ele>65.6</ele>
        <time>2017-11-20T18:43:50Z</time>
      </trkpt>
      <trkpt lat="62.631964249318" lon="17.965999739933">
        <ele>65.8</ele>
        <time>2017-11-20T18:43:51Z</time>
      </trkpt>
      <trkpt lat="62.631986880448" lon="17.966011055498">
        <ele>65.8</ele>
        <time>2017-11-20T18:43:52Z</time>
      </trkpt>
      <trkpt lat="62.632010098311" lon="17.966026729651">
        <ele>65.6</ele>
        <time>2017-11-20T18:43:53Z</time>
      </trkpt>
      <trkpt lat="62.632030214871" lon="17.966041146519">
        <ele>65.6</ele>
        <time>2017-11-20T18:43:54Z</time>
      </trkpt>
      <trkpt lat="62.632054941476" lon="17.966057994138">
        <ele>65.6</ele>
        <time>2017-11-20T18:43:55Z</time>
      </trkpt>
      <trkpt lat="62.632079500443" lon="17.966071488997">
        <ele>65.8</ele>
        <time>2017-11-20T18:43:56Z</time>
      </trkpt>
      <trkpt lat="62.632102718306" lon="17.966079535621">
        <ele>65.8</ele>
        <time>2017-11-20T18:43:57Z</time>
      </trkpt>
      <trkpt lat="62.632126187626" lon="17.966089174806">
        <ele>66</ele>
        <time>2017-11-20T18:43:58Z</time>
      </trkpt>
      <trkpt lat="62.632153261163" lon="17.966098730172">
        <ele>66.2</ele>
        <time>2017-11-20T18:43:59Z</time>
      </trkpt>
      <trkpt lat="62.632177317216" lon="17.966108536995">
        <ele>66.6</ele>
        <time>2017-11-20T18:44:00Z</time>
      </trkpt>
      <trkpt lat="62.632201624726" lon="17.966117673266">
        <ele>66.6</ele>
        <time>2017-11-20T18:44:01Z</time>
      </trkpt>
      <trkpt lat="62.632225932236" lon="17.966125216976">
        <ele>66.8</ele>
        <time>2017-11-20T18:44:02Z</time>
      </trkpt>
      <trkpt lat="62.632249820651" lon="17.9661332636">
        <ele>66.8</ele>
        <time>2017-11-20T18:44:03Z</time>
      </trkpt>
      <trkpt lat="62.632269601935" lon="17.966142148414">
        <ele>66.8</ele>
        <time>2017-11-20T18:44:04Z</time>
      </trkpt>
      <trkpt lat="62.632296172558" lon="17.966153715436">
        <ele>67</ele>
        <time>2017-11-20T18:44:05Z</time>
      </trkpt>
      <trkpt lat="62.632317462584" lon="17.966161007689">
        <ele>67</ele>
        <time>2017-11-20T18:44:06Z</time>
      </trkpt>
      <trkpt lat="62.632340345171" lon="17.966169724865">
        <ele>67.2</ele>
        <time>2017-11-20T18:44:07Z</time>
      </trkpt>
      <trkpt lat="62.632362557206" lon="17.966175256919">
        <ele>67.2</ele>
        <time>2017-11-20T18:44:08Z</time>
      </trkpt>
      <trkpt lat="62.632384182508" lon="17.966182297715">
        <ele>67.2</ele>
        <time>2017-11-20T18:44:09Z</time>
      </trkpt>
      <trkpt lat="62.632409495846" lon="17.966189841425">
        <ele>67.4</ele>
        <time>2017-11-20T18:44:10Z</time>
      </trkpt>
      <trkpt lat="62.63243346808" lon="17.966195122022">
        <ele>67.4</ele>
        <time>2017-11-20T18:44:11Z</time>
      </trkpt>
      <trkpt lat="62.632458362323" lon="17.966201827542">
        <ele>67.6</ele>
        <time>2017-11-20T18:44:12Z</time>
      </trkpt>
      <trkpt lat="62.632481161091" lon="17.966205264121">
        <ele>67.8</ele>
        <time>2017-11-20T18:44:13Z</time>
      </trkpt>
      <trkpt lat="62.632503708402" lon="17.966205515578">
        <ele>67.8</ele>
        <time>2017-11-20T18:44:14Z</time>
      </trkpt>
      <trkpt lat="62.632530530482" lon="17.966206856682">
        <ele>67.8</ele>
        <time>2017-11-20T18:44:15Z</time>
      </trkpt>
      <trkpt lat="62.632552574879" lon="17.966207527234">
        <ele>67.8</ele>
        <time>2017-11-20T18:44:16Z</time>
      </trkpt>
      <trkpt lat="62.632578977864" lon="17.966212640193">
        <ele>67.8</ele>
        <time>2017-11-20T18:44:17Z</time>
      </trkpt>
      <trkpt lat="62.632603201555" lon="17.966217669333">
        <ele>68</ele>
        <time>2017-11-20T18:44:18Z</time>
      </trkpt>
      <trkpt lat="62.632624156305" lon="17.966218339885">
        <ele>68</ele>
        <time>2017-11-20T18:44:19Z</time>
      </trkpt>
      <trkpt lat="62.632650894566" lon="17.966220854455">
        <ele>68.2</ele>
        <time>2017-11-20T18:44:20Z</time>
      </trkpt>
      <trkpt lat="62.632674447705" lon="17.96622211174">
        <ele>68.4</ele>
        <time>2017-11-20T18:44:21Z</time>
      </trkpt>
      <trkpt lat="62.632696408283" lon="17.96622127355">
        <ele>68.4</ele>
        <time>2017-11-20T18:44:22Z</time>
      </trkpt>
      <trkpt lat="62.632723062725" lon="17.96622211174">
        <ele>68.4</ele>
        <time>2017-11-20T18:44:23Z</time>
      </trkpt>
      <trkpt lat="62.632745023303" lon="17.966221525007">
        <ele>68.4</ele>
        <time>2017-11-20T18:44:24Z</time>
      </trkpt>
      <trkpt lat="62.632769330813" lon="17.966220938274">
        <ele>68.6</ele>
        <time>2017-11-20T18:44:25Z</time>
      </trkpt>
      <trkpt lat="62.632794560332" lon="17.966219261894">
        <ele>68.6</ele>
        <time>2017-11-20T18:44:26Z</time>
      </trkpt>
      <trkpt lat="62.632817526738" lon="17.966217250238">
        <ele>68.6</ele>
        <time>2017-11-20T18:44:27Z</time>
      </trkpt>
      <trkpt lat="62.632840074049" lon="17.96621624441">
        <ele>68.6</ele>
        <time>2017-11-20T18:44:28Z</time>
      </trkpt>
      <trkpt lat="62.63286429774" lon="17.966209371252">
        <ele>68.6</ele>
        <time>2017-11-20T18:44:29Z</time>
      </trkpt>
      <trkpt lat="62.63289028163" lon="17.966195122022">
        <ele>68.8</ele>
        <time>2017-11-20T18:44:30Z</time>
      </trkpt>
      <trkpt lat="62.632916684615" lon="17.96618690776">
        <ele>68.8</ele>
        <time>2017-11-20T18:44:31Z</time>
      </trkpt>
      <trkpt lat="62.632942081772" lon="17.966183387362">
        <ele>69</ele>
        <time>2017-11-20T18:44:32Z</time>
      </trkpt>
      <trkpt lat="62.632968987671" lon="17.966188835597">
        <ele>69</ele>
        <time>2017-11-20T18:44:33Z</time>
      </trkpt>
      <trkpt lat="62.632988936593" lon="17.966202581913">
        <ele>69</ele>
        <time>2017-11-20T18:44:34Z</time>
      </trkpt>
      <trkpt lat="62.633015507216" lon="17.966220100084">
        <ele>69.2</ele>
        <time>2017-11-20T18:44:35Z</time>
      </trkpt>
      <trkpt lat="62.633042413115" lon="17.96622797907">
        <ele>69.2</ele>
        <time>2017-11-20T18:44:36Z</time>
      </trkpt>
      <trkpt lat="62.633068397005" lon="17.966233930219">
        <ele>69.4</ele>
        <time>2017-11-20T18:44:37Z</time>
      </trkpt>
      <trkpt lat="62.63309144723" lon="17.966235941875">
        <ele>69.4</ele>
        <time>2017-11-20T18:44:38Z</time>
      </trkpt>
      <trkpt lat="62.633114497455" lon="17.966237869712">
        <ele>69.4</ele>
        <time>2017-11-20T18:44:39Z</time>
      </trkpt>
      <trkpt lat="62.633137799137" lon="17.966240384282">
        <ele>69.6</ele>
        <time>2017-11-20T18:44:40Z</time>
      </trkpt>
      <trkpt lat="62.63316017881" lon="17.966241809205">
        <ele>69.6</ele>
        <time>2017-11-20T18:44:41Z</time>
      </trkpt>
      <trkpt lat="62.633182726121" lon="17.966244826689">
        <ele>69.6</ele>
        <time>2017-11-20T18:44:42Z</time>
      </trkpt>
      <trkpt lat="62.63320627926" lon="17.966247927992">
        <ele>69.8</ele>
        <time>2017-11-20T18:44:43Z</time>
      </trkpt>
      <trkpt lat="62.63322555763" lon="17.966248179449">
        <ele>69.8</ele>
        <time>2017-11-20T18:44:44Z</time>
      </trkpt>
      <trkpt lat="62.633247602027" lon="17.966247760354">
        <ele>69.8</ele>
        <time>2017-11-20T18:44:45Z</time>
      </trkpt>
      <trkpt lat="62.633269562605" lon="17.966249436734">
        <ele>69.8</ele>
        <time>2017-11-20T18:44:46Z</time>
      </trkpt>
      <trkpt lat="62.63329177464" lon="17.966252454218">
        <ele>70</ele>
        <time>2017-11-20T18:44:47Z</time>
      </trkpt>
      <trkpt lat="62.633311639743" lon="17.966254968788">
        <ele>70</ele>
        <time>2017-11-20T18:44:48Z</time>
      </trkpt>
      <trkpt lat="62.633331421027" lon="17.966256393711">
        <ele>70</ele>
        <time>2017-11-20T18:44:49Z</time>
      </trkpt>
      <trkpt lat="62.633356566727" lon="17.966256896625">
        <ele>70.2</ele>
        <time>2017-11-20T18:44:50Z</time>
      </trkpt>
      <trkpt lat="62.633378778762" lon="17.966256309892">
        <ele>70.2</ele>
        <time>2017-11-20T18:44:51Z</time>
      </trkpt>
      <trkpt lat="62.63340073934" lon="17.966259662652">
        <ele>70.4</ele>
        <time>2017-11-20T18:44:52Z</time>
      </trkpt>
      <trkpt lat="62.633426387954" lon="17.96625983029">
        <ele>70.4</ele>
        <time>2017-11-20T18:44:53Z</time>
      </trkpt>
      <trkpt lat="62.633448851446" lon="17.966257734815">
        <ele>70.4</ele>
        <time>2017-11-20T18:44:54Z</time>
      </trkpt>
      <trkpt lat="62.633475757345" lon="17.966256561349">
        <ele>70.4</ele>
        <time>2017-11-20T18:44:55Z</time>
      </trkpt>
      <trkpt lat="62.633500819226" lon="17.966253711503">
        <ele>70.6</ele>
        <time>2017-11-20T18:44:56Z</time>
      </trkpt>
      <trkpt lat="62.633524623822" lon="17.966252370399">
        <ele>70.6</ele>
        <time>2017-11-20T18:44:57Z</time>
      </trkpt>
      <trkpt lat="62.633548176961" lon="17.966254884969">
        <ele>70.6</ele>
        <time>2017-11-20T18:44:58Z</time>
      </trkpt>
      <trkpt lat="62.633571394824" lon="17.966256309892">
        <ele>70.6</ele>
        <time>2017-11-20T18:44:59Z</time>
      </trkpt>
      <trkpt lat="62.633596791981" lon="17.966256226073">
        <ele>70.6</ele>
        <time>2017-11-20T18:45:00Z</time>
      </trkpt>
      <trkpt lat="62.633622105319" lon="17.966259914109">
        <ele>70.8</ele>
        <time>2017-11-20T18:45:01Z</time>
      </trkpt>
      <trkpt lat="62.633645574639" lon="17.966266451991">
        <ele>70.8</ele>
        <time>2017-11-20T18:45:02Z</time>
      </trkpt>
      <trkpt lat="62.633668876321" lon="17.966279024841">
        <ele>70.6</ele>
        <time>2017-11-20T18:45:03Z</time>
      </trkpt>
      <trkpt lat="62.633686645949" lon="17.96629587246">
        <ele>70.6</ele>
        <time>2017-11-20T18:45:04Z</time>
      </trkpt>
      <trkpt lat="62.633707600699" lon="17.966327472223">
        <ele>70.6</ele>
        <time>2017-11-20T18:45:05Z</time>
      </trkpt>
      <trkpt lat="62.633720760282" lon="17.966367872981">
        <ele>70.6</ele>
        <time>2017-11-20T18:45:06Z</time>
      </trkpt>
      <trkpt lat="62.633728806906" lon="17.966412883784">
        <ele>70.6</ele>
        <time>2017-11-20T18:45:07Z</time>
      </trkpt>
      <trkpt lat="62.633729393639" lon="17.966460325338">
        <ele>70.8</ele>
        <time>2017-11-20T18:45:08Z</time>
      </trkpt>
      <trkpt lat="62.633725789422" lon="17.966504078856">
        <ele>71</ele>
        <time>2017-11-20T18:45:09Z</time>
      </trkpt>
      <trkpt lat="62.633719670635" lon="17.966551185134">
        <ele>71.2</ele>
        <time>2017-11-20T18:45:10Z</time>
      </trkpt>
      <trkpt lat="62.633712881296" lon="17.966600051611">
        <ele>71.4</ele>
        <time>2017-11-20T18:45:11Z</time>
      </trkpt>
      <trkpt lat="62.633706008138" lon="17.966650594468">
        <ele>71.6</ele>
        <time>2017-11-20T18:45:12Z</time>
      </trkpt>
      <trkpt lat="62.633699805532" lon="17.966695269995">
        <ele>72</ele>
        <time>2017-11-20T18:45:13Z</time>
      </trkpt>
      <trkpt lat="62.633694608754" lon="17.966740280798">
        <ele>72</ele>
        <time>2017-11-20T18:45:14Z</time>
      </trkpt>
      <trkpt lat="62.633687735596" lon="17.966795098424">
        <ele>72.2</ele>
        <time>2017-11-20T18:45:15Z</time>
      </trkpt>
      <trkpt lat="62.633682790275" lon="17.966840947417">
        <ele>72.4</ele>
        <time>2017-11-20T18:45:16Z</time>
      </trkpt>
      <trkpt lat="62.633676587669" lon="17.966891322636">
        <ele>72.4</ele>
        <time>2017-11-20T18:45:17Z</time>
      </trkpt>
      <trkpt lat="62.633670049787" lon="17.966938512733">
        <ele>72.6</ele>
        <time>2017-11-20T18:45:18Z</time>
      </trkpt>
      <trkpt lat="62.633665775018" lon="17.96697648274">
        <ele>72.6</ele>
        <time>2017-11-20T18:45:19Z</time>
      </trkpt>
      <trkpt lat="62.633660075326" lon="17.96702425957">
        <ele>72.8</ele>
        <time>2017-11-20T18:45:20Z</time>
      </trkpt>
      <trkpt lat="62.633654124177" lon="17.967067091079">
        <ele>73</ele>
        <time>2017-11-20T18:45:21Z</time>
      </trkpt>
      <trkpt lat="62.63364884358" lon="17.967107910932">
        <ele>73.2</ele>
        <time>2017-11-20T18:45:22Z</time>
      </trkpt>
      <trkpt lat="62.633641970422" lon="17.967155101029">
        <ele>73.6</ele>
        <time>2017-11-20T18:45:23Z</time>
      </trkpt>
      <trkpt lat="62.633638282386" lon="17.967196339977">
        <ele>73.8</ele>
        <time>2017-11-20T18:45:24Z</time>
      </trkpt>
      <trkpt lat="62.633635516359" lon="17.96724051259">
        <ele>74.2</ele>
        <time>2017-11-20T18:45:25Z</time>
      </trkpt>
      <trkpt lat="62.633630571038" lon="17.967284433746">
        <ele>74.2</ele>
        <time>2017-11-20T18:45:26Z</time>
      </trkpt>
      <trkpt lat="62.633624703708" lon="17.967326929979">
        <ele>74.6</ele>
        <time>2017-11-20T18:45:27Z</time>
      </trkpt>
      <trkpt lat="62.633621099491" lon="17.967368504203">
        <ele>74.8</ele>
        <time>2017-11-20T18:45:28Z</time>
      </trkpt>
      <trkpt lat="62.633616657084" lon="17.967414353196">
        <ele>74.8</ele>
        <time>2017-11-20T18:45:29Z</time>
      </trkpt>
      <trkpt lat="62.633610789754" lon="17.967459447818">
        <ele>75</ele>
        <time>2017-11-20T18:45:30Z</time>
      </trkpt>
      <trkpt lat="62.633605760614" lon="17.967502949879">
        <ele>75.2</ele>
        <time>2017-11-20T18:45:31Z</time>
      </trkpt>
      <trkpt lat="62.633600982931" lon="17.96754896651">
        <ele>75.4</ele>
        <time>2017-11-20T18:45:32Z</time>
      </trkpt>
      <trkpt lat="62.633594947963" lon="17.967593055304">
        <ele>75.6</ele>
        <time>2017-11-20T18:45:33Z</time>
      </trkpt>
      <trkpt lat="62.633590673194" lon="17.967626247628">
        <ele>75.8</ele>
        <time>2017-11-20T18:45:34Z</time>
      </trkpt>
      <trkpt lat="62.633583967674" lon="17.967677796313">
        <ele>75.8</ele>
        <time>2017-11-20T18:45:35Z</time>
      </trkpt>
      <trkpt lat="62.633579022353" lon="17.967720041089">
        <ele>76</ele>
        <time>2017-11-20T18:45:36Z</time>
      </trkpt>
      <trkpt lat="62.633574831403" lon="17.967762788779">
        <ele>76.2</ele>
        <time>2017-11-20T18:45:37Z</time>
      </trkpt>
      <trkpt lat="62.633568712616" lon="17.967809140686">
        <ele>76.4</ele>
        <time>2017-11-20T18:45:38Z</time>
      </trkpt>
      <trkpt lat="62.633564856942" lon="17.967850547272">
        <ele>76.4</ele>
        <time>2017-11-20T18:45:39Z</time>
      </trkpt>
      <trkpt lat="62.633560163078" lon="17.967896228627">
        <ele>76.6</ele>
        <time>2017-11-20T18:45:40Z</time>
      </trkpt>
      <trkpt lat="62.633553373739" lon="17.967944256914">
        <ele>76.8</ele>
        <time>2017-11-20T18:45:41Z</time>
      </trkpt>
      <trkpt lat="62.633547506409" lon="17.967986334052">
        <ele>76.8</ele>
        <time>2017-11-20T18:45:42Z</time>
      </trkpt>
      <trkpt lat="62.633541303803" lon="17.968031847769">
        <ele>77</ele>
        <time>2017-11-20T18:45:43Z</time>
      </trkpt>
      <trkpt lat="62.633534430645" lon="17.968075433649">
        <ele>77.2</ele>
        <time>2017-11-20T18:45:44Z</time>
      </trkpt>
      <trkpt lat="62.633528060401" lon="17.968120779728">
        <ele>77.4</ele>
        <time>2017-11-20T18:45:45Z</time>
      </trkpt>
      <trkpt lat="62.633522528347" lon="17.968161767219">
        <ele>77.6</ele>
        <time>2017-11-20T18:45:46Z</time>
      </trkpt>
      <trkpt lat="62.633515739008" lon="17.968207197117">
        <ele>77.8</ele>
        <time>2017-11-20T18:45:47Z</time>
      </trkpt>
      <trkpt lat="62.6335130568" lon="17.968239132156">
        <ele>78</ele>
        <time>2017-11-20T18:45:48Z</time>
      </trkpt>
      <trkpt lat="62.633511967153" lon="17.968255225404">
        <ele>78.2</ele>
        <time>2017-11-20T18:45:49Z</time>
      </trkpt>
      <trkpt lat="62.633506435099" lon="17.968291435212">
        <ele>78.4</ele>
        <time>2017-11-20T18:45:50Z</time>
      </trkpt>
      <trkpt lat="62.633499142846" lon="17.96833686511">
        <ele>78.4</ele>
        <time>2017-11-20T18:45:51Z</time>
      </trkpt>
      <trkpt lat="62.63349461662" lon="17.968381205361">
        <ele>78.4</ele>
        <time>2017-11-20T18:45:52Z</time>
      </trkpt>
      <trkpt lat="62.6334879111" lon="17.96843409515">
        <ele>78.6</ele>
        <time>2017-11-20T18:45:53Z</time>
      </trkpt>
      <trkpt lat="62.633481289399" lon="17.96848187198">
        <ele>78.6</ele>
        <time>2017-11-20T18:45:54Z</time>
      </trkpt>
      <trkpt lat="62.633475841164" lon="17.968532833932">
        <ele>78.8</ele>
        <time>2017-11-20T18:45:55Z</time>
      </trkpt>
      <trkpt lat="62.633469554739" lon="17.968583628246">
        <ele>79</ele>
        <time>2017-11-20T18:45:56Z</time>
      </trkpt>
      <trkpt lat="62.633462513943" lon="17.968632997637">
        <ele>79.2</ele>
        <time>2017-11-20T18:45:57Z</time>
      </trkpt>
      <trkpt lat="62.633456981889" lon="17.968677589345">
        <ele>79.2</ele>
        <time>2017-11-20T18:45:58Z</time>
      </trkpt>
      <trkpt lat="62.633450527826" lon="17.968727126374">
        <ele>79.4</ele>
        <time>2017-11-20T18:45:59Z</time>
      </trkpt>
      <trkpt lat="62.633443570849" lon="17.968778088326">
        <ele>79.6</ele>
        <time>2017-11-20T18:46:00Z</time>
      </trkpt>
      <trkpt lat="62.633437200605" lon="17.968826032794">
        <ele>79.6</ele>
        <time>2017-11-20T18:46:01Z</time>
      </trkpt>
      <trkpt lat="62.633430159809" lon="17.968876743289">
        <ele>79.8</ele>
        <time>2017-11-20T18:46:02Z</time>
      </trkpt>
      <trkpt lat="62.633425382126" lon="17.968925023033">
        <ele>80</ele>
        <time>2017-11-20T18:46:03Z</time>
      </trkpt>
      <trkpt lat="62.633422029366" lon="17.968965339972">
        <ele>80</ele>
        <time>2017-11-20T18:46:04Z</time>
      </trkpt>
      <trkpt lat="62.63341498857" lon="17.969023761815">
        <ele>80.4</ele>
        <time>2017-11-20T18:46:05Z</time>
      </trkpt>
      <trkpt lat="62.633409205059" lon="17.969069862265">
        <ele>80.4</ele>
        <time>2017-11-20T18:46:06Z</time>
      </trkpt>
      <trkpt lat="62.633404678833" lon="17.969121746226">
        <ele>80.6</ele>
        <time>2017-11-20T18:46:07Z</time>
      </trkpt>
      <trkpt lat="62.633400823159" lon="17.969171199436">
        <ele>80.8</ele>
        <time>2017-11-20T18:46:08Z</time>
      </trkpt>
      <trkpt lat="62.633397302761" lon="17.969215791144">
        <ele>81</ele>
        <time>2017-11-20T18:46:09Z</time>
      </trkpt>
      <trkpt lat="62.633391435431" lon="17.969265747268">
        <ele>81.2</ele>
        <time>2017-11-20T18:46:10Z</time>
      </trkpt>
      <trkpt lat="62.633387076843" lon="17.969318720876">
        <ele>81.4</ele>
        <time>2017-11-20T18:46:11Z</time>
      </trkpt>
      <trkpt lat="62.633384981368" lon="17.969371359208">
        <ele>81.6</ele>
        <time>2017-11-20T18:46:12Z</time>
      </trkpt>
      <trkpt lat="62.633382382979" lon="17.969423578445">
        <ele>81.6</ele>
        <time>2017-11-20T18:46:13Z</time>
      </trkpt>
      <trkpt lat="62.633379197857" lon="17.969468924524">
        <ele>81.8</ele>
        <time>2017-11-20T18:46:14Z</time>
      </trkpt>
      <trkpt lat="62.633374001079" lon="17.969523239236">
        <ele>82</ele>
        <time>2017-11-20T18:46:15Z</time>
      </trkpt>
      <trkpt lat="62.633365786817" lon="17.969571267523">
        <ele>82.2</ele>
        <time>2017-11-20T18:46:16Z</time>
      </trkpt>
      <trkpt lat="62.633351621406" lon="17.969619798724">
        <ele>82.2</ele>
        <time>2017-11-20T18:46:17Z</time>
      </trkpt>
      <trkpt lat="62.633331672484" lon="17.96965869074">
        <ele>82.4</ele>
        <time>2017-11-20T18:46:18Z</time>
      </trkpt>
      <trkpt lat="62.633312645571" lon="17.969677633834">
        <ele>82.6</ele>
        <time>2017-11-20T18:46:19Z</time>
      </trkpt>
      <trkpt lat="62.633285739672" lon="17.969695822557">
        <ele>82.6</ele>
        <time>2017-11-20T18:46:20Z</time>
      </trkpt>
      <trkpt lat="62.633261096886" lon="17.969701270792">
        <ele>82.6</ele>
        <time>2017-11-20T18:46:21Z</time>
      </trkpt>
      <trkpt lat="62.633235951186" lon="17.969702108982">
        <ele>82.8</ele>
        <time>2017-11-20T18:46:22Z</time>
      </trkpt>
      <trkpt lat="62.633211978952" lon="17.969696576928">
        <ele>82.8</ele>
        <time>2017-11-20T18:46:23Z</time>
      </trkpt>
      <trkpt lat="62.633188174356" lon="17.969693307987">
        <ele>83</ele>
        <time>2017-11-20T18:46:24Z</time>
      </trkpt>
      <trkpt lat="62.633157580421" lon="17.969690039046">
        <ele>83</ele>
        <time>2017-11-20T18:46:25Z</time>
      </trkpt>
      <trkpt lat="62.633132686178" lon="17.969681908603">
        <ele>83.2</ele>
        <time>2017-11-20T18:46:26Z</time>
      </trkpt>
      <trkpt lat="62.633109216858" lon="17.969673359065">
        <ele>83.2</ele>
        <time>2017-11-20T18:46:27Z</time>
      </trkpt>
      <trkpt lat="62.633083568244" lon="17.969667156459">
        <ele>83.2</ele>
        <time>2017-11-20T18:46:28Z</time>
      </trkpt>
      <trkpt lat="62.633058338725" lon="17.969659361292">
        <ele>83.2</ele>
        <time>2017-11-20T18:46:29Z</time>
      </trkpt>
      <trkpt lat="62.633028750618" lon="17.969658355464">
        <ele>83.2</ele>
        <time>2017-11-20T18:46:30Z</time>
      </trkpt>
      <trkpt lat="62.632998994873" lon="17.969656427627">
        <ele>83</ele>
        <time>2017-11-20T18:46:31Z</time>
      </trkpt>
      <trkpt lat="62.632971921336" lon="17.969652907229">
        <ele>83</ele>
        <time>2017-11-20T18:46:32Z</time>
      </trkpt>
      <trkpt lat="62.632943841971" lon="17.969652739591">
        <ele>83</ele>
        <time>2017-11-20T18:46:33Z</time>
      </trkpt>
      <trkpt lat="62.632919366823" lon="17.969651063211">
        <ele>83</ele>
        <time>2017-11-20T18:46:34Z</time>
      </trkpt>
      <trkpt lat="62.63288525249" lon="17.969646369347">
        <ele>82.8</ele>
        <time>2017-11-20T18:46:35Z</time>
      </trkpt>
      <trkpt lat="62.632857005487" lon="17.969643938596">
        <ele>82.8</ele>
        <time>2017-11-20T18:46:36Z</time>
      </trkpt>
      <trkpt lat="62.632830015769" lon="17.969636562524">
        <ele>82.8</ele>
        <time>2017-11-20T18:46:37Z</time>
      </trkpt>
      <trkpt lat="62.632802858413" lon="17.969630276099">
        <ele>82.6</ele>
        <time>2017-11-20T18:46:38Z</time>
      </trkpt>
      <trkpt lat="62.632777545075" lon="17.969626504244">
        <ele>82.6</ele>
        <time>2017-11-20T18:46:39Z</time>
      </trkpt>
      <trkpt lat="62.632748292244" lon="17.969623067665">
        <ele>82.6</ele>
        <time>2017-11-20T18:46:40Z</time>
      </trkpt>
      <trkpt lat="62.632717530671" lon="17.969619044353">
        <ele>82.6</ele>
        <time>2017-11-20T18:46:41Z</time>
      </trkpt>
      <trkpt lat="62.632690624772" lon="17.969612841747">
        <ele>82.6</ele>
        <time>2017-11-20T18:46:42Z</time>
      </trkpt>
      <trkpt lat="62.63266145576" lon="17.969612255014">
        <ele>82.6</ele>
        <time>2017-11-20T18:46:43Z</time>
      </trkpt>
      <trkpt lat="62.632630526549" lon="17.96961007572">
        <ele>82.4</ele>
        <time>2017-11-20T18:46:44Z</time>
      </trkpt>
      <trkpt lat="62.632601189899" lon="17.969607477331">
        <ele>82.4</ele>
        <time>2017-11-20T18:46:45Z</time>
      </trkpt>
      <trkpt lat="62.632577552941" lon="17.96960001744">
        <ele>82.2</ele>
        <time>2017-11-20T18:46:46Z</time>
      </trkpt>
      <trkpt lat="62.632546791368" lon="17.969591886997">
        <ele>82.2</ele>
        <time>2017-11-20T18:46:47Z</time>
      </trkpt>
      <trkpt lat="62.632519634012" lon="17.969593060463">
        <ele>82</ele>
        <time>2017-11-20T18:46:48Z</time>
      </trkpt>
      <trkpt lat="62.632496835244" lon="17.969604376028">
        <ele>82</ele>
        <time>2017-11-20T18:46:49Z</time>
      </trkpt>
      <trkpt lat="62.632466660404" lon="17.96962516314">
        <ele>81.8</ele>
        <time>2017-11-20T18:46:50Z</time>
      </trkpt>
      <trkpt lat="62.632441766161" lon="17.96964276513">
        <ele>81.8</ele>
        <time>2017-11-20T18:46:51Z</time>
      </trkpt>
      <trkpt lat="62.632415698452" lon="17.969648213365">
        <ele>81.8</ele>
        <time>2017-11-20T18:46:52Z</time>
      </trkpt>
      <trkpt lat="62.632384517784" lon="17.969648548641">
        <ele>82</ele>
        <time>2017-11-20T18:46:53Z</time>
      </trkpt>
      <trkpt lat="62.632357360428" lon="17.969641004931">
        <ele>81.8</ele>
        <time>2017-11-20T18:46:54Z</time>
      </trkpt>
      <trkpt lat="62.632325593027" lon="17.969627510072">
        <ele>82</ele>
        <time>2017-11-20T18:46:55Z</time>
      </trkpt>
      <trkpt lat="62.632297262205" lon="17.969618541439">
        <ele>82</ele>
        <time>2017-11-20T18:46:56Z</time>
      </trkpt>
      <trkpt lat="62.632269937211" lon="17.969620804552">
        <ele>81.8</ele>
        <time>2017-11-20T18:46:57Z</time>
      </trkpt>
      <trkpt lat="62.632244204778" lon="17.969624744045">
        <ele>81.8</ele>
        <time>2017-11-20T18:46:58Z</time>
      </trkpt>
      <trkpt lat="62.63221721506" lon="17.969635808153">
        <ele>81.8</ele>
        <time>2017-11-20T18:46:59Z</time>
      </trkpt>
      <trkpt lat="62.632190225342" lon="17.969644357691">
        <ele>81.8</ele>
        <time>2017-11-20T18:47:00Z</time>
      </trkpt>
      <trkpt lat="62.6321635709" lon="17.969650141202">
        <ele>81.6</ele>
        <time>2017-11-20T18:47:01Z</time>
      </trkpt>
      <trkpt lat="62.632138844295" lon="17.969654248333">
        <ele>81.6</ele>
        <time>2017-11-20T18:47:02Z</time>
      </trkpt>
      <trkpt lat="62.632113111862" lon="17.969667240278">
        <ele>81.6</ele>
        <time>2017-11-20T18:47:03Z</time>
      </trkpt>
      <trkpt lat="62.632088720533" lon="17.969678220567">
        <ele>81.6</ele>
        <time>2017-11-20T18:47:04Z</time>
      </trkpt>
      <trkpt lat="62.632056114942" lon="17.96968467463">
        <ele>81.4</ele>
        <time>2017-11-20T18:47:05Z</time>
      </trkpt>
      <trkpt lat="62.632030801604" lon="17.969688446485">
        <ele>81.6</ele>
        <time>2017-11-20T18:47:06Z</time>
      </trkpt>
      <trkpt lat="62.632004733895" lon="17.969691463969">
        <ele>81.6</ele>
        <time>2017-11-20T18:47:07Z</time>
      </trkpt>
      <trkpt lat="62.631975564883" lon="17.969696241652">
        <ele>81.6</ele>
        <time>2017-11-20T18:47:08Z</time>
      </trkpt>
      <trkpt lat="62.631950251545" lon="17.969706299932">
        <ele>81.6</ele>
        <time>2017-11-20T18:47:09Z</time>
      </trkpt>
      <trkpt lat="62.631922591275" lon="17.969711245253">
        <ele>81.8</ele>
        <time>2017-11-20T18:47:10Z</time>
      </trkpt>
      <trkpt lat="62.631894344272" lon="17.969710490882">
        <ele>81.8</ele>
        <time>2017-11-20T18:47:11Z</time>
      </trkpt>
      <trkpt lat="62.63186936621" lon="17.969708563045">
        <ele>81.6</ele>
        <time>2017-11-20T18:47:12Z</time>
      </trkpt>
      <trkpt lat="62.631843047044" lon="17.969708898321">
        <ele>81.6</ele>
        <time>2017-11-20T18:47:13Z</time>
      </trkpt>
      <trkpt lat="62.63181907481" lon="17.969712586357">
        <ele>81.6</ele>
        <time>2017-11-20T18:47:14Z</time>
      </trkpt>
      <trkpt lat="62.631791330721" lon="17.969722225542">
        <ele>81.4</ele>
        <time>2017-11-20T18:47:15Z</time>
      </trkpt>
      <trkpt lat="62.631767190849" lon="17.969734630754">
        <ele>81.4</ele>
        <time>2017-11-20T18:47:16Z</time>
      </trkpt>
      <trkpt lat="62.631739698217" lon="17.969755585504">
        <ele>81.2</ele>
        <time>2017-11-20T18:47:17Z</time>
      </trkpt>
      <trkpt lat="62.631711367395" lon="17.969787101448">
        <ele>81.2</ele>
        <time>2017-11-20T18:47:18Z</time>
      </trkpt>
      <trkpt lat="62.631687311342" lon="17.9698129177">
        <ele>81.2</ele>
        <time>2017-11-20T18:47:19Z</time>
      </trkpt>
      <trkpt lat="62.631655963036" lon="17.969844601282">
        <ele>81</ele>
        <time>2017-11-20T18:47:20Z</time>
      </trkpt>
      <trkpt lat="62.63162964387" lon="17.969867651507">
        <ele>81</ele>
        <time>2017-11-20T18:47:21Z</time>
      </trkpt>
      <trkpt lat="62.631603492342" lon="17.969880475814">
        <ele>81</ele>
        <time>2017-11-20T18:47:22Z</time>
      </trkpt>
      <trkpt lat="62.631573820416" lon="17.96989757489">
        <ele>81</ele>
        <time>2017-11-20T18:47:23Z</time>
      </trkpt>
      <trkpt lat="62.631545741051" lon="17.96990847136">
        <ele>81</ele>
        <time>2017-11-20T18:47:24Z</time>
      </trkpt>
      <trkpt lat="62.63151229727" lon="17.969930851033">
        <ele>81.2</ele>
        <time>2017-11-20T18:47:25Z</time>
      </trkpt>
      <trkpt lat="62.631483463534" lon="17.969947782471">
        <ele>81.4</ele>
        <time>2017-11-20T18:47:26Z</time>
      </trkpt>
      <trkpt lat="62.631452450504" lon="17.969963037529">
        <ele>81.4</ele>
        <time>2017-11-20T18:47:27Z</time>
      </trkpt>
      <trkpt lat="62.631426298976" lon="17.969973682542">
        <ele>81.6</ele>
        <time>2017-11-20T18:47:28Z</time>
      </trkpt>
      <trkpt lat="62.631396375593" lon="17.969986171573">
        <ele>81.8</ele>
        <time>2017-11-20T18:47:29Z</time>
      </trkpt>
      <trkpt lat="62.631365027287" lon="17.96999983407">
        <ele>81.8</ele>
        <time>2017-11-20T18:47:30Z</time>
      </trkpt>
      <trkpt lat="62.631336445008" lon="17.970012071644">
        <ele>81.8</ele>
        <time>2017-11-20T18:47:31Z</time>
      </trkpt>
      <trkpt lat="62.631304593788" lon="17.970025147408">
        <ele>82</ele>
        <time>2017-11-20T18:47:32Z</time>
      </trkpt>
      <trkpt lat="62.631272994025" lon="17.970039145181">
        <ele>82</ele>
        <time>2017-11-20T18:47:33Z</time>
      </trkpt>
      <trkpt lat="62.63124659104" lon="17.970053142954">
        <ele>82</ele>
        <time>2017-11-20T18:47:34Z</time>
      </trkpt>
      <trkpt lat="62.631209375404" lon="17.970069571478">
        <ele>82.2</ele>
        <time>2017-11-20T18:47:35Z</time>
      </trkpt>
      <trkpt lat="62.631178949107" lon="17.970079126844">
        <ele>82.2</ele>
        <time>2017-11-20T18:47:36Z</time>
      </trkpt>
      <trkpt lat="62.631147433163" lon="17.970088598391">
        <ele>82.2</ele>
        <time>2017-11-20T18:47:37Z</time>
      </trkpt>
      <trkpt lat="62.631117006866" lon="17.970101925612">
        <ele>82.2</ele>
        <time>2017-11-20T18:47:38Z</time>
      </trkpt>
      <trkpt lat="62.631088927501" lon="17.970113408815">
        <ele>82.2</ele>
        <time>2017-11-20T18:47:39Z</time>
      </trkpt>
      <trkpt lat="62.631058165928" lon="17.970122377448">
        <ele>82.2</ele>
        <time>2017-11-20T18:47:40Z</time>
      </trkpt>
      <trkpt lat="62.631012568392" lon="17.970137381049">
        <ele>82.2</ele>
        <time>2017-11-20T18:47:42Z</time>
      </trkpt>
      <trkpt lat="62.630996307506" lon="17.970137716325">
        <ele>82.2</ele>
        <time>2017-11-20T18:47:43Z</time>
      </trkpt>
      <trkpt lat="62.630984656665" lon="17.970140314714">
        <ele>82.4</ele>
        <time>2017-11-20T18:47:44Z</time>
      </trkpt>
      <trkpt lat="62.630969736883" lon="17.9701398118">
        <ele>82.4</ele>
        <time>2017-11-20T18:47:45Z</time>
      </trkpt>
      <trkpt lat="62.630954146549" lon="17.970137800144">
        <ele>82.8</ele>
        <time>2017-11-20T18:47:46Z</time>
      </trkpt>
      <trkpt lat="62.630939981138" lon="17.970128328597">
        <ele>82.8</ele>
        <time>2017-11-20T18:47:47Z</time>
      </trkpt>
      <trkpt lat="62.630931683057" lon="17.970121287801">
        <ele>83</ele>
        <time>2017-11-20T18:47:48Z</time>
      </trkpt>
      <trkpt lat="62.630925815727" lon="17.970118186498">
        <ele>83</ele>
        <time>2017-11-20T18:47:49Z</time>
      </trkpt>
      <trkpt lat="62.6309146678" lon="17.970099830137">
        <ele>83</ele>
        <time>2017-11-20T18:47:50Z</time>
      </trkpt>
      <trkpt lat="62.630903016959" lon="17.970081641414">
        <ele>82.8</ele>
        <time>2017-11-20T18:47:51Z</time>
      </trkpt>
      <trkpt lat="62.630891282299" lon="17.9700643747">
        <ele>82.8</ele>
        <time>2017-11-20T18:47:52Z</time>
      </trkpt>
      <trkpt lat="62.630895221792" lon="17.970036462973">
        <ele>82.8</ele>
        <time>2017-11-20T18:47:53Z</time>
      </trkpt>
      <trkpt lat="62.630896395258" lon="17.970019699173">
        <ele>82.6</ele>
        <time>2017-11-20T18:47:54Z</time>
      </trkpt>
      <trkpt lat="62.630898071638" lon="17.969994385835">
        <ele>82.6</ele>
        <time>2017-11-20T18:47:55Z</time>
      </trkpt>
      <trkpt lat="62.630900586208" lon="17.969998073871">
        <ele>82.6</ele>
        <time>2017-11-20T18:47:56Z</time>
      </trkpt>
      <trkpt lat="62.630899664199" lon="17.969991871265">
        <ele>82.6</ele>
        <time>2017-11-20T18:47:57Z</time>
      </trkpt>
      <trkpt lat="62.630904190425" lon="17.969995224025">
        <ele>82.4</ele>
        <time>2017-11-20T18:47:58Z</time>
      </trkpt>
      <trkpt lat="62.630882229847" lon="17.96961761943">
        <ele>81.6</ele>
        <time>2017-11-20T18:48:23Z</time>
      </trkpt>
      <trkpt lat="62.630880050553" lon="17.969594736843">
        <ele>81.6</ele>
        <time>2017-11-20T18:48:24Z</time>
      </trkpt>
      <trkpt lat="62.630878290354" lon="17.969569591143">
        <ele>81.4</ele>
        <time>2017-11-20T18:48:25Z</time>
      </trkpt>
      <trkpt lat="62.630875356689" lon="17.969546121823">
        <ele>81.4</ele>
        <time>2017-11-20T18:48:26Z</time>
      </trkpt>
      <trkpt lat="62.630872087748" lon="17.969522652503">
        <ele>81.2</ele>
        <time>2017-11-20T18:48:27Z</time>
      </trkpt>
      <trkpt lat="62.630868064436" lon="17.969492393844">
        <ele>81.2</ele>
        <time>2017-11-20T18:48:28Z</time>
      </trkpt>
      <trkpt lat="62.630865046952" lon="17.969462470461">
        <ele>81</ele>
        <time>2017-11-20T18:48:29Z</time>
      </trkpt>
      <trkpt lat="62.630862951477" lon="17.969432295621">
        <ele>80.8</ele>
        <time>2017-11-20T18:48:30Z</time>
      </trkpt>
      <trkpt lat="62.630860101631" lon="17.969402707514">
        <ele>80.8</ele>
        <time>2017-11-20T18:48:31Z</time>
      </trkpt>
      <trkpt lat="62.630858844346" lon="17.969374376692">
        <ele>80.6</ele>
        <time>2017-11-20T18:48:32Z</time>
      </trkpt>
      <trkpt lat="62.630857503242" lon="17.969349817725">
        <ele>80.6</ele>
        <time>2017-11-20T18:48:33Z</time>
      </trkpt>
      <trkpt lat="62.630855910681" lon="17.969327270414">
        <ele>80.4</ele>
        <time>2017-11-20T18:48:34Z</time>
      </trkpt>
      <trkpt lat="62.630855826862" lon="17.969297933764">
        <ele>80</ele>
        <time>2017-11-20T18:48:35Z</time>
      </trkpt>
      <trkpt lat="62.630854737215" lon="17.969267088372">
        <ele>79.8</ele>
        <time>2017-11-20T18:48:36Z</time>
      </trkpt>
      <trkpt lat="62.630852138826" lon="17.969242529405">
        <ele>79.6</ele>
        <time>2017-11-20T18:48:37Z</time>
      </trkpt>
      <trkpt lat="62.630849037523" lon="17.969219227723">
        <ele>79.4</ele>
        <time>2017-11-20T18:48:38Z</time>
      </trkpt>
      <trkpt lat="62.630846103858" lon="17.969195339308">
        <ele>79.2</ele>
        <time>2017-11-20T18:48:39Z</time>
      </trkpt>
      <trkpt lat="62.63084342165" lon="17.969170361246">
        <ele>79.2</ele>
        <time>2017-11-20T18:48:40Z</time>
      </trkpt>
      <trkpt lat="62.630841409994" lon="17.969142198062">
        <ele>79</ele>
        <time>2017-11-20T18:48:41Z</time>
      </trkpt>
      <trkpt lat="62.630839146881" lon="17.969112693774">
        <ele>78.8</ele>
        <time>2017-11-20T18:48:42Z</time>
      </trkpt>
      <trkpt lat="62.630836129397" lon="17.969084782047">
        <ele>78.6</ele>
        <time>2017-11-20T18:48:43Z</time>
      </trkpt>
      <trkpt lat="62.630831938447" lon="17.969055780673">
        <ele>78.4</ele>
        <time>2017-11-20T18:48:44Z</time>
      </trkpt>
      <trkpt lat="62.630828753325" lon="17.969024013272">
        <ele>78.4</ele>
        <time>2017-11-20T18:48:45Z</time>
      </trkpt>
      <trkpt lat="62.630827076945" lon="17.968996939735">
        <ele>78.2</ele>
        <time>2017-11-20T18:48:46Z</time>
      </trkpt>
      <trkpt lat="62.630822131624" lon="17.968964166506">
        <ele>78</ele>
        <time>2017-11-20T18:48:47Z</time>
      </trkpt>
      <trkpt lat="62.630817186303" lon="17.968935248951">
        <ele>78</ele>
        <time>2017-11-20T18:48:48Z</time>
      </trkpt>
      <trkpt lat="62.630814001181" lon="17.968912031088">
        <ele>78</ele>
        <time>2017-11-20T18:48:49Z</time>
      </trkpt>
      <trkpt lat="62.630810061688" lon="17.968880347506">
        <ele>77.6</ele>
        <time>2017-11-20T18:48:50Z</time>
      </trkpt>
      <trkpt lat="62.630806289833" lon="17.968851597589">
        <ele>77.6</ele>
        <time>2017-11-20T18:48:51Z</time>
      </trkpt>
      <trkpt lat="62.630802853254" lon="17.96882552988">
        <ele>77.4</ele>
        <time>2017-11-20T18:48:52Z</time>
      </trkpt>
      <trkpt lat="62.630798662304" lon="17.968799462171">
        <ele>77.2</ele>
        <time>2017-11-20T18:48:53Z</time>
      </trkpt>
      <trkpt lat="62.630794387535" lon="17.968778675059">
        <ele>77.2</ele>
        <time>2017-11-20T18:48:54Z</time>
      </trkpt>
      <trkpt lat="62.630788855481" lon="17.968754870463">
        <ele>76.8</ele>
        <time>2017-11-20T18:48:55Z</time>
      </trkpt>
      <trkpt lat="62.630781898504" lon="17.968731568781">
        <ele>76.6</ele>
        <time>2017-11-20T18:48:56Z</time>
      </trkpt>
      <trkpt lat="62.63077301369" lon="17.968705165796">
        <ele>76.4</ele>
        <time>2017-11-20T18:48:57Z</time>
      </trkpt>
      <trkpt lat="62.630764128876" lon="17.96868303758">
        <ele>76.2</ele>
        <time>2017-11-20T18:48:58Z</time>
      </trkpt>
      <trkpt lat="62.630755579338" lon="17.968661747554">
        <ele>76</ele>
        <time>2017-11-20T18:48:59Z</time>
      </trkpt>
      <trkpt lat="62.630748538542" lon="17.968641211899">
        <ele>75.8</ele>
        <time>2017-11-20T18:49:00Z</time>
      </trkpt>
      <trkpt lat="62.630739150814" lon="17.968621765891">
        <ele>75.8</ele>
        <time>2017-11-20T18:49:01Z</time>
      </trkpt>
      <trkpt lat="62.630729679267" lon="17.968601565512">
        <ele>75.6</ele>
        <time>2017-11-20T18:49:02Z</time>
      </trkpt>
      <trkpt lat="62.630719956263" lon="17.968581281314">
        <ele>75.4</ele>
        <time>2017-11-20T18:49:03Z</time>
      </trkpt>
      <trkpt lat="62.630710317078" lon="17.968562002944">
        <ele>75.4</ele>
        <time>2017-11-20T18:49:04Z</time>
      </trkpt>
      <trkpt lat="62.630700510255" lon="17.968539623271">
        <ele>75.2</ele>
        <time>2017-11-20T18:49:05Z</time>
      </trkpt>
      <trkpt lat="62.63069087107" lon="17.968520847815">
        <ele>75</ele>
        <time>2017-11-20T18:49:06Z</time>
      </trkpt>
      <trkpt lat="62.630679806962" lon="17.968500479798">
        <ele>74.8</ele>
        <time>2017-11-20T18:49:07Z</time>
      </trkpt>
      <trkpt lat="62.630671173605" lon="17.968481704342">
        <ele>74.6</ele>
        <time>2017-11-20T18:49:08Z</time>
      </trkpt>
      <trkpt lat="62.630662959343" lon="17.968465527275">
        <ele>74.6</ele>
        <time>2017-11-20T18:49:09Z</time>
      </trkpt>
      <trkpt lat="62.630654074529" lon="17.968446081267">
        <ele>74.4</ele>
        <time>2017-11-20T18:49:10Z</time>
      </trkpt>
      <trkpt lat="62.630643848611" lon="17.968425042698">
        <ele>74.4</ele>
        <time>2017-11-20T18:49:11Z</time>
      </trkpt>
      <trkpt lat="62.63063219777" lon="17.968406518699">
        <ele>74.2</ele>
        <time>2017-11-20T18:49:12Z</time>
      </trkpt>
      <trkpt lat="62.630620714567" lon="17.968389335804">
        <ele>74.2</ele>
        <time>2017-11-20T18:49:13Z</time>
      </trkpt>
      <trkpt lat="62.630610740106" lon="17.968370727986">
        <ele>74</ele>
        <time>2017-11-20T18:49:14Z</time>
      </trkpt>
      <trkpt lat="62.630600765645" lon="17.96834524701">
        <ele>73.8</ele>
        <time>2017-11-20T18:49:15Z</time>
      </trkpt>
      <trkpt lat="62.630591713193" lon="17.968323034975">
        <ele>73.6</ele>
        <time>2017-11-20T18:49:16Z</time>
      </trkpt>
      <trkpt lat="62.630581654913" lon="17.9682957938">
        <ele>73.4</ele>
        <time>2017-11-20T18:49:17Z</time>
      </trkpt>
      <trkpt lat="62.630571764271" lon="17.96826478077">
        <ele>73.2</ele>
        <time>2017-11-20T18:49:18Z</time>
      </trkpt>
      <trkpt lat="62.630563885285" lon="17.968241479088">
        <ele>73</ele>
        <time>2017-11-20T18:49:19Z</time>
      </trkpt>
      <trkpt lat="62.63055256972" lon="17.968208119126">
        <ele>72.8</ele>
        <time>2017-11-20T18:49:20Z</time>
      </trkpt>
      <trkpt lat="62.630543014354" lon="17.968171238766">
        <ele>72.8</ele>
        <time>2017-11-20T18:49:21Z</time>
      </trkpt>
      <trkpt lat="62.630535051549" lon="17.968140141917">
        <ele>72.6</ele>
        <time>2017-11-20T18:49:22Z</time>
      </trkpt>
      <trkpt lat="62.630526334373" lon="17.96810468648">
        <ele>72.4</ele>
        <time>2017-11-20T18:49:23Z</time>
      </trkpt>
      <trkpt lat="62.630519209758" lon="17.968070991242">
        <ele>72.4</ele>
        <time>2017-11-20T18:49:24Z</time>
      </trkpt>
      <trkpt lat="62.630511749867" lon="17.96803260214">
        <ele>72</ele>
        <time>2017-11-20T18:49:25Z</time>
      </trkpt>
      <trkpt lat="62.630504876709" lon="17.96799739816">
        <ele>71.8</ele>
        <time>2017-11-20T18:49:26Z</time>
      </trkpt>
      <trkpt lat="62.630499847569" lon="17.967959092877">
        <ele>71.6</ele>
        <time>2017-11-20T18:49:27Z</time>
      </trkpt>
      <trkpt lat="62.630495991895" lon="17.967922463974">
        <ele>71.6</ele>
        <time>2017-11-20T18:49:28Z</time>
      </trkpt>
      <trkpt lat="62.630491800945" lon="17.967882482311">
        <ele>71.4</ele>
        <time>2017-11-20T18:49:29Z</time>
      </trkpt>
      <trkpt lat="62.630487861452" lon="17.967839483164">
        <ele>71.2</ele>
        <time>2017-11-20T18:49:30Z</time>
      </trkpt>
      <trkpt lat="62.630484257235" lon="17.967798663311">
        <ele>71.2</ele>
        <time>2017-11-20T18:49:31Z</time>
      </trkpt>
      <trkpt lat="62.630482413217" lon="17.967757256725">
        <ele>71</ele>
        <time>2017-11-20T18:49:32Z</time>
      </trkpt>
      <trkpt lat="62.630481155932" lon="17.967722304202">
        <ele>70.8</ele>
        <time>2017-11-20T18:49:33Z</time>
      </trkpt>
      <trkpt lat="62.630479898647" lon="17.967688273688">
        <ele>70.6</ele>
        <time>2017-11-20T18:49:34Z</time>
      </trkpt>
      <trkpt lat="62.630480988294" lon="17.967640580677">
        <ele>70.4</ele>
        <time>2017-11-20T18:49:35Z</time>
      </trkpt>
      <trkpt lat="62.630481742665" lon="17.967598252082">
        <ele>70.2</ele>
        <time>2017-11-20T18:49:36Z</time>
      </trkpt>
      <trkpt lat="62.630481575027" lon="17.967557516048">
        <ele>70</ele>
        <time>2017-11-20T18:49:37Z</time>
      </trkpt>
      <trkpt lat="62.63048132357" lon="17.967514516901">
        <ele>69.4</ele>
        <time>2017-11-20T18:49:38Z</time>
      </trkpt>
      <trkpt lat="62.630482580855" lon="17.9674743676">
        <ele>69.2</ele>
        <time>2017-11-20T18:49:39Z</time>
      </trkpt>
      <trkpt lat="62.630484760149" lon="17.967435391765">
        <ele>68.8</ele>
        <time>2017-11-20T18:49:40Z</time>
      </trkpt>
      <trkpt lat="62.630487023262" lon="17.96739809231">
        <ele>68.6</ele>
        <time>2017-11-20T18:49:41Z</time>
      </trkpt>
      <trkpt lat="62.63048970547" lon="17.967354422611">
        <ele>68.4</ele>
        <time>2017-11-20T18:49:42Z</time>
      </trkpt>
      <trkpt lat="62.63049222004" lon="17.967313686577">
        <ele>68.2</ele>
        <time>2017-11-20T18:49:43Z</time>
      </trkpt>
      <trkpt lat="62.630493812601" lon="17.967279404606">
        <ele>68</ele>
        <time>2017-11-20T18:49:44Z</time>
      </trkpt>
      <trkpt lat="62.630494818429" lon="17.967241853694">
        <ele>67.8</ele>
        <time>2017-11-20T18:49:45Z</time>
      </trkpt>
      <trkpt lat="62.630495656619" lon="17.967205224791">
        <ele>67.8</ele>
        <time>2017-11-20T18:49:46Z</time>
      </trkpt>
      <trkpt lat="62.630497165361" lon="17.967163566748">
        <ele>67.4</ele>
        <time>2017-11-20T18:49:47Z</time>
      </trkpt>
      <trkpt lat="62.630499260836" lon="17.967125429103">
        <ele>67.4</ele>
        <time>2017-11-20T18:49:48Z</time>
      </trkpt>
      <trkpt lat="62.63049976375" lon="17.967090392761">
        <ele>67.2</ele>
        <time>2017-11-20T18:49:49Z</time>
      </trkpt>
      <trkpt lat="62.63050060194" lon="17.967041693922">
        <ele>67.2</ele>
        <time>2017-11-20T18:49:50Z</time>
      </trkpt>
      <trkpt lat="62.630502948872" lon="17.966998108042">
        <ele>67</ele>
        <time>2017-11-20T18:49:51Z</time>
      </trkpt>
      <trkpt lat="62.630504457614" lon="17.966958294017">
        <ele>66.8</ele>
        <time>2017-11-20T18:49:52Z</time>
      </trkpt>
      <trkpt lat="62.63050479289" lon="17.966915797784">
        <ele>66.6</ele>
        <time>2017-11-20T18:49:53Z</time>
      </trkpt>
      <trkpt lat="62.630506553089" lon="17.966877324863">
        <ele>66.6</ele>
        <time>2017-11-20T18:49:54Z</time>
      </trkpt>
      <trkpt lat="62.630508648564" lon="17.966833822802">
        <ele>66.2</ele>
        <time>2017-11-20T18:49:55Z</time>
      </trkpt>
      <trkpt lat="62.630509738211" lon="17.966796607166">
        <ele>66</ele>
        <time>2017-11-20T18:49:56Z</time>
      </trkpt>
      <trkpt lat="62.630511163134" lon="17.966760062082">
        <ele>65.8</ele>
        <time>2017-11-20T18:49:57Z</time>
      </trkpt>
      <trkpt lat="62.630513090971" lon="17.966723600817">
        <ele>65.4</ele>
        <time>2017-11-20T18:49:58Z</time>
      </trkpt>
      <trkpt lat="62.630515270265" lon="17.966684541163">
        <ele>65.2</ele>
        <time>2017-11-20T18:49:59Z</time>
      </trkpt>
      <trkpt lat="62.63051485117" lon="17.966643050758">
        <ele>64.6</ele>
        <time>2017-11-20T18:50:00Z</time>
      </trkpt>
      <trkpt lat="62.630515018808" lon="17.966604494018">
        <ele>64.4</ele>
        <time>2017-11-20T18:50:01Z</time>
      </trkpt>
      <trkpt lat="62.630517281921" lon="17.966558645025">
        <ele>64.2</ele>
        <time>2017-11-20T18:50:02Z</time>
      </trkpt>
      <trkpt lat="62.630518539206" lon="17.966516232611">
        <ele>63.8</ele>
        <time>2017-11-20T18:50:03Z</time>
      </trkpt>
      <trkpt lat="62.630519209758" lon="17.96647859788">
        <ele>63.8</ele>
        <time>2017-11-20T18:50:04Z</time>
      </trkpt>
      <trkpt lat="62.630519712672" lon="17.966433922353">
        <ele>63.4</ele>
        <time>2017-11-20T18:50:05Z</time>
      </trkpt>
      <trkpt lat="62.630522311061" lon="17.966390923206">
        <ele>63.2</ele>
        <time>2017-11-20T18:50:06Z</time>
      </trkpt>
      <trkpt lat="62.630523400708" lon="17.966351193">
        <ele>63</ele>
        <time>2017-11-20T18:50:07Z</time>
      </trkpt>
      <trkpt lat="62.630524238898" lon="17.966311630432">
        <ele>62.8</ele>
        <time>2017-11-20T18:50:08Z</time>
      </trkpt>
      <trkpt lat="62.630526334373" lon="17.966269553294">
        <ele>62.6</ele>
        <time>2017-11-20T18:50:09Z</time>
      </trkpt>
      <trkpt lat="62.63052826221" lon="17.966225883595">
        <ele>62.6</ele>
        <time>2017-11-20T18:50:10Z</time>
      </trkpt>
      <trkpt lat="62.630529016581" lon="17.966183806457">
        <ele>62.4</ele>
        <time>2017-11-20T18:50:11Z</time>
      </trkpt>
      <trkpt lat="62.630530441504" lon="17.966141310224">
        <ele>62.2</ele>
        <time>2017-11-20T18:50:12Z</time>
      </trkpt>
      <trkpt lat="62.630532788436" lon="17.966099736">
        <ele>62</ele>
        <time>2017-11-20T18:50:13Z</time>
      </trkpt>
      <trkpt lat="62.63053412954" lon="17.966060257251">
        <ele>61.8</ele>
        <time>2017-11-20T18:50:14Z</time>
      </trkpt>
      <trkpt lat="62.630534800092" lon="17.966023544529">
        <ele>61.8</ele>
        <time>2017-11-20T18:50:15Z</time>
      </trkpt>
      <trkpt lat="62.630537314662" lon="17.965985071608">
        <ele>61.6</ele>
        <time>2017-11-20T18:50:16Z</time>
      </trkpt>
      <trkpt lat="62.630538991042" lon="17.965948777981">
        <ele>61.4</ele>
        <time>2017-11-20T18:50:17Z</time>
      </trkpt>
      <trkpt lat="62.630539410137" lon="17.96591784877">
        <ele>61.4</ele>
        <time>2017-11-20T18:50:18Z</time>
      </trkpt>
      <trkpt lat="62.630540583603" lon="17.96589186488">
        <ele>61.2</ele>
        <time>2017-11-20T18:50:19Z</time>
      </trkpt>
      <trkpt lat="62.630541840888" lon="17.965856912357">
        <ele>61</ele>
        <time>2017-11-20T18:50:20Z</time>
      </trkpt>
      <trkpt lat="62.630542092345" lon="17.965829922639">
        <ele>60.6</ele>
        <time>2017-11-20T18:50:21Z</time>
      </trkpt>
      <trkpt lat="62.63053999687" lon="17.965801675636">
        <ele>60.4</ele>
        <time>2017-11-20T18:50:22Z</time>
      </trkpt>
      <trkpt lat="62.630538488128" lon="17.965769153864">
        <ele>60</ele>
        <time>2017-11-20T18:50:23Z</time>
      </trkpt>
      <trkpt lat="62.630538655766" lon="17.965743086155">
        <ele>59.8</ele>
        <time>2017-11-20T18:50:24Z</time>
      </trkpt>
      <trkpt lat="62.630538655766" lon="17.965713917143">
        <ele>59.6</ele>
        <time>2017-11-20T18:50:25Z</time>
      </trkpt>
      <trkpt lat="62.630539577775" lon="17.965679718991">
        <ele>59.6</ele>
        <time>2017-11-20T18:50:26Z</time>
      </trkpt>
      <trkpt lat="62.630540332146" lon="17.965646945762">
        <ele>59.4</ele>
        <time>2017-11-20T18:50:27Z</time>
      </trkpt>
      <trkpt lat="62.630541002698" lon="17.965618279664">
        <ele>59.4</ele>
        <time>2017-11-20T18:50:28Z</time>
      </trkpt>
      <trkpt lat="62.630543265811" lon="17.965590200299">
        <ele>59.4</ele>
        <time>2017-11-20T18:50:29Z</time>
      </trkpt>
      <trkpt lat="62.630545361286" lon="17.965560863649">
        <ele>59.2</ele>
        <time>2017-11-20T18:50:30Z</time>
      </trkpt>
      <trkpt lat="62.630545193648" lon="17.965515182294">
        <ele>59.2</ele>
        <time>2017-11-20T18:50:32Z</time>
      </trkpt>
      <trkpt lat="62.630548294951" lon="17.965500681607">
        <ele>59</ele>
        <time>2017-11-20T18:50:33Z</time>
      </trkpt>
      <trkpt lat="62.630551815349" lon="17.965486851472">
        <ele>59.2</ele>
        <time>2017-11-20T18:50:34Z</time>
      </trkpt>
      <trkpt lat="62.630553994643" lon="17.965499424322">
        <ele>59.2</ele>
        <time>2017-11-20T18:50:35Z</time>
      </trkpt>
      <trkpt lat="62.630557431222" lon="17.965504453462">
        <ele>59.2</ele>
        <time>2017-11-20T18:50:36Z</time>
      </trkpt>
      <trkpt lat="62.630779300115" lon="17.965474613898">
        <ele>58.8</ele>
        <time>2017-11-20T18:51:11Z</time>
      </trkpt>
      <trkpt lat="62.630805200186" lon="17.965490874784">
        <ele>58.8</ele>
        <time>2017-11-20T18:51:12Z</time>
      </trkpt>
      <trkpt lat="62.630832022266" lon="17.965507470946">
        <ele>59</ele>
        <time>2017-11-20T18:51:13Z</time>
      </trkpt>
      <trkpt lat="62.630858425251" lon="17.965525156755">
        <ele>59.2</ele>
        <time>2017-11-20T18:51:14Z</time>
      </trkpt>
      <trkpt lat="62.630885834064" lon="17.965535382673">
        <ele>59.4</ele>
        <time>2017-11-20T18:51:15Z</time>
      </trkpt>
      <trkpt lat="62.63091215323" lon="17.96553898689">
        <ele>59.4</ele>
        <time>2017-11-20T18:51:16Z</time>
      </trkpt>
      <trkpt lat="62.630939897319" lon="17.965535969406">
        <ele>59.6</ele>
        <time>2017-11-20T18:51:17Z</time>
      </trkpt>
      <trkpt lat="62.63096579739" lon="17.965522055452">
        <ele>59.8</ele>
        <time>2017-11-20T18:51:18Z</time>
      </trkpt>
      <trkpt lat="62.630987841787" lon="17.96550126834">
        <ele>60</ele>
        <time>2017-11-20T18:51:19Z</time>
      </trkpt>
      <trkpt lat="62.631014160953" lon="17.965468830387">
        <ele>60.2</ele>
        <time>2017-11-20T18:51:20Z</time>
      </trkpt>
      <trkpt lat="62.631039725748" lon="17.965437482081">
        <ele>60.4</ele>
        <time>2017-11-20T18:51:21Z</time>
      </trkpt>
      <trkpt lat="62.631061099593" lon="17.965407307241">
        <ele>60.6</ele>
        <time>2017-11-20T18:51:22Z</time>
      </trkpt>
      <trkpt lat="62.631084736551" lon="17.965374450193">
        <ele>60.6</ele>
        <time>2017-11-20T18:51:23Z</time>
      </trkpt>
      <trkpt lat="62.631106445672" lon="17.965341593145">
        <ele>60.8</ele>
        <time>2017-11-20T18:51:24Z</time>
      </trkpt>
      <trkpt lat="62.631127735698" lon="17.965310915391">
        <ele>60.8</ele>
        <time>2017-11-20T18:51:25Z</time>
      </trkpt>
      <trkpt lat="62.631153300493" lon="17.965293983953">
        <ele>60.8</ele>
        <time>2017-11-20T18:51:26Z</time>
      </trkpt>
      <trkpt lat="62.631180038754" lon="17.965299767464">
        <ele>61</ele>
        <time>2017-11-20T18:51:27Z</time>
      </trkpt>
      <trkpt lat="62.631205184454" lon="17.965314603427">
        <ele>61</ele>
        <time>2017-11-20T18:51:28Z</time>
      </trkpt>
      <trkpt lat="62.631232174172" lon="17.965339665308">
        <ele>61.2</ele>
        <time>2017-11-20T18:51:29Z</time>
      </trkpt>
      <trkpt lat="62.63125748751" lon="17.965360871515">
        <ele>61.2</ele>
        <time>2017-11-20T18:51:30Z</time>
      </trkpt>
      <trkpt lat="62.631283387581" lon="17.965386687767">
        <ele>61.2</ele>
        <time>2017-11-20T18:51:31Z</time>
      </trkpt>
      <trkpt lat="62.631306018711" lon="17.965406385232">
        <ele>61.2</ele>
        <time>2017-11-20T18:51:32Z</time>
      </trkpt>
      <trkpt lat="62.631328482203" lon="17.965429351638">
        <ele>61.4</ele>
        <time>2017-11-20T18:51:33Z</time>
      </trkpt>
      <trkpt lat="62.631347676754" lon="17.965451982768">
        <ele>61.4</ele>
        <time>2017-11-20T18:51:34Z</time>
      </trkpt>
      <trkpt lat="62.631371229893" lon="17.965481487056">
        <ele>61.6</ele>
        <time>2017-11-20T18:51:35Z</time>
      </trkpt>
      <trkpt lat="62.63139495067" lon="17.965507303308">
        <ele>61.6</ele>
        <time>2017-11-20T18:51:36Z</time>
      </trkpt>
      <trkpt lat="62.63141674361" lon="17.965527922782">
        <ele>61.8</ele>
        <time>2017-11-20T18:51:37Z</time>
      </trkpt>
      <trkpt lat="62.631441554034" lon="17.965549631903">
        <ele>61.8</ele>
        <time>2017-11-20T18:51:38Z</time>
      </trkpt>
      <trkpt lat="62.63146368225" lon="17.965572430671">
        <ele>62</ele>
        <time>2017-11-20T18:51:39Z</time>
      </trkpt>
      <trkpt lat="62.631485726647" lon="17.965593385421">
        <ele>62</ele>
        <time>2017-11-20T18:51:40Z</time>
      </trkpt>
      <trkpt lat="62.631510537071" lon="17.965616687103">
        <ele>62</ele>
        <time>2017-11-20T18:51:41Z</time>
      </trkpt>
      <trkpt lat="62.631532330011" lon="17.96563789331">
        <ele>62.2</ele>
        <time>2017-11-20T18:51:42Z</time>
      </trkpt>
      <trkpt lat="62.631555464055" lon="17.965656249671">
        <ele>62.2</ele>
        <time>2017-11-20T18:51:43Z</time>
      </trkpt>
      <trkpt lat="62.631576334986" lon="17.965674103118">
        <ele>62.4</ele>
        <time>2017-11-20T18:51:44Z</time>
      </trkpt>
      <trkpt lat="62.631596786822" lon="17.965692710936">
        <ele>62.6</ele>
        <time>2017-11-20T18:51:45Z</time>
      </trkpt>
      <trkpt lat="62.631619082676" lon="17.965713749505">
        <ele>62.8</ele>
        <time>2017-11-20T18:51:46Z</time>
      </trkpt>
      <trkpt lat="62.631642300539" lon="17.965735207169">
        <ele>63</ele>
        <time>2017-11-20T18:51:47Z</time>
      </trkpt>
      <trkpt lat="62.631669122619" lon="17.965752473883">
        <ele>63.2</ele>
        <time>2017-11-20T18:51:48Z</time>
      </trkpt>
      <trkpt lat="62.631689406817" lon="17.965768315674">
        <ele>63.6</ele>
        <time>2017-11-20T18:51:49Z</time>
      </trkpt>
      <trkpt lat="62.631713881965" lon="17.96578709113">
        <ele>63.4</ele>
        <time>2017-11-20T18:51:50Z</time>
      </trkpt>
      <trkpt lat="62.631738860027" lon="17.965806704776">
        <ele>63.6</ele>
        <time>2017-11-20T18:51:51Z</time>
      </trkpt>
      <trkpt lat="62.631759898596" lon="17.965818858531">
        <ele>63.8</ele>
        <time>2017-11-20T18:51:52Z</time>
      </trkpt>
      <trkpt lat="62.631786804495" lon="17.965834113589">
        <ele>63.6</ele>
        <time>2017-11-20T18:51:53Z</time>
      </trkpt>
      <trkpt lat="62.631811112005" lon="17.965851547941">
        <ele>63.6</ele>
        <time>2017-11-20T18:51:54Z</time>
      </trkpt>
      <trkpt lat="62.631835419515" lon="17.965866216266">
        <ele>63.8</ele>
        <time>2017-11-20T18:51:55Z</time>
      </trkpt>
      <trkpt lat="62.631859559387" lon="17.965887254835">
        <ele>64</ele>
        <time>2017-11-20T18:51:56Z</time>
      </trkpt>
      <trkpt lat="62.63188110087" lon="17.965902593712">
        <ele>64.2</ele>
        <time>2017-11-20T18:51:57Z</time>
      </trkpt>
      <trkpt lat="62.631903648181" lon="17.965917932589">
        <ele>64.2</ele>
        <time>2017-11-20T18:51:58Z</time>
      </trkpt>
      <trkpt lat="62.631926949863" lon="17.965939725529">
        <ele>64.4</ele>
        <time>2017-11-20T18:51:59Z</time>
      </trkpt>
      <trkpt lat="62.631950586821" lon="17.965956070234">
        <ele>64.6</ele>
        <time>2017-11-20T18:52:00Z</time>
      </trkpt>
      <trkpt lat="62.631974726693" lon="17.965976354432">
        <ele>64.8</ele>
        <time>2017-11-20T18:52:01Z</time>
      </trkpt>
      <trkpt lat="62.631994591796" lon="17.96599412406">
        <ele>65</ele>
        <time>2017-11-20T18:52:02Z</time>
      </trkpt>
      <trkpt lat="62.632015462727" lon="17.966012061326">
        <ele>65</ele>
        <time>2017-11-20T18:52:03Z</time>
      </trkpt>
      <trkpt lat="62.632034824916" lon="17.966029579497">
        <ele>65</ele>
        <time>2017-11-20T18:52:04Z</time>
      </trkpt>
      <trkpt lat="62.632059970616" lon="17.96605195917">
        <ele>65.2</ele>
        <time>2017-11-20T18:52:05Z</time>
      </trkpt>
      <trkpt lat="62.632082517927" lon="17.966071740454">
        <ele>65.4</ele>
        <time>2017-11-20T18:52:06Z</time>
      </trkpt>
      <trkpt lat="62.632106238704" lon="17.966090767367">
        <ele>65.4</ele>
        <time>2017-11-20T18:52:07Z</time>
      </trkpt>
      <trkpt lat="62.632127361092" lon="17.966111219203">
        <ele>65.6</ele>
        <time>2017-11-20T18:52:08Z</time>
      </trkpt>
      <trkpt lat="62.632147896747" lon="17.966139382387">
        <ele>65.6</ele>
        <time>2017-11-20T18:52:09Z</time>
      </trkpt>
      <trkpt lat="62.632166839841" lon="17.966173748177">
        <ele>65.8</ele>
        <time>2017-11-20T18:52:10Z</time>
      </trkpt>
      <trkpt lat="62.632181591985" lon="17.96622211174">
        <ele>66</ele>
        <time>2017-11-20T18:52:11Z</time>
      </trkpt>
      <trkpt lat="62.632188800419" lon="17.9662757559">
        <ele>66.2</ele>
        <time>2017-11-20T18:52:12Z</time>
      </trkpt>
      <trkpt lat="62.632196008853" lon="17.966328310413">
        <ele>66.2</ele>
        <time>2017-11-20T18:52:13Z</time>
      </trkpt>
      <trkpt lat="62.632199864527" lon="17.966381032564">
        <ele>66.4</ele>
        <time>2017-11-20T18:52:14Z</time>
      </trkpt>
      <trkpt lat="62.632201205631" lon="17.966437610389">
        <ele>66.4</ele>
        <time>2017-11-20T18:52:15Z</time>
      </trkpt>
      <trkpt lat="62.632199780708" lon="17.966494774947">
        <ele>66.4</ele>
        <time>2017-11-20T18:52:16Z</time>
      </trkpt>
      <trkpt lat="62.632193661921" lon="17.966565937278">
        <ele>66.6</ele>
        <time>2017-11-20T18:52:17Z</time>
      </trkpt>
      <trkpt lat="62.632187794591" lon="17.966627628062">
        <ele>66.8</ele>
        <time>2017-11-20T18:52:18Z</time>
      </trkpt>
      <trkpt lat="62.632182094899" lon="17.966682780964">
        <ele>67</ele>
        <time>2017-11-20T18:52:19Z</time>
      </trkpt>
      <trkpt lat="62.632177568673" lon="17.966754110933">
        <ele>67</ele>
        <time>2017-11-20T18:52:20Z</time>
      </trkpt>
      <trkpt lat="62.63216943823" lon="17.966821166133">
        <ele>67.2</ele>
        <time>2017-11-20T18:52:21Z</time>
      </trkpt>
      <trkpt lat="62.632162648891" lon="17.966879336519">
        <ele>67.4</ele>
        <time>2017-11-20T18:52:22Z</time>
      </trkpt>
      <trkpt lat="62.632155356638" lon="17.96694714609">
        <ele>67.6</ele>
        <time>2017-11-20T18:52:23Z</time>
      </trkpt>
      <trkpt lat="62.632147561471" lon="17.967003891553">
        <ele>67.8</ele>
        <time>2017-11-20T18:52:24Z</time>
      </trkpt>
      <trkpt lat="62.632138760476" lon="17.96706784545">
        <ele>68</ele>
        <time>2017-11-20T18:52:25Z</time>
      </trkpt>
      <trkpt lat="62.632126355264" lon="17.96712568056">
        <ele>68.2</ele>
        <time>2017-11-20T18:52:26Z</time>
      </trkpt>
      <trkpt lat="62.632114201509" lon="17.967182090747">
        <ele>68.4</ele>
        <time>2017-11-20T18:52:27Z</time>
      </trkpt>
      <trkpt lat="62.632099365546" lon="17.967233471794">
        <ele>68.6</ele>
        <time>2017-11-20T18:52:28Z</time>
      </trkpt>
      <trkpt lat="62.632084948678" lon="17.967282170633">
        <ele>69</ele>
        <time>2017-11-20T18:52:29Z</time>
      </trkpt>
      <trkpt lat="62.632068687792" lon="17.967334725146">
        <ele>69.4</ele>
        <time>2017-11-20T18:52:30Z</time>
      </trkpt>
      <trkpt lat="62.632052343087" lon="17.967384262175">
        <ele>69.8</ele>
        <time>2017-11-20T18:52:31Z</time>
      </trkpt>
      <trkpt lat="62.632035746925" lon="17.967433631566">
        <ele>70.2</ele>
        <time>2017-11-20T18:52:32Z</time>
      </trkpt>
      <trkpt lat="62.632020743324" lon="17.967483922966">
        <ele>70.4</ele>
        <time>2017-11-20T18:52:33Z</time>
      </trkpt>
      <trkpt lat="62.632007332284" lon="17.967526000104">
        <ele>70.6</ele>
        <time>2017-11-20T18:52:34Z</time>
      </trkpt>
      <trkpt lat="62.631988473009" lon="17.967587942345">
        <ele>70.8</ele>
        <time>2017-11-20T18:52:35Z</time>
      </trkpt>
      <trkpt lat="62.631976151616" lon="17.967633539881">
        <ele>71.2</ele>
        <time>2017-11-20T18:52:36Z</time>
      </trkpt>
      <trkpt lat="62.631958801083" lon="17.967685926756">
        <ele>71.4</ele>
        <time>2017-11-20T18:52:37Z</time>
      </trkpt>
      <trkpt lat="62.631943881301" lon="17.96773253012">
        <ele>71.6</ele>
        <time>2017-11-20T18:52:38Z</time>
      </trkpt>
      <trkpt lat="62.631930218804" lon="17.967784246443">
        <ele>71.8</ele>
        <time>2017-11-20T18:52:39Z</time>
      </trkpt>
      <trkpt lat="62.631913538823" lon="17.96783395111">
        <ele>72</ele>
        <time>2017-11-20T18:52:40Z</time>
      </trkpt>
      <trkpt lat="62.631895936833" lon="17.967888852555">
        <ele>72.2</ele>
        <time>2017-11-20T18:52:41Z</time>
      </trkpt>
      <trkpt lat="62.631879005395" lon="17.967942245258">
        <ele>72.4</ele>
        <time>2017-11-20T18:52:42Z</time>
      </trkpt>
      <trkpt lat="62.631864504708" lon="17.967993374848">
        <ele>72.6</ele>
        <time>2017-11-20T18:52:43Z</time>
      </trkpt>
      <trkpt lat="62.631848327641" lon="17.96804349861">
        <ele>72.8</ele>
        <time>2017-11-20T18:52:44Z</time>
      </trkpt>
      <trkpt lat="62.631837012076" lon="17.968095214933">
        <ele>72.8</ele>
        <time>2017-11-20T18:52:45Z</time>
      </trkpt>
      <trkpt lat="62.631819829181" lon="17.968149781102">
        <ele>73.2</ele>
        <time>2017-11-20T18:52:46Z</time>
      </trkpt>
      <trkpt lat="62.631804909399" lon="17.968200072502">
        <ele>73.4</ele>
        <time>2017-11-20T18:52:47Z</time>
      </trkpt>
      <trkpt lat="62.631789235246" lon="17.968252627015">
        <ele>73.6</ele>
        <time>2017-11-20T18:52:48Z</time>
      </trkpt>
      <trkpt lat="62.631776159482" lon="17.968300236207">
        <ele>74</ele>
        <time>2017-11-20T18:52:49Z</time>
      </trkpt>
      <trkpt lat="62.631762664623" lon="17.968357652222">
        <ele>74.2</ele>
        <time>2017-11-20T18:52:50Z</time>
      </trkpt>
      <trkpt lat="62.631746487556" lon="17.968413643314">
        <ele>74.6</ele>
        <time>2017-11-20T18:52:51Z</time>
      </trkpt>
      <trkpt lat="62.631733663249" lon="17.968457983565">
        <ele>74.8</ele>
        <time>2017-11-20T18:52:52Z</time>
      </trkpt>
      <trkpt lat="62.631715223069" lon="17.968515483399">
        <ele>75.2</ele>
        <time>2017-11-20T18:52:53Z</time>
      </trkpt>
      <trkpt lat="62.631703739866" lon="17.968562589677">
        <ele>75.4</ele>
        <time>2017-11-20T18:52:54Z</time>
      </trkpt>
      <trkpt lat="62.631687814256" lon="17.96861933514">
        <ele>75.6</ele>
        <time>2017-11-20T18:52:55Z</time>
      </trkpt>
      <trkpt lat="62.631677839795" lon="17.968671889653">
        <ele>76</ele>
        <time>2017-11-20T18:52:56Z</time>
      </trkpt>
      <trkpt lat="62.631671050456" lon="17.968732742247">
        <ele>76.2</ele>
        <time>2017-11-20T18:52:57Z</time>
      </trkpt>
      <trkpt lat="62.631668871162" lon="17.968793343384">
        <ele>76.4</ele>
        <time>2017-11-20T18:52:58Z</time>
      </trkpt>
      <trkpt lat="62.631669541714" lon="17.968848831562">
        <ele>76.6</ele>
        <time>2017-11-20T18:52:59Z</time>
      </trkpt>
      <trkpt lat="62.631667446239" lon="17.968903313912">
        <ele>76.8</ele>
        <time>2017-11-20T18:53:00Z</time>
      </trkpt>
      <trkpt lat="62.631668787343" lon="17.968982858143">
        <ele>77</ele>
        <time>2017-11-20T18:53:01Z</time>
      </trkpt>
      <trkpt lat="62.631676498691" lon="17.969046225307">
        <ele>77.4</ele>
        <time>2017-11-20T18:53:02Z</time>
      </trkpt>
      <trkpt lat="62.631682617478" lon="17.969099450372">
        <ele>77.6</ele>
        <time>2017-11-20T18:53:03Z</time>
      </trkpt>
      <trkpt lat="62.631689825912" lon="17.969146808107">
        <ele>77.8</ele>
        <time>2017-11-20T18:53:04Z</time>
      </trkpt>
      <trkpt lat="62.631696866708" lon="17.969211851651">
        <ele>78</ele>
        <time>2017-11-20T18:53:05Z</time>
      </trkpt>
      <trkpt lat="62.631706673531" lon="17.969266753096">
        <ele>78.2</ele>
        <time>2017-11-20T18:53:06Z</time>
      </trkpt>
      <trkpt lat="62.631716731811" lon="17.969328862975">
        <ele>78.2</ele>
        <time>2017-11-20T18:53:07Z</time>
      </trkpt>
      <trkpt lat="62.631725281349" lon="17.969377310357">
        <ele>78.4</ele>
        <time>2017-11-20T18:53:08Z</time>
      </trkpt>
      <trkpt lat="62.631733495611" lon="17.969427853214">
        <ele>78.4</ele>
        <time>2017-11-20T18:53:09Z</time>
      </trkpt>
      <trkpt lat="62.631738776208" lon="17.969482335564">
        <ele>78.8</ele>
        <time>2017-11-20T18:53:10Z</time>
      </trkpt>
      <trkpt lat="62.631740117312" lon="17.969544026348">
        <ele>79</ele>
        <time>2017-11-20T18:53:11Z</time>
      </trkpt>
      <trkpt lat="62.631737351285" lon="17.96960588477">
        <ele>79.4</ele>
        <time>2017-11-20T18:53:12Z</time>
      </trkpt>
      <trkpt lat="62.631729220842" lon="17.969655673256">
        <ele>79.6</ele>
        <time>2017-11-20T18:53:13Z</time>
      </trkpt>
      <trkpt lat="62.631710277748" lon="17.969689033218">
        <ele>80</ele>
        <time>2017-11-20T18:53:14Z</time>
      </trkpt>
      <trkpt lat="62.631691418473" lon="17.969721471171">
        <ele>80.4</ele>
        <time>2017-11-20T18:53:15Z</time>
      </trkpt>
      <trkpt lat="62.631674403216" lon="17.969741252455">
        <ele>80.6</ele>
        <time>2017-11-20T18:53:16Z</time>
      </trkpt>
      <trkpt lat="62.631646742946" lon="17.969760363187">
        <ele>80.8</ele>
        <time>2017-11-20T18:53:17Z</time>
      </trkpt>
      <trkpt lat="62.631620004685" lon="17.969777043168">
        <ele>81</ele>
        <time>2017-11-20T18:53:18Z</time>
      </trkpt>
      <trkpt lat="62.631597625012" lon="17.969787939638">
        <ele>81.2</ele>
        <time>2017-11-20T18:53:19Z</time>
      </trkpt>
      <trkpt lat="62.631569713285" lon="17.969805625447">
        <ele>81.4</ele>
        <time>2017-11-20T18:53:20Z</time>
      </trkpt>
      <trkpt lat="62.631543058843" lon="17.969822221609">
        <ele>81.6</ele>
        <time>2017-11-20T18:53:21Z</time>
      </trkpt>
      <trkpt lat="62.631516069125" lon="17.969835967925">
        <ele>81.6</ele>
        <time>2017-11-20T18:53:22Z</time>
      </trkpt>
      <trkpt lat="62.631486816294" lon="17.969853318458">
        <ele>81.8</ele>
        <time>2017-11-20T18:53:23Z</time>
      </trkpt>
      <trkpt lat="62.631461335318" lon="17.969871255724">
        <ele>81.8</ele>
        <time>2017-11-20T18:53:24Z</time>
      </trkpt>
      <trkpt lat="62.631431579573" lon="17.96989003118">
        <ele>82</ele>
        <time>2017-11-20T18:53:25Z</time>
      </trkpt>
      <trkpt lat="62.631404338398" lon="17.969910734473">
        <ele>82</ele>
        <time>2017-11-20T18:53:26Z</time>
      </trkpt>
      <trkpt lat="62.631373409187" lon="17.96993194068">
        <ele>82</ele>
        <time>2017-11-20T18:53:27Z</time>
      </trkpt>
      <trkpt lat="62.631346754745" lon="17.969946441367">
        <ele>82</ele>
        <time>2017-11-20T18:53:28Z</time>
      </trkpt>
      <trkpt lat="62.631318004828" lon="17.969957337837">
        <ele>82</ele>
        <time>2017-11-20T18:53:29Z</time>
      </trkpt>
      <trkpt lat="62.631288835816" lon="17.969974604551">
        <ele>82</ele>
        <time>2017-11-20T18:53:30Z</time>
      </trkpt>
      <trkpt lat="62.631255978768" lon="17.969992793274">
        <ele>82</ele>
        <time>2017-11-20T18:53:31Z</time>
      </trkpt>
      <trkpt lat="62.631225971566" lon="17.970002264821">
        <ele>82</ele>
        <time>2017-11-20T18:53:32Z</time>
      </trkpt>
      <trkpt lat="62.631197808382" lon="17.970018358069">
        <ele>82.2</ele>
        <time>2017-11-20T18:53:33Z</time>
      </trkpt>
      <trkpt lat="62.631172914139" lon="17.970029925091">
        <ele>82.2</ele>
        <time>2017-11-20T18:53:34Z</time>
      </trkpt>
      <trkpt lat="62.631139218901" lon="17.970051047479">
        <ele>82.2</ele>
        <time>2017-11-20T18:53:35Z</time>
      </trkpt>
      <trkpt lat="62.631109463156" lon="17.970062111587">
        <ele>82.2</ele>
        <time>2017-11-20T18:53:36Z</time>
      </trkpt>
      <trkpt lat="62.631076522289" lon="17.970078875387">
        <ele>82.4</ele>
        <time>2017-11-20T18:53:37Z</time>
      </trkpt>
      <trkpt lat="62.631047688553" lon="17.970093040798">
        <ele>82.4</ele>
        <time>2017-11-20T18:53:38Z</time>
      </trkpt>
      <trkpt lat="62.631003348302" lon="17.970108547313">
        <ele>82.6</ele>
        <time>2017-11-20T18:53:40Z</time>
      </trkpt>
      <trkpt lat="62.630990440176" lon="17.970106703295">
        <ele>82.8</ele>
        <time>2017-11-20T18:53:41Z</time>
      </trkpt>
      <trkpt lat="62.630977029136" lon="17.970112235349">
        <ele>83</ele>
        <time>2017-11-20T18:53:42Z</time>
      </trkpt>
      <trkpt lat="62.630965713571" lon="17.970113324996">
        <ele>83.2</ele>
        <time>2017-11-20T18:53:43Z</time>
      </trkpt>
      <trkpt lat="62.630953643635" lon="17.970112738263">
        <ele>83.4</ele>
        <time>2017-11-20T18:53:44Z</time>
      </trkpt>
      <trkpt lat="62.630941992794" lon="17.970117432127">
        <ele>83.4</ele>
        <time>2017-11-20T18:53:45Z</time>
      </trkpt>
      <trkpt lat="62.630933191799" lon="17.970123634733">
        <ele>83.4</ele>
        <time>2017-11-20T18:53:46Z</time>
      </trkpt>
      <trkpt lat="62.630926989193" lon="17.970141655818">
        <ele>83.6</ele>
        <time>2017-11-20T18:53:47Z</time>
      </trkpt>
      <trkpt lat="62.630919613121" lon="17.97015992836">
        <ele>83.4</ele>
        <time>2017-11-20T18:53:48Z</time>
      </trkpt>
      <trkpt lat="62.630909890117" lon="17.970162694387">
        <ele>83.4</ele>
        <time>2017-11-20T18:53:49Z</time>
      </trkpt>
      <trkpt lat="62.630902514045" lon="17.970151965555">
        <ele>83.6</ele>
        <time>2017-11-20T18:53:50Z</time>
      </trkpt>
      <trkpt lat="62.630900502389" lon="17.97012891533">
        <ele>83.4</ele>
        <time>2017-11-20T18:53:51Z</time>
      </trkpt>
      <trkpt lat="62.630903268416" lon="17.97011801886">
        <ele>83.4</ele>
        <time>2017-11-20T18:53:52Z</time>
      </trkpt>
      <trkpt lat="62.630908213737" lon="17.970102847621">
        <ele>83.4</ele>
        <time>2017-11-20T18:53:53Z</time>
      </trkpt>
      <trkpt lat="62.630909303384" lon="17.970098991947">
        <ele>83.4</ele>
        <time>2017-11-20T18:53:54Z</time>
      </trkpt>
      <trkpt lat="62.630905866805" lon="17.970105529829">
        <ele>83.4</ele>
        <time>2017-11-20T18:53:55Z</time>
      </trkpt>
      <trkpt lat="62.63094651902" lon="17.970500317319">
        <ele>83.2</ele>
        <time>2017-11-20T18:55:14Z</time>
      </trkpt>
      <trkpt lat="62.630948782133" lon="17.970535605118">
        <ele>83.4</ele>
        <time>2017-11-20T18:55:15Z</time>
      </trkpt>
      <trkpt lat="62.630953895092" lon="17.970587908174">
        <ele>83.4</ele>
        <time>2017-11-20T18:55:16Z</time>
      </trkpt>
      <trkpt lat="62.630957331671" lon="17.970630069131">
        <ele>83.4</ele>
        <time>2017-11-20T18:55:17Z</time>
      </trkpt>
      <trkpt lat="62.63096328282" lon="17.970682791282">
        <ele>83.6</ele>
        <time>2017-11-20T18:55:18Z</time>
      </trkpt>
      <trkpt lat="62.630967306132" lon="17.970718330538">
        <ele>83.6</ele>
        <time>2017-11-20T18:55:19Z</time>
      </trkpt>
      <trkpt lat="62.630970994168" lon="17.970769460128">
        <ele>83.8</ele>
        <time>2017-11-20T18:55:20Z</time>
      </trkpt>
      <trkpt lat="62.630977867326" lon="17.970815979673">
        <ele>83.8</ele>
        <time>2017-11-20T18:55:21Z</time>
      </trkpt>
      <trkpt lat="62.630983986113" lon="17.970857889173">
        <ele>84.2</ele>
        <time>2017-11-20T18:55:22Z</time>
      </trkpt>
      <trkpt lat="62.630987255054" lon="17.970909689315">
        <ele>84.2</ele>
        <time>2017-11-20T18:55:23Z</time>
      </trkpt>
      <trkpt lat="62.630989015253" lon="17.970961740914">
        <ele>84.2</ele>
        <time>2017-11-20T18:55:24Z</time>
      </trkpt>
      <trkpt lat="62.630992200375" lon="17.970999710921">
        <ele>84.4</ele>
        <time>2017-11-20T18:55:25Z</time>
      </trkpt>
      <trkpt lat="62.630996475144" lon="17.971054528547">
        <ele>84.6</ele>
        <time>2017-11-20T18:55:26Z</time>
      </trkpt>
      <trkpt lat="62.630999911723" lon="17.971094761667">
        <ele>84.6</ele>
        <time>2017-11-20T18:55:27Z</time>
      </trkpt>
      <trkpt lat="62.631006533424" lon="17.971134324235">
        <ele>84.8</ele>
        <time>2017-11-20T18:55:28Z</time>
      </trkpt>
      <trkpt lat="62.631012316935" lon="17.971177574839">
        <ele>84.8</ele>
        <time>2017-11-20T18:55:29Z</time>
      </trkpt>
      <trkpt lat="62.631017010799" lon="17.971218729968">
        <ele>84.8</ele>
        <time>2017-11-20T18:55:30Z</time>
      </trkpt>
      <trkpt lat="62.63102279431" lon="17.971269943377">
        <ele>84.8</ele>
        <time>2017-11-20T18:55:31Z</time>
      </trkpt>
      <trkpt lat="62.631027991088" lon="17.971321072967">
        <ele>85</ele>
        <time>2017-11-20T18:55:32Z</time>
      </trkpt>
      <trkpt lat="62.631034864246" lon="17.97136273101">
        <ele>85</ele>
        <time>2017-11-20T18:55:33Z</time>
      </trkpt>
      <trkpt lat="62.63104291087" lon="17.971410256383">
        <ele>85</ele>
        <time>2017-11-20T18:55:34Z</time>
      </trkpt>
      <trkpt lat="62.631049364933" lon="17.97145325553">
        <ele>85</ele>
        <time>2017-11-20T18:55:35Z</time>
      </trkpt>
      <trkpt lat="62.631058333566" lon="17.971501199998">
        <ele>85.2</ele>
        <time>2017-11-20T18:55:36Z</time>
      </trkpt>
      <trkpt lat="62.631067553656" lon="17.971549395923">
        <ele>85.2</ele>
        <time>2017-11-20T18:55:37Z</time>
      </trkpt>
      <trkpt lat="62.631076354651" lon="17.971598765314">
        <ele>85.2</ele>
        <time>2017-11-20T18:55:38Z</time>
      </trkpt>
      <trkpt lat="62.631085826198" lon="17.971643859936">
        <ele>85.2</ele>
        <time>2017-11-20T18:55:39Z</time>
      </trkpt>
      <trkpt lat="62.631095213926" lon="17.971692810232">
        <ele>85.4</ele>
        <time>2017-11-20T18:55:40Z</time>
      </trkpt>
      <trkpt lat="62.631105858939" lon="17.971736899026">
        <ele>85.6</ele>
        <time>2017-11-20T18:55:41Z</time>
      </trkpt>
      <trkpt lat="62.631117425961" lon="17.971788950625">
        <ele>85.6</ele>
        <time>2017-11-20T18:55:42Z</time>
      </trkpt>
      <trkpt lat="62.631128992983" lon="17.971840247853">
        <ele>85.8</ele>
        <time>2017-11-20T18:55:43Z</time>
      </trkpt>
      <trkpt lat="62.631140308548" lon="17.971879223688">
        <ele>86</ele>
        <time>2017-11-20T18:55:44Z</time>
      </trkpt>
      <trkpt lat="62.63115103738" lon="17.971920211179">
        <ele>86</ele>
        <time>2017-11-20T18:55:45Z</time>
      </trkpt>
      <trkpt lat="62.631163274954" lon="17.971972598054">
        <ele>86.2</ele>
        <time>2017-11-20T18:55:46Z</time>
      </trkpt>
      <trkpt lat="62.631173500872" lon="17.972008807862">
        <ele>86.2</ele>
        <time>2017-11-20T18:55:47Z</time>
      </trkpt>
      <trkpt lat="62.631187833921" lon="17.972062871117">
        <ele>86.2</ele>
        <time>2017-11-20T18:55:48Z</time>
      </trkpt>
      <trkpt lat="62.631199065667" lon="17.972104612979">
        <ele>86.4</ele>
        <time>2017-11-20T18:55:49Z</time>
      </trkpt>
      <trkpt lat="62.631209459223" lon="17.972141660977">
        <ele>86.4</ele>
        <time>2017-11-20T18:55:50Z</time>
      </trkpt>
      <trkpt lat="62.631227731765" lon="17.972194383128">
        <ele>86.4</ele>
        <time>2017-11-20T18:55:51Z</time>
      </trkpt>
      <trkpt lat="62.631239717882" lon="17.972230090022">
        <ele>86.4</ele>
        <time>2017-11-20T18:55:52Z</time>
      </trkpt>
      <trkpt lat="62.631252877465" lon="17.972268982038">
        <ele>86.6</ele>
        <time>2017-11-20T18:55:53Z</time>
      </trkpt>
      <trkpt lat="62.631266959057" lon="17.97232078218">
        <ele>86.6</ele>
        <time>2017-11-20T18:55:54Z</time>
      </trkpt>
      <trkpt lat="62.631279112812" lon="17.972352968676">
        <ele>86.6</ele>
        <time>2017-11-20T18:55:55Z</time>
      </trkpt>
      <trkpt lat="62.631293026766" lon="17.972399655859">
        <ele>86.8</ele>
        <time>2017-11-20T18:55:56Z</time>
      </trkpt>
      <trkpt lat="62.631313227145" lon="17.972459251168">
        <ele>86.8</ele>
        <time>2017-11-20T18:55:57Z</time>
      </trkpt>
      <trkpt lat="62.631326638185" lon="17.972497556451">
        <ele>87</ele>
        <time>2017-11-20T18:55:58Z</time>
      </trkpt>
      <trkpt lat="62.631339965406" lon="17.972540974693">
        <ele>87</ele>
        <time>2017-11-20T18:55:59Z</time>
      </trkpt>
      <trkpt lat="62.63135471755" lon="17.97258313565">
        <ele>87.2</ele>
        <time>2017-11-20T18:56:00Z</time>
      </trkpt>
      <trkpt lat="62.631369469694" lon="17.972624290779">
        <ele>87.4</ele>
        <time>2017-11-20T18:56:01Z</time>
      </trkpt>
      <trkpt lat="62.631383132191" lon="17.972665948822">
        <ele>87.6</ele>
        <time>2017-11-20T18:56:02Z</time>
      </trkpt>
      <trkpt lat="62.631395285946" lon="17.972704337924">
        <ele>87.8</ele>
        <time>2017-11-20T18:56:03Z</time>
      </trkpt>
      <trkpt lat="62.63140668533" lon="17.972740463913">
        <ele>87.8</ele>
        <time>2017-11-20T18:56:04Z</time>
      </trkpt>
      <trkpt lat="62.631420012551" lon="17.97278513944">
        <ele>88</ele>
        <time>2017-11-20T18:56:05Z</time>
      </trkpt>
      <trkpt lat="62.631430573745" lon="17.97281950523">
        <ele>88.2</ele>
        <time>2017-11-20T18:56:06Z</time>
      </trkpt>
      <trkpt lat="62.63144524207" lon="17.972861833825">
        <ele>88.2</ele>
        <time>2017-11-20T18:56:07Z</time>
      </trkpt>
      <trkpt lat="62.631459323662" lon="17.972898211271">
        <ele>88.4</ele>
        <time>2017-11-20T18:56:08Z</time>
      </trkpt>
      <trkpt lat="62.631474159625" lon="17.972931403595">
        <ele>88.6</ele>
        <time>2017-11-20T18:56:09Z</time>
      </trkpt>
      <trkpt lat="62.631490839606" lon="17.972973229276">
        <ele>88.6</ele>
        <time>2017-11-20T18:56:10Z</time>
      </trkpt>
      <trkpt lat="62.631506765216" lon="17.973012875663">
        <ele>88.8</ele>
        <time>2017-11-20T18:56:11Z</time>
      </trkpt>
      <trkpt lat="62.631523026102" lon="17.973050342756">
        <ele>89</ele>
        <time>2017-11-20T18:56:12Z</time>
      </trkpt>
      <trkpt lat="62.631538951712" lon="17.973087893668">
        <ele>89</ele>
        <time>2017-11-20T18:56:13Z</time>
      </trkpt>
      <trkpt lat="62.631555128779" lon="17.973121169811">
        <ele>89.2</ele>
        <time>2017-11-20T18:56:14Z</time>
      </trkpt>
      <trkpt lat="62.631573317502" lon="17.973157547257">
        <ele>89.2</ele>
        <time>2017-11-20T18:56:15Z</time>
      </trkpt>
      <trkpt lat="62.631590919492" lon="17.973192080685">
        <ele>89.4</ele>
        <time>2017-11-20T18:56:16Z</time>
      </trkpt>
      <trkpt lat="62.631609611129" lon="17.97322770376">
        <ele>89.6</ele>
        <time>2017-11-20T18:56:17Z</time>
      </trkpt>
      <trkpt lat="62.63162796749" lon="17.973262404826">
        <ele>89.6</ele>
        <time>2017-11-20T18:56:18Z</time>
      </trkpt>
      <trkpt lat="62.631646994403" lon="17.973292076752">
        <ele>89.6</ele>
        <time>2017-11-20T18:56:19Z</time>
      </trkpt>
      <trkpt lat="62.631667278601" lon="17.973321664859">
        <ele>89.8</ele>
        <time>2017-11-20T18:56:20Z</time>
      </trkpt>
      <trkpt lat="62.631686389333" lon="17.973348989853">
        <ele>89.8</ele>
        <time>2017-11-20T18:56:21Z</time>
      </trkpt>
      <trkpt lat="62.631707092626" lon="17.973377069218">
        <ele>90</ele>
        <time>2017-11-20T18:56:22Z</time>
      </trkpt>
      <trkpt lat="62.631727209186" lon="17.973402717832">
        <ele>90</ele>
        <time>2017-11-20T18:56:23Z</time>
      </trkpt>
      <trkpt lat="62.631747577203" lon="17.973428282627">
        <ele>90.2</ele>
        <time>2017-11-20T18:56:24Z</time>
      </trkpt>
      <trkpt lat="62.631770208333" lon="17.973459966209">
        <ele>90.4</ele>
        <time>2017-11-20T18:56:25Z</time>
      </trkpt>
      <trkpt lat="62.631789654341" lon="17.973486536832">
        <ele>90.4</ele>
        <time>2017-11-20T18:56:26Z</time>
      </trkpt>
      <trkpt lat="62.631810860548" lon="17.973510509066">
        <ele>90.4</ele>
        <time>2017-11-20T18:56:27Z</time>
      </trkpt>
      <trkpt lat="62.631832904945" lon="17.973534732757">
        <ele>90.4</ele>
        <time>2017-11-20T18:56:28Z</time>
      </trkpt>
      <trkpt lat="62.631853524419" lon="17.973559543181">
        <ele>90.4</ele>
        <time>2017-11-20T18:56:29Z</time>
      </trkpt>
      <trkpt lat="62.631874227712" lon="17.973587622546">
        <ele>90.4</ele>
        <time>2017-11-20T18:56:30Z</time>
      </trkpt>
      <trkpt lat="62.631894428091" lon="17.973616875377">
        <ele>90.4</ele>
        <time>2017-11-20T18:56:31Z</time>
      </trkpt>
      <trkpt lat="62.631914209375" lon="17.973641937258">
        <ele>90.6</ele>
        <time>2017-11-20T18:56:32Z</time>
      </trkpt>
      <trkpt lat="62.631934661211" lon="17.973665406578">
        <ele>90.6</ele>
        <time>2017-11-20T18:56:33Z</time>
      </trkpt>
      <trkpt lat="62.631954191038" lon="17.973686864242">
        <ele>90.6</ele>
        <time>2017-11-20T18:56:34Z</time>
      </trkpt>
      <trkpt lat="62.631978750005" lon="17.973712009942">
        <ele>90.6</ele>
        <time>2017-11-20T18:56:35Z</time>
      </trkpt>
      <trkpt lat="62.631999788574" lon="17.973732377959">
        <ele>90.6</ele>
        <time>2017-11-20T18:56:36Z</time>
      </trkpt>
      <trkpt lat="62.63202526955" lon="17.973758780944">
        <ele>90.6</ele>
        <time>2017-11-20T18:56:37Z</time>
      </trkpt>
      <trkpt lat="62.632047146309" lon="17.973782669359">
        <ele>90.6</ele>
        <time>2017-11-20T18:56:38Z</time>
      </trkpt>
      <trkpt lat="62.63206801724" lon="17.973804210842">
        <ele>90.6</ele>
        <time>2017-11-20T18:56:39Z</time>
      </trkpt>
      <trkpt lat="62.632090480732" lon="17.973831032922">
        <ele>90.8</ele>
        <time>2017-11-20T18:56:40Z</time>
      </trkpt>
      <trkpt lat="62.632113195681" lon="17.973855675708">
        <ele>90.8</ele>
        <time>2017-11-20T18:56:41Z</time>
      </trkpt>
      <trkpt lat="62.632135407716" lon="17.973877803924">
        <ele>90.8</ele>
        <time>2017-11-20T18:56:42Z</time>
      </trkpt>
      <trkpt lat="62.632155943371" lon="17.973903201081">
        <ele>90.8</ele>
        <time>2017-11-20T18:56:43Z</time>
      </trkpt>
      <trkpt lat="62.632173461542" lon="17.973925161659">
        <ele>90.8</ele>
        <time>2017-11-20T18:56:44Z</time>
      </trkpt>
      <trkpt lat="62.632195170663" lon="17.973950558816">
        <ele>90.8</ele>
        <time>2017-11-20T18:56:45Z</time>
      </trkpt>
      <trkpt lat="62.632216712146" lon="17.973973944317">
        <ele>90.8</ele>
        <time>2017-11-20T18:56:46Z</time>
      </trkpt>
      <trkpt lat="62.63223649343" lon="17.97399883856">
        <ele>90.8</ele>
        <time>2017-11-20T18:56:47Z</time>
      </trkpt>
      <trkpt lat="62.632256945266" lon="17.974018703663">
        <ele>90.8</ele>
        <time>2017-11-20T18:56:48Z</time>
      </trkpt>
      <trkpt lat="62.632281085138" lon="17.974031444151">
        <ele>90.8</ele>
        <time>2017-11-20T18:56:49Z</time>
      </trkpt>
      <trkpt lat="62.632303380992" lon="17.974052650358">
        <ele>90.8</ele>
        <time>2017-11-20T18:56:50Z</time>
      </trkpt>
      <trkpt lat="62.632321904991" lon="17.974075700583">
        <ele>90.8</ele>
        <time>2017-11-20T18:56:51Z</time>
      </trkpt>
      <trkpt lat="62.632341937732" lon="17.97410109774">
        <ele>91</ele>
        <time>2017-11-20T18:56:52Z</time>
      </trkpt>
      <trkpt lat="62.632364317405" lon="17.974127668363">
        <ele>91</ele>
        <time>2017-11-20T18:56:53Z</time>
      </trkpt>
      <trkpt lat="62.632383428137" lon="17.974151137683">
        <ele>91</ele>
        <time>2017-11-20T18:56:54Z</time>
      </trkpt>
      <trkpt lat="62.632403712335" lon="17.974177540668">
        <ele>91</ele>
        <time>2017-11-20T18:56:55Z</time>
      </trkpt>
      <trkpt lat="62.632425337637" lon="17.974197824866">
        <ele>91</ele>
        <time>2017-11-20T18:56:56Z</time>
      </trkpt>
      <trkpt lat="62.632447046758" lon="17.974221629462">
        <ele>91</ele>
        <time>2017-11-20T18:56:57Z</time>
      </trkpt>
      <trkpt lat="62.632468252965" lon="17.97424610461">
        <ele>91</ele>
        <time>2017-11-20T18:56:58Z</time>
      </trkpt>
      <trkpt lat="62.632489459172" lon="17.974268903378">
        <ele>90.8</ele>
        <time>2017-11-20T18:56:59Z</time>
      </trkpt>
      <trkpt lat="62.632512677035" lon="17.974293378526">
        <ele>90.8</ele>
        <time>2017-11-20T18:57:00Z</time>
      </trkpt>
      <trkpt lat="62.632534805251" lon="17.974319110959">
        <ele>91</ele>
        <time>2017-11-20T18:57:01Z</time>
      </trkpt>
      <trkpt lat="62.632555424725" lon="17.974344591935">
        <ele>91</ele>
        <time>2017-11-20T18:57:02Z</time>
      </trkpt>
      <trkpt lat="62.632577552941" lon="17.974367558341">
        <ele>91</ele>
        <time>2017-11-20T18:57:03Z</time>
      </trkpt>
      <trkpt lat="62.632599094424" lon="17.974389183643">
        <ele>91</ele>
        <time>2017-11-20T18:57:04Z</time>
      </trkpt>
      <trkpt lat="62.632624826857" lon="17.974411479497">
        <ele>91.2</ele>
        <time>2017-11-20T18:57:05Z</time>
      </trkpt>
      <trkpt lat="62.632647793263" lon="17.974431428419">
        <ele>91.2</ele>
        <time>2017-11-20T18:57:06Z</time>
      </trkpt>
      <trkpt lat="62.632673860972" lon="17.974452215531">
        <ele>91.2</ele>
        <time>2017-11-20T18:57:07Z</time>
      </trkpt>
      <trkpt lat="62.632697162654" lon="17.974468057322">
        <ele>91.4</ele>
        <time>2017-11-20T18:57:08Z</time>
      </trkpt>
      <trkpt lat="62.632719961422" lon="17.974479289068">
        <ele>91.2</ele>
        <time>2017-11-20T18:57:09Z</time>
      </trkpt>
      <trkpt lat="62.632744688027" lon="17.974481636">
        <ele>91.2</ele>
        <time>2017-11-20T18:57:10Z</time>
      </trkpt>
      <trkpt lat="62.632769246994" lon="17.974476271584">
        <ele>91.2</ele>
        <time>2017-11-20T18:57:11Z</time>
      </trkpt>
      <trkpt lat="62.632791961943" lon="17.974462525268">
        <ele>91.2</ele>
        <time>2017-11-20T18:57:12Z</time>
      </trkpt>
      <trkpt lat="62.632814173978" lon="17.974439894138">
        <ele>91</ele>
        <time>2017-11-20T18:57:13Z</time>
      </trkpt>
      <trkpt lat="62.632832027425" lon="17.974411647135">
        <ele>91</ele>
        <time>2017-11-20T18:57:14Z</time>
      </trkpt>
      <trkpt lat="62.63284921032" lon="17.974373928585">
        <ele>91</ele>
        <time>2017-11-20T18:57:15Z</time>
      </trkpt>
      <trkpt lat="62.632861950808" lon="17.97433495275">
        <ele>91</ele>
        <time>2017-11-20T18:57:16Z</time>
      </trkpt>
      <trkpt lat="62.632874104563" lon="17.974290947775">
        <ele>91</ele>
        <time>2017-11-20T18:57:17Z</time>
      </trkpt>
      <trkpt lat="62.632885420128" lon="17.974248367723">
        <ele>90.8</ele>
        <time>2017-11-20T18:57:18Z</time>
      </trkpt>
      <trkpt lat="62.632894891675" lon="17.974204278929">
        <ele>90.8</ele>
        <time>2017-11-20T18:57:19Z</time>
      </trkpt>
      <trkpt lat="62.63290453086" lon="17.974157088832">
        <ele>90.8</ele>
        <time>2017-11-20T18:57:20Z</time>
      </trkpt>
      <trkpt lat="62.632915343511" lon="17.974112329486">
        <ele>90.8</ele>
        <time>2017-11-20T18:57:21Z</time>
      </trkpt>
      <trkpt lat="62.632925737067" lon="17.974067821597">
        <ele>90.8</ele>
        <time>2017-11-20T18:57:22Z</time>
      </trkpt>
      <trkpt lat="62.632936884994" lon="17.974020463862">
        <ele>90.8</ele>
        <time>2017-11-20T18:57:23Z</time>
      </trkpt>
      <trkpt lat="62.632947530007" lon="17.973976877982">
        <ele>90.8</ele>
        <time>2017-11-20T18:57:24Z</time>
      </trkpt>
      <trkpt lat="62.632958761753" lon="17.973926418944">
        <ele>90.8</ele>
        <time>2017-11-20T18:57:25Z</time>
      </trkpt>
      <trkpt lat="62.632968652395" lon="17.973877217191">
        <ele>90.6</ele>
        <time>2017-11-20T18:57:26Z</time>
      </trkpt>
      <trkpt lat="62.632979800322" lon="17.973824746497">
        <ele>90.4</ele>
        <time>2017-11-20T18:57:27Z</time>
      </trkpt>
      <trkpt lat="62.632990612973" lon="17.973774790373">
        <ele>90.4</ele>
        <time>2017-11-20T18:57:28Z</time>
      </trkpt>
      <trkpt lat="62.633001928538" lon="17.973725085706">
        <ele>90.4</ele>
        <time>2017-11-20T18:57:29Z</time>
      </trkpt>
      <trkpt lat="62.633013411741" lon="17.973669765166">
        <ele>90.4</ele>
        <time>2017-11-20T18:57:30Z</time>
      </trkpt>
      <trkpt lat="62.633024308211" lon="17.973616959196">
        <ele>90.4</ele>
        <time>2017-11-20T18:57:31Z</time>
      </trkpt>
      <trkpt lat="62.633033863577" lon="17.973566164882">
        <ele>90.4</ele>
        <time>2017-11-20T18:57:32Z</time>
      </trkpt>
      <trkpt lat="62.633045011504" lon="17.973515705844">
        <ele>90.2</ele>
        <time>2017-11-20T18:57:33Z</time>
      </trkpt>
      <trkpt lat="62.633055991793" lon="17.973469353937">
        <ele>90.2</ele>
        <time>2017-11-20T18:57:34Z</time>
      </trkpt>
      <trkpt lat="62.633067558815" lon="17.973411937922">
        <ele>90</ele>
        <time>2017-11-20T18:57:35Z</time>
      </trkpt>
      <trkpt lat="62.633076946543" lon="17.973363322902">
        <ele>89.8</ele>
        <time>2017-11-20T18:57:36Z</time>
      </trkpt>
      <trkpt lat="62.633089351755" lon="17.973308253819">
        <ele>89.8</ele>
        <time>2017-11-20T18:57:37Z</time>
      </trkpt>
      <trkpt lat="62.633100415863" lon="17.973258800609">
        <ele>89.6</ele>
        <time>2017-11-20T18:57:38Z</time>
      </trkpt>
      <trkpt lat="62.633110474143" lon="17.973212197245">
        <ele>89.6</ele>
        <time>2017-11-20T18:57:39Z</time>
      </trkpt>
      <trkpt lat="62.633122627898" lon="17.973157379619">
        <ele>89.6</ele>
        <time>2017-11-20T18:57:40Z</time>
      </trkpt>
      <trkpt lat="62.633133021454" lon="17.973105579477">
        <ele>89.4</ele>
        <time>2017-11-20T18:57:41Z</time>
      </trkpt>
      <trkpt lat="62.633143331191" lon="17.973054952801">
        <ele>89.4</ele>
        <time>2017-11-20T18:57:42Z</time>
      </trkpt>
      <trkpt lat="62.633155317308" lon="17.972999296985">
        <ele>89.4</ele>
        <time>2017-11-20T18:57:43Z</time>
      </trkpt>
      <trkpt lat="62.633165627045" lon="17.97294523373">
        <ele>89.4</ele>
        <time>2017-11-20T18:57:44Z</time>
      </trkpt>
      <trkpt lat="62.633178283714" lon="17.972886141335">
        <ele>89.4</ele>
        <time>2017-11-20T18:57:45Z</time>
      </trkpt>
      <trkpt lat="62.63318951546" lon="17.97283291627">
        <ele>89.2</ele>
        <time>2017-11-20T18:57:46Z</time>
      </trkpt>
      <trkpt lat="62.633202172129" lon="17.97277759573">
        <ele>89.2</ele>
        <time>2017-11-20T18:57:47Z</time>
      </trkpt>
      <trkpt lat="62.633214744979" lon="17.972725963226">
        <ele>89.2</ele>
        <time>2017-11-20T18:57:48Z</time>
      </trkpt>
      <trkpt lat="62.633225809087" lon="17.972676510016">
        <ele>89</ele>
        <time>2017-11-20T18:57:49Z</time>
      </trkpt>
      <trkpt lat="62.633236873195" lon="17.972619848372">
        <ele>89</ele>
        <time>2017-11-20T18:57:50Z</time>
      </trkpt>
      <trkpt lat="62.633246763837" lon="17.972566707126">
        <ele>88.8</ele>
        <time>2017-11-20T18:57:51Z</time>
      </trkpt>
      <trkpt lat="62.633257325031" lon="17.972511135129">
        <ele>88.6</ele>
        <time>2017-11-20T18:57:52Z</time>
      </trkpt>
      <trkpt lat="62.633267550949" lon="17.972456066046">
        <ele>88.6</ele>
        <time>2017-11-20T18:57:53Z</time>
      </trkpt>
      <trkpt lat="62.633275932849" lon="17.972400661687">
        <ele>88.4</ele>
        <time>2017-11-20T18:57:54Z</time>
      </trkpt>
      <trkpt lat="62.633286158767" lon="17.972336456333">
        <ele>88.4</ele>
        <time>2017-11-20T18:57:55Z</time>
      </trkpt>
      <trkpt lat="62.633294792124" lon="17.972279040318">
        <ele>88.4</ele>
        <time>2017-11-20T18:57:56Z</time>
      </trkpt>
      <trkpt lat="62.633302252015" lon="17.972222211036">
        <ele>88.4</ele>
        <time>2017-11-20T18:57:57Z</time>
      </trkpt>
      <trkpt lat="62.633309292811" lon="17.972167980143">
        <ele>88.4</ele>
        <time>2017-11-20T18:57:58Z</time>
      </trkpt>
      <trkpt lat="62.633315746874" lon="17.97211207287">
        <ele>88.2</ele>
        <time>2017-11-20T18:57:59Z</time>
      </trkpt>
      <trkpt lat="62.633322703851" lon="17.972052477561">
        <ele>88.2</ele>
        <time>2017-11-20T18:58:00Z</time>
      </trkpt>
      <trkpt lat="62.633329577009" lon="17.971992379338">
        <ele>88.2</ele>
        <time>2017-11-20T18:58:01Z</time>
      </trkpt>
      <trkpt lat="62.633335444339" lon="17.971934963323">
        <ele>88.2</ele>
        <time>2017-11-20T18:58:02Z</time>
      </trkpt>
      <trkpt lat="62.633341060212" lon="17.971875200376">
        <ele>88</ele>
        <time>2017-11-20T18:58:03Z</time>
      </trkpt>
      <trkpt lat="62.633345502619" lon="17.971820215112">
        <ele>88</ele>
        <time>2017-11-20T18:58:04Z</time>
      </trkpt>
      <trkpt lat="62.63334960975" lon="17.971758272871">
        <ele>88</ele>
        <time>2017-11-20T18:58:05Z</time>
      </trkpt>
      <trkpt lat="62.633354219795" lon="17.971700186304">
        <ele>87.8</ele>
        <time>2017-11-20T18:58:06Z</time>
      </trkpt>
      <trkpt lat="62.633358662202" lon="17.971639501348">
        <ele>87.8</ele>
        <time>2017-11-20T18:58:07Z</time>
      </trkpt>
      <trkpt lat="62.633361428229" lon="17.971580744229">
        <ele>87.6</ele>
        <time>2017-11-20T18:58:08Z</time>
      </trkpt>
      <trkpt lat="62.633363188428" lon="17.971524250223">
        <ele>87.4</ele>
        <time>2017-11-20T18:58:09Z</time>
      </trkpt>
      <trkpt lat="62.633362685514" lon="17.97145912286">
        <ele>87.2</ele>
        <time>2017-11-20T18:58:10Z</time>
      </trkpt>
      <trkpt lat="62.633360338582" lon="17.971395252782">
        <ele>87.2</ele>
        <time>2017-11-20T18:58:11Z</time>
      </trkpt>
      <trkpt lat="62.633359500392" lon="17.971337669129">
        <ele>87</ele>
        <time>2017-11-20T18:58:12Z</time>
      </trkpt>
      <trkpt lat="62.63336050622" lon="17.971278492915">
        <ele>87</ele>
        <time>2017-11-20T18:58:13Z</time>
      </trkpt>
      <trkpt lat="62.633361260591" lon="17.97122610604">
        <ele>86.8</ele>
        <time>2017-11-20T18:58:14Z</time>
      </trkpt>
      <trkpt lat="62.633361679686" lon="17.97116994731">
        <ele>86.8</ele>
        <time>2017-11-20T18:58:15Z</time>
      </trkpt>
      <trkpt lat="62.633361428229" lon="17.971115632598">
        <ele>86.6</ele>
        <time>2017-11-20T18:58:16Z</time>
      </trkpt>
      <trkpt lat="62.633360590039" lon="17.971056707841">
        <ele>86.6</ele>
        <time>2017-11-20T18:58:17Z</time>
      </trkpt>
      <trkpt lat="62.633359081297" lon="17.971004153328">
        <ele>86.6</ele>
        <time>2017-11-20T18:58:18Z</time>
      </trkpt>
      <trkpt lat="62.633357321098" lon="17.970950592987">
        <ele>86.4</ele>
        <time>2017-11-20T18:58:19Z</time>
      </trkpt>
      <trkpt lat="62.633356399089" lon="17.970891835868">
        <ele>86.4</ele>
        <time>2017-11-20T18:58:20Z</time>
      </trkpt>
      <trkpt lat="62.63335296251" lon="17.970839365174">
        <ele>86.2</ele>
        <time>2017-11-20T18:58:21Z</time>
      </trkpt>
      <trkpt lat="62.633349693569" lon="17.970779015494">
        <ele>86.2</ele>
        <time>2017-11-20T18:58:22Z</time>
      </trkpt>
      <trkpt lat="62.633347681913" lon="17.970719336366">
        <ele>86</ele>
        <time>2017-11-20T18:58:23Z</time>
      </trkpt>
      <trkpt lat="62.633345921714" lon="17.970670302251">
        <ele>86</ele>
        <time>2017-11-20T18:58:24Z</time>
      </trkpt>
      <trkpt lat="62.633341395488" lon="17.970610371666">
        <ele>86</ele>
        <time>2017-11-20T18:58:25Z</time>
      </trkpt>
      <trkpt lat="62.633337288357" lon="17.970554045298">
        <ele>85.8</ele>
        <time>2017-11-20T18:58:26Z</time>
      </trkpt>
      <trkpt lat="62.633332762131" lon="17.970495958731">
        <ele>85.8</ele>
        <time>2017-11-20T18:58:27Z</time>
      </trkpt>
      <trkpt lat="62.63332949319" lon="17.970439213268">
        <ele>85.8</ele>
        <time>2017-11-20T18:58:28Z</time>
      </trkpt>
      <trkpt lat="62.633325972792" lon="17.970379953235">
        <ele>85.6</ele>
        <time>2017-11-20T18:58:29Z</time>
      </trkpt>
      <trkpt lat="62.633320608376" lon="17.970324632695">
        <ele>85.4</ele>
        <time>2017-11-20T18:58:30Z</time>
      </trkpt>
      <trkpt lat="62.633317004159" lon="17.970268473965">
        <ele>85.2</ele>
        <time>2017-11-20T18:58:31Z</time>
      </trkpt>
      <trkpt lat="62.633314321951" lon="17.970212231416">
        <ele>85</ele>
        <time>2017-11-20T18:58:32Z</time>
      </trkpt>
      <trkpt lat="62.633310633915" lon="17.970155066858">
        <ele>84.8</ele>
        <time>2017-11-20T18:58:33Z</time>
      </trkpt>
      <trkpt lat="62.633307281155" lon="17.970102260888">
        <ele>84.8</ele>
        <time>2017-11-20T18:58:34Z</time>
      </trkpt>
      <trkpt lat="62.63330518568" lon="17.970034786593">
        <ele>84.8</ele>
        <time>2017-11-20T18:58:35Z</time>
      </trkpt>
      <trkpt lat="62.633302838748" lon="17.969983573184">
        <ele>84.6</ele>
        <time>2017-11-20T18:58:36Z</time>
      </trkpt>
      <trkpt lat="62.633298396341" lon="17.969923977875">
        <ele>84.6</ele>
        <time>2017-11-20T18:58:37Z</time>
      </trkpt>
      <trkpt lat="62.633295546495" lon="17.969862622367">
        <ele>84.4</ele>
        <time>2017-11-20T18:58:38Z</time>
      </trkpt>
      <trkpt lat="62.63329428921" lon="17.969811408958">
        <ele>84.4</ele>
        <time>2017-11-20T18:58:39Z</time>
      </trkpt>
      <trkpt lat="62.63329093645" lon="17.969756507513">
        <ele>84.2</ele>
        <time>2017-11-20T18:58:40Z</time>
      </trkpt>
      <trkpt lat="62.633288338061" lon="17.969695319643">
        <ele>84.2</ele>
        <time>2017-11-20T18:58:41Z</time>
      </trkpt>
      <trkpt lat="62.633288338061" lon="17.969633796497">
        <ele>84.2</ele>
        <time>2017-11-20T18:58:42Z</time>
      </trkpt>
      <trkpt lat="62.633287835147" lon="17.969572524808">
        <ele>84</ele>
        <time>2017-11-20T18:58:43Z</time>
      </trkpt>
      <trkpt lat="62.633287499871" lon="17.969512510404">
        <ele>84</ele>
        <time>2017-11-20T18:58:44Z</time>
      </trkpt>
      <trkpt lat="62.633288589518" lon="17.969451154896">
        <ele>84</ele>
        <time>2017-11-20T18:58:45Z</time>
      </trkpt>
      <trkpt lat="62.63329009826" lon="17.969397510736">
        <ele>83.8</ele>
        <time>2017-11-20T18:58:46Z</time>
      </trkpt>
      <trkpt lat="62.633291020269" lon="17.969333053925">
        <ele>83.8</ele>
        <time>2017-11-20T18:58:47Z</time>
      </trkpt>
      <trkpt lat="62.633293534839" lon="17.969270189675">
        <ele>83.6</ele>
        <time>2017-11-20T18:58:48Z</time>
      </trkpt>
      <trkpt lat="62.633296468504" lon="17.969214869135">
        <ele>83.6</ele>
        <time>2017-11-20T18:58:49Z</time>
      </trkpt>
      <trkpt lat="62.633301078549" lon="17.969155860559">
        <ele>83.4</ele>
        <time>2017-11-20T18:58:50Z</time>
      </trkpt>
      <trkpt lat="62.633307281155" lon="17.969099953286">
        <ele>83.2</ele>
        <time>2017-11-20T18:58:51Z</time>
      </trkpt>
      <trkpt lat="62.633313986675" lon="17.969042788728">
        <ele>83</ele>
        <time>2017-11-20T18:58:52Z</time>
      </trkpt>
      <trkpt lat="62.633319937824" lon="17.9689831096">
        <ele>82.8</ele>
        <time>2017-11-20T18:58:53Z</time>
      </trkpt>
      <trkpt lat="62.633325553697" lon="17.968927369965">
        <ele>82.6</ele>
        <time>2017-11-20T18:58:54Z</time>
      </trkpt>
      <trkpt lat="62.633332762131" lon="17.968870121588">
        <ele>82.4</ele>
        <time>2017-11-20T18:58:55Z</time>
      </trkpt>
      <trkpt lat="62.633338378004" lon="17.968813962858">
        <ele>82.2</ele>
        <time>2017-11-20T18:58:56Z</time>
      </trkpt>
      <trkpt lat="62.633345167343" lon="17.968757887947">
        <ele>81.8</ele>
        <time>2017-11-20T18:58:57Z</time>
      </trkpt>
      <trkpt lat="62.633351621406" lon="17.968701561579">
        <ele>81.8</ele>
        <time>2017-11-20T18:58:58Z</time>
      </trkpt>
      <trkpt lat="62.633358243107" lon="17.968646408677">
        <ele>81.6</ele>
        <time>2017-11-20T18:58:59Z</time>
      </trkpt>
      <trkpt lat="62.633365786817" lon="17.96858832211">
        <ele>81.4</ele>
        <time>2017-11-20T18:59:00Z</time>
      </trkpt>
      <trkpt lat="62.633374671631" lon="17.968527553335">
        <ele>81.4</ele>
        <time>2017-11-20T18:59:01Z</time>
      </trkpt>
      <trkpt lat="62.633381796246" lon="17.968471729881">
        <ele>81.2</ele>
        <time>2017-11-20T18:59:02Z</time>
      </trkpt>
      <trkpt lat="62.633388920861" lon="17.968417918083">
        <ele>81.2</ele>
        <time>2017-11-20T18:59:03Z</time>
      </trkpt>
      <trkpt lat="62.633395626381" lon="17.968364441561">
        <ele>81</ele>
        <time>2017-11-20T18:59:04Z</time>
      </trkpt>
      <trkpt lat="62.633404175919" lon="17.968299398017">
        <ele>80.8</ele>
        <time>2017-11-20T18:59:05Z</time>
      </trkpt>
      <trkpt lat="62.633410965258" lon="17.968245167124">
        <ele>80.8</ele>
        <time>2017-11-20T18:59:06Z</time>
      </trkpt>
      <trkpt lat="62.633419933891" lon="17.968180626494">
        <ele>80.6</ele>
        <time>2017-11-20T18:59:07Z</time>
      </trkpt>
      <trkpt lat="62.63343007599" lon="17.96812145028">
        <ele>80.4</ele>
        <time>2017-11-20T18:59:08Z</time>
      </trkpt>
      <trkpt lat="62.633438290252" lon="17.96806780612">
        <ele>80.4</ele>
        <time>2017-11-20T18:59:09Z</time>
      </trkpt>
      <trkpt lat="62.633446755971" lon="17.968012569399">
        <ele>80</ele>
        <time>2017-11-20T18:59:10Z</time>
      </trkpt>
      <trkpt lat="62.633456646613" lon="17.967954482832">
        <ele>79.8</ele>
        <time>2017-11-20T18:59:11Z</time>
      </trkpt>
      <trkpt lat="62.63346444178" lon="17.967903101785">
        <ele>79.4</ele>
        <time>2017-11-20T18:59:12Z</time>
      </trkpt>
      <trkpt lat="62.63347030911" lon="17.967854319127">
        <ele>79</ele>
        <time>2017-11-20T18:59:13Z</time>
      </trkpt>
      <trkpt lat="62.63347701463" lon="17.967805285012">
        <ele>78.8</ele>
        <time>2017-11-20T18:59:14Z</time>
      </trkpt>
      <trkpt lat="62.63348455834" lon="17.967751976128">
        <ele>78.4</ele>
        <time>2017-11-20T18:59:15Z</time>
      </trkpt>
      <trkpt lat="62.63349126386" lon="17.967704953669">
        <ele>78.2</ele>
        <time>2017-11-20T18:59:16Z</time>
      </trkpt>
      <trkpt lat="62.633498053199" lon="17.967650052224">
        <ele>77.8</ele>
        <time>2017-11-20T18:59:17Z</time>
      </trkpt>
      <trkpt lat="62.63350551309" lon="17.967596659521">
        <ele>77.8</ele>
        <time>2017-11-20T18:59:18Z</time>
      </trkpt>
      <trkpt lat="62.633512553886" lon="17.967551229623">
        <ele>77.6</ele>
        <time>2017-11-20T18:59:19Z</time>
      </trkpt>
      <trkpt lat="62.633520432872" lon="17.967500016214">
        <ele>77.4</ele>
        <time>2017-11-20T18:59:20Z</time>
      </trkpt>
      <trkpt lat="62.633528730953" lon="17.967447126425">
        <ele>77.2</ele>
        <time>2017-11-20T18:59:21Z</time>
      </trkpt>
      <trkpt lat="62.633536693758" lon="17.967397170301">
        <ele>77</ele>
        <time>2017-11-20T18:59:22Z</time>
      </trkpt>
      <trkpt lat="62.633545578572" lon="17.967343190865">
        <ele>76.8</ele>
        <time>2017-11-20T18:59:23Z</time>
      </trkpt>
      <trkpt lat="62.633555469214" lon="17.967300778451">
        <ele>76.6</ele>
        <time>2017-11-20T18:59:24Z</time>
      </trkpt>
      <trkpt lat="62.633565527494" lon="17.967256857295">
        <ele>76.4</ele>
        <time>2017-11-20T18:59:25Z</time>
      </trkpt>
      <trkpt lat="62.633572652109" lon="17.967215283071">
        <ele>76.2</ele>
        <time>2017-11-20T18:59:26Z</time>
      </trkpt>
      <trkpt lat="62.633577010697" lon="17.967163147653">
        <ele>76</ele>
        <time>2017-11-20T18:59:27Z</time>
      </trkpt>
      <trkpt lat="62.633582207475" lon="17.967119477954">
        <ele>75.8</ele>
        <time>2017-11-20T18:59:28Z</time>
      </trkpt>
      <trkpt lat="62.633585727873" lon="17.967072287857">
        <ele>75.6</ele>
        <time>2017-11-20T18:59:29Z</time>
      </trkpt>
      <trkpt lat="62.633590840832" lon="17.967015710032">
        <ele>75.4</ele>
        <time>2017-11-20T18:59:30Z</time>
      </trkpt>
      <trkpt lat="62.633599222732" lon="17.966962149691">
        <ele>75.2</ele>
        <time>2017-11-20T18:59:31Z</time>
      </trkpt>
      <trkpt lat="62.633607856089" lon="17.966908086436">
        <ele>75</ele>
        <time>2017-11-20T18:59:32Z</time>
      </trkpt>
      <trkpt lat="62.633614813066" lon="17.966857292122">
        <ele>74.8</ele>
        <time>2017-11-20T18:59:33Z</time>
      </trkpt>
      <trkpt lat="62.633621937681" lon="17.966807252179">
        <ele>74.6</ele>
        <time>2017-11-20T18:59:34Z</time>
      </trkpt>
      <trkpt lat="62.633630571038" lon="17.966742711549">
        <ele>74.2</ele>
        <time>2017-11-20T18:59:35Z</time>
      </trkpt>
      <trkpt lat="62.63363543254" lon="17.966688732113">
        <ele>74</ele>
        <time>2017-11-20T18:59:36Z</time>
      </trkpt>
      <trkpt lat="62.633639288214" lon="17.966627628062">
        <ele>73.8</ele>
        <time>2017-11-20T18:59:37Z</time>
      </trkpt>
      <trkpt lat="62.633643982078" lon="17.966571385513">
        <ele>73.4</ele>
        <time>2017-11-20T18:59:38Z</time>
      </trkpt>
      <trkpt lat="62.633648508304" lon="17.966521261751">
        <ele>73.4</ele>
        <time>2017-11-20T18:59:39Z</time>
      </trkpt>
      <trkpt lat="62.633656806385" lon="17.966457894587">
        <ele>73.2</ele>
        <time>2017-11-20T18:59:40Z</time>
      </trkpt>
      <trkpt lat="62.633668205769" lon="17.966390420292">
        <ele>73</ele>
        <time>2017-11-20T18:59:41Z</time>
      </trkpt>
      <trkpt lat="62.63367734204" lon="17.966333171915">
        <ele>72.6</ele>
        <time>2017-11-20T18:59:42Z</time>
      </trkpt>
      <trkpt lat="62.63368656213" lon="17.966278689565">
        <ele>72.2</ele>
        <time>2017-11-20T18:59:43Z</time>
      </trkpt>
      <trkpt lat="62.633696285134" lon="17.966229320174">
        <ele>72</ele>
        <time>2017-11-20T18:59:44Z</time>
      </trkpt>
      <trkpt lat="62.633710115269" lon="17.966180034602">
        <ele>72</ele>
        <time>2017-11-20T18:59:45Z</time>
      </trkpt>
      <trkpt lat="62.633724364499" lon="17.966140723491">
        <ele>71.8</ele>
        <time>2017-11-20T18:59:46Z</time>
      </trkpt>
      <trkpt lat="62.633738949005" lon="17.966104681321">
        <ele>71.6</ele>
        <time>2017-11-20T18:59:47Z</time>
      </trkpt>
      <trkpt lat="62.633752443864" lon="17.966065956943">
        <ele>71.4</ele>
        <time>2017-11-20T18:59:48Z</time>
      </trkpt>
      <trkpt lat="62.633763927067" lon="17.966029998592">
        <ele>71.2</ele>
        <time>2017-11-20T18:59:49Z</time>
      </trkpt>
      <trkpt lat="62.633775913184" lon="17.965988340549">
        <ele>71.2</ele>
        <time>2017-11-20T18:59:50Z</time>
      </trkpt>
      <trkpt lat="62.633786893473" lon="17.96594802361">
        <ele>71</ele>
        <time>2017-11-20T18:59:51Z</time>
      </trkpt>
      <trkpt lat="62.633798544314" lon="17.96590527592">
        <ele>70.8</ele>
        <time>2017-11-20T18:59:52Z</time>
      </trkpt>
      <trkpt lat="62.6338064233" lon="17.965857415271">
        <ele>70.8</ele>
        <time>2017-11-20T18:59:53Z</time>
      </trkpt>
      <trkpt lat="62.633809943698" lon="17.965815170495">
        <ele>70.6</ele>
        <time>2017-11-20T18:59:54Z</time>
      </trkpt>
      <trkpt lat="62.633811200983" lon="17.965768818588">
        <ele>70.4</ele>
        <time>2017-11-20T18:59:55Z</time>
      </trkpt>
      <trkpt lat="62.633811620078" lon="17.965720455025">
        <ele>70.2</ele>
        <time>2017-11-20T18:59:56Z</time>
      </trkpt>
      <trkpt lat="62.633811536259" lon="17.965673013471">
        <ele>70</ele>
        <time>2017-11-20T18:59:57Z</time>
      </trkpt>
      <trkpt lat="62.633811200983" lon="17.965631103971">
        <ele>69.8</ele>
        <time>2017-11-20T18:59:58Z</time>
      </trkpt>
      <trkpt lat="62.633810027517" lon="17.965587685729">
        <ele>69.6</ele>
        <time>2017-11-20T18:59:59Z</time>
      </trkpt>
      <trkpt lat="62.633807177671" lon="17.965542926383">
        <ele>69.4</ele>
        <time>2017-11-20T19:00:00Z</time>
      </trkpt>
      <trkpt lat="62.633803321997" lon="17.965497999399">
        <ele>69.2</ele>
        <time>2017-11-20T19:00:01Z</time>
      </trkpt>
      <trkpt lat="62.633799633961" lon="17.965447540361">
        <ele>69.2</ele>
        <time>2017-11-20T19:00:02Z</time>
      </trkpt>
      <trkpt lat="62.633796113563" lon="17.965394902029">
        <ele>69</ele>
        <time>2017-11-20T19:00:03Z</time>
      </trkpt>
      <trkpt lat="62.633793263717" lon="17.965349639769">
        <ele>68.8</ele>
        <time>2017-11-20T19:00:04Z</time>
      </trkpt>
      <trkpt lat="62.633789994776" lon="17.96529172084">
        <ele>68.6</ele>
        <time>2017-11-20T19:00:05Z</time>
      </trkpt>
      <trkpt lat="62.633786558197" lon="17.965247129132">
        <ele>68.6</ele>
        <time>2017-11-20T19:00:06Z</time>
      </trkpt>
      <trkpt lat="62.633779014487" lon="17.965197927379">
        <ele>68.6</ele>
        <time>2017-11-20T19:00:07Z</time>
      </trkpt>
      <trkpt lat="62.633778427754" lon="17.965142355382">
        <ele>68.4</ele>
        <time>2017-11-20T19:00:08Z</time>
      </trkpt>
      <trkpt lat="62.633780187953" lon="17.965083179168">
        <ele>68.2</ele>
        <time>2017-11-20T19:00:09Z</time>
      </trkpt>
      <trkpt lat="62.633783373075" lon="17.965022997126">
        <ele>68.2</ele>
        <time>2017-11-20T19:00:10Z</time>
      </trkpt>
      <trkpt lat="62.633790162414" lon="17.964966251663">
        <ele>68.2</ele>
        <time>2017-11-20T19:00:11Z</time>
      </trkpt>
      <trkpt lat="62.633801729436" lon="17.964913780969">
        <ele>68.2</ele>
        <time>2017-11-20T19:00:12Z</time>
      </trkpt>
      <trkpt lat="62.633819415245" lon="17.964873547849">
        <ele>68</ele>
        <time>2017-11-20T19:00:13Z</time>
      </trkpt>
      <trkpt lat="62.633841794918" lon="17.964858208972">
        <ele>67.8</ele>
        <time>2017-11-20T19:00:14Z</time>
      </trkpt>
      <trkpt lat="62.633865683333" lon="17.96484915652">
        <ele>67.6</ele>
        <time>2017-11-20T19:00:15Z</time>
      </trkpt>
      <trkpt lat="62.633895187621" lon="17.96484496557">
        <ele>67</ele>
        <time>2017-11-20T19:00:16Z</time>
      </trkpt>
      <trkpt lat="62.633925111004" lon="17.964847647778">
        <ele>66.4</ele>
        <time>2017-11-20T19:00:17Z</time>
      </trkpt>
      <trkpt lat="62.63395478293" lon="17.964846809588">
        <ele>66.2</ele>
        <time>2017-11-20T19:00:18Z</time>
      </trkpt>
      <trkpt lat="62.6339824432" lon="17.964845552303">
        <ele>66</ele>
        <time>2017-11-20T19:00:19Z</time>
      </trkpt>
      <trkpt lat="62.634014964972" lon="17.964846306674">
        <ele>65.8</ele>
        <time>2017-11-20T19:00:20Z</time>
      </trkpt>
      <trkpt lat="62.634044888355" lon="17.964850078529">
        <ele>65.6</ele>
        <time>2017-11-20T19:00:21Z</time>
      </trkpt>
      <trkpt lat="62.634077242489" lon="17.964852676918">
        <ele>65.6</ele>
        <time>2017-11-20T19:00:22Z</time>
      </trkpt>
      <trkpt lat="62.63411068627" lon="17.964855359126">
        <ele>65.4</ele>
        <time>2017-11-20T19:00:23Z</time>
      </trkpt>
      <trkpt lat="62.634139352368" lon="17.964856281135">
        <ele>65.2</ele>
        <time>2017-11-20T19:00:24Z</time>
      </trkpt>
      <trkpt lat="62.634173466701" lon="17.964856784049">
        <ele>65.2</ele>
        <time>2017-11-20T19:00:25Z</time>
      </trkpt>
      <trkpt lat="62.634204144455" lon="17.964859550076">
        <ele>65</ele>
        <time>2017-11-20T19:00:26Z</time>
      </trkpt>
      <trkpt lat="62.634235744218" lon="17.964858711886">
        <ele>65</ele>
        <time>2017-11-20T19:00:27Z</time>
      </trkpt>
      <trkpt lat="62.634266086696" lon="17.964857706058">
        <ele>65</ele>
        <time>2017-11-20T19:00:28Z</time>
      </trkpt>
      <trkpt lat="62.634296932088" lon="17.964856951687">
        <ele>65</ele>
        <time>2017-11-20T19:00:29Z</time>
      </trkpt>
      <trkpt lat="62.634330711145" lon="17.964857706058">
        <ele>65.2</ele>
        <time>2017-11-20T19:00:30Z</time>
      </trkpt>
      <trkpt lat="62.63436214327" lon="17.964859717714">
        <ele>65.2</ele>
        <time>2017-11-20T19:00:31Z</time>
      </trkpt>
      <trkpt lat="62.634390138816" lon="17.964860388266">
        <ele>65.2</ele>
        <time>2017-11-20T19:00:32Z</time>
      </trkpt>
      <trkpt lat="62.634418804914" lon="17.964860220628">
        <ele>65.2</ele>
        <time>2017-11-20T19:00:33Z</time>
      </trkpt>
      <trkpt lat="62.634447722469" lon="17.964861477913">
        <ele>65</ele>
        <time>2017-11-20T19:00:34Z</time>
      </trkpt>
      <trkpt lat="62.634469934504" lon="17.964859801533">
        <ele>65</ele>
        <time>2017-11-20T19:00:35Z</time>
      </trkpt>
      <trkpt lat="62.634499103516" lon="17.96486089118">
        <ele>64.8</ele>
        <time>2017-11-20T19:00:36Z</time>
      </trkpt>
      <trkpt lat="62.634528859261" lon="17.964861226456">
        <ele>64.6</ele>
        <time>2017-11-20T19:00:37Z</time>
      </trkpt>
      <trkpt lat="62.63455492697" lon="17.964860304447">
        <ele>64.6</ele>
        <time>2017-11-20T19:00:38Z</time>
      </trkpt>
      <trkpt lat="62.63457923448" lon="17.964860220628">
        <ele>64.6</ele>
        <time>2017-11-20T19:00:39Z</time>
      </trkpt>
      <trkpt lat="62.634605972741" lon="17.964859298619">
        <ele>64.6</ele>
        <time>2017-11-20T19:00:40Z</time>
      </trkpt>
      <trkpt lat="62.634632627183" lon="17.96485586204">
        <ele>64.6</ele>
        <time>2017-11-20T19:00:41Z</time>
      </trkpt>
      <trkpt lat="62.634659784539" lon="17.964854856212">
        <ele>64.6</ele>
        <time>2017-11-20T19:00:42Z</time>
      </trkpt>
      <trkpt lat="62.634688534456" lon="17.964851587271">
        <ele>64.6</ele>
        <time>2017-11-20T19:00:43Z</time>
      </trkpt>
      <trkpt lat="62.63471418307" lon="17.964847647778">
        <ele>64.4</ele>
        <time>2017-11-20T19:00:44Z</time>
      </trkpt>
      <trkpt lat="62.634742932987" lon="17.964844630294">
        <ele>64.2</ele>
        <time>2017-11-20T19:00:45Z</time>
      </trkpt>
      <trkpt lat="62.634768916877" lon="17.964840104068">
        <ele>64.2</ele>
        <time>2017-11-20T19:00:46Z</time>
      </trkpt>
      <trkpt lat="62.634795906595" lon="17.96483574548">
        <ele>64</ele>
        <time>2017-11-20T19:00:47Z</time>
      </trkpt>
      <trkpt lat="62.634824069779" lon="17.964831303073">
        <ele>64</ele>
        <time>2017-11-20T19:00:48Z</time>
      </trkpt>
      <trkpt lat="62.63484996985" lon="17.964828117951">
        <ele>63.8</ele>
        <time>2017-11-20T19:00:49Z</time>
      </trkpt>
      <trkpt lat="62.634876959568" lon="17.964825351924">
        <ele>63.8</ele>
        <time>2017-11-20T19:00:50Z</time>
      </trkpt>
      <trkpt lat="62.634902524363" lon="17.964821831526">
        <ele>63.8</ele>
        <time>2017-11-20T19:00:51Z</time>
      </trkpt>
      <trkpt lat="62.634930016995" lon="17.964819316956">
        <ele>63.8</ele>
        <time>2017-11-20T19:00:52Z</time>
      </trkpt>
      <trkpt lat="62.634953821591" lon="17.964816299472">
        <ele>63.8</ele>
        <time>2017-11-20T19:00:53Z</time>
      </trkpt>
      <trkpt lat="62.634983158241" lon="17.964813868721">
        <ele>63.8</ele>
        <time>2017-11-20T19:00:54Z</time>
      </trkpt>
      <trkpt lat="62.635011153787" lon="17.964810935056">
        <ele>63.8</ele>
        <time>2017-11-20T19:00:55Z</time>
      </trkpt>
      <trkpt lat="62.635035628935" lon="17.96480557064">
        <ele>63.8</ele>
        <time>2017-11-20T19:00:56Z</time>
      </trkpt>
      <trkpt lat="62.635062534834" lon="17.964798781301">
        <ele>63.8</ele>
        <time>2017-11-20T19:00:57Z</time>
      </trkpt>
      <trkpt lat="62.635090027466" lon="17.964793081609">
        <ele>63.6</ele>
        <time>2017-11-20T19:00:58Z</time>
      </trkpt>
      <trkpt lat="62.635094888968" lon="17.964789980306">
        <ele>63.6</ele>
        <time>2017-11-20T19:00:59Z</time>
      </trkpt>
      <trkpt lat="62.635141240875" lon="17.964774306153">
        <ele>63.4</ele>
        <time>2017-11-20T19:01:00Z</time>
      </trkpt>
      <trkpt lat="62.635167392403" lon="17.96476533752">
        <ele>63.6</ele>
        <time>2017-11-20T19:01:01Z</time>
      </trkpt>
      <trkpt lat="62.63519446594" lon="17.964754524869">
        <ele>63.4</ele>
        <time>2017-11-20T19:01:02Z</time>
      </trkpt>
      <trkpt lat="62.635222042391" lon="17.964746226788">
        <ele>63.4</ele>
        <time>2017-11-20T19:01:03Z</time>
      </trkpt>
      <trkpt lat="62.635248445376" lon="17.964739688906">
        <ele>63.4</ele>
        <time>2017-11-20T19:01:04Z</time>
      </trkpt>
      <trkpt lat="62.635247858643" lon="17.964737593431">
        <ele>63.4</ele>
        <time>2017-11-20T19:01:05Z</time>
      </trkpt>
      <trkpt lat="62.635279458406" lon="17.964723679477">
        <ele>63.4</ele>
        <time>2017-11-20T19:01:06Z</time>
      </trkpt>
      <trkpt lat="62.635322541372" lon="17.964702976184">
        <ele>63.2</ele>
        <time>2017-11-20T19:01:07Z</time>
      </trkpt>
      <trkpt lat="62.635348273805" lon="17.964689397506">
        <ele>63</ele>
        <time>2017-11-20T19:01:08Z</time>
      </trkpt>
      <trkpt lat="62.635371994582" lon="17.964680261235">
        <ele>63</ele>
        <time>2017-11-20T19:01:09Z</time>
      </trkpt>
      <trkpt lat="62.635396553549" lon="17.964671124964">
        <ele>63</ele>
        <time>2017-11-20T19:01:10Z</time>
      </trkpt>
      <trkpt lat="62.635423543267" lon="17.964659474123">
        <ele>62.8</ele>
        <time>2017-11-20T19:01:11Z</time>
      </trkpt>
      <trkpt lat="62.63544843751" lon="17.964643632332">
        <ele>62.8</ele>
        <time>2017-11-20T19:01:12Z</time>
      </trkpt>
      <trkpt lat="62.635472493563" lon="17.964628796369">
        <ele>62.8</ele>
        <time>2017-11-20T19:01:13Z</time>
      </trkpt>
      <trkpt lat="62.635497639263" lon="17.964615133872">
        <ele>62.6</ele>
        <time>2017-11-20T19:01:14Z</time>
      </trkpt>
      <trkpt lat="62.635525131895" lon="17.964595687864">
        <ele>62.6</ele>
        <time>2017-11-20T19:01:15Z</time>
      </trkpt>
      <trkpt lat="62.635548685034" lon="17.964580348987">
        <ele>62.4</ele>
        <time>2017-11-20T19:01:16Z</time>
      </trkpt>
      <trkpt lat="62.635575758571" lon="17.964567859956">
        <ele>62.4</ele>
        <time>2017-11-20T19:01:17Z</time>
      </trkpt>
      <trkpt lat="62.6356001499" lon="17.964554448916">
        <ele>62.4</ele>
        <time>2017-11-20T19:01:18Z</time>
      </trkpt>
      <trkpt lat="62.63562110465" lon="17.964539529134">
        <ele>62.4</ele>
        <time>2017-11-20T19:01:19Z</time>
      </trkpt>
      <trkpt lat="62.635647675273" lon="17.964523603524">
        <ele>62.4</ele>
        <time>2017-11-20T19:01:20Z</time>
      </trkpt>
      <trkpt lat="62.635670306403" lon="17.964510360122">
        <ele>62.4</ele>
        <time>2017-11-20T19:01:21Z</time>
      </trkpt>
      <trkpt lat="62.635692937533" lon="17.964496446168">
        <ele>62.2</ele>
        <time>2017-11-20T19:01:22Z</time>
      </trkpt>
      <trkpt lat="62.6357174965" lon="17.964479850006">
        <ele>62.2</ele>
        <time>2017-11-20T19:01:23Z</time>
      </trkpt>
      <trkpt lat="62.635739205621" lon="17.964463170025">
        <ele>62.2</ele>
        <time>2017-11-20T19:01:24Z</time>
      </trkpt>
      <trkpt lat="62.63576275876" lon="17.964447998786">
        <ele>62</ele>
        <time>2017-11-20T19:01:25Z</time>
      </trkpt>
      <trkpt lat="62.63578706627" lon="17.964426289665">
        <ele>62</ele>
        <time>2017-11-20T19:01:26Z</time>
      </trkpt>
      <trkpt lat="62.635810200314" lon="17.964401730698">
        <ele>62</ele>
        <time>2017-11-20T19:01:27Z</time>
      </trkpt>
      <trkpt lat="62.635831574159" lon="17.9643814465">
        <ele>62</ele>
        <time>2017-11-20T19:01:28Z</time>
      </trkpt>
      <trkpt lat="62.635855714031" lon="17.964361581397">
        <ele>62</ele>
        <time>2017-11-20T19:01:29Z</time>
      </trkpt>
      <trkpt lat="62.635880356817" lon="17.964338447353">
        <ele>62</ele>
        <time>2017-11-20T19:01:30Z</time>
      </trkpt>
      <trkpt lat="62.635902568852" lon="17.96431271492">
        <ele>62</ele>
        <time>2017-11-20T19:01:31Z</time>
      </trkpt>
      <trkpt lat="62.635926121991" lon="17.964287401582">
        <ele>62</ele>
        <time>2017-11-20T19:01:32Z</time>
      </trkpt>
      <trkpt lat="62.635948669302" lon="17.964267536479">
        <ele>61.8</ele>
        <time>2017-11-20T19:01:33Z</time>
      </trkpt>
      <trkpt lat="62.635970713699" lon="17.964252868154">
        <ele>61.8</ele>
        <time>2017-11-20T19:01:34Z</time>
      </trkpt>
      <trkpt lat="62.635974653192" lon="17.964245575901">
        <ele>61.8</ele>
        <time>2017-11-20T19:01:35Z</time>
      </trkpt>
      <trkpt lat="62.636003654566" lon="17.964220011106">
        <ele>61.8</ele>
        <time>2017-11-20T19:01:36Z</time>
      </trkpt>
      <trkpt lat="62.636046234618" lon="17.964170893172">
        <ele>61.8</ele>
        <time>2017-11-20T19:01:37Z</time>
      </trkpt>
      <trkpt lat="62.636069787757" lon="17.96414591511">
        <ele>61.8</ele>
        <time>2017-11-20T19:01:38Z</time>
      </trkpt>
      <trkpt lat="62.636089736679" lon="17.964123032523">
        <ele>61.6</ele>
        <time>2017-11-20T19:01:39Z</time>
      </trkpt>
      <trkpt lat="62.636113373637" lon="17.964097803004">
        <ele>61.8</ele>
        <time>2017-11-20T19:01:40Z</time>
      </trkpt>
      <trkpt lat="62.636137848785" lon="17.964071148562">
        <ele>61.8</ele>
        <time>2017-11-20T19:01:41Z</time>
      </trkpt>
      <trkpt lat="62.63615838444" lon="17.964040889903">
        <ele>61.6</ele>
        <time>2017-11-20T19:01:42Z</time>
      </trkpt>
      <trkpt lat="62.63618017738" lon="17.964013313452">
        <ele>61.6</ele>
        <time>2017-11-20T19:01:43Z</time>
      </trkpt>
      <trkpt lat="62.636201215949" lon="17.96398833539">
        <ele>61.6</ele>
        <time>2017-11-20T19:01:44Z</time>
      </trkpt>
      <trkpt lat="62.636222338337" lon="17.963961010396">
        <ele>61.6</ele>
        <time>2017-11-20T19:01:45Z</time>
      </trkpt>
      <trkpt lat="62.636241113793" lon="17.963933517764">
        <ele>61.4</ele>
        <time>2017-11-20T19:01:46Z</time>
      </trkpt>
      <trkpt lat="62.636262487638" lon="17.963904013476">
        <ele>61.4</ele>
        <time>2017-11-20T19:01:47Z</time>
      </trkpt>
      <trkpt lat="62.636281849827" lon="17.96387769431">
        <ele>61.4</ele>
        <time>2017-11-20T19:01:48Z</time>
      </trkpt>
      <trkpt lat="62.636301295835" lon="17.963852716248">
        <ele>61.4</ele>
        <time>2017-11-20T19:01:49Z</time>
      </trkpt>
      <trkpt lat="62.63632183149" lon="17.963822876684">
        <ele>61.2</ele>
        <time>2017-11-20T19:01:50Z</time>
      </trkpt>
      <trkpt lat="62.6363377571" lon="17.963793120939">
        <ele>61.2</ele>
        <time>2017-11-20T19:01:51Z</time>
      </trkpt>
      <trkpt lat="62.636357119289" lon="17.963760934443">
        <ele>61</ele>
        <time>2017-11-20T19:01:52Z</time>
      </trkpt>
      <trkpt lat="62.63637799022" lon="17.963734531458">
        <ele>61</ele>
        <time>2017-11-20T19:01:53Z</time>
      </trkpt>
      <trkpt lat="62.636395173115" lon="17.963710810681">
        <ele>61</ele>
        <time>2017-11-20T19:01:54Z</time>
      </trkpt>
      <trkpt lat="62.63641487058" lon="17.963686419352">
        <ele>61</ele>
        <time>2017-11-20T19:01:55Z</time>
      </trkpt>
      <trkpt lat="62.63643414895" lon="17.963678121271">
        <ele>61</ele>
        <time>2017-11-20T19:01:56Z</time>
      </trkpt>
      <trkpt lat="62.636454181691" lon="17.963675187606">
        <ele>61</ele>
        <time>2017-11-20T19:01:57Z</time>
      </trkpt>
      <trkpt lat="62.63647270569" lon="17.963671834846">
        <ele>60.8</ele>
        <time>2017-11-20T19:01:58Z</time>
      </trkpt>
      <trkpt lat="62.635661589227" lon="17.915268960735">
        <ele>43.6</ele>
        <time>2017-11-20T19:11:50Z</time>
      </trkpt>
      <trkpt lat="62.635647423816" lon="17.915289664028">
        <ele>43.8</ele>
        <time>2017-11-20T19:11:51Z</time>
      </trkpt>
      <trkpt lat="62.635638371364" lon="17.915302991249">
        <ele>43.8</ele>
        <time>2017-11-20T19:11:52Z</time>
      </trkpt>
      <trkpt lat="62.635631665844" lon="17.915303242706">
        <ele>44</ele>
        <time>2017-11-20T19:11:53Z</time>
      </trkpt>
      <trkpt lat="62.635634683328" lon="17.915302404516">
        <ele>44</ele>
        <time>2017-11-20T19:11:54Z</time>
      </trkpt>
    </trkseg>
  </trk>
</gpx>